<?xml version="1.0" encoding="UTF-8" standalone="no" ?>
<gpx xmlns="http://www.topografix.com/GPX/1/1" xmlns:xsi="http://www.w3.org/2001/XMLSchema-instance" xsi:schemaLocation="http://www.topografix.com/GPX/1/1 http://www.topografix.com/GPX/1/1/gpx.xsd" version="1.1" creator="VisuGPX - https://www.visugpx.com">
  <metadata>
    <name>Roc d'Azur 2017</name>
  </metadata>
  <trk>
    <name><![CDATA[Roc d'Azur]]></name>
    <trkseg>
      <trkpt lat="43.41638" lon="6.73606">
        <ele>1.8</ele>
        <time>2017-10-08T08:31:30Z</time>
      </trkpt>
      <trkpt lat="43.41622" lon="6.73571">
        <ele>-0.4</ele>
        <time>2017-10-08T08:31:38Z</time>
      </trkpt>
      <trkpt lat="43.41617" lon="6.73543">
        <ele>-2</ele>
        <time>2017-10-08T08:31:43Z</time>
      </trkpt>
      <trkpt lat="43.4162" lon="6.73537">
        <ele>-1.6</ele>
        <time>2017-10-08T08:31:44Z</time>
      </trkpt>
      <trkpt lat="43.41632" lon="6.73505">
        <ele>1.3</ele>
        <time>2017-10-08T08:31:50Z</time>
      </trkpt>
      <trkpt lat="43.41641" lon="6.73494">
        <ele>2.2</ele>
        <time>2017-10-08T08:31:53Z</time>
      </trkpt>
      <trkpt lat="43.41652" lon="6.73484">
        <ele>2.4</ele>
        <time>2017-10-08T08:31:56Z</time>
      </trkpt>
      <trkpt lat="43.41686" lon="6.73449">
        <ele>0.8</ele>
        <time>2017-10-08T08:32:06Z</time>
      </trkpt>
      <trkpt lat="43.41703" lon="6.73433">
        <ele>-0.9</ele>
        <time>2017-10-08T08:32:11Z</time>
      </trkpt>
      <trkpt lat="43.41716" lon="6.73419">
        <ele>-1.9</ele>
        <time>2017-10-08T08:32:15Z</time>
      </trkpt>
      <trkpt lat="43.41723" lon="6.73411">
        <ele>-2</ele>
        <time>2017-10-08T08:32:17Z</time>
      </trkpt>
      <trkpt lat="43.41744" lon="6.7338">
        <ele>0.2</ele>
        <time>2017-10-08T08:32:24Z</time>
      </trkpt>
      <trkpt lat="43.41755" lon="6.73348">
        <ele>1</ele>
        <time>2017-10-08T08:32:30Z</time>
      </trkpt>
      <trkpt lat="43.41757" lon="6.73342">
        <ele>0.8</ele>
        <time>2017-10-08T08:32:31Z</time>
      </trkpt>
      <trkpt lat="43.41758" lon="6.73319">
        <ele>0.4</ele>
        <time>2017-10-08T08:32:35Z</time>
      </trkpt>
      <trkpt lat="43.41756" lon="6.73279">
        <ele>1.2</ele>
        <time>2017-10-08T08:32:42Z</time>
      </trkpt>
      <trkpt lat="43.41747" lon="6.73227">
        <ele>3.9</ele>
        <time>2017-10-08T08:32:51Z</time>
      </trkpt>
      <trkpt lat="43.41742" lon="6.73205">
        <ele>3.5</ele>
        <time>2017-10-08T08:32:55Z</time>
      </trkpt>
      <trkpt lat="43.41733" lon="6.73172">
        <ele>2</ele>
        <time>2017-10-08T08:33:01Z</time>
      </trkpt>
      <trkpt lat="43.4172" lon="6.73124">
        <ele>0.3</ele>
        <time>2017-10-08T08:33:10Z</time>
      </trkpt>
      <trkpt lat="43.41709" lon="6.73069">
        <ele>0.3</ele>
        <time>2017-10-08T08:33:20Z</time>
      </trkpt>
      <trkpt lat="43.41698" lon="6.73026">
        <ele>1.9</ele>
        <time>2017-10-08T08:33:28Z</time>
      </trkpt>
      <trkpt lat="43.41694" lon="6.73009">
        <ele>2.5</ele>
        <time>2017-10-08T08:33:31Z</time>
      </trkpt>
      <trkpt lat="43.41684" lon="6.72971">
        <ele>2</ele>
        <time>2017-10-08T08:33:38Z</time>
      </trkpt>
      <trkpt lat="43.41672" lon="6.72914">
        <ele>3.8</ele>
        <time>2017-10-08T08:33:48Z</time>
      </trkpt>
      <trkpt lat="43.41658" lon="6.72852">
        <ele>6</ele>
        <time>2017-10-08T08:33:59Z</time>
      </trkpt>
      <trkpt lat="43.4165" lon="6.72832">
        <ele>5.3</ele>
        <time>2017-10-08T08:34:03Z</time>
      </trkpt>
      <trkpt lat="43.41643" lon="6.72824">
        <ele>4.9</ele>
        <time>2017-10-08T08:34:05Z</time>
      </trkpt>
      <trkpt lat="43.41635" lon="6.72817">
        <ele>4.6</ele>
        <time>2017-10-08T08:34:07Z</time>
      </trkpt>
      <trkpt lat="43.41622" lon="6.72813">
        <ele>4.1</ele>
        <time>2017-10-08T08:34:10Z</time>
      </trkpt>
      <trkpt lat="43.41607" lon="6.72813">
        <ele>4.3</ele>
        <time>2017-10-08T08:34:13Z</time>
      </trkpt>
      <trkpt lat="43.41592" lon="6.72815">
        <ele>4.5</ele>
        <time>2017-10-08T08:34:16Z</time>
      </trkpt>
      <trkpt lat="43.41583" lon="6.72819">
        <ele>4.6</ele>
        <time>2017-10-08T08:34:18Z</time>
      </trkpt>
      <trkpt lat="43.41578" lon="6.72821">
        <ele>4.6</ele>
        <time>2017-10-08T08:34:19Z</time>
      </trkpt>
      <trkpt lat="43.41565" lon="6.7283">
        <ele>4.8</ele>
        <time>2017-10-08T08:34:22Z</time>
      </trkpt>
      <trkpt lat="43.41552" lon="6.72838">
        <ele>5</ele>
        <time>2017-10-08T08:34:25Z</time>
      </trkpt>
      <trkpt lat="43.41533" lon="6.72848">
        <ele>5</ele>
        <time>2017-10-08T08:34:29Z</time>
      </trkpt>
      <trkpt lat="43.4152" lon="6.72856">
        <ele>5</ele>
        <time>2017-10-08T08:34:32Z</time>
      </trkpt>
      <trkpt lat="43.41512" lon="6.72864">
        <ele>5.1</ele>
        <time>2017-10-08T08:34:34Z</time>
      </trkpt>
      <trkpt lat="43.41499" lon="6.72882">
        <ele>5.3</ele>
        <time>2017-10-08T08:34:38Z</time>
      </trkpt>
      <trkpt lat="43.41493" lon="6.72892">
        <ele>5.4</ele>
        <time>2017-10-08T08:34:40Z</time>
      </trkpt>
      <trkpt lat="43.41466" lon="6.7293">
        <ele>5</ele>
        <time>2017-10-08T08:34:48Z</time>
      </trkpt>
      <trkpt lat="43.41457" lon="6.72944">
        <ele>4.8</ele>
        <time>2017-10-08T08:34:51Z</time>
      </trkpt>
      <trkpt lat="43.41451" lon="6.72954">
        <ele>4.8</ele>
        <time>2017-10-08T08:34:53Z</time>
      </trkpt>
      <trkpt lat="43.41448" lon="6.72959">
        <ele>4.9</ele>
        <time>2017-10-08T08:34:54Z</time>
      </trkpt>
      <trkpt lat="43.41432" lon="6.72978">
        <ele>5</ele>
        <time>2017-10-08T08:34:59Z</time>
      </trkpt>
      <trkpt lat="43.41422" lon="6.72993">
        <ele>5</ele>
        <time>2017-10-08T08:35:02Z</time>
      </trkpt>
      <trkpt lat="43.41415" lon="6.73005">
        <ele>4.9</ele>
        <time>2017-10-08T08:35:04Z</time>
      </trkpt>
      <trkpt lat="43.41392" lon="6.73041">
        <ele>4.8</ele>
        <time>2017-10-08T08:35:09Z</time>
      </trkpt>
      <trkpt lat="43.41366" lon="6.73074">
        <ele>4.7</ele>
        <time>2017-10-08T08:35:15Z</time>
      </trkpt>
      <trkpt lat="43.41347" lon="6.73098">
        <ele>4.5</ele>
        <time>2017-10-08T08:35:20Z</time>
      </trkpt>
      <trkpt lat="43.41344" lon="6.73104">
        <ele>4.5</ele>
        <time>2017-10-08T08:35:21Z</time>
      </trkpt>
      <trkpt lat="43.41333" lon="6.73126">
        <ele>4.3</ele>
        <time>2017-10-08T08:35:25Z</time>
      </trkpt>
      <trkpt lat="43.41331" lon="6.73139">
        <ele>4.3</ele>
        <time>2017-10-08T08:35:27Z</time>
      </trkpt>
      <trkpt lat="43.41326" lon="6.73165">
        <ele>4.1</ele>
        <time>2017-10-08T08:35:31Z</time>
      </trkpt>
      <trkpt lat="43.41323" lon="6.73169">
        <ele>4</ele>
        <time>2017-10-08T08:35:32Z</time>
      </trkpt>
      <trkpt lat="43.41319" lon="6.73172">
        <ele>3.9</ele>
        <time>2017-10-08T08:35:33Z</time>
      </trkpt>
      <trkpt lat="43.41309" lon="6.73174">
        <ele>3.8</ele>
        <time>2017-10-08T08:35:35Z</time>
      </trkpt>
      <trkpt lat="43.413" lon="6.73176">
        <ele>3.6</ele>
        <time>2017-10-08T08:35:37Z</time>
      </trkpt>
      <trkpt lat="43.41293" lon="6.73183">
        <ele>3.5</ele>
        <time>2017-10-08T08:35:39Z</time>
      </trkpt>
      <trkpt lat="43.4128" lon="6.73195">
        <ele>3.2</ele>
        <time>2017-10-08T08:35:42Z</time>
      </trkpt>
      <trkpt lat="43.41271" lon="6.732">
        <ele>3</ele>
        <time>2017-10-08T08:35:44Z</time>
      </trkpt>
      <trkpt lat="43.41251" lon="6.73196">
        <ele>2.9</ele>
        <time>2017-10-08T08:35:48Z</time>
      </trkpt>
      <trkpt lat="43.41246" lon="6.73194">
        <ele>2.9</ele>
        <time>2017-10-08T08:35:49Z</time>
      </trkpt>
      <trkpt lat="43.41243" lon="6.73192">
        <ele>2.8</ele>
        <time>2017-10-08T08:35:50Z</time>
      </trkpt>
      <trkpt lat="43.41236" lon="6.73191">
        <ele>2.8</ele>
        <time>2017-10-08T08:35:52Z</time>
      </trkpt>
      <trkpt lat="43.41223" lon="6.73194">
        <ele>2.9</ele>
        <time>2017-10-08T08:35:56Z</time>
      </trkpt>
      <trkpt lat="43.41218" lon="6.73188">
        <ele>3</ele>
        <time>2017-10-08T08:35:59Z</time>
      </trkpt>
      <trkpt lat="43.41214" lon="6.73183">
        <ele>3</ele>
        <time>2017-10-08T08:36:02Z</time>
      </trkpt>
      <trkpt lat="43.41211" lon="6.73178">
        <ele>3</ele>
        <time>2017-10-08T08:36:04Z</time>
      </trkpt>
      <trkpt lat="43.41206" lon="6.73171">
        <ele>2.6</ele>
        <time>2017-10-08T08:36:09Z</time>
      </trkpt>
      <trkpt lat="43.41205" lon="6.7317">
        <ele>2.6</ele>
        <time>2017-10-08T08:36:10Z</time>
      </trkpt>
      <trkpt lat="43.41199" lon="6.73162">
        <ele>2.3</ele>
        <time>2017-10-08T08:36:17Z</time>
      </trkpt>
      <trkpt lat="43.41194" lon="6.73157">
        <ele>2</ele>
        <time>2017-10-08T08:36:23Z</time>
      </trkpt>
      <trkpt lat="43.41187" lon="6.73147">
        <ele>1.7</ele>
        <time>2017-10-08T08:36:31Z</time>
      </trkpt>
      <trkpt lat="43.41179" lon="6.73137">
        <ele>1.8</ele>
        <time>2017-10-08T08:36:39Z</time>
      </trkpt>
      <trkpt lat="43.41173" lon="6.73127">
        <ele>2</ele>
        <time>2017-10-08T08:36:45Z</time>
      </trkpt>
      <trkpt lat="43.41174" lon="6.73126">
        <ele>2</ele>
        <time>2017-10-08T08:36:46Z</time>
      </trkpt>
      <trkpt lat="43.41177" lon="6.73116">
        <ele>2</ele>
        <time>2017-10-08T08:36:52Z</time>
      </trkpt>
      <trkpt lat="43.41179" lon="6.73112">
        <ele>2</ele>
        <time>2017-10-08T08:36:54Z</time>
      </trkpt>
      <trkpt lat="43.41183" lon="6.73106">
        <ele>1.9</ele>
        <time>2017-10-08T08:36:57Z</time>
      </trkpt>
      <trkpt lat="43.41191" lon="6.73104">
        <ele>1.9</ele>
        <time>2017-10-08T08:37:00Z</time>
      </trkpt>
      <trkpt lat="43.41197" lon="6.73102">
        <ele>1.8</ele>
        <time>2017-10-08T08:37:03Z</time>
      </trkpt>
      <trkpt lat="43.41206" lon="6.73088">
        <ele>1.4</ele>
        <time>2017-10-08T08:37:07Z</time>
      </trkpt>
      <trkpt lat="43.4121" lon="6.73084">
        <ele>1.3</ele>
        <time>2017-10-08T08:37:08Z</time>
      </trkpt>
      <trkpt lat="43.41213" lon="6.73079">
        <ele>1.2</ele>
        <time>2017-10-08T08:37:09Z</time>
      </trkpt>
      <trkpt lat="43.41233" lon="6.73054">
        <ele>0.9</ele>
        <time>2017-10-08T08:37:15Z</time>
      </trkpt>
      <trkpt lat="43.41259" lon="6.73022">
        <ele>2.6</ele>
        <time>2017-10-08T08:37:23Z</time>
      </trkpt>
      <trkpt lat="43.41275" lon="6.73002">
        <ele>3.4</ele>
        <time>2017-10-08T08:37:28Z</time>
      </trkpt>
      <trkpt lat="43.41297" lon="6.72974">
        <ele>4</ele>
        <time>2017-10-08T08:37:35Z</time>
      </trkpt>
      <trkpt lat="43.41326" lon="6.72936">
        <ele>3.4</ele>
        <time>2017-10-08T08:37:44Z</time>
      </trkpt>
      <trkpt lat="43.41353" lon="6.72901">
        <ele>2.1</ele>
        <time>2017-10-08T08:37:52Z</time>
      </trkpt>
      <trkpt lat="43.41359" lon="6.72893">
        <ele>1.7</ele>
        <time>2017-10-08T08:37:54Z</time>
      </trkpt>
      <trkpt lat="43.41389" lon="6.72853">
        <ele>3.2</ele>
        <time>2017-10-08T08:38:03Z</time>
      </trkpt>
      <trkpt lat="43.41419" lon="6.72814">
        <ele>4.5</ele>
        <time>2017-10-08T08:38:12Z</time>
      </trkpt>
      <trkpt lat="43.41449" lon="6.72772">
        <ele>7</ele>
        <time>2017-10-08T08:38:22Z</time>
      </trkpt>
      <trkpt lat="43.41477" lon="6.72736">
        <ele>6.6</ele>
        <time>2017-10-08T08:38:31Z</time>
      </trkpt>
      <trkpt lat="43.41482" lon="6.72728">
        <ele>6.2</ele>
        <time>2017-10-08T08:38:33Z</time>
      </trkpt>
      <trkpt lat="43.41484" lon="6.72715">
        <ele>5.5</ele>
        <time>2017-10-08T08:38:35Z</time>
      </trkpt>
      <trkpt lat="43.41487" lon="6.727">
        <ele>4.7</ele>
        <time>2017-10-08T08:38:37Z</time>
      </trkpt>
      <trkpt lat="43.41494" lon="6.72687">
        <ele>4.8</ele>
        <time>2017-10-08T08:38:39Z</time>
      </trkpt>
      <trkpt lat="43.41498" lon="6.72682">
        <ele>4.8</ele>
        <time>2017-10-08T08:38:40Z</time>
      </trkpt>
      <trkpt lat="43.4151" lon="6.72668">
        <ele>4.2</ele>
        <time>2017-10-08T08:38:43Z</time>
      </trkpt>
      <trkpt lat="43.41518" lon="6.72652">
        <ele>3.8</ele>
        <time>2017-10-08T08:38:47Z</time>
      </trkpt>
      <trkpt lat="43.41507" lon="6.72646">
        <ele>5.2</ele>
        <time>2017-10-08T08:38:50Z</time>
      </trkpt>
      <trkpt lat="43.41502" lon="6.72645">
        <ele>5.5</ele>
        <time>2017-10-08T08:38:51Z</time>
      </trkpt>
      <trkpt lat="43.41491" lon="6.72642">
        <ele>5.2</ele>
        <time>2017-10-08T08:38:53Z</time>
      </trkpt>
      <trkpt lat="43.41476" lon="6.72633">
        <ele>3.8</ele>
        <time>2017-10-08T08:38:56Z</time>
      </trkpt>
      <trkpt lat="43.41456" lon="6.72624">
        <ele>2.2</ele>
        <time>2017-10-08T08:39:00Z</time>
      </trkpt>
      <trkpt lat="43.41442" lon="6.72616">
        <ele>1.6</ele>
        <time>2017-10-08T08:39:03Z</time>
      </trkpt>
      <trkpt lat="43.41433" lon="6.72603">
        <ele>1.7</ele>
        <time>2017-10-08T08:39:06Z</time>
      </trkpt>
      <trkpt lat="43.41431" lon="6.72597">
        <ele>1.8</ele>
        <time>2017-10-08T08:39:07Z</time>
      </trkpt>
      <trkpt lat="43.41427" lon="6.72585">
        <ele>2</ele>
        <time>2017-10-08T08:39:09Z</time>
      </trkpt>
      <trkpt lat="43.41418" lon="6.72566">
        <ele>2.3</ele>
        <time>2017-10-08T08:39:12Z</time>
      </trkpt>
      <trkpt lat="43.41403" lon="6.72527">
        <ele>2.6</ele>
        <time>2017-10-08T08:39:18Z</time>
      </trkpt>
      <trkpt lat="43.414" lon="6.72521">
        <ele>2.6</ele>
        <time>2017-10-08T08:39:19Z</time>
      </trkpt>
      <trkpt lat="43.41391" lon="6.72506">
        <ele>2.2</ele>
        <time>2017-10-08T08:39:22Z</time>
      </trkpt>
      <trkpt lat="43.41378" lon="6.72487">
        <ele>0.9</ele>
        <time>2017-10-08T08:39:26Z</time>
      </trkpt>
      <trkpt lat="43.41367" lon="6.72474">
        <ele>0.4</ele>
        <time>2017-10-08T08:39:29Z</time>
      </trkpt>
      <trkpt lat="43.41353" lon="6.72463">
        <ele>0.6</ele>
        <time>2017-10-08T08:39:32Z</time>
      </trkpt>
      <trkpt lat="43.41336" lon="6.72453">
        <ele>0.6</ele>
        <time>2017-10-08T08:39:36Z</time>
      </trkpt>
      <trkpt lat="43.41322" lon="6.72453">
        <ele>1.2</ele>
        <time>2017-10-08T08:39:39Z</time>
      </trkpt>
      <trkpt lat="43.41313" lon="6.72455">
        <ele>1.6</ele>
        <time>2017-10-08T08:39:41Z</time>
      </trkpt>
      <trkpt lat="43.41279" lon="6.7247">
        <ele>2.5</ele>
        <time>2017-10-08T08:39:49Z</time>
      </trkpt>
      <trkpt lat="43.41274" lon="6.72472">
        <ele>2.6</ele>
        <time>2017-10-08T08:39:50Z</time>
      </trkpt>
      <trkpt lat="43.41257" lon="6.72473">
        <ele>3.2</ele>
        <time>2017-10-08T08:39:54Z</time>
      </trkpt>
      <trkpt lat="43.41255" lon="6.72473">
        <ele>3.4</ele>
        <time>2017-10-08T08:39:55Z</time>
      </trkpt>
      <trkpt lat="43.41249" lon="6.72474">
        <ele>3.7</ele>
        <time>2017-10-08T08:39:58Z</time>
      </trkpt>
      <trkpt lat="43.41238" lon="6.72474">
        <ele>4</ele>
        <time>2017-10-08T08:40:04Z</time>
      </trkpt>
      <trkpt lat="43.41226" lon="6.72473">
        <ele>3.7</ele>
        <time>2017-10-08T08:40:10Z</time>
      </trkpt>
      <trkpt lat="43.4121" lon="6.72471">
        <ele>3.1</ele>
        <time>2017-10-08T08:40:27Z</time>
      </trkpt>
      <trkpt lat="43.41205" lon="6.72468">
        <ele>3</ele>
        <time>2017-10-08T08:40:31Z</time>
      </trkpt>
      <trkpt lat="43.41189" lon="6.72464">
        <ele>3.5</ele>
        <time>2017-10-08T08:40:46Z</time>
      </trkpt>
      <trkpt lat="43.41187" lon="6.72463">
        <ele>3.5</ele>
        <time>2017-10-08T08:40:47Z</time>
      </trkpt>
      <trkpt lat="43.41182" lon="6.72458">
        <ele>3.8</ele>
        <time>2017-10-08T08:40:51Z</time>
      </trkpt>
      <trkpt lat="43.41175" lon="6.72454">
        <ele>3.6</ele>
        <time>2017-10-08T08:40:55Z</time>
      </trkpt>
      <trkpt lat="43.4117" lon="6.72454">
        <ele>3.5</ele>
        <time>2017-10-08T08:40:58Z</time>
      </trkpt>
      <trkpt lat="43.4116" lon="6.72461">
        <ele>3.3</ele>
        <time>2017-10-08T08:41:03Z</time>
      </trkpt>
      <trkpt lat="43.41152" lon="6.72463">
        <ele>3.2</ele>
        <time>2017-10-08T08:41:07Z</time>
      </trkpt>
      <trkpt lat="43.41137" lon="6.72457">
        <ele>2.8</ele>
        <time>2017-10-08T08:41:11Z</time>
      </trkpt>
      <trkpt lat="43.41106" lon="6.72447">
        <ele>3</ele>
        <time>2017-10-08T08:41:18Z</time>
      </trkpt>
      <trkpt lat="43.41084" lon="6.72438">
        <ele>2.8</ele>
        <time>2017-10-08T08:41:24Z</time>
      </trkpt>
      <trkpt lat="43.41073" lon="6.72435">
        <ele>2.6</ele>
        <time>2017-10-08T08:41:28Z</time>
      </trkpt>
      <trkpt lat="43.4107" lon="6.72436">
        <ele>2.6</ele>
        <time>2017-10-08T08:41:29Z</time>
      </trkpt>
      <trkpt lat="43.41063" lon="6.72438">
        <ele>2.5</ele>
        <time>2017-10-08T08:41:32Z</time>
      </trkpt>
      <trkpt lat="43.4106" lon="6.72436">
        <ele>2.4</ele>
        <time>2017-10-08T08:41:33Z</time>
      </trkpt>
      <trkpt lat="43.41053" lon="6.72428">
        <ele>2.3</ele>
        <time>2017-10-08T08:41:35Z</time>
      </trkpt>
      <trkpt lat="43.41043" lon="6.72422">
        <ele>2.2</ele>
        <time>2017-10-08T08:41:37Z</time>
      </trkpt>
      <trkpt lat="43.41033" lon="6.72419">
        <ele>2.1</ele>
        <time>2017-10-08T08:41:39Z</time>
      </trkpt>
      <trkpt lat="43.41014" lon="6.72414">
        <ele>1.9</ele>
        <time>2017-10-08T08:41:43Z</time>
      </trkpt>
      <trkpt lat="43.40964" lon="6.72412">
        <ele>1.7</ele>
        <time>2017-10-08T08:41:53Z</time>
      </trkpt>
      <trkpt lat="43.40944" lon="6.72416">
        <ele>1.5</ele>
        <time>2017-10-08T08:41:57Z</time>
      </trkpt>
      <trkpt lat="43.40929" lon="6.7242">
        <ele>1.4</ele>
        <time>2017-10-08T08:42:00Z</time>
      </trkpt>
      <trkpt lat="43.40923" lon="6.72421">
        <ele>1.3</ele>
        <time>2017-10-08T08:42:01Z</time>
      </trkpt>
      <trkpt lat="43.40913" lon="6.72419">
        <ele>1.1</ele>
        <time>2017-10-08T08:42:03Z</time>
      </trkpt>
      <trkpt lat="43.40905" lon="6.72408">
        <ele>1.7</ele>
        <time>2017-10-08T08:42:05Z</time>
      </trkpt>
      <trkpt lat="43.409" lon="6.72378">
        <ele>2</ele>
        <time>2017-10-08T08:42:09Z</time>
      </trkpt>
      <trkpt lat="43.40899" lon="6.7237">
        <ele>2.2</ele>
        <time>2017-10-08T08:42:10Z</time>
      </trkpt>
      <trkpt lat="43.40888" lon="6.72352">
        <ele>2.5</ele>
        <time>2017-10-08T08:42:13Z</time>
      </trkpt>
      <trkpt lat="43.40883" lon="6.72348">
        <ele>2.6</ele>
        <time>2017-10-08T08:42:14Z</time>
      </trkpt>
      <trkpt lat="43.40867" lon="6.72337">
        <ele>2.2</ele>
        <time>2017-10-08T08:42:17Z</time>
      </trkpt>
      <trkpt lat="43.40855" lon="6.72333">
        <ele>1.8</ele>
        <time>2017-10-08T08:42:19Z</time>
      </trkpt>
      <trkpt lat="43.40843" lon="6.72332">
        <ele>1.4</ele>
        <time>2017-10-08T08:42:21Z</time>
      </trkpt>
      <trkpt lat="43.40825" lon="6.72332">
        <ele>1.5</ele>
        <time>2017-10-08T08:42:24Z</time>
      </trkpt>
      <trkpt lat="43.4082" lon="6.72331">
        <ele>1.6</ele>
        <time>2017-10-08T08:42:25Z</time>
      </trkpt>
      <trkpt lat="43.40799" lon="6.72323">
        <ele>2</ele>
        <time>2017-10-08T08:42:29Z</time>
      </trkpt>
      <trkpt lat="43.40752" lon="6.72304">
        <ele>1.9</ele>
        <time>2017-10-08T08:42:38Z</time>
      </trkpt>
      <trkpt lat="43.40741" lon="6.72298">
        <ele>2</ele>
        <time>2017-10-08T08:42:40Z</time>
      </trkpt>
      <trkpt lat="43.40737" lon="6.72294">
        <ele>2</ele>
        <time>2017-10-08T08:42:41Z</time>
      </trkpt>
      <trkpt lat="43.4073" lon="6.72282">
        <ele>2.2</ele>
        <time>2017-10-08T08:42:43Z</time>
      </trkpt>
      <trkpt lat="43.40727" lon="6.7226">
        <ele>2.4</ele>
        <time>2017-10-08T08:42:46Z</time>
      </trkpt>
      <trkpt lat="43.40736" lon="6.72231">
        <ele>2.6</ele>
        <time>2017-10-08T08:42:50Z</time>
      </trkpt>
      <trkpt lat="43.40739" lon="6.72225">
        <ele>2.6</ele>
        <time>2017-10-08T08:42:51Z</time>
      </trkpt>
      <trkpt lat="43.40761" lon="6.72187">
        <ele>2.6</ele>
        <time>2017-10-08T08:42:57Z</time>
      </trkpt>
      <trkpt lat="43.40784" lon="6.72136">
        <ele>1.8</ele>
        <time>2017-10-08T08:43:04Z</time>
      </trkpt>
      <trkpt lat="43.4079" lon="6.72113">
        <ele>1.6</ele>
        <time>2017-10-08T08:43:07Z</time>
      </trkpt>
      <trkpt lat="43.40791" lon="6.72097">
        <ele>2.4</ele>
        <time>2017-10-08T08:43:09Z</time>
      </trkpt>
      <trkpt lat="43.40794" lon="6.72051">
        <ele>1.8</ele>
        <time>2017-10-08T08:43:15Z</time>
      </trkpt>
      <trkpt lat="43.40795" lon="6.72043">
        <ele>1.8</ele>
        <time>2017-10-08T08:43:16Z</time>
      </trkpt>
      <trkpt lat="43.40805" lon="6.71991">
        <ele>1.9</ele>
        <time>2017-10-08T08:43:23Z</time>
      </trkpt>
      <trkpt lat="43.40807" lon="6.71984">
        <ele>1.6</ele>
        <time>2017-10-08T08:43:24Z</time>
      </trkpt>
      <trkpt lat="43.40816" lon="6.71956">
        <ele>1</ele>
        <time>2017-10-08T08:43:28Z</time>
      </trkpt>
      <trkpt lat="43.40831" lon="6.71914">
        <ele>0.9</ele>
        <time>2017-10-08T08:43:35Z</time>
      </trkpt>
      <trkpt lat="43.40852" lon="6.71861">
        <ele>1</ele>
        <time>2017-10-08T08:43:43Z</time>
      </trkpt>
      <trkpt lat="43.40877" lon="6.71815">
        <ele>2</ele>
        <time>2017-10-08T08:43:51Z</time>
      </trkpt>
      <trkpt lat="43.40881" lon="6.7181">
        <ele>2.1</ele>
        <time>2017-10-08T08:43:52Z</time>
      </trkpt>
      <trkpt lat="43.40898" lon="6.71774">
        <ele>2.4</ele>
        <time>2017-10-08T08:43:58Z</time>
      </trkpt>
      <trkpt lat="43.40905" lon="6.71731">
        <ele>2.3</ele>
        <time>2017-10-08T08:44:04Z</time>
      </trkpt>
      <trkpt lat="43.40914" lon="6.71687">
        <ele>2.3</ele>
        <time>2017-10-08T08:44:10Z</time>
      </trkpt>
      <trkpt lat="43.40916" lon="6.7168">
        <ele>2.3</ele>
        <time>2017-10-08T08:44:11Z</time>
      </trkpt>
      <trkpt lat="43.40923" lon="6.71644">
        <ele>2.4</ele>
        <time>2017-10-08T08:44:16Z</time>
      </trkpt>
      <trkpt lat="43.40926" lon="6.7163">
        <ele>2.4</ele>
        <time>2017-10-08T08:44:18Z</time>
      </trkpt>
      <trkpt lat="43.40936" lon="6.71588">
        <ele>2.5</ele>
        <time>2017-10-08T08:44:24Z</time>
      </trkpt>
      <trkpt lat="43.40939" lon="6.71574">
        <ele>2.6</ele>
        <time>2017-10-08T08:44:26Z</time>
      </trkpt>
      <trkpt lat="43.40947" lon="6.7154">
        <ele>2.7</ele>
        <time>2017-10-08T08:44:31Z</time>
      </trkpt>
      <trkpt lat="43.4095" lon="6.7152">
        <ele>2.8</ele>
        <time>2017-10-08T08:44:34Z</time>
      </trkpt>
      <trkpt lat="43.4095" lon="6.71513">
        <ele>2.9</ele>
        <time>2017-10-08T08:44:35Z</time>
      </trkpt>
      <trkpt lat="43.40947" lon="6.71495">
        <ele>3</ele>
        <time>2017-10-08T08:44:38Z</time>
      </trkpt>
      <trkpt lat="43.4094" lon="6.7148">
        <ele>3</ele>
        <time>2017-10-08T08:44:41Z</time>
      </trkpt>
      <trkpt lat="43.40943" lon="6.71473">
        <ele>3</ele>
        <time>2017-10-08T08:44:43Z</time>
      </trkpt>
      <trkpt lat="43.40945" lon="6.7147">
        <ele>3</ele>
        <time>2017-10-08T08:44:44Z</time>
      </trkpt>
      <trkpt lat="43.40949" lon="6.71454">
        <ele>3</ele>
        <time>2017-10-08T08:44:47Z</time>
      </trkpt>
      <trkpt lat="43.40957" lon="6.71431">
        <ele>3</ele>
        <time>2017-10-08T08:44:52Z</time>
      </trkpt>
      <trkpt lat="43.40968" lon="6.71431">
        <ele>3</ele>
        <time>2017-10-08T08:44:55Z</time>
      </trkpt>
      <trkpt lat="43.40974" lon="6.71424">
        <ele>2.8</ele>
        <time>2017-10-08T08:44:58Z</time>
      </trkpt>
      <trkpt lat="43.40974" lon="6.71419">
        <ele>2.8</ele>
        <time>2017-10-08T08:44:59Z</time>
      </trkpt>
      <trkpt lat="43.40975" lon="6.71407">
        <ele>2.6</ele>
        <time>2017-10-08T08:45:01Z</time>
      </trkpt>
      <trkpt lat="43.40977" lon="6.71402">
        <ele>2.1</ele>
        <time>2017-10-08T08:45:02Z</time>
      </trkpt>
      <trkpt lat="43.40994" lon="6.71387">
        <ele>1.3</ele>
        <time>2017-10-08T08:45:06Z</time>
      </trkpt>
      <trkpt lat="43.40998" lon="6.71385">
        <ele>1.4</ele>
        <time>2017-10-08T08:45:07Z</time>
      </trkpt>
      <trkpt lat="43.41026" lon="6.71372">
        <ele>1.9</ele>
        <time>2017-10-08T08:45:13Z</time>
      </trkpt>
      <trkpt lat="43.41031" lon="6.71367">
        <ele>2.2</ele>
        <time>2017-10-08T08:45:14Z</time>
      </trkpt>
      <trkpt lat="43.41043" lon="6.71347">
        <ele>2.4</ele>
        <time>2017-10-08T08:45:18Z</time>
      </trkpt>
      <trkpt lat="43.41045" lon="6.71342">
        <ele>2.4</ele>
        <time>2017-10-08T08:45:19Z</time>
      </trkpt>
      <trkpt lat="43.41057" lon="6.71321">
        <ele>2.5</ele>
        <time>2017-10-08T08:45:23Z</time>
      </trkpt>
      <trkpt lat="43.41066" lon="6.71303">
        <ele>2.2</ele>
        <time>2017-10-08T08:45:26Z</time>
      </trkpt>
      <trkpt lat="43.41087" lon="6.71275">
        <ele>1.7</ele>
        <time>2017-10-08T08:45:32Z</time>
      </trkpt>
      <trkpt lat="43.41098" lon="6.71261">
        <ele>2.6</ele>
        <time>2017-10-08T08:45:35Z</time>
      </trkpt>
      <trkpt lat="43.41101" lon="6.7125">
        <ele>3.4</ele>
        <time>2017-10-08T08:45:37Z</time>
      </trkpt>
      <trkpt lat="43.411" lon="6.71237">
        <ele>3.7</ele>
        <time>2017-10-08T08:45:39Z</time>
      </trkpt>
      <trkpt lat="43.41098" lon="6.7123">
        <ele>3.8</ele>
        <time>2017-10-08T08:45:40Z</time>
      </trkpt>
      <trkpt lat="43.41097" lon="6.71224">
        <ele>4</ele>
        <time>2017-10-08T08:45:41Z</time>
      </trkpt>
      <trkpt lat="43.41094" lon="6.71217">
        <ele>4.1</ele>
        <time>2017-10-08T08:45:42Z</time>
      </trkpt>
      <trkpt lat="43.41088" lon="6.71197">
        <ele>4.2</ele>
        <time>2017-10-08T08:45:45Z</time>
      </trkpt>
      <trkpt lat="43.41075" lon="6.71156">
        <ele>4</ele>
        <time>2017-10-08T08:45:51Z</time>
      </trkpt>
      <trkpt lat="43.41072" lon="6.71149">
        <ele>4.2</ele>
        <time>2017-10-08T08:45:52Z</time>
      </trkpt>
      <trkpt lat="43.41066" lon="6.7113">
        <ele>4.2</ele>
        <time>2017-10-08T08:45:55Z</time>
      </trkpt>
      <trkpt lat="43.41061" lon="6.71111">
        <ele>3.5</ele>
        <time>2017-10-08T08:45:58Z</time>
      </trkpt>
      <trkpt lat="43.41055" lon="6.711">
        <ele>3.2</ele>
        <time>2017-10-08T08:46:00Z</time>
      </trkpt>
      <trkpt lat="43.41052" lon="6.71095">
        <ele>3.3</ele>
        <time>2017-10-08T08:46:01Z</time>
      </trkpt>
      <trkpt lat="43.4105" lon="6.71089">
        <ele>3.4</ele>
        <time>2017-10-08T08:46:02Z</time>
      </trkpt>
      <trkpt lat="43.41048" lon="6.71083">
        <ele>3.6</ele>
        <time>2017-10-08T08:46:03Z</time>
      </trkpt>
      <trkpt lat="43.41042" lon="6.71049">
        <ele>4.4</ele>
        <time>2017-10-08T08:46:08Z</time>
      </trkpt>
      <trkpt lat="43.41041" lon="6.71043">
        <ele>4.5</ele>
        <time>2017-10-08T08:46:09Z</time>
      </trkpt>
      <trkpt lat="43.41037" lon="6.71013">
        <ele>4.3</ele>
        <time>2017-10-08T08:46:13Z</time>
      </trkpt>
      <trkpt lat="43.41035" lon="6.71006">
        <ele>4.4</ele>
        <time>2017-10-08T08:46:14Z</time>
      </trkpt>
      <trkpt lat="43.41029" lon="6.70984">
        <ele>4.7</ele>
        <time>2017-10-08T08:46:17Z</time>
      </trkpt>
      <trkpt lat="43.41025" lon="6.7097">
        <ele>5.2</ele>
        <time>2017-10-08T08:46:19Z</time>
      </trkpt>
      <trkpt lat="43.41017" lon="6.7094">
        <ele>6.4</ele>
        <time>2017-10-08T08:46:23Z</time>
      </trkpt>
      <trkpt lat="43.41015" lon="6.70933">
        <ele>6.8</ele>
        <time>2017-10-08T08:46:24Z</time>
      </trkpt>
      <trkpt lat="43.41005" lon="6.709">
        <ele>7.6</ele>
        <time>2017-10-08T08:46:29Z</time>
      </trkpt>
      <trkpt lat="43.40997" lon="6.7087">
        <ele>6.7</ele>
        <time>2017-10-08T08:46:34Z</time>
      </trkpt>
      <trkpt lat="43.40994" lon="6.70864">
        <ele>6.6</ele>
        <time>2017-10-08T08:46:35Z</time>
      </trkpt>
      <trkpt lat="43.40982" lon="6.70858">
        <ele>6.5</ele>
        <time>2017-10-08T08:46:38Z</time>
      </trkpt>
      <trkpt lat="43.40977" lon="6.70858">
        <ele>6.6</ele>
        <time>2017-10-08T08:46:39Z</time>
      </trkpt>
      <trkpt lat="43.40972" lon="6.70856">
        <ele>6.7</ele>
        <time>2017-10-08T08:46:40Z</time>
      </trkpt>
      <trkpt lat="43.40968" lon="6.70852">
        <ele>6.8</ele>
        <time>2017-10-08T08:46:41Z</time>
      </trkpt>
      <trkpt lat="43.40966" lon="6.70847">
        <ele>6.9</ele>
        <time>2017-10-08T08:46:42Z</time>
      </trkpt>
      <trkpt lat="43.40964" lon="6.70829">
        <ele>7</ele>
        <time>2017-10-08T08:46:45Z</time>
      </trkpt>
      <trkpt lat="43.40972" lon="6.70818">
        <ele>7.7</ele>
        <time>2017-10-08T08:46:48Z</time>
      </trkpt>
      <trkpt lat="43.4098" lon="6.70809">
        <ele>8.2</ele>
        <time>2017-10-08T08:46:52Z</time>
      </trkpt>
      <trkpt lat="43.40983" lon="6.70805">
        <ele>8.4</ele>
        <time>2017-10-08T08:46:54Z</time>
      </trkpt>
      <trkpt lat="43.40985" lon="6.70802">
        <ele>8.6</ele>
        <time>2017-10-08T08:46:55Z</time>
      </trkpt>
      <trkpt lat="43.41" lon="6.70795">
        <ele>9.2</ele>
        <time>2017-10-08T08:46:59Z</time>
      </trkpt>
      <trkpt lat="43.4103" lon="6.70781">
        <ele>10.3</ele>
        <time>2017-10-08T08:47:06Z</time>
      </trkpt>
      <trkpt lat="43.41034" lon="6.70779">
        <ele>10.7</ele>
        <time>2017-10-08T08:47:07Z</time>
      </trkpt>
      <trkpt lat="43.41051" lon="6.70773">
        <ele>12.3</ele>
        <time>2017-10-08T08:47:11Z</time>
      </trkpt>
      <trkpt lat="43.41056" lon="6.70775">
        <ele>12.6</ele>
        <time>2017-10-08T08:47:12Z</time>
      </trkpt>
      <trkpt lat="43.41079" lon="6.70787">
        <ele>13.2</ele>
        <time>2017-10-08T08:47:16Z</time>
      </trkpt>
      <trkpt lat="43.41086" lon="6.70789">
        <ele>13.3</ele>
        <time>2017-10-08T08:47:17Z</time>
      </trkpt>
      <trkpt lat="43.41122" lon="6.7079">
        <ele>11.5</ele>
        <time>2017-10-08T08:47:23Z</time>
      </trkpt>
      <trkpt lat="43.41152" lon="6.70788">
        <ele>11.4</ele>
        <time>2017-10-08T08:47:28Z</time>
      </trkpt>
      <trkpt lat="43.41163" lon="6.70771">
        <ele>11.6</ele>
        <time>2017-10-08T08:47:31Z</time>
      </trkpt>
      <trkpt lat="43.41167" lon="6.70764">
        <ele>11.7</ele>
        <time>2017-10-08T08:47:32Z</time>
      </trkpt>
      <trkpt lat="43.41182" lon="6.70727">
        <ele>12.6</ele>
        <time>2017-10-08T08:47:37Z</time>
      </trkpt>
      <trkpt lat="43.41208" lon="6.70668">
        <ele>12.8</ele>
        <time>2017-10-08T08:47:46Z</time>
      </trkpt>
      <trkpt lat="43.41214" lon="6.70654">
        <ele>12.4</ele>
        <time>2017-10-08T08:47:48Z</time>
      </trkpt>
      <trkpt lat="43.41216" lon="6.70647">
        <ele>12.2</ele>
        <time>2017-10-08T08:47:49Z</time>
      </trkpt>
      <trkpt lat="43.41225" lon="6.70627">
        <ele>11.3</ele>
        <time>2017-10-08T08:47:52Z</time>
      </trkpt>
      <trkpt lat="43.41244" lon="6.70584">
        <ele>8.9</ele>
        <time>2017-10-08T08:47:59Z</time>
      </trkpt>
      <trkpt lat="43.41248" lon="6.70572">
        <ele>7.8</ele>
        <time>2017-10-08T08:48:01Z</time>
      </trkpt>
      <trkpt lat="43.41255" lon="6.70553">
        <ele>7</ele>
        <time>2017-10-08T08:48:04Z</time>
      </trkpt>
      <trkpt lat="43.41257" lon="6.70545">
        <ele>7</ele>
        <time>2017-10-08T08:48:05Z</time>
      </trkpt>
      <trkpt lat="43.41271" lon="6.70505">
        <ele>8</ele>
        <time>2017-10-08T08:48:11Z</time>
      </trkpt>
      <trkpt lat="43.41276" lon="6.70493">
        <ele>8.4</ele>
        <time>2017-10-08T08:48:13Z</time>
      </trkpt>
      <trkpt lat="43.41293" lon="6.70449">
        <ele>9.5</ele>
        <time>2017-10-08T08:48:20Z</time>
      </trkpt>
      <trkpt lat="43.41314" lon="6.70401">
        <ele>10.4</ele>
        <time>2017-10-08T08:48:28Z</time>
      </trkpt>
      <trkpt lat="43.41319" lon="6.70388">
        <ele>10.5</ele>
        <time>2017-10-08T08:48:30Z</time>
      </trkpt>
      <trkpt lat="43.41332" lon="6.70346">
        <ele>11</ele>
        <time>2017-10-08T08:48:36Z</time>
      </trkpt>
      <trkpt lat="43.41336" lon="6.70315">
        <ele>14.3</ele>
        <time>2017-10-08T08:48:40Z</time>
      </trkpt>
      <trkpt lat="43.41338" lon="6.703">
        <ele>15.9</ele>
        <time>2017-10-08T08:48:42Z</time>
      </trkpt>
      <trkpt lat="43.41336" lon="6.70259">
        <ele>19.4</ele>
        <time>2017-10-08T08:48:48Z</time>
      </trkpt>
      <trkpt lat="43.41327" lon="6.70206">
        <ele>25.1</ele>
        <time>2017-10-08T08:48:56Z</time>
      </trkpt>
      <trkpt lat="43.41318" lon="6.7017">
        <ele>29.5</ele>
        <time>2017-10-08T08:49:02Z</time>
      </trkpt>
      <trkpt lat="43.41316" lon="6.70164">
        <ele>29.2</ele>
        <time>2017-10-08T08:49:03Z</time>
      </trkpt>
      <trkpt lat="43.41309" lon="6.7015">
        <ele>28.2</ele>
        <time>2017-10-08T08:49:06Z</time>
      </trkpt>
      <trkpt lat="43.41302" lon="6.70143">
        <ele>28</ele>
        <time>2017-10-08T08:49:08Z</time>
      </trkpt>
      <trkpt lat="43.41297" lon="6.70127">
        <ele>28</ele>
        <time>2017-10-08T08:49:11Z</time>
      </trkpt>
      <trkpt lat="43.41293" lon="6.70113">
        <ele>28</ele>
        <time>2017-10-08T08:49:14Z</time>
      </trkpt>
      <trkpt lat="43.41291" lon="6.70108">
        <ele>27.7</ele>
        <time>2017-10-08T08:49:15Z</time>
      </trkpt>
      <trkpt lat="43.41289" lon="6.70103">
        <ele>27.5</ele>
        <time>2017-10-08T08:49:16Z</time>
      </trkpt>
      <trkpt lat="43.41287" lon="6.70098">
        <ele>27.2</ele>
        <time>2017-10-08T08:49:17Z</time>
      </trkpt>
      <trkpt lat="43.41282" lon="6.70088">
        <ele>26.8</ele>
        <time>2017-10-08T08:49:19Z</time>
      </trkpt>
      <trkpt lat="43.41281" lon="6.70083">
        <ele>26.6</ele>
        <time>2017-10-08T08:49:20Z</time>
      </trkpt>
      <trkpt lat="43.41283" lon="6.70068">
        <ele>26</ele>
        <time>2017-10-08T08:49:24Z</time>
      </trkpt>
      <trkpt lat="43.41284" lon="6.70063">
        <ele>26</ele>
        <time>2017-10-08T08:49:25Z</time>
      </trkpt>
      <trkpt lat="43.41284" lon="6.70048">
        <ele>25.8</ele>
        <time>2017-10-08T08:49:27Z</time>
      </trkpt>
      <trkpt lat="43.41282" lon="6.70022">
        <ele>24.1</ele>
        <time>2017-10-08T08:49:30Z</time>
      </trkpt>
      <trkpt lat="43.41279" lon="6.69999">
        <ele>21.6</ele>
        <time>2017-10-08T08:49:33Z</time>
      </trkpt>
      <trkpt lat="43.41266" lon="6.69942">
        <ele>17.4</ele>
        <time>2017-10-08T08:49:41Z</time>
      </trkpt>
      <trkpt lat="43.41256" lon="6.69893">
        <ele>16.6</ele>
        <time>2017-10-08T08:49:48Z</time>
      </trkpt>
      <trkpt lat="43.41251" lon="6.69873">
        <ele>16.3</ele>
        <time>2017-10-08T08:49:51Z</time>
      </trkpt>
      <trkpt lat="43.41241" lon="6.69848">
        <ele>15.9</ele>
        <time>2017-10-08T08:49:55Z</time>
      </trkpt>
      <trkpt lat="43.41221" lon="6.69814">
        <ele>15.1</ele>
        <time>2017-10-08T08:50:01Z</time>
      </trkpt>
      <trkpt lat="43.41214" lon="6.69787">
        <ele>14.8</ele>
        <time>2017-10-08T08:50:05Z</time>
      </trkpt>
      <trkpt lat="43.41212" lon="6.6978">
        <ele>14.8</ele>
        <time>2017-10-08T08:50:06Z</time>
      </trkpt>
      <trkpt lat="43.41201" lon="6.69748">
        <ele>9.9</ele>
        <time>2017-10-08T08:50:11Z</time>
      </trkpt>
      <trkpt lat="43.41198" lon="6.69741">
        <ele>7</ele>
        <time>2017-10-08T08:50:12Z</time>
      </trkpt>
      <trkpt lat="43.41189" lon="6.69722">
        <ele>7.4</ele>
        <time>2017-10-08T08:50:15Z</time>
      </trkpt>
      <trkpt lat="43.41181" lon="6.6971">
        <ele>7.5</ele>
        <time>2017-10-08T08:50:17Z</time>
      </trkpt>
      <trkpt lat="43.41179" lon="6.69705">
        <ele>7.6</ele>
        <time>2017-10-08T08:50:18Z</time>
      </trkpt>
      <trkpt lat="43.41177" lon="6.69698">
        <ele>7.7</ele>
        <time>2017-10-08T08:50:19Z</time>
      </trkpt>
      <trkpt lat="43.41172" lon="6.69689">
        <ele>7.8</ele>
        <time>2017-10-08T08:50:21Z</time>
      </trkpt>
      <trkpt lat="43.41168" lon="6.69685">
        <ele>7.8</ele>
        <time>2017-10-08T08:50:22Z</time>
      </trkpt>
      <trkpt lat="43.4116" lon="6.69681">
        <ele>7.9</ele>
        <time>2017-10-08T08:50:24Z</time>
      </trkpt>
      <trkpt lat="43.41154" lon="6.6968">
        <ele>7.9</ele>
        <time>2017-10-08T08:50:25Z</time>
      </trkpt>
      <trkpt lat="43.41139" lon="6.69689">
        <ele>7.9</ele>
        <time>2017-10-08T08:50:28Z</time>
      </trkpt>
      <trkpt lat="43.41129" lon="6.69712">
        <ele>7.7</ele>
        <time>2017-10-08T08:50:32Z</time>
      </trkpt>
      <trkpt lat="43.4112" lon="6.6974">
        <ele>7.7</ele>
        <time>2017-10-08T08:50:38Z</time>
      </trkpt>
      <trkpt lat="43.41115" lon="6.69751">
        <ele>7.8</ele>
        <time>2017-10-08T08:50:41Z</time>
      </trkpt>
      <trkpt lat="43.41109" lon="6.69761">
        <ele>8.2</ele>
        <time>2017-10-08T08:50:44Z</time>
      </trkpt>
      <trkpt lat="43.41107" lon="6.69764">
        <ele>8.3</ele>
        <time>2017-10-08T08:50:45Z</time>
      </trkpt>
      <trkpt lat="43.41103" lon="6.6977">
        <ele>8.7</ele>
        <time>2017-10-08T08:50:47Z</time>
      </trkpt>
      <trkpt lat="43.41096" lon="6.69781">
        <ele>9.1</ele>
        <time>2017-10-08T08:50:51Z</time>
      </trkpt>
      <trkpt lat="43.41093" lon="6.69787">
        <ele>9.5</ele>
        <time>2017-10-08T08:50:53Z</time>
      </trkpt>
      <trkpt lat="43.41092" lon="6.6979">
        <ele>9.7</ele>
        <time>2017-10-08T08:50:54Z</time>
      </trkpt>
      <trkpt lat="43.41087" lon="6.698">
        <ele>10.1</ele>
        <time>2017-10-08T08:50:57Z</time>
      </trkpt>
      <trkpt lat="43.41081" lon="6.69816">
        <ele>10.7</ele>
        <time>2017-10-08T08:51:02Z</time>
      </trkpt>
      <trkpt lat="43.41076" lon="6.69829">
        <ele>10.8</ele>
        <time>2017-10-08T08:51:06Z</time>
      </trkpt>
      <trkpt lat="43.4107" lon="6.69841">
        <ele>11.1</ele>
        <time>2017-10-08T08:51:10Z</time>
      </trkpt>
      <trkpt lat="43.41066" lon="6.69853">
        <ele>11.4</ele>
        <time>2017-10-08T08:51:14Z</time>
      </trkpt>
      <trkpt lat="43.41065" lon="6.69863">
        <ele>11.6</ele>
        <time>2017-10-08T08:51:17Z</time>
      </trkpt>
      <trkpt lat="43.41064" lon="6.69867">
        <ele>11.7</ele>
        <time>2017-10-08T08:51:18Z</time>
      </trkpt>
      <trkpt lat="43.41059" lon="6.69875">
        <ele>12.1</ele>
        <time>2017-10-08T08:51:21Z</time>
      </trkpt>
      <trkpt lat="43.41054" lon="6.69882">
        <ele>12.4</ele>
        <time>2017-10-08T08:51:24Z</time>
      </trkpt>
      <trkpt lat="43.41049" lon="6.69888">
        <ele>12.6</ele>
        <time>2017-10-08T08:51:27Z</time>
      </trkpt>
      <trkpt lat="43.41044" lon="6.69894">
        <ele>12.8</ele>
        <time>2017-10-08T08:51:30Z</time>
      </trkpt>
      <trkpt lat="43.41044" lon="6.69897">
        <ele>12.9</ele>
        <time>2017-10-08T08:51:31Z</time>
      </trkpt>
      <trkpt lat="43.41044" lon="6.69903">
        <ele>13</ele>
        <time>2017-10-08T08:51:33Z</time>
      </trkpt>
      <trkpt lat="43.41047" lon="6.69911">
        <ele>13.4</ele>
        <time>2017-10-08T08:51:36Z</time>
      </trkpt>
      <trkpt lat="43.41047" lon="6.69925">
        <ele>15.2</ele>
        <time>2017-10-08T08:51:41Z</time>
      </trkpt>
      <trkpt lat="43.41044" lon="6.69935">
        <ele>16.1</ele>
        <time>2017-10-08T08:51:45Z</time>
      </trkpt>
      <trkpt lat="43.4104" lon="6.69945">
        <ele>17.4</ele>
        <time>2017-10-08T08:51:49Z</time>
      </trkpt>
      <trkpt lat="43.41039" lon="6.69947">
        <ele>17.6</ele>
        <time>2017-10-08T08:51:50Z</time>
      </trkpt>
      <trkpt lat="43.41034" lon="6.69954">
        <ele>18.7</ele>
        <time>2017-10-08T08:51:54Z</time>
      </trkpt>
      <trkpt lat="43.41032" lon="6.6996">
        <ele>19.4</ele>
        <time>2017-10-08T08:51:57Z</time>
      </trkpt>
      <trkpt lat="43.41031" lon="6.69965">
        <ele>19.7</ele>
        <time>2017-10-08T08:51:59Z</time>
      </trkpt>
      <trkpt lat="43.41031" lon="6.69973">
        <ele>20.2</ele>
        <time>2017-10-08T08:52:02Z</time>
      </trkpt>
      <trkpt lat="43.4103" lon="6.6998">
        <ele>20.5</ele>
        <time>2017-10-08T08:52:05Z</time>
      </trkpt>
      <trkpt lat="43.4103" lon="6.69982">
        <ele>20.7</ele>
        <time>2017-10-08T08:52:06Z</time>
      </trkpt>
      <trkpt lat="43.4103" lon="6.69995">
        <ele>22.1</ele>
        <time>2017-10-08T08:52:11Z</time>
      </trkpt>
      <trkpt lat="43.41031" lon="6.69997">
        <ele>22.4</ele>
        <time>2017-10-08T08:52:12Z</time>
      </trkpt>
      <trkpt lat="43.41032" lon="6.7001">
        <ele>23.3</ele>
        <time>2017-10-08T08:52:18Z</time>
      </trkpt>
      <trkpt lat="43.41032" lon="6.70013">
        <ele>23.7</ele>
        <time>2017-10-08T08:52:20Z</time>
      </trkpt>
      <trkpt lat="43.41032" lon="6.70023">
        <ele>24.9</ele>
        <time>2017-10-08T08:52:24Z</time>
      </trkpt>
      <trkpt lat="43.41031" lon="6.70027">
        <ele>25.4</ele>
        <time>2017-10-08T08:52:26Z</time>
      </trkpt>
      <trkpt lat="43.41032" lon="6.70034">
        <ele>26.2</ele>
        <time>2017-10-08T08:52:29Z</time>
      </trkpt>
      <trkpt lat="43.41034" lon="6.70041">
        <ele>27.1</ele>
        <time>2017-10-08T08:52:32Z</time>
      </trkpt>
      <trkpt lat="43.41035" lon="6.70048">
        <ele>27.6</ele>
        <time>2017-10-08T08:52:35Z</time>
      </trkpt>
      <trkpt lat="43.41037" lon="6.70056">
        <ele>28.4</ele>
        <time>2017-10-08T08:52:39Z</time>
      </trkpt>
      <trkpt lat="43.41037" lon="6.70058">
        <ele>28.6</ele>
        <time>2017-10-08T08:52:40Z</time>
      </trkpt>
      <trkpt lat="43.41039" lon="6.70066">
        <ele>29.6</ele>
        <time>2017-10-08T08:52:44Z</time>
      </trkpt>
      <trkpt lat="43.41041" lon="6.70072">
        <ele>29.9</ele>
        <time>2017-10-08T08:52:47Z</time>
      </trkpt>
      <trkpt lat="43.41042" lon="6.70076">
        <ele>30.1</ele>
        <time>2017-10-08T08:52:49Z</time>
      </trkpt>
      <trkpt lat="43.41043" lon="6.7008">
        <ele>30.3</ele>
        <time>2017-10-08T08:52:51Z</time>
      </trkpt>
      <trkpt lat="43.41046" lon="6.7009">
        <ele>31.2</ele>
        <time>2017-10-08T08:52:56Z</time>
      </trkpt>
      <trkpt lat="43.41047" lon="6.70093">
        <ele>31.5</ele>
        <time>2017-10-08T08:52:58Z</time>
      </trkpt>
      <trkpt lat="43.41047" lon="6.70101">
        <ele>32.1</ele>
        <time>2017-10-08T08:53:03Z</time>
      </trkpt>
      <trkpt lat="43.41047" lon="6.70102">
        <ele>32.2</ele>
        <time>2017-10-08T08:53:04Z</time>
      </trkpt>
      <trkpt lat="43.41042" lon="6.70108">
        <ele>32.7</ele>
        <time>2017-10-08T08:53:09Z</time>
      </trkpt>
      <trkpt lat="43.41041" lon="6.70109">
        <ele>32.8</ele>
        <time>2017-10-08T08:53:10Z</time>
      </trkpt>
      <trkpt lat="43.41041" lon="6.7011">
        <ele>32.9</ele>
        <time>2017-10-08T08:53:11Z</time>
      </trkpt>
      <trkpt lat="43.4104" lon="6.70111">
        <ele>32.9</ele>
        <time>2017-10-08T08:53:12Z</time>
      </trkpt>
      <trkpt lat="43.4104" lon="6.70114">
        <ele>33.1</ele>
        <time>2017-10-08T08:53:14Z</time>
      </trkpt>
      <trkpt lat="43.4104" lon="6.70115">
        <ele>33.2</ele>
        <time>2017-10-08T08:53:15Z</time>
      </trkpt>
      <trkpt lat="43.41038" lon="6.70123">
        <ele>34.3</ele>
        <time>2017-10-08T08:53:21Z</time>
      </trkpt>
      <trkpt lat="43.41037" lon="6.70124">
        <ele>34.6</ele>
        <time>2017-10-08T08:53:22Z</time>
      </trkpt>
      <trkpt lat="43.41036" lon="6.70125">
        <ele>34.8</ele>
        <time>2017-10-08T08:53:23Z</time>
      </trkpt>
      <trkpt lat="43.41033" lon="6.70123">
        <ele>35.4</ele>
        <time>2017-10-08T08:53:26Z</time>
      </trkpt>
      <trkpt lat="43.41032" lon="6.70122">
        <ele>35.6</ele>
        <time>2017-10-08T08:53:27Z</time>
      </trkpt>
      <trkpt lat="43.4103" lon="6.70122">
        <ele>35.8</ele>
        <time>2017-10-08T08:53:28Z</time>
      </trkpt>
      <trkpt lat="43.41028" lon="6.70122">
        <ele>36.3</ele>
        <time>2017-10-08T08:53:30Z</time>
      </trkpt>
      <trkpt lat="43.41026" lon="6.70123">
        <ele>36.7</ele>
        <time>2017-10-08T08:53:31Z</time>
      </trkpt>
      <trkpt lat="43.41022" lon="6.70126">
        <ele>37.7</ele>
        <time>2017-10-08T08:53:34Z</time>
      </trkpt>
      <trkpt lat="43.41016" lon="6.70129">
        <ele>38.9</ele>
        <time>2017-10-08T08:53:38Z</time>
      </trkpt>
      <trkpt lat="43.41014" lon="6.70129">
        <ele>39.2</ele>
        <time>2017-10-08T08:53:39Z</time>
      </trkpt>
      <trkpt lat="43.41013" lon="6.7013">
        <ele>39.3</ele>
        <time>2017-10-08T08:53:40Z</time>
      </trkpt>
      <trkpt lat="43.41009" lon="6.70137">
        <ele>39.9</ele>
        <time>2017-10-08T08:53:44Z</time>
      </trkpt>
      <trkpt lat="43.41008" lon="6.70139">
        <ele>40</ele>
        <time>2017-10-08T08:53:45Z</time>
      </trkpt>
      <trkpt lat="43.41008" lon="6.70147">
        <ele>40.2</ele>
        <time>2017-10-08T08:53:48Z</time>
      </trkpt>
      <trkpt lat="43.41006" lon="6.70151">
        <ele>40.3</ele>
        <time>2017-10-08T08:53:50Z</time>
      </trkpt>
      <trkpt lat="43.41004" lon="6.70152">
        <ele>40.4</ele>
        <time>2017-10-08T08:53:51Z</time>
      </trkpt>
      <trkpt lat="43.40997" lon="6.70151">
        <ele>40.6</ele>
        <time>2017-10-08T08:53:54Z</time>
      </trkpt>
      <trkpt lat="43.40991" lon="6.70148">
        <ele>40.7</ele>
        <time>2017-10-08T08:53:58Z</time>
      </trkpt>
      <trkpt lat="43.40987" lon="6.70147">
        <ele>40.8</ele>
        <time>2017-10-08T08:54:01Z</time>
      </trkpt>
      <trkpt lat="43.40982" lon="6.70145">
        <ele>40.9</ele>
        <time>2017-10-08T08:54:05Z</time>
      </trkpt>
      <trkpt lat="43.40972" lon="6.70139">
        <ele>41.3</ele>
        <time>2017-10-08T08:54:12Z</time>
      </trkpt>
      <trkpt lat="43.40965" lon="6.7014">
        <ele>42</ele>
        <time>2017-10-08T08:54:16Z</time>
      </trkpt>
      <trkpt lat="43.40961" lon="6.70142">
        <ele>42.6</ele>
        <time>2017-10-08T08:54:18Z</time>
      </trkpt>
      <trkpt lat="43.4096" lon="6.70145">
        <ele>43.1</ele>
        <time>2017-10-08T08:54:20Z</time>
      </trkpt>
      <trkpt lat="43.40955" lon="6.70148">
        <ele>44.1</ele>
        <time>2017-10-08T08:54:23Z</time>
      </trkpt>
      <trkpt lat="43.40948" lon="6.70154">
        <ele>46.5</ele>
        <time>2017-10-08T08:54:29Z</time>
      </trkpt>
      <trkpt lat="43.40944" lon="6.70159">
        <ele>47.9</ele>
        <time>2017-10-08T08:54:32Z</time>
      </trkpt>
      <trkpt lat="43.40938" lon="6.70166">
        <ele>49.1</ele>
        <time>2017-10-08T08:54:37Z</time>
      </trkpt>
      <trkpt lat="43.40935" lon="6.70168">
        <ele>49.8</ele>
        <time>2017-10-08T08:54:39Z</time>
      </trkpt>
      <trkpt lat="43.40931" lon="6.7017">
        <ele>50.5</ele>
        <time>2017-10-08T08:54:41Z</time>
      </trkpt>
      <trkpt lat="43.40924" lon="6.7017">
        <ele>51.3</ele>
        <time>2017-10-08T08:54:44Z</time>
      </trkpt>
      <trkpt lat="43.40921" lon="6.7017">
        <ele>51.5</ele>
        <time>2017-10-08T08:54:45Z</time>
      </trkpt>
      <trkpt lat="43.40904" lon="6.70167">
        <ele>53</ele>
        <time>2017-10-08T08:54:50Z</time>
      </trkpt>
      <trkpt lat="43.40893" lon="6.70172">
        <ele>53.3</ele>
        <time>2017-10-08T08:54:54Z</time>
      </trkpt>
      <trkpt lat="43.40889" lon="6.70178">
        <ele>53.5</ele>
        <time>2017-10-08T08:54:56Z</time>
      </trkpt>
      <trkpt lat="43.40881" lon="6.70193">
        <ele>53.7</ele>
        <time>2017-10-08T08:55:00Z</time>
      </trkpt>
      <trkpt lat="43.40879" lon="6.70198">
        <ele>53.8</ele>
        <time>2017-10-08T08:55:01Z</time>
      </trkpt>
      <trkpt lat="43.4087" lon="6.70209">
        <ele>53.9</ele>
        <time>2017-10-08T08:55:04Z</time>
      </trkpt>
      <trkpt lat="43.40864" lon="6.70224">
        <ele>53.9</ele>
        <time>2017-10-08T08:55:07Z</time>
      </trkpt>
      <trkpt lat="43.40862" lon="6.70229">
        <ele>54</ele>
        <time>2017-10-08T08:55:08Z</time>
      </trkpt>
      <trkpt lat="43.40854" lon="6.70235">
        <ele>54.4</ele>
        <time>2017-10-08T08:55:10Z</time>
      </trkpt>
      <trkpt lat="43.40843" lon="6.70238">
        <ele>55</ele>
        <time>2017-10-08T08:55:12Z</time>
      </trkpt>
      <trkpt lat="43.40831" lon="6.70239">
        <ele>55.5</ele>
        <time>2017-10-08T08:55:14Z</time>
      </trkpt>
      <trkpt lat="43.40807" lon="6.70244">
        <ele>56.7</ele>
        <time>2017-10-08T08:55:18Z</time>
      </trkpt>
      <trkpt lat="43.40796" lon="6.7024">
        <ele>57</ele>
        <time>2017-10-08T08:55:20Z</time>
      </trkpt>
      <trkpt lat="43.40786" lon="6.70235">
        <ele>57</ele>
        <time>2017-10-08T08:55:22Z</time>
      </trkpt>
      <trkpt lat="43.40773" lon="6.70229">
        <ele>56.9</ele>
        <time>2017-10-08T08:55:25Z</time>
      </trkpt>
      <trkpt lat="43.40758" lon="6.70214">
        <ele>57</ele>
        <time>2017-10-08T08:55:30Z</time>
      </trkpt>
      <trkpt lat="43.40748" lon="6.70203">
        <ele>57.2</ele>
        <time>2017-10-08T08:55:34Z</time>
      </trkpt>
      <trkpt lat="43.40744" lon="6.702">
        <ele>57.5</ele>
        <time>2017-10-08T08:55:36Z</time>
      </trkpt>
      <trkpt lat="43.40731" lon="6.70192">
        <ele>58.9</ele>
        <time>2017-10-08T08:55:43Z</time>
      </trkpt>
      <trkpt lat="43.40729" lon="6.70191">
        <ele>59.2</ele>
        <time>2017-10-08T08:55:44Z</time>
      </trkpt>
      <trkpt lat="43.40721" lon="6.70186">
        <ele>60.4</ele>
        <time>2017-10-08T08:55:48Z</time>
      </trkpt>
      <trkpt lat="43.40719" lon="6.70185">
        <ele>60.6</ele>
        <time>2017-10-08T08:55:49Z</time>
      </trkpt>
      <trkpt lat="43.40712" lon="6.7018">
        <ele>61.1</ele>
        <time>2017-10-08T08:55:53Z</time>
      </trkpt>
      <trkpt lat="43.40706" lon="6.70175">
        <ele>61.8</ele>
        <time>2017-10-08T08:55:57Z</time>
      </trkpt>
      <trkpt lat="43.40702" lon="6.70171">
        <ele>62.3</ele>
        <time>2017-10-08T08:55:59Z</time>
      </trkpt>
      <trkpt lat="43.40694" lon="6.70166">
        <ele>62.9</ele>
        <time>2017-10-08T08:56:03Z</time>
      </trkpt>
      <trkpt lat="43.40683" lon="6.70161">
        <ele>64</ele>
        <time>2017-10-08T08:56:08Z</time>
      </trkpt>
      <trkpt lat="43.40663" lon="6.70157">
        <ele>64.5</ele>
        <time>2017-10-08T08:56:15Z</time>
      </trkpt>
      <trkpt lat="43.40641" lon="6.70147">
        <ele>64.6</ele>
        <time>2017-10-08T08:56:23Z</time>
      </trkpt>
      <trkpt lat="43.40635" lon="6.70145">
        <ele>64.6</ele>
        <time>2017-10-08T08:56:25Z</time>
      </trkpt>
      <trkpt lat="43.40615" lon="6.70134">
        <ele>64.5</ele>
        <time>2017-10-08T08:56:30Z</time>
      </trkpt>
      <trkpt lat="43.40606" lon="6.70128">
        <ele>64.5</ele>
        <time>2017-10-08T08:56:32Z</time>
      </trkpt>
      <trkpt lat="43.40588" lon="6.70119">
        <ele>64.5</ele>
        <time>2017-10-08T08:56:36Z</time>
      </trkpt>
      <trkpt lat="43.40576" lon="6.70116">
        <ele>64.4</ele>
        <time>2017-10-08T08:56:38Z</time>
      </trkpt>
      <trkpt lat="43.40565" lon="6.70115">
        <ele>64.4</ele>
        <time>2017-10-08T08:56:40Z</time>
      </trkpt>
      <trkpt lat="43.40559" lon="6.70114">
        <ele>64.4</ele>
        <time>2017-10-08T08:56:41Z</time>
      </trkpt>
      <trkpt lat="43.40533" lon="6.70109">
        <ele>64.4</ele>
        <time>2017-10-08T08:56:46Z</time>
      </trkpt>
      <trkpt lat="43.40497" lon="6.70102">
        <ele>64.3</ele>
        <time>2017-10-08T08:56:54Z</time>
      </trkpt>
      <trkpt lat="43.40486" lon="6.70104">
        <ele>64.4</ele>
        <time>2017-10-08T08:56:57Z</time>
      </trkpt>
      <trkpt lat="43.40481" lon="6.70104">
        <ele>64.4</ele>
        <time>2017-10-08T08:56:59Z</time>
      </trkpt>
      <trkpt lat="43.40476" lon="6.70105">
        <ele>64.5</ele>
        <time>2017-10-08T08:57:01Z</time>
      </trkpt>
      <trkpt lat="43.40468" lon="6.70105">
        <ele>65</ele>
        <time>2017-10-08T08:57:05Z</time>
      </trkpt>
      <trkpt lat="43.4046" lon="6.70105">
        <ele>65.9</ele>
        <time>2017-10-08T08:57:09Z</time>
      </trkpt>
      <trkpt lat="43.40454" lon="6.70105">
        <ele>66.4</ele>
        <time>2017-10-08T08:57:12Z</time>
      </trkpt>
      <trkpt lat="43.40449" lon="6.70104">
        <ele>67.6</ele>
        <time>2017-10-08T08:57:15Z</time>
      </trkpt>
      <trkpt lat="43.40445" lon="6.70101">
        <ele>68.3</ele>
        <time>2017-10-08T08:57:18Z</time>
      </trkpt>
      <trkpt lat="43.40441" lon="6.70098">
        <ele>69.2</ele>
        <time>2017-10-08T08:57:21Z</time>
      </trkpt>
      <trkpt lat="43.40437" lon="6.70095">
        <ele>69.9</ele>
        <time>2017-10-08T08:57:24Z</time>
      </trkpt>
      <trkpt lat="43.40432" lon="6.70092">
        <ele>70.4</ele>
        <time>2017-10-08T08:57:27Z</time>
      </trkpt>
      <trkpt lat="43.40429" lon="6.7009">
        <ele>71.1</ele>
        <time>2017-10-08T08:57:29Z</time>
      </trkpt>
      <trkpt lat="43.40418" lon="6.70083">
        <ele>72</ele>
        <time>2017-10-08T08:57:35Z</time>
      </trkpt>
      <trkpt lat="43.40416" lon="6.70082">
        <ele>72</ele>
        <time>2017-10-08T08:57:36Z</time>
      </trkpt>
      <trkpt lat="43.40402" lon="6.70074">
        <ele>73.1</ele>
        <time>2017-10-08T08:57:43Z</time>
      </trkpt>
      <trkpt lat="43.40387" lon="6.7007">
        <ele>73.7</ele>
        <time>2017-10-08T08:57:49Z</time>
      </trkpt>
      <trkpt lat="43.40379" lon="6.70065">
        <ele>74.3</ele>
        <time>2017-10-08T08:57:52Z</time>
      </trkpt>
      <trkpt lat="43.40368" lon="6.7006">
        <ele>74.9</ele>
        <time>2017-10-08T08:57:56Z</time>
      </trkpt>
      <trkpt lat="43.40351" lon="6.70051">
        <ele>75.2</ele>
        <time>2017-10-08T08:58:02Z</time>
      </trkpt>
      <trkpt lat="43.4033" lon="6.70036">
        <ele>75.6</ele>
        <time>2017-10-08T08:58:10Z</time>
      </trkpt>
      <trkpt lat="43.40305" lon="6.70016">
        <ele>75.7</ele>
        <time>2017-10-08T08:58:17Z</time>
      </trkpt>
      <trkpt lat="43.40279" lon="6.69984">
        <ele>75</ele>
        <time>2017-10-08T08:58:24Z</time>
      </trkpt>
      <trkpt lat="43.40244" lon="6.69947">
        <ele>73.6</ele>
        <time>2017-10-08T08:58:32Z</time>
      </trkpt>
      <trkpt lat="43.40231" lon="6.6994">
        <ele>72.7</ele>
        <time>2017-10-08T08:58:34Z</time>
      </trkpt>
      <trkpt lat="43.40216" lon="6.69937">
        <ele>71.3</ele>
        <time>2017-10-08T08:58:36Z</time>
      </trkpt>
      <trkpt lat="43.40201" lon="6.69946">
        <ele>69.5</ele>
        <time>2017-10-08T08:58:38Z</time>
      </trkpt>
      <trkpt lat="43.40192" lon="6.69952">
        <ele>68.5</ele>
        <time>2017-10-08T08:58:39Z</time>
      </trkpt>
      <trkpt lat="43.40183" lon="6.69959">
        <ele>67.4</ele>
        <time>2017-10-08T08:58:40Z</time>
      </trkpt>
      <trkpt lat="43.40154" lon="6.69983">
        <ele>63.8</ele>
        <time>2017-10-08T08:58:43Z</time>
      </trkpt>
      <trkpt lat="43.40124" lon="6.70007">
        <ele>60.2</ele>
        <time>2017-10-08T08:58:46Z</time>
      </trkpt>
      <trkpt lat="43.40107" lon="6.70025">
        <ele>59.8</ele>
        <time>2017-10-08T08:58:48Z</time>
      </trkpt>
      <trkpt lat="43.40095" lon="6.70045">
        <ele>59.7</ele>
        <time>2017-10-08T08:58:50Z</time>
      </trkpt>
      <trkpt lat="43.40084" lon="6.70061">
        <ele>59.9</ele>
        <time>2017-10-08T08:58:52Z</time>
      </trkpt>
      <trkpt lat="43.40079" lon="6.70076">
        <ele>60.4</ele>
        <time>2017-10-08T08:58:54Z</time>
      </trkpt>
      <trkpt lat="43.40079" lon="6.70082">
        <ele>60.9</ele>
        <time>2017-10-08T08:58:55Z</time>
      </trkpt>
      <trkpt lat="43.40073" lon="6.70096">
        <ele>63</ele>
        <time>2017-10-08T08:58:58Z</time>
      </trkpt>
      <trkpt lat="43.40075" lon="6.7011">
        <ele>65.2</ele>
        <time>2017-10-08T08:59:02Z</time>
      </trkpt>
      <trkpt lat="43.40076" lon="6.70115">
        <ele>66</ele>
        <time>2017-10-08T08:59:04Z</time>
      </trkpt>
      <trkpt lat="43.40074" lon="6.7012">
        <ele>66.9</ele>
        <time>2017-10-08T08:59:07Z</time>
      </trkpt>
      <trkpt lat="43.40072" lon="6.70123">
        <ele>67.4</ele>
        <time>2017-10-08T08:59:09Z</time>
      </trkpt>
      <trkpt lat="43.40071" lon="6.70125">
        <ele>67.7</ele>
        <time>2017-10-08T08:59:10Z</time>
      </trkpt>
      <trkpt lat="43.40067" lon="6.70129">
        <ele>68.9</ele>
        <time>2017-10-08T08:59:14Z</time>
      </trkpt>
      <trkpt lat="43.40062" lon="6.7013">
        <ele>69.8</ele>
        <time>2017-10-08T08:59:17Z</time>
      </trkpt>
      <trkpt lat="43.40057" lon="6.70129">
        <ele>70.3</ele>
        <time>2017-10-08T08:59:20Z</time>
      </trkpt>
      <trkpt lat="43.40052" lon="6.70128">
        <ele>71.1</ele>
        <time>2017-10-08T08:59:23Z</time>
      </trkpt>
      <trkpt lat="43.40048" lon="6.70124">
        <ele>71.9</ele>
        <time>2017-10-08T08:59:26Z</time>
      </trkpt>
      <trkpt lat="43.40046" lon="6.70122">
        <ele>72.2</ele>
        <time>2017-10-08T08:59:28Z</time>
      </trkpt>
      <trkpt lat="43.40044" lon="6.70121">
        <ele>72.3</ele>
        <time>2017-10-08T08:59:29Z</time>
      </trkpt>
      <trkpt lat="43.40037" lon="6.70117">
        <ele>73.2</ele>
        <time>2017-10-08T08:59:34Z</time>
      </trkpt>
      <trkpt lat="43.40033" lon="6.70114">
        <ele>74</ele>
        <time>2017-10-08T08:59:37Z</time>
      </trkpt>
      <trkpt lat="43.40027" lon="6.70112">
        <ele>74.8</ele>
        <time>2017-10-08T08:59:41Z</time>
      </trkpt>
      <trkpt lat="43.40021" lon="6.70109">
        <ele>75.5</ele>
        <time>2017-10-08T08:59:45Z</time>
      </trkpt>
      <trkpt lat="43.4002" lon="6.70108">
        <ele>75.7</ele>
        <time>2017-10-08T08:59:46Z</time>
      </trkpt>
      <trkpt lat="43.40013" lon="6.70107">
        <ele>77</ele>
        <time>2017-10-08T08:59:50Z</time>
      </trkpt>
      <trkpt lat="43.40006" lon="6.70106">
        <ele>78.2</ele>
        <time>2017-10-08T08:59:54Z</time>
      </trkpt>
      <trkpt lat="43.40005" lon="6.70106">
        <ele>78.5</ele>
        <time>2017-10-08T08:59:55Z</time>
      </trkpt>
      <trkpt lat="43.39998" lon="6.70107">
        <ele>79.5</ele>
        <time>2017-10-08T08:59:59Z</time>
      </trkpt>
      <trkpt lat="43.39996" lon="6.70106">
        <ele>79.8</ele>
        <time>2017-10-08T09:00:01Z</time>
      </trkpt>
      <trkpt lat="43.39994" lon="6.70107">
        <ele>80</ele>
        <time>2017-10-08T09:00:02Z</time>
      </trkpt>
      <trkpt lat="43.39988" lon="6.70109">
        <ele>81</ele>
        <time>2017-10-08T09:00:06Z</time>
      </trkpt>
      <trkpt lat="43.39984" lon="6.70109">
        <ele>81.6</ele>
        <time>2017-10-08T09:00:09Z</time>
      </trkpt>
      <trkpt lat="43.39979" lon="6.70112">
        <ele>81.9</ele>
        <time>2017-10-08T09:00:12Z</time>
      </trkpt>
      <trkpt lat="43.39973" lon="6.70113">
        <ele>82.3</ele>
        <time>2017-10-08T09:00:14Z</time>
      </trkpt>
      <trkpt lat="43.39967" lon="6.70116">
        <ele>83.2</ele>
        <time>2017-10-08T09:00:18Z</time>
      </trkpt>
      <trkpt lat="43.39964" lon="6.70118">
        <ele>83.7</ele>
        <time>2017-10-08T09:00:20Z</time>
      </trkpt>
      <trkpt lat="43.39962" lon="6.70118">
        <ele>84</ele>
        <time>2017-10-08T09:00:21Z</time>
      </trkpt>
      <trkpt lat="43.3996" lon="6.7012">
        <ele>84.4</ele>
        <time>2017-10-08T09:00:24Z</time>
      </trkpt>
      <trkpt lat="43.39958" lon="6.7012">
        <ele>84.7</ele>
        <time>2017-10-08T09:00:25Z</time>
      </trkpt>
      <trkpt lat="43.39956" lon="6.7012">
        <ele>85</ele>
        <time>2017-10-08T09:00:26Z</time>
      </trkpt>
      <trkpt lat="43.39952" lon="6.70122">
        <ele>85.9</ele>
        <time>2017-10-08T09:00:29Z</time>
      </trkpt>
      <trkpt lat="43.39951" lon="6.70122">
        <ele>86.2</ele>
        <time>2017-10-08T09:00:30Z</time>
      </trkpt>
      <trkpt lat="43.39948" lon="6.70122">
        <ele>86.7</ele>
        <time>2017-10-08T09:00:32Z</time>
      </trkpt>
      <trkpt lat="43.39947" lon="6.70123">
        <ele>86.9</ele>
        <time>2017-10-08T09:00:33Z</time>
      </trkpt>
      <trkpt lat="43.39944" lon="6.70124">
        <ele>87.3</ele>
        <time>2017-10-08T09:00:35Z</time>
      </trkpt>
      <trkpt lat="43.39938" lon="6.70126">
        <ele>88.5</ele>
        <time>2017-10-08T09:00:39Z</time>
      </trkpt>
      <trkpt lat="43.39935" lon="6.70128">
        <ele>89.5</ele>
        <time>2017-10-08T09:00:42Z</time>
      </trkpt>
      <trkpt lat="43.39929" lon="6.7013">
        <ele>90.8</ele>
        <time>2017-10-08T09:00:46Z</time>
      </trkpt>
      <trkpt lat="43.39924" lon="6.70131">
        <ele>91.8</ele>
        <time>2017-10-08T09:00:50Z</time>
      </trkpt>
      <trkpt lat="43.39919" lon="6.70131">
        <ele>92.3</ele>
        <time>2017-10-08T09:00:53Z</time>
      </trkpt>
      <trkpt lat="43.39915" lon="6.70133">
        <ele>93.1</ele>
        <time>2017-10-08T09:00:56Z</time>
      </trkpt>
      <trkpt lat="43.39914" lon="6.70134">
        <ele>93.4</ele>
        <time>2017-10-08T09:00:57Z</time>
      </trkpt>
      <trkpt lat="43.3991" lon="6.70135">
        <ele>94.3</ele>
        <time>2017-10-08T09:01:00Z</time>
      </trkpt>
      <trkpt lat="43.39905" lon="6.70137">
        <ele>95.1</ele>
        <time>2017-10-08T09:01:04Z</time>
      </trkpt>
      <trkpt lat="43.39902" lon="6.70137">
        <ele>95.7</ele>
        <time>2017-10-08T09:01:06Z</time>
      </trkpt>
      <trkpt lat="43.39897" lon="6.70139">
        <ele>96.5</ele>
        <time>2017-10-08T09:01:09Z</time>
      </trkpt>
      <trkpt lat="43.39891" lon="6.70141">
        <ele>96.9</ele>
        <time>2017-10-08T09:01:13Z</time>
      </trkpt>
      <trkpt lat="43.3989" lon="6.70142">
        <ele>97.1</ele>
        <time>2017-10-08T09:01:14Z</time>
      </trkpt>
      <trkpt lat="43.39879" lon="6.7015">
        <ele>98.5</ele>
        <time>2017-10-08T09:01:20Z</time>
      </trkpt>
      <trkpt lat="43.39873" lon="6.70157">
        <ele>99</ele>
        <time>2017-10-08T09:01:23Z</time>
      </trkpt>
      <trkpt lat="43.39871" lon="6.70159">
        <ele>99.1</ele>
        <time>2017-10-08T09:01:24Z</time>
      </trkpt>
      <trkpt lat="43.39864" lon="6.7017">
        <ele>99.3</ele>
        <time>2017-10-08T09:01:28Z</time>
      </trkpt>
      <trkpt lat="43.39856" lon="6.70177">
        <ele>99.6</ele>
        <time>2017-10-08T09:01:32Z</time>
      </trkpt>
      <trkpt lat="43.39852" lon="6.70181">
        <ele>99.7</ele>
        <time>2017-10-08T09:01:34Z</time>
      </trkpt>
      <trkpt lat="43.39848" lon="6.70187">
        <ele>100</ele>
        <time>2017-10-08T09:01:37Z</time>
      </trkpt>
      <trkpt lat="43.39839" lon="6.70186">
        <ele>100.6</ele>
        <time>2017-10-08T09:01:58Z</time>
      </trkpt>
      <trkpt lat="43.39828" lon="6.70185">
        <ele>101.2</ele>
        <time>2017-10-08T09:02:00Z</time>
      </trkpt>
      <trkpt lat="43.39819" lon="6.70185">
        <ele>101.5</ele>
        <time>2017-10-08T09:02:02Z</time>
      </trkpt>
      <trkpt lat="43.39804" lon="6.70184">
        <ele>101.7</ele>
        <time>2017-10-08T09:02:05Z</time>
      </trkpt>
      <trkpt lat="43.3977" lon="6.7018">
        <ele>101.9</ele>
        <time>2017-10-08T09:02:12Z</time>
      </trkpt>
      <trkpt lat="43.39759" lon="6.70178">
        <ele>101.9</ele>
        <time>2017-10-08T09:02:14Z</time>
      </trkpt>
      <trkpt lat="43.39732" lon="6.70171">
        <ele>102.1</ele>
        <time>2017-10-08T09:02:19Z</time>
      </trkpt>
      <trkpt lat="43.39719" lon="6.70167">
        <ele>102.2</ele>
        <time>2017-10-08T09:02:21Z</time>
      </trkpt>
      <trkpt lat="43.39712" lon="6.70165">
        <ele>102.2</ele>
        <time>2017-10-08T09:02:22Z</time>
      </trkpt>
      <trkpt lat="43.39677" lon="6.70148">
        <ele>102.5</ele>
        <time>2017-10-08T09:02:28Z</time>
      </trkpt>
      <trkpt lat="43.39658" lon="6.70132">
        <ele>102.7</ele>
        <time>2017-10-08T09:02:33Z</time>
      </trkpt>
      <trkpt lat="43.39653" lon="6.70126">
        <ele>102.9</ele>
        <time>2017-10-08T09:02:35Z</time>
      </trkpt>
      <trkpt lat="43.39645" lon="6.70115">
        <ele>103.3</ele>
        <time>2017-10-08T09:02:39Z</time>
      </trkpt>
      <trkpt lat="43.39632" lon="6.7009">
        <ele>105.8</ele>
        <time>2017-10-08T09:02:48Z</time>
      </trkpt>
      <trkpt lat="43.39619" lon="6.70068">
        <ele>107.3</ele>
        <time>2017-10-08T09:02:56Z</time>
      </trkpt>
      <trkpt lat="43.39598" lon="6.70056">
        <ele>109</ele>
        <time>2017-10-08T09:03:04Z</time>
      </trkpt>
      <trkpt lat="43.39578" lon="6.70063">
        <ele>109.9</ele>
        <time>2017-10-08T09:03:10Z</time>
      </trkpt>
      <trkpt lat="43.39549" lon="6.70081">
        <ele>110.2</ele>
        <time>2017-10-08T09:03:17Z</time>
      </trkpt>
      <trkpt lat="43.39538" lon="6.70088">
        <ele>110.3</ele>
        <time>2017-10-08T09:03:19Z</time>
      </trkpt>
      <trkpt lat="43.3952" lon="6.70099">
        <ele>110.4</ele>
        <time>2017-10-08T09:03:22Z</time>
      </trkpt>
      <trkpt lat="43.3948" lon="6.70113">
        <ele>110.4</ele>
        <time>2017-10-08T09:03:28Z</time>
      </trkpt>
      <trkpt lat="43.39468" lon="6.70115">
        <ele>110.4</ele>
        <time>2017-10-08T09:03:30Z</time>
      </trkpt>
      <trkpt lat="43.39456" lon="6.70114">
        <ele>110.2</ele>
        <time>2017-10-08T09:03:32Z</time>
      </trkpt>
      <trkpt lat="43.39444" lon="6.70109">
        <ele>110</ele>
        <time>2017-10-08T09:03:34Z</time>
      </trkpt>
      <trkpt lat="43.394" lon="6.70095">
        <ele>108.7</ele>
        <time>2017-10-08T09:03:40Z</time>
      </trkpt>
      <trkpt lat="43.39369" lon="6.70082">
        <ele>107.9</ele>
        <time>2017-10-08T09:03:45Z</time>
      </trkpt>
      <trkpt lat="43.39358" lon="6.70076">
        <ele>107.6</ele>
        <time>2017-10-08T09:03:47Z</time>
      </trkpt>
      <trkpt lat="43.39337" lon="6.70056">
        <ele>107.4</ele>
        <time>2017-10-08T09:03:51Z</time>
      </trkpt>
      <trkpt lat="43.39331" lon="6.7005">
        <ele>107.4</ele>
        <time>2017-10-08T09:03:52Z</time>
      </trkpt>
      <trkpt lat="43.39296" lon="6.7">
        <ele>106.7</ele>
        <time>2017-10-08T09:03:59Z</time>
      </trkpt>
      <trkpt lat="43.3927" lon="6.69967">
        <ele>106.2</ele>
        <time>2017-10-08T09:04:05Z</time>
      </trkpt>
      <trkpt lat="43.39254" lon="6.69941">
        <ele>106.4</ele>
        <time>2017-10-08T09:04:11Z</time>
      </trkpt>
      <trkpt lat="43.39235" lon="6.6993">
        <ele>106.9</ele>
        <time>2017-10-08T09:04:16Z</time>
      </trkpt>
      <trkpt lat="43.3923" lon="6.69928">
        <ele>107.2</ele>
        <time>2017-10-08T09:04:17Z</time>
      </trkpt>
      <trkpt lat="43.39219" lon="6.69925">
        <ele>108</ele>
        <time>2017-10-08T09:04:19Z</time>
      </trkpt>
      <trkpt lat="43.39213" lon="6.69921">
        <ele>108.4</ele>
        <time>2017-10-08T09:04:20Z</time>
      </trkpt>
      <trkpt lat="43.39182" lon="6.69896">
        <ele>109</ele>
        <time>2017-10-08T09:04:25Z</time>
      </trkpt>
      <trkpt lat="43.39158" lon="6.69874">
        <ele>109.5</ele>
        <time>2017-10-08T09:04:30Z</time>
      </trkpt>
      <trkpt lat="43.39149" lon="6.69865">
        <ele>110.8</ele>
        <time>2017-10-08T09:04:34Z</time>
      </trkpt>
      <trkpt lat="43.3915" lon="6.69861">
        <ele>111.2</ele>
        <time>2017-10-08T09:04:36Z</time>
      </trkpt>
      <trkpt lat="43.39151" lon="6.69858">
        <ele>111.5</ele>
        <time>2017-10-08T09:04:37Z</time>
      </trkpt>
      <trkpt lat="43.39149" lon="6.69854">
        <ele>111.9</ele>
        <time>2017-10-08T09:04:39Z</time>
      </trkpt>
      <trkpt lat="43.39143" lon="6.69848">
        <ele>112.9</ele>
        <time>2017-10-08T09:04:43Z</time>
      </trkpt>
      <trkpt lat="43.39137" lon="6.69839">
        <ele>113.5</ele>
        <time>2017-10-08T09:04:47Z</time>
      </trkpt>
      <trkpt lat="43.39134" lon="6.69832">
        <ele>114.1</ele>
        <time>2017-10-08T09:04:50Z</time>
      </trkpt>
      <trkpt lat="43.39134" lon="6.6983">
        <ele>114.4</ele>
        <time>2017-10-08T09:04:51Z</time>
      </trkpt>
      <trkpt lat="43.39132" lon="6.69816">
        <ele>115.2</ele>
        <time>2017-10-08T09:04:56Z</time>
      </trkpt>
      <trkpt lat="43.39132" lon="6.69814">
        <ele>115.3</ele>
        <time>2017-10-08T09:04:57Z</time>
      </trkpt>
      <trkpt lat="43.39131" lon="6.69803">
        <ele>116</ele>
        <time>2017-10-08T09:05:00Z</time>
      </trkpt>
      <trkpt lat="43.39131" lon="6.698">
        <ele>116.4</ele>
        <time>2017-10-08T09:05:01Z</time>
      </trkpt>
      <trkpt lat="43.3913" lon="6.69785">
        <ele>117.7</ele>
        <time>2017-10-08T09:05:07Z</time>
      </trkpt>
      <trkpt lat="43.39131" lon="6.69783">
        <ele>117.9</ele>
        <time>2017-10-08T09:05:08Z</time>
      </trkpt>
      <trkpt lat="43.39131" lon="6.69772">
        <ele>119.3</ele>
        <time>2017-10-08T09:05:13Z</time>
      </trkpt>
      <trkpt lat="43.39131" lon="6.69768">
        <ele>119.6</ele>
        <time>2017-10-08T09:05:15Z</time>
      </trkpt>
      <trkpt lat="43.39131" lon="6.69761">
        <ele>120.4</ele>
        <time>2017-10-08T09:05:18Z</time>
      </trkpt>
      <trkpt lat="43.39132" lon="6.69751">
        <ele>121.5</ele>
        <time>2017-10-08T09:05:23Z</time>
      </trkpt>
      <trkpt lat="43.39132" lon="6.69749">
        <ele>121.7</ele>
        <time>2017-10-08T09:05:24Z</time>
      </trkpt>
      <trkpt lat="43.39132" lon="6.69741">
        <ele>122.7</ele>
        <time>2017-10-08T09:05:28Z</time>
      </trkpt>
      <trkpt lat="43.39131" lon="6.69734">
        <ele>123.2</ele>
        <time>2017-10-08T09:05:31Z</time>
      </trkpt>
      <trkpt lat="43.39131" lon="6.69732">
        <ele>123.4</ele>
        <time>2017-10-08T09:05:32Z</time>
      </trkpt>
      <trkpt lat="43.3913" lon="6.69725">
        <ele>123.8</ele>
        <time>2017-10-08T09:05:35Z</time>
      </trkpt>
      <trkpt lat="43.3913" lon="6.69718">
        <ele>124.5</ele>
        <time>2017-10-08T09:05:38Z</time>
      </trkpt>
      <trkpt lat="43.3913" lon="6.69716">
        <ele>124.8</ele>
        <time>2017-10-08T09:05:39Z</time>
      </trkpt>
      <trkpt lat="43.39129" lon="6.69713">
        <ele>125.1</ele>
        <time>2017-10-08T09:05:41Z</time>
      </trkpt>
      <trkpt lat="43.39126" lon="6.69701">
        <ele>126.3</ele>
        <time>2017-10-08T09:05:47Z</time>
      </trkpt>
      <trkpt lat="43.39121" lon="6.69686">
        <ele>127.4</ele>
        <time>2017-10-08T09:05:55Z</time>
      </trkpt>
      <trkpt lat="43.3912" lon="6.69684">
        <ele>127.3</ele>
        <time>2017-10-08T09:05:56Z</time>
      </trkpt>
      <trkpt lat="43.39119" lon="6.69678">
        <ele>127.5</ele>
        <time>2017-10-08T09:05:59Z</time>
      </trkpt>
      <trkpt lat="43.39116" lon="6.69669">
        <ele>128.1</ele>
        <time>2017-10-08T09:06:04Z</time>
      </trkpt>
      <trkpt lat="43.39115" lon="6.69667">
        <ele>128.2</ele>
        <time>2017-10-08T09:06:05Z</time>
      </trkpt>
      <trkpt lat="43.39113" lon="6.69659">
        <ele>128.8</ele>
        <time>2017-10-08T09:06:09Z</time>
      </trkpt>
      <trkpt lat="43.39112" lon="6.69651">
        <ele>129.4</ele>
        <time>2017-10-08T09:06:13Z</time>
      </trkpt>
      <trkpt lat="43.39112" lon="6.69648">
        <ele>129.7</ele>
        <time>2017-10-08T09:06:14Z</time>
      </trkpt>
      <trkpt lat="43.3911" lon="6.69636">
        <ele>130.7</ele>
        <time>2017-10-08T09:06:17Z</time>
      </trkpt>
      <trkpt lat="43.3911" lon="6.69634">
        <ele>131</ele>
        <time>2017-10-08T09:06:18Z</time>
      </trkpt>
      <trkpt lat="43.39109" lon="6.69627">
        <ele>131.7</ele>
        <time>2017-10-08T09:06:21Z</time>
      </trkpt>
      <trkpt lat="43.39108" lon="6.69625">
        <ele>139.2</ele>
        <time>2017-10-08T09:06:22Z</time>
      </trkpt>
      <trkpt lat="43.39107" lon="6.69618">
        <ele>140.6</ele>
        <time>2017-10-08T09:06:25Z</time>
      </trkpt>
      <trkpt lat="43.39105" lon="6.69611">
        <ele>142.3</ele>
        <time>2017-10-08T09:06:29Z</time>
      </trkpt>
      <trkpt lat="43.39104" lon="6.69603">
        <ele>143.1</ele>
        <time>2017-10-08T09:06:33Z</time>
      </trkpt>
      <trkpt lat="43.39103" lon="6.69601">
        <ele>143.1</ele>
        <time>2017-10-08T09:06:34Z</time>
      </trkpt>
      <trkpt lat="43.391" lon="6.69592">
        <ele>143.5</ele>
        <time>2017-10-08T09:06:39Z</time>
      </trkpt>
      <trkpt lat="43.39099" lon="6.69587">
        <ele>143.7</ele>
        <time>2017-10-08T09:06:42Z</time>
      </trkpt>
      <trkpt lat="43.39097" lon="6.69581">
        <ele>143.9</ele>
        <time>2017-10-08T09:06:45Z</time>
      </trkpt>
      <trkpt lat="43.39095" lon="6.69574">
        <ele>144.1</ele>
        <time>2017-10-08T09:06:49Z</time>
      </trkpt>
      <trkpt lat="43.39094" lon="6.69573">
        <ele>144.2</ele>
        <time>2017-10-08T09:06:50Z</time>
      </trkpt>
      <trkpt lat="43.39094" lon="6.69569">
        <ele>144.3</ele>
        <time>2017-10-08T09:06:52Z</time>
      </trkpt>
      <trkpt lat="43.39091" lon="6.69562">
        <ele>144.6</ele>
        <time>2017-10-08T09:06:56Z</time>
      </trkpt>
      <trkpt lat="43.3909" lon="6.6956">
        <ele>144.7</ele>
        <time>2017-10-08T09:06:57Z</time>
      </trkpt>
      <trkpt lat="43.39088" lon="6.69555">
        <ele>144.9</ele>
        <time>2017-10-08T09:07:01Z</time>
      </trkpt>
      <trkpt lat="43.39086" lon="6.69549">
        <ele>145.1</ele>
        <time>2017-10-08T09:07:04Z</time>
      </trkpt>
      <trkpt lat="43.39084" lon="6.69546">
        <ele>145.5</ele>
        <time>2017-10-08T09:07:06Z</time>
      </trkpt>
      <trkpt lat="43.39081" lon="6.69542">
        <ele>145.9</ele>
        <time>2017-10-08T09:07:09Z</time>
      </trkpt>
      <trkpt lat="43.39079" lon="6.69539">
        <ele>146.3</ele>
        <time>2017-10-08T09:07:11Z</time>
      </trkpt>
      <trkpt lat="43.39074" lon="6.69535">
        <ele>147</ele>
        <time>2017-10-08T09:07:15Z</time>
      </trkpt>
      <trkpt lat="43.39071" lon="6.69531">
        <ele>147.4</ele>
        <time>2017-10-08T09:07:18Z</time>
      </trkpt>
      <trkpt lat="43.39061" lon="6.69525">
        <ele>148</ele>
        <time>2017-10-08T09:07:25Z</time>
      </trkpt>
      <trkpt lat="43.39053" lon="6.6952">
        <ele>148.5</ele>
        <time>2017-10-08T09:07:30Z</time>
      </trkpt>
      <trkpt lat="43.39047" lon="6.69517">
        <ele>149.1</ele>
        <time>2017-10-08T09:07:35Z</time>
      </trkpt>
      <trkpt lat="43.39042" lon="6.69514">
        <ele>149.8</ele>
        <time>2017-10-08T09:07:38Z</time>
      </trkpt>
      <trkpt lat="43.39035" lon="6.69507">
        <ele>150.9</ele>
        <time>2017-10-08T09:07:44Z</time>
      </trkpt>
      <trkpt lat="43.39033" lon="6.69506">
        <ele>151.1</ele>
        <time>2017-10-08T09:07:45Z</time>
      </trkpt>
      <trkpt lat="43.39029" lon="6.69503">
        <ele>151.8</ele>
        <time>2017-10-08T09:07:48Z</time>
      </trkpt>
      <trkpt lat="43.39024" lon="6.69498">
        <ele>153.1</ele>
        <time>2017-10-08T09:07:52Z</time>
      </trkpt>
      <trkpt lat="43.3902" lon="6.69494">
        <ele>153.7</ele>
        <time>2017-10-08T09:07:55Z</time>
      </trkpt>
      <trkpt lat="43.39012" lon="6.69487">
        <ele>155.1</ele>
        <time>2017-10-08T09:08:01Z</time>
      </trkpt>
      <trkpt lat="43.39009" lon="6.69485">
        <ele>155.7</ele>
        <time>2017-10-08T09:08:03Z</time>
      </trkpt>
      <trkpt lat="43.39001" lon="6.69478">
        <ele>157.4</ele>
        <time>2017-10-08T09:08:09Z</time>
      </trkpt>
      <trkpt lat="43.38998" lon="6.69477">
        <ele>158.1</ele>
        <time>2017-10-08T09:08:11Z</time>
      </trkpt>
      <trkpt lat="43.38993" lon="6.69472">
        <ele>159.2</ele>
        <time>2017-10-08T09:08:15Z</time>
      </trkpt>
      <trkpt lat="43.3899" lon="6.6947">
        <ele>159.7</ele>
        <time>2017-10-08T09:08:18Z</time>
      </trkpt>
      <trkpt lat="43.38988" lon="6.69469">
        <ele>159.9</ele>
        <time>2017-10-08T09:08:19Z</time>
      </trkpt>
      <trkpt lat="43.38984" lon="6.69465">
        <ele>160.9</ele>
        <time>2017-10-08T09:08:22Z</time>
      </trkpt>
      <trkpt lat="43.38978" lon="6.69458">
        <ele>161.5</ele>
        <time>2017-10-08T09:08:27Z</time>
      </trkpt>
      <trkpt lat="43.38977" lon="6.69457">
        <ele>162.6</ele>
        <time>2017-10-08T09:08:28Z</time>
      </trkpt>
      <trkpt lat="43.38974" lon="6.69453">
        <ele>162.9</ele>
        <time>2017-10-08T09:08:31Z</time>
      </trkpt>
      <trkpt lat="43.38969" lon="6.69445">
        <ele>163.9</ele>
        <time>2017-10-08T09:08:36Z</time>
      </trkpt>
      <trkpt lat="43.38967" lon="6.69442">
        <ele>163.8</ele>
        <time>2017-10-08T09:08:38Z</time>
      </trkpt>
      <trkpt lat="43.38965" lon="6.69439">
        <ele>164.7</ele>
        <time>2017-10-08T09:08:40Z</time>
      </trkpt>
      <trkpt lat="43.38963" lon="6.69433">
        <ele>165.4</ele>
        <time>2017-10-08T09:08:43Z</time>
      </trkpt>
      <trkpt lat="43.38961" lon="6.69427">
        <ele>167.2</ele>
        <time>2017-10-08T09:08:46Z</time>
      </trkpt>
      <trkpt lat="43.38961" lon="6.69423">
        <ele>168.2</ele>
        <time>2017-10-08T09:08:48Z</time>
      </trkpt>
      <trkpt lat="43.38959" lon="6.69415">
        <ele>169.8</ele>
        <time>2017-10-08T09:08:52Z</time>
      </trkpt>
      <trkpt lat="43.38957" lon="6.69409">
        <ele>170.5</ele>
        <time>2017-10-08T09:08:55Z</time>
      </trkpt>
      <trkpt lat="43.38954" lon="6.694">
        <ele>172</ele>
        <time>2017-10-08T09:09:00Z</time>
      </trkpt>
      <trkpt lat="43.38953" lon="6.69394">
        <ele>172.9</ele>
        <time>2017-10-08T09:09:03Z</time>
      </trkpt>
      <trkpt lat="43.38951" lon="6.6939">
        <ele>173.7</ele>
        <time>2017-10-08T09:09:05Z</time>
      </trkpt>
      <trkpt lat="43.38949" lon="6.69383">
        <ele>175.3</ele>
        <time>2017-10-08T09:09:09Z</time>
      </trkpt>
      <trkpt lat="43.38947" lon="6.69378">
        <ele>175.7</ele>
        <time>2017-10-08T09:09:12Z</time>
      </trkpt>
      <trkpt lat="43.38946" lon="6.69374">
        <ele>176.1</ele>
        <time>2017-10-08T09:09:14Z</time>
      </trkpt>
      <trkpt lat="43.38943" lon="6.69369">
        <ele>177.1</ele>
        <time>2017-10-08T09:09:17Z</time>
      </trkpt>
      <trkpt lat="43.3894" lon="6.69363">
        <ele>178.2</ele>
        <time>2017-10-08T09:09:21Z</time>
      </trkpt>
      <trkpt lat="43.38939" lon="6.69361">
        <ele>178.4</ele>
        <time>2017-10-08T09:09:22Z</time>
      </trkpt>
      <trkpt lat="43.38935" lon="6.69354">
        <ele>179.6</ele>
        <time>2017-10-08T09:09:26Z</time>
      </trkpt>
      <trkpt lat="43.38933" lon="6.69349">
        <ele>180.4</ele>
        <time>2017-10-08T09:09:29Z</time>
      </trkpt>
      <trkpt lat="43.38927" lon="6.69339">
        <ele>182.3</ele>
        <time>2017-10-08T09:09:36Z</time>
      </trkpt>
      <trkpt lat="43.38926" lon="6.69338">
        <ele>182.6</ele>
        <time>2017-10-08T09:09:37Z</time>
      </trkpt>
      <trkpt lat="43.38925" lon="6.69334">
        <ele>183.2</ele>
        <time>2017-10-08T09:09:39Z</time>
      </trkpt>
      <trkpt lat="43.3892" lon="6.69324">
        <ele>184.6</ele>
        <time>2017-10-08T09:09:45Z</time>
      </trkpt>
      <trkpt lat="43.38919" lon="6.69323">
        <ele>184.8</ele>
        <time>2017-10-08T09:09:46Z</time>
      </trkpt>
      <trkpt lat="43.38917" lon="6.69317">
        <ele>185.7</ele>
        <time>2017-10-08T09:09:49Z</time>
      </trkpt>
      <trkpt lat="43.38915" lon="6.69313">
        <ele>186.6</ele>
        <time>2017-10-08T09:09:52Z</time>
      </trkpt>
      <trkpt lat="43.38913" lon="6.69311">
        <ele>187.1</ele>
        <time>2017-10-08T09:09:54Z</time>
      </trkpt>
      <trkpt lat="43.38911" lon="6.69307">
        <ele>188</ele>
        <time>2017-10-08T09:09:58Z</time>
      </trkpt>
      <trkpt lat="43.38907" lon="6.69304">
        <ele>189.4</ele>
        <time>2017-10-08T09:10:02Z</time>
      </trkpt>
      <trkpt lat="43.38899" lon="6.69302">
        <ele>191.4</ele>
        <time>2017-10-08T09:10:08Z</time>
      </trkpt>
      <trkpt lat="43.38896" lon="6.69301">
        <ele>192.2</ele>
        <time>2017-10-08T09:10:10Z</time>
      </trkpt>
      <trkpt lat="43.38893" lon="6.693">
        <ele>192.6</ele>
        <time>2017-10-08T09:10:12Z</time>
      </trkpt>
      <trkpt lat="43.38881" lon="6.69295">
        <ele>195.3</ele>
        <time>2017-10-08T09:10:20Z</time>
      </trkpt>
      <trkpt lat="43.38875" lon="6.69292">
        <ele>196.1</ele>
        <time>2017-10-08T09:10:24Z</time>
      </trkpt>
      <trkpt lat="43.3887" lon="6.69289">
        <ele>196.8</ele>
        <time>2017-10-08T09:10:28Z</time>
      </trkpt>
      <trkpt lat="43.38866" lon="6.69287">
        <ele>197.2</ele>
        <time>2017-10-08T09:10:31Z</time>
      </trkpt>
      <trkpt lat="43.38861" lon="6.69283">
        <ele>198</ele>
        <time>2017-10-08T09:10:35Z</time>
      </trkpt>
      <trkpt lat="43.38858" lon="6.69282">
        <ele>198.2</ele>
        <time>2017-10-08T09:10:37Z</time>
      </trkpt>
      <trkpt lat="43.38854" lon="6.6928">
        <ele>198.6</ele>
        <time>2017-10-08T09:10:40Z</time>
      </trkpt>
      <trkpt lat="43.3885" lon="6.69278">
        <ele>199.1</ele>
        <time>2017-10-08T09:10:43Z</time>
      </trkpt>
      <trkpt lat="43.38847" lon="6.69276">
        <ele>199.6</ele>
        <time>2017-10-08T09:10:46Z</time>
      </trkpt>
      <trkpt lat="43.38842" lon="6.69271">
        <ele>200.1</ele>
        <time>2017-10-08T09:10:50Z</time>
      </trkpt>
      <trkpt lat="43.38838" lon="6.69267">
        <ele>200.7</ele>
        <time>2017-10-08T09:10:53Z</time>
      </trkpt>
      <trkpt lat="43.38837" lon="6.69266">
        <ele>200.9</ele>
        <time>2017-10-08T09:10:54Z</time>
      </trkpt>
      <trkpt lat="43.38834" lon="6.69265">
        <ele>201.2</ele>
        <time>2017-10-08T09:10:57Z</time>
      </trkpt>
      <trkpt lat="43.38829" lon="6.69262">
        <ele>201.5</ele>
        <time>2017-10-08T09:11:00Z</time>
      </trkpt>
      <trkpt lat="43.38821" lon="6.69256">
        <ele>202.3</ele>
        <time>2017-10-08T09:11:07Z</time>
      </trkpt>
      <trkpt lat="43.38818" lon="6.69254">
        <ele>202.6</ele>
        <time>2017-10-08T09:11:09Z</time>
      </trkpt>
      <trkpt lat="43.38813" lon="6.69244">
        <ele>203.3</ele>
        <time>2017-10-08T09:11:15Z</time>
      </trkpt>
      <trkpt lat="43.38811" lon="6.69241">
        <ele>203.6</ele>
        <time>2017-10-08T09:11:17Z</time>
      </trkpt>
      <trkpt lat="43.38804" lon="6.6923">
        <ele>204.4</ele>
        <time>2017-10-08T09:11:24Z</time>
      </trkpt>
      <trkpt lat="43.38802" lon="6.69227">
        <ele>204.6</ele>
        <time>2017-10-08T09:11:26Z</time>
      </trkpt>
      <trkpt lat="43.38798" lon="6.69221">
        <ele>204.9</ele>
        <time>2017-10-08T09:11:30Z</time>
      </trkpt>
      <trkpt lat="43.38795" lon="6.69217">
        <ele>205.4</ele>
        <time>2017-10-08T09:11:33Z</time>
      </trkpt>
      <trkpt lat="43.38794" lon="6.69216">
        <ele>205.6</ele>
        <time>2017-10-08T09:11:34Z</time>
      </trkpt>
      <trkpt lat="43.3879" lon="6.6921">
        <ele>206</ele>
        <time>2017-10-08T09:11:38Z</time>
      </trkpt>
      <trkpt lat="43.38787" lon="6.69207">
        <ele>206.3</ele>
        <time>2017-10-08T09:11:41Z</time>
      </trkpt>
      <trkpt lat="43.38775" lon="6.69196">
        <ele>207.8</ele>
        <time>2017-10-08T09:11:48Z</time>
      </trkpt>
      <trkpt lat="43.38774" lon="6.69196">
        <ele>207.9</ele>
        <time>2017-10-08T09:11:49Z</time>
      </trkpt>
      <trkpt lat="43.38768" lon="6.69189">
        <ele>208.6</ele>
        <time>2017-10-08T09:11:54Z</time>
      </trkpt>
      <trkpt lat="43.38756" lon="6.69173">
        <ele>209.5</ele>
        <time>2017-10-08T09:12:04Z</time>
      </trkpt>
      <trkpt lat="43.38746" lon="6.69164">
        <ele>210.3</ele>
        <time>2017-10-08T09:12:10Z</time>
      </trkpt>
      <trkpt lat="43.38744" lon="6.69163">
        <ele>210.4</ele>
        <time>2017-10-08T09:12:11Z</time>
      </trkpt>
      <trkpt lat="43.38731" lon="6.69154">
        <ele>210.7</ele>
        <time>2017-10-08T09:12:18Z</time>
      </trkpt>
      <trkpt lat="43.38719" lon="6.69146">
        <ele>211.1</ele>
        <time>2017-10-08T09:12:25Z</time>
      </trkpt>
      <trkpt lat="43.38711" lon="6.69138">
        <ele>211.8</ele>
        <time>2017-10-08T09:12:31Z</time>
      </trkpt>
      <trkpt lat="43.38712" lon="6.69135">
        <ele>212</ele>
        <time>2017-10-08T09:12:32Z</time>
      </trkpt>
      <trkpt lat="43.38716" lon="6.69123">
        <ele>212</ele>
        <time>2017-10-08T09:12:37Z</time>
      </trkpt>
      <trkpt lat="43.38717" lon="6.6912">
        <ele>212</ele>
        <time>2017-10-08T09:12:39Z</time>
      </trkpt>
      <trkpt lat="43.38718" lon="6.69119">
        <ele>212</ele>
        <time>2017-10-08T09:12:40Z</time>
      </trkpt>
      <trkpt lat="43.38721" lon="6.69114">
        <ele>212</ele>
        <time>2017-10-08T09:12:43Z</time>
      </trkpt>
      <trkpt lat="43.38726" lon="6.69111">
        <ele>212</ele>
        <time>2017-10-08T09:12:46Z</time>
      </trkpt>
      <trkpt lat="43.38729" lon="6.69111">
        <ele>212.8</ele>
        <time>2017-10-08T09:12:48Z</time>
      </trkpt>
      <trkpt lat="43.38734" lon="6.69109">
        <ele>214.7</ele>
        <time>2017-10-08T09:12:52Z</time>
      </trkpt>
      <trkpt lat="43.38736" lon="6.69108">
        <ele>215.6</ele>
        <time>2017-10-08T09:12:54Z</time>
      </trkpt>
      <trkpt lat="43.38739" lon="6.69107">
        <ele>216.5</ele>
        <time>2017-10-08T09:12:56Z</time>
      </trkpt>
      <trkpt lat="43.38745" lon="6.69105">
        <ele>218.8</ele>
        <time>2017-10-08T09:13:01Z</time>
      </trkpt>
      <trkpt lat="43.38746" lon="6.69105">
        <ele>219.4</ele>
        <time>2017-10-08T09:13:02Z</time>
      </trkpt>
      <trkpt lat="43.38752" lon="6.69109">
        <ele>221.4</ele>
        <time>2017-10-08T09:13:06Z</time>
      </trkpt>
      <trkpt lat="43.38755" lon="6.69112">
        <ele>222.2</ele>
        <time>2017-10-08T09:13:09Z</time>
      </trkpt>
      <trkpt lat="43.38757" lon="6.69113">
        <ele>222.3</ele>
        <time>2017-10-08T09:13:10Z</time>
      </trkpt>
      <trkpt lat="43.38769" lon="6.69123">
        <ele>222.4</ele>
        <time>2017-10-08T09:13:18Z</time>
      </trkpt>
      <trkpt lat="43.38777" lon="6.69124">
        <ele>222.6</ele>
        <time>2017-10-08T09:13:22Z</time>
      </trkpt>
      <trkpt lat="43.38782" lon="6.69125">
        <ele>222.5</ele>
        <time>2017-10-08T09:13:25Z</time>
      </trkpt>
      <trkpt lat="43.38797" lon="6.69134">
        <ele>222</ele>
        <time>2017-10-08T09:13:32Z</time>
      </trkpt>
      <trkpt lat="43.38801" lon="6.69142">
        <ele>222</ele>
        <time>2017-10-08T09:13:35Z</time>
      </trkpt>
      <trkpt lat="43.38802" lon="6.69143">
        <ele>222</ele>
        <time>2017-10-08T09:13:36Z</time>
      </trkpt>
      <trkpt lat="43.38807" lon="6.69138">
        <ele>221.8</ele>
        <time>2017-10-08T09:15:24Z</time>
      </trkpt>
      <trkpt lat="43.38808" lon="6.6914">
        <ele>221.8</ele>
        <time>2017-10-08T09:15:25Z</time>
      </trkpt>
      <trkpt lat="43.38812" lon="6.69143">
        <ele>221.6</ele>
        <time>2017-10-08T09:15:27Z</time>
      </trkpt>
      <trkpt lat="43.38818" lon="6.69143">
        <ele>221.5</ele>
        <time>2017-10-08T09:15:29Z</time>
      </trkpt>
      <trkpt lat="43.38826" lon="6.69135">
        <ele>221.3</ele>
        <time>2017-10-08T09:15:33Z</time>
      </trkpt>
      <trkpt lat="43.38835" lon="6.69128">
        <ele>221.1</ele>
        <time>2017-10-08T09:15:37Z</time>
      </trkpt>
      <trkpt lat="43.38844" lon="6.69118">
        <ele>220.7</ele>
        <time>2017-10-08T09:15:40Z</time>
      </trkpt>
      <trkpt lat="43.38851" lon="6.69114">
        <ele>220.3</ele>
        <time>2017-10-08T09:15:41Z</time>
      </trkpt>
      <trkpt lat="43.38862" lon="6.69105">
        <ele>219.6</ele>
        <time>2017-10-08T09:15:43Z</time>
      </trkpt>
      <trkpt lat="43.38886" lon="6.6909">
        <ele>217.8</ele>
        <time>2017-10-08T09:15:47Z</time>
      </trkpt>
      <trkpt lat="43.38899" lon="6.69081">
        <ele>216.5</ele>
        <time>2017-10-08T09:15:49Z</time>
      </trkpt>
      <trkpt lat="43.3895" lon="6.69047">
        <ele>210</ele>
        <time>2017-10-08T09:15:57Z</time>
      </trkpt>
      <trkpt lat="43.38957" lon="6.69045">
        <ele>209.1</ele>
        <time>2017-10-08T09:15:58Z</time>
      </trkpt>
      <trkpt lat="43.38993" lon="6.69037">
        <ele>202.9</ele>
        <time>2017-10-08T09:16:04Z</time>
      </trkpt>
      <trkpt lat="43.39038" lon="6.69017">
        <ele>195</ele>
        <time>2017-10-08T09:16:11Z</time>
      </trkpt>
      <trkpt lat="43.39058" lon="6.69008">
        <ele>189.9</ele>
        <time>2017-10-08T09:16:14Z</time>
      </trkpt>
      <trkpt lat="43.39088" lon="6.68996">
        <ele>182.4</ele>
        <time>2017-10-08T09:16:19Z</time>
      </trkpt>
      <trkpt lat="43.39094" lon="6.68994">
        <ele>180.8</ele>
        <time>2017-10-08T09:16:20Z</time>
      </trkpt>
      <trkpt lat="43.39106" lon="6.68984">
        <ele>177.2</ele>
        <time>2017-10-08T09:16:22Z</time>
      </trkpt>
      <trkpt lat="43.39112" lon="6.68976">
        <ele>174.9</ele>
        <time>2017-10-08T09:16:23Z</time>
      </trkpt>
      <trkpt lat="43.39117" lon="6.68968">
        <ele>173</ele>
        <time>2017-10-08T09:16:24Z</time>
      </trkpt>
      <trkpt lat="43.39122" lon="6.68959">
        <ele>171.4</ele>
        <time>2017-10-08T09:16:25Z</time>
      </trkpt>
      <trkpt lat="43.39129" lon="6.68945">
        <ele>168.9</ele>
        <time>2017-10-08T09:16:27Z</time>
      </trkpt>
      <trkpt lat="43.39133" lon="6.68937">
        <ele>167.5</ele>
        <time>2017-10-08T09:16:29Z</time>
      </trkpt>
      <trkpt lat="43.39136" lon="6.68934">
        <ele>166.9</ele>
        <time>2017-10-08T09:16:30Z</time>
      </trkpt>
      <trkpt lat="43.39138" lon="6.68933">
        <ele>166.3</ele>
        <time>2017-10-08T09:16:31Z</time>
      </trkpt>
      <trkpt lat="43.39144" lon="6.68934">
        <ele>165.3</ele>
        <time>2017-10-08T09:16:33Z</time>
      </trkpt>
      <trkpt lat="43.39152" lon="6.68937">
        <ele>163.9</ele>
        <time>2017-10-08T09:16:35Z</time>
      </trkpt>
      <trkpt lat="43.3916" lon="6.68939">
        <ele>162.5</ele>
        <time>2017-10-08T09:16:37Z</time>
      </trkpt>
      <trkpt lat="43.39169" lon="6.68938">
        <ele>161.1</ele>
        <time>2017-10-08T09:16:39Z</time>
      </trkpt>
      <trkpt lat="43.39179" lon="6.68935">
        <ele>159.7</ele>
        <time>2017-10-08T09:16:41Z</time>
      </trkpt>
      <trkpt lat="43.39196" lon="6.68927">
        <ele>157.7</ele>
        <time>2017-10-08T09:16:44Z</time>
      </trkpt>
      <trkpt lat="43.39209" lon="6.68924">
        <ele>156.5</ele>
        <time>2017-10-08T09:16:46Z</time>
      </trkpt>
      <trkpt lat="43.39222" lon="6.68921">
        <ele>155.5</ele>
        <time>2017-10-08T09:16:48Z</time>
      </trkpt>
      <trkpt lat="43.39229" lon="6.6892">
        <ele>154.9</ele>
        <time>2017-10-08T09:16:49Z</time>
      </trkpt>
      <trkpt lat="43.39236" lon="6.68919">
        <ele>154.3</ele>
        <time>2017-10-08T09:16:50Z</time>
      </trkpt>
      <trkpt lat="43.39257" lon="6.68919">
        <ele>152.1</ele>
        <time>2017-10-08T09:16:53Z</time>
      </trkpt>
      <trkpt lat="43.39268" lon="6.68921">
        <ele>150.4</ele>
        <time>2017-10-08T09:16:55Z</time>
      </trkpt>
      <trkpt lat="43.39277" lon="6.68923">
        <ele>148.9</ele>
        <time>2017-10-08T09:16:57Z</time>
      </trkpt>
      <trkpt lat="43.39285" lon="6.68923">
        <ele>147.6</ele>
        <time>2017-10-08T09:16:59Z</time>
      </trkpt>
      <trkpt lat="43.39288" lon="6.68924">
        <ele>146.9</ele>
        <time>2017-10-08T09:17:00Z</time>
      </trkpt>
      <trkpt lat="43.39292" lon="6.68924">
        <ele>146.3</ele>
        <time>2017-10-08T09:17:01Z</time>
      </trkpt>
      <trkpt lat="43.39304" lon="6.6892">
        <ele>144.3</ele>
        <time>2017-10-08T09:17:04Z</time>
      </trkpt>
      <trkpt lat="43.39314" lon="6.68916">
        <ele>142.9</ele>
        <time>2017-10-08T09:17:06Z</time>
      </trkpt>
      <trkpt lat="43.39319" lon="6.68912">
        <ele>142</ele>
        <time>2017-10-08T09:17:07Z</time>
      </trkpt>
      <trkpt lat="43.39334" lon="6.68899">
        <ele>139.3</ele>
        <time>2017-10-08T09:17:10Z</time>
      </trkpt>
      <trkpt lat="43.39338" lon="6.68895">
        <ele>138.5</ele>
        <time>2017-10-08T09:17:11Z</time>
      </trkpt>
      <trkpt lat="43.39347" lon="6.6889">
        <ele>136.9</ele>
        <time>2017-10-08T09:17:13Z</time>
      </trkpt>
      <trkpt lat="43.39356" lon="6.68894">
        <ele>135.2</ele>
        <time>2017-10-08T09:17:15Z</time>
      </trkpt>
      <trkpt lat="43.39368" lon="6.68899">
        <ele>133.6</ele>
        <time>2017-10-08T09:17:17Z</time>
      </trkpt>
      <trkpt lat="43.39379" lon="6.68905">
        <ele>132.1</ele>
        <time>2017-10-08T09:17:19Z</time>
      </trkpt>
      <trkpt lat="43.39386" lon="6.68908">
        <ele>131.2</ele>
        <time>2017-10-08T09:17:20Z</time>
      </trkpt>
      <trkpt lat="43.39392" lon="6.68911">
        <ele>130.4</ele>
        <time>2017-10-08T09:17:21Z</time>
      </trkpt>
      <trkpt lat="43.39405" lon="6.68917">
        <ele>128.8</ele>
        <time>2017-10-08T09:17:23Z</time>
      </trkpt>
      <trkpt lat="43.39418" lon="6.68925">
        <ele>127.1</ele>
        <time>2017-10-08T09:17:25Z</time>
      </trkpt>
      <trkpt lat="43.39424" lon="6.68929">
        <ele>126.3</ele>
        <time>2017-10-08T09:17:26Z</time>
      </trkpt>
      <trkpt lat="43.3943" lon="6.68932">
        <ele>125.3</ele>
        <time>2017-10-08T09:17:27Z</time>
      </trkpt>
      <trkpt lat="43.39435" lon="6.68935">
        <ele>124.3</ele>
        <time>2017-10-08T09:17:28Z</time>
      </trkpt>
      <trkpt lat="43.39441" lon="6.68937">
        <ele>123.3</ele>
        <time>2017-10-08T09:17:29Z</time>
      </trkpt>
      <trkpt lat="43.39452" lon="6.68939">
        <ele>121.1</ele>
        <time>2017-10-08T09:17:31Z</time>
      </trkpt>
      <trkpt lat="43.39458" lon="6.68938">
        <ele>119.9</ele>
        <time>2017-10-08T09:17:32Z</time>
      </trkpt>
      <trkpt lat="43.39464" lon="6.68936">
        <ele>118.6</ele>
        <time>2017-10-08T09:17:33Z</time>
      </trkpt>
      <trkpt lat="43.39481" lon="6.68928">
        <ele>117</ele>
        <time>2017-10-08T09:17:36Z</time>
      </trkpt>
      <trkpt lat="43.39487" lon="6.68924">
        <ele>115.3</ele>
        <time>2017-10-08T09:17:37Z</time>
      </trkpt>
      <trkpt lat="43.39492" lon="6.68921">
        <ele>113.2</ele>
        <time>2017-10-08T09:17:38Z</time>
      </trkpt>
      <trkpt lat="43.39496" lon="6.68918">
        <ele>111.3</ele>
        <time>2017-10-08T09:17:39Z</time>
      </trkpt>
      <trkpt lat="43.39509" lon="6.68909">
        <ele>107.5</ele>
        <time>2017-10-08T09:17:42Z</time>
      </trkpt>
      <trkpt lat="43.39522" lon="6.68897">
        <ele>103.5</ele>
        <time>2017-10-08T09:17:45Z</time>
      </trkpt>
      <trkpt lat="43.3953" lon="6.68884">
        <ele>101.1</ele>
        <time>2017-10-08T09:17:47Z</time>
      </trkpt>
      <trkpt lat="43.39534" lon="6.68876">
        <ele>100</ele>
        <time>2017-10-08T09:17:48Z</time>
      </trkpt>
      <trkpt lat="43.39537" lon="6.68869">
        <ele>100.2</ele>
        <time>2017-10-08T09:17:49Z</time>
      </trkpt>
      <trkpt lat="43.3954" lon="6.68862">
        <ele>100.3</ele>
        <time>2017-10-08T09:17:50Z</time>
      </trkpt>
      <trkpt lat="43.39543" lon="6.68855">
        <ele>100.4</ele>
        <time>2017-10-08T09:17:51Z</time>
      </trkpt>
      <trkpt lat="43.39546" lon="6.68848">
        <ele>100.5</ele>
        <time>2017-10-08T09:17:52Z</time>
      </trkpt>
      <trkpt lat="43.39548" lon="6.68841">
        <ele>100.6</ele>
        <time>2017-10-08T09:17:53Z</time>
      </trkpt>
      <trkpt lat="43.39549" lon="6.68835">
        <ele>100.7</ele>
        <time>2017-10-08T09:17:54Z</time>
      </trkpt>
      <trkpt lat="43.3955" lon="6.68829">
        <ele>100.8</ele>
        <time>2017-10-08T09:17:55Z</time>
      </trkpt>
      <trkpt lat="43.39551" lon="6.68823">
        <ele>100.8</ele>
        <time>2017-10-08T09:17:56Z</time>
      </trkpt>
      <trkpt lat="43.3955" lon="6.6881">
        <ele>101</ele>
        <time>2017-10-08T09:17:58Z</time>
      </trkpt>
      <trkpt lat="43.39549" lon="6.68804">
        <ele>101</ele>
        <time>2017-10-08T09:17:59Z</time>
      </trkpt>
      <trkpt lat="43.39548" lon="6.68797">
        <ele>101</ele>
        <time>2017-10-08T09:18:00Z</time>
      </trkpt>
      <trkpt lat="43.39544" lon="6.6879">
        <ele>100.9</ele>
        <time>2017-10-08T09:18:01Z</time>
      </trkpt>
      <trkpt lat="43.3954" lon="6.68783">
        <ele>100.8</ele>
        <time>2017-10-08T09:18:02Z</time>
      </trkpt>
      <trkpt lat="43.39532" lon="6.68771">
        <ele>100.7</ele>
        <time>2017-10-08T09:18:04Z</time>
      </trkpt>
      <trkpt lat="43.39525" lon="6.68765">
        <ele>100.6</ele>
        <time>2017-10-08T09:18:05Z</time>
      </trkpt>
      <trkpt lat="43.39518" lon="6.68759">
        <ele>100.4</ele>
        <time>2017-10-08T09:18:06Z</time>
      </trkpt>
      <trkpt lat="43.39505" lon="6.68745">
        <ele>100.3</ele>
        <time>2017-10-08T09:18:08Z</time>
      </trkpt>
      <trkpt lat="43.39495" lon="6.68731">
        <ele>100.1</ele>
        <time>2017-10-08T09:18:10Z</time>
      </trkpt>
      <trkpt lat="43.39486" lon="6.68715">
        <ele>100</ele>
        <time>2017-10-08T09:18:12Z</time>
      </trkpt>
      <trkpt lat="43.39483" lon="6.68707">
        <ele>100</ele>
        <time>2017-10-08T09:18:13Z</time>
      </trkpt>
      <trkpt lat="43.39472" lon="6.68685">
        <ele>99.4</ele>
        <time>2017-10-08T09:18:16Z</time>
      </trkpt>
      <trkpt lat="43.39465" lon="6.6867">
        <ele>98.1</ele>
        <time>2017-10-08T09:18:18Z</time>
      </trkpt>
      <trkpt lat="43.39463" lon="6.6866">
        <ele>97.4</ele>
        <time>2017-10-08T09:18:19Z</time>
      </trkpt>
      <trkpt lat="43.39461" lon="6.68652">
        <ele>96.7</ele>
        <time>2017-10-08T09:18:20Z</time>
      </trkpt>
      <trkpt lat="43.39461" lon="6.68646">
        <ele>96.1</ele>
        <time>2017-10-08T09:18:21Z</time>
      </trkpt>
      <trkpt lat="43.3946" lon="6.68638">
        <ele>95.5</ele>
        <time>2017-10-08T09:18:22Z</time>
      </trkpt>
      <trkpt lat="43.39461" lon="6.6863">
        <ele>94.6</ele>
        <time>2017-10-08T09:18:23Z</time>
      </trkpt>
      <trkpt lat="43.39462" lon="6.68611">
        <ele>92.5</ele>
        <time>2017-10-08T09:18:25Z</time>
      </trkpt>
      <trkpt lat="43.39464" lon="6.68588">
        <ele>90</ele>
        <time>2017-10-08T09:18:27Z</time>
      </trkpt>
      <trkpt lat="43.39466" lon="6.68575">
        <ele>88.6</ele>
        <time>2017-10-08T09:18:28Z</time>
      </trkpt>
      <trkpt lat="43.39468" lon="6.68563">
        <ele>87.2</ele>
        <time>2017-10-08T09:18:29Z</time>
      </trkpt>
      <trkpt lat="43.39473" lon="6.68542">
        <ele>84.7</ele>
        <time>2017-10-08T09:18:31Z</time>
      </trkpt>
      <trkpt lat="43.3948" lon="6.68514">
        <ele>84.9</ele>
        <time>2017-10-08T09:18:34Z</time>
      </trkpt>
      <trkpt lat="43.39479" lon="6.68506">
        <ele>85.1</ele>
        <time>2017-10-08T09:18:35Z</time>
      </trkpt>
      <trkpt lat="43.39477" lon="6.68499">
        <ele>85.2</ele>
        <time>2017-10-08T09:18:36Z</time>
      </trkpt>
      <trkpt lat="43.39476" lon="6.68492">
        <ele>85.3</ele>
        <time>2017-10-08T09:18:37Z</time>
      </trkpt>
      <trkpt lat="43.39472" lon="6.68479">
        <ele>85.6</ele>
        <time>2017-10-08T09:18:39Z</time>
      </trkpt>
      <trkpt lat="43.39465" lon="6.6847">
        <ele>85.8</ele>
        <time>2017-10-08T09:18:41Z</time>
      </trkpt>
      <trkpt lat="43.39462" lon="6.68466">
        <ele>85.9</ele>
        <time>2017-10-08T09:18:42Z</time>
      </trkpt>
      <trkpt lat="43.39456" lon="6.68465">
        <ele>85</ele>
        <time>2017-10-08T09:18:43Z</time>
      </trkpt>
      <trkpt lat="43.3945" lon="6.68463">
        <ele>84.1</ele>
        <time>2017-10-08T09:18:44Z</time>
      </trkpt>
      <trkpt lat="43.39444" lon="6.68459">
        <ele>83.3</ele>
        <time>2017-10-08T09:18:45Z</time>
      </trkpt>
      <trkpt lat="43.39438" lon="6.68456">
        <ele>82.4</ele>
        <time>2017-10-08T09:18:46Z</time>
      </trkpt>
      <trkpt lat="43.39432" lon="6.68451">
        <ele>81.3</ele>
        <time>2017-10-08T09:18:47Z</time>
      </trkpt>
      <trkpt lat="43.39426" lon="6.68446">
        <ele>79.9</ele>
        <time>2017-10-08T09:18:48Z</time>
      </trkpt>
      <trkpt lat="43.39419" lon="6.68442">
        <ele>78.6</ele>
        <time>2017-10-08T09:18:49Z</time>
      </trkpt>
      <trkpt lat="43.39413" lon="6.68436">
        <ele>77.3</ele>
        <time>2017-10-08T09:18:50Z</time>
      </trkpt>
      <trkpt lat="43.39403" lon="6.68422">
        <ele>75.2</ele>
        <time>2017-10-08T09:18:52Z</time>
      </trkpt>
      <trkpt lat="43.39392" lon="6.68407">
        <ele>72.9</ele>
        <time>2017-10-08T09:18:54Z</time>
      </trkpt>
      <trkpt lat="43.39382" lon="6.68394">
        <ele>71.9</ele>
        <time>2017-10-08T09:18:56Z</time>
      </trkpt>
      <trkpt lat="43.39372" lon="6.68383">
        <ele>71</ele>
        <time>2017-10-08T09:18:58Z</time>
      </trkpt>
      <trkpt lat="43.39367" lon="6.68377">
        <ele>70.5</ele>
        <time>2017-10-08T09:18:59Z</time>
      </trkpt>
      <trkpt lat="43.39363" lon="6.6837">
        <ele>70</ele>
        <time>2017-10-08T09:19:00Z</time>
      </trkpt>
      <trkpt lat="43.39355" lon="6.68355">
        <ele>69.1</ele>
        <time>2017-10-08T09:19:02Z</time>
      </trkpt>
      <trkpt lat="43.3935" lon="6.68348">
        <ele>69.5</ele>
        <time>2017-10-08T09:19:03Z</time>
      </trkpt>
      <trkpt lat="43.39346" lon="6.68341">
        <ele>70.3</ele>
        <time>2017-10-08T09:19:04Z</time>
      </trkpt>
      <trkpt lat="43.39338" lon="6.68327">
        <ele>72.3</ele>
        <time>2017-10-08T09:19:06Z</time>
      </trkpt>
      <trkpt lat="43.39334" lon="6.68313">
        <ele>74.9</ele>
        <time>2017-10-08T09:19:08Z</time>
      </trkpt>
      <trkpt lat="43.39332" lon="6.68308">
        <ele>76.3</ele>
        <time>2017-10-08T09:19:09Z</time>
      </trkpt>
      <trkpt lat="43.39328" lon="6.68307">
        <ele>77.5</ele>
        <time>2017-10-08T09:19:10Z</time>
      </trkpt>
      <trkpt lat="43.39321" lon="6.68311">
        <ele>79.4</ele>
        <time>2017-10-08T09:19:12Z</time>
      </trkpt>
      <trkpt lat="43.39315" lon="6.68314">
        <ele>81</ele>
        <time>2017-10-08T09:19:14Z</time>
      </trkpt>
      <trkpt lat="43.39309" lon="6.68316">
        <ele>80.9</ele>
        <time>2017-10-08T09:19:16Z</time>
      </trkpt>
      <trkpt lat="43.39303" lon="6.68316">
        <ele>80.7</ele>
        <time>2017-10-08T09:19:18Z</time>
      </trkpt>
      <trkpt lat="43.393" lon="6.68314">
        <ele>80.6</ele>
        <time>2017-10-08T09:19:19Z</time>
      </trkpt>
      <trkpt lat="43.39297" lon="6.6831">
        <ele>80.5</ele>
        <time>2017-10-08T09:19:20Z</time>
      </trkpt>
      <trkpt lat="43.39295" lon="6.68305">
        <ele>80.4</ele>
        <time>2017-10-08T09:19:21Z</time>
      </trkpt>
      <trkpt lat="43.3929" lon="6.6828">
        <ele>79.7</ele>
        <time>2017-10-08T09:19:25Z</time>
      </trkpt>
      <trkpt lat="43.39289" lon="6.68273">
        <ele>79.5</ele>
        <time>2017-10-08T09:19:26Z</time>
      </trkpt>
      <trkpt lat="43.39286" lon="6.68246">
        <ele>78.2</ele>
        <time>2017-10-08T09:19:32Z</time>
      </trkpt>
      <trkpt lat="43.39287" lon="6.68239">
        <ele>77.7</ele>
        <time>2017-10-08T09:19:38Z</time>
      </trkpt>
      <trkpt lat="43.39285" lon="6.68235">
        <ele>77.8</ele>
        <time>2017-10-08T09:19:42Z</time>
      </trkpt>
      <trkpt lat="43.39291" lon="6.68244">
        <ele>78.3</ele>
        <time>2017-10-08T09:19:44Z</time>
      </trkpt>
      <trkpt lat="43.39293" lon="6.68245">
        <ele>78.4</ele>
        <time>2017-10-08T09:19:46Z</time>
      </trkpt>
      <trkpt lat="43.39292" lon="6.68246">
        <ele>78.3</ele>
        <time>2017-10-08T09:19:47Z</time>
      </trkpt>
      <trkpt lat="43.3929" lon="6.68246">
        <ele>78.3</ele>
        <time>2017-10-08T09:19:48Z</time>
      </trkpt>
      <trkpt lat="43.39289" lon="6.68247">
        <ele>78.1</ele>
        <time>2017-10-08T09:19:50Z</time>
      </trkpt>
      <trkpt lat="43.39284" lon="6.68244">
        <ele>77.7</ele>
        <time>2017-10-08T09:19:53Z</time>
      </trkpt>
      <trkpt lat="43.39283" lon="6.68243">
        <ele>77.6</ele>
        <time>2017-10-08T09:19:54Z</time>
      </trkpt>
      <trkpt lat="43.39279" lon="6.68241">
        <ele>77.4</ele>
        <time>2017-10-08T09:19:57Z</time>
      </trkpt>
      <trkpt lat="43.39275" lon="6.68239">
        <ele>77.2</ele>
        <time>2017-10-08T09:20:01Z</time>
      </trkpt>
      <trkpt lat="43.39273" lon="6.68238">
        <ele>77</ele>
        <time>2017-10-08T09:20:02Z</time>
      </trkpt>
      <trkpt lat="43.39272" lon="6.68232">
        <ele>77</ele>
        <time>2017-10-08T09:20:05Z</time>
      </trkpt>
      <trkpt lat="43.39273" lon="6.68224">
        <ele>77</ele>
        <time>2017-10-08T09:20:07Z</time>
      </trkpt>
      <trkpt lat="43.39272" lon="6.68215">
        <ele>77</ele>
        <time>2017-10-08T09:20:09Z</time>
      </trkpt>
      <trkpt lat="43.39274" lon="6.68195">
        <ele>77</ele>
        <time>2017-10-08T09:20:13Z</time>
      </trkpt>
      <trkpt lat="43.39286" lon="6.68164">
        <ele>77.2</ele>
        <time>2017-10-08T09:20:19Z</time>
      </trkpt>
      <trkpt lat="43.3929" lon="6.68152">
        <ele>77.4</ele>
        <time>2017-10-08T09:20:22Z</time>
      </trkpt>
      <trkpt lat="43.39297" lon="6.68138">
        <ele>77.9</ele>
        <time>2017-10-08T09:20:26Z</time>
      </trkpt>
      <trkpt lat="43.39313" lon="6.68116">
        <ele>79.4</ele>
        <time>2017-10-08T09:20:33Z</time>
      </trkpt>
      <trkpt lat="43.39324" lon="6.68097">
        <ele>81.2</ele>
        <time>2017-10-08T09:20:40Z</time>
      </trkpt>
      <trkpt lat="43.39327" lon="6.68086">
        <ele>81.6</ele>
        <time>2017-10-08T09:20:45Z</time>
      </trkpt>
      <trkpt lat="43.39328" lon="6.68081">
        <ele>81.9</ele>
        <time>2017-10-08T09:20:47Z</time>
      </trkpt>
      <trkpt lat="43.39327" lon="6.68073">
        <ele>82.6</ele>
        <time>2017-10-08T09:20:50Z</time>
      </trkpt>
      <trkpt lat="43.39327" lon="6.68069">
        <ele>83</ele>
        <time>2017-10-08T09:20:52Z</time>
      </trkpt>
      <trkpt lat="43.39327" lon="6.68063">
        <ele>83.5</ele>
        <time>2017-10-08T09:20:54Z</time>
      </trkpt>
      <trkpt lat="43.39327" lon="6.68051">
        <ele>84.3</ele>
        <time>2017-10-08T09:20:58Z</time>
      </trkpt>
      <trkpt lat="43.39327" lon="6.68034">
        <ele>85.7</ele>
        <time>2017-10-08T09:21:04Z</time>
      </trkpt>
      <trkpt lat="43.39328" lon="6.68027">
        <ele>86</ele>
        <time>2017-10-08T09:21:07Z</time>
      </trkpt>
      <trkpt lat="43.3933" lon="6.68023">
        <ele>86.1</ele>
        <time>2017-10-08T09:21:09Z</time>
      </trkpt>
      <trkpt lat="43.39334" lon="6.68016">
        <ele>86.3</ele>
        <time>2017-10-08T09:21:11Z</time>
      </trkpt>
      <trkpt lat="43.39336" lon="6.68001">
        <ele>86.4</ele>
        <time>2017-10-08T09:21:14Z</time>
      </trkpt>
      <trkpt lat="43.39335" lon="6.67985">
        <ele>86.4</ele>
        <time>2017-10-08T09:21:17Z</time>
      </trkpt>
      <trkpt lat="43.39335" lon="6.67978">
        <ele>86.3</ele>
        <time>2017-10-08T09:21:19Z</time>
      </trkpt>
      <trkpt lat="43.39334" lon="6.67972">
        <ele>86.3</ele>
        <time>2017-10-08T09:21:21Z</time>
      </trkpt>
      <trkpt lat="43.39327" lon="6.67958">
        <ele>86</ele>
        <time>2017-10-08T09:21:25Z</time>
      </trkpt>
      <trkpt lat="43.39325" lon="6.67954">
        <ele>85.9</ele>
        <time>2017-10-08T09:21:26Z</time>
      </trkpt>
      <trkpt lat="43.39315" lon="6.67941">
        <ele>84.9</ele>
        <time>2017-10-08T09:21:30Z</time>
      </trkpt>
      <trkpt lat="43.39311" lon="6.67935">
        <ele>84.4</ele>
        <time>2017-10-08T09:21:32Z</time>
      </trkpt>
      <trkpt lat="43.39307" lon="6.6793">
        <ele>83.8</ele>
        <time>2017-10-08T09:21:34Z</time>
      </trkpt>
      <trkpt lat="43.39301" lon="6.67922">
        <ele>83</ele>
        <time>2017-10-08T09:21:37Z</time>
      </trkpt>
      <trkpt lat="43.393" lon="6.67914">
        <ele>82.4</ele>
        <time>2017-10-08T09:21:40Z</time>
      </trkpt>
      <trkpt lat="43.39302" lon="6.67912">
        <ele>82</ele>
        <time>2017-10-08T09:21:41Z</time>
      </trkpt>
      <trkpt lat="43.39301" lon="6.67907">
        <ele>81.5</ele>
        <time>2017-10-08T09:21:43Z</time>
      </trkpt>
      <trkpt lat="43.39303" lon="6.67897">
        <ele>80.6</ele>
        <time>2017-10-08T09:21:47Z</time>
      </trkpt>
      <trkpt lat="43.39302" lon="6.67889">
        <ele>79.7</ele>
        <time>2017-10-08T09:21:51Z</time>
      </trkpt>
      <trkpt lat="43.39302" lon="6.67887">
        <ele>79.4</ele>
        <time>2017-10-08T09:21:52Z</time>
      </trkpt>
      <trkpt lat="43.393" lon="6.67881">
        <ele>78.7</ele>
        <time>2017-10-08T09:21:54Z</time>
      </trkpt>
      <trkpt lat="43.39296" lon="6.67871">
        <ele>77.3</ele>
        <time>2017-10-08T09:21:58Z</time>
      </trkpt>
      <trkpt lat="43.39298" lon="6.67864">
        <ele>76.4</ele>
        <time>2017-10-08T09:22:00Z</time>
      </trkpt>
      <trkpt lat="43.39299" lon="6.6786">
        <ele>76</ele>
        <time>2017-10-08T09:22:01Z</time>
      </trkpt>
      <trkpt lat="43.39306" lon="6.67852">
        <ele>74.7</ele>
        <time>2017-10-08T09:22:04Z</time>
      </trkpt>
      <trkpt lat="43.39308" lon="6.67851">
        <ele>74.4</ele>
        <time>2017-10-08T09:22:05Z</time>
      </trkpt>
      <trkpt lat="43.39311" lon="6.67847">
        <ele>73.6</ele>
        <time>2017-10-08T09:22:07Z</time>
      </trkpt>
      <trkpt lat="43.39313" lon="6.67846">
        <ele>73</ele>
        <time>2017-10-08T09:22:09Z</time>
      </trkpt>
      <trkpt lat="43.39317" lon="6.67822">
        <ele>68.2</ele>
        <time>2017-10-08T09:22:54Z</time>
      </trkpt>
      <trkpt lat="43.39317" lon="6.6782">
        <ele>68</ele>
        <time>2017-10-08T09:22:55Z</time>
      </trkpt>
      <trkpt lat="43.39314" lon="6.67812">
        <ele>67</ele>
        <time>2017-10-08T09:22:59Z</time>
      </trkpt>
      <trkpt lat="43.39314" lon="6.67809">
        <ele>66.6</ele>
        <time>2017-10-08T09:23:00Z</time>
      </trkpt>
      <trkpt lat="43.39313" lon="6.67804">
        <ele>65.9</ele>
        <time>2017-10-08T09:23:03Z</time>
      </trkpt>
      <trkpt lat="43.39313" lon="6.67802">
        <ele>65.7</ele>
        <time>2017-10-08T09:23:04Z</time>
      </trkpt>
      <trkpt lat="43.39311" lon="6.67795">
        <ele>64.8</ele>
        <time>2017-10-08T09:23:08Z</time>
      </trkpt>
      <trkpt lat="43.39311" lon="6.67794">
        <ele>64.7</ele>
        <time>2017-10-08T09:23:10Z</time>
      </trkpt>
      <trkpt lat="43.39311" lon="6.67792">
        <ele>64.4</ele>
        <time>2017-10-08T09:23:16Z</time>
      </trkpt>
      <trkpt lat="43.39311" lon="6.6779">
        <ele>64.2</ele>
        <time>2017-10-08T09:23:17Z</time>
      </trkpt>
      <trkpt lat="43.39314" lon="6.67785">
        <ele>63.2</ele>
        <time>2017-10-08T09:23:20Z</time>
      </trkpt>
      <trkpt lat="43.39316" lon="6.67782">
        <ele>62.7</ele>
        <time>2017-10-08T09:23:22Z</time>
      </trkpt>
      <trkpt lat="43.39317" lon="6.67781">
        <ele>62.4</ele>
        <time>2017-10-08T09:23:23Z</time>
      </trkpt>
      <trkpt lat="43.39318" lon="6.6778">
        <ele>62.1</ele>
        <time>2017-10-08T09:23:24Z</time>
      </trkpt>
      <trkpt lat="43.39325" lon="6.67777">
        <ele>60.1</ele>
        <time>2017-10-08T09:23:28Z</time>
      </trkpt>
      <trkpt lat="43.39327" lon="6.67774">
        <ele>59.5</ele>
        <time>2017-10-08T09:23:29Z</time>
      </trkpt>
      <trkpt lat="43.39328" lon="6.67769">
        <ele>58.6</ele>
        <time>2017-10-08T09:23:30Z</time>
      </trkpt>
      <trkpt lat="43.39329" lon="6.67764">
        <ele>57.9</ele>
        <time>2017-10-08T09:23:31Z</time>
      </trkpt>
      <trkpt lat="43.3933" lon="6.67761">
        <ele>57.4</ele>
        <time>2017-10-08T09:23:32Z</time>
      </trkpt>
      <trkpt lat="43.39335" lon="6.67748">
        <ele>56</ele>
        <time>2017-10-08T09:23:36Z</time>
      </trkpt>
      <trkpt lat="43.39335" lon="6.67744">
        <ele>55.7</ele>
        <time>2017-10-08T09:23:37Z</time>
      </trkpt>
      <trkpt lat="43.39332" lon="6.67737">
        <ele>55.4</ele>
        <time>2017-10-08T09:23:40Z</time>
      </trkpt>
      <trkpt lat="43.39327" lon="6.67731">
        <ele>55.1</ele>
        <time>2017-10-08T09:23:44Z</time>
      </trkpt>
      <trkpt lat="43.39324" lon="6.67725">
        <ele>54.9</ele>
        <time>2017-10-08T09:23:47Z</time>
      </trkpt>
      <trkpt lat="43.39322" lon="6.67722">
        <ele>54.7</ele>
        <time>2017-10-08T09:23:49Z</time>
      </trkpt>
      <trkpt lat="43.39319" lon="6.67719">
        <ele>54.3</ele>
        <time>2017-10-08T09:23:51Z</time>
      </trkpt>
      <trkpt lat="43.39316" lon="6.67717">
        <ele>54</ele>
        <time>2017-10-08T09:23:52Z</time>
      </trkpt>
      <trkpt lat="43.39313" lon="6.67715">
        <ele>53.7</ele>
        <time>2017-10-08T09:23:53Z</time>
      </trkpt>
      <trkpt lat="43.39308" lon="6.67712">
        <ele>52.9</ele>
        <time>2017-10-08T09:23:55Z</time>
      </trkpt>
      <trkpt lat="43.39304" lon="6.6771">
        <ele>52.2</ele>
        <time>2017-10-08T09:23:57Z</time>
      </trkpt>
      <trkpt lat="43.39302" lon="6.67708">
        <ele>51.8</ele>
        <time>2017-10-08T09:23:58Z</time>
      </trkpt>
      <trkpt lat="43.393" lon="6.67705">
        <ele>51.4</ele>
        <time>2017-10-08T09:23:59Z</time>
      </trkpt>
      <trkpt lat="43.39297" lon="6.67702">
        <ele>50.7</ele>
        <time>2017-10-08T09:24:01Z</time>
      </trkpt>
      <trkpt lat="43.39293" lon="6.677">
        <ele>49.9</ele>
        <time>2017-10-08T09:24:03Z</time>
      </trkpt>
      <trkpt lat="43.39291" lon="6.67699">
        <ele>49.5</ele>
        <time>2017-10-08T09:24:04Z</time>
      </trkpt>
      <trkpt lat="43.39289" lon="6.67699">
        <ele>49.1</ele>
        <time>2017-10-08T09:24:05Z</time>
      </trkpt>
      <trkpt lat="43.39285" lon="6.67694">
        <ele>47.9</ele>
        <time>2017-10-08T09:24:07Z</time>
      </trkpt>
      <trkpt lat="43.39284" lon="6.67692">
        <ele>47.3</ele>
        <time>2017-10-08T09:24:08Z</time>
      </trkpt>
      <trkpt lat="43.39282" lon="6.6769">
        <ele>46.7</ele>
        <time>2017-10-08T09:24:09Z</time>
      </trkpt>
      <trkpt lat="43.39278" lon="6.67687">
        <ele>45.5</ele>
        <time>2017-10-08T09:24:11Z</time>
      </trkpt>
      <trkpt lat="43.39276" lon="6.67686">
        <ele>44.9</ele>
        <time>2017-10-08T09:24:12Z</time>
      </trkpt>
      <trkpt lat="43.39274" lon="6.67684">
        <ele>44.2</ele>
        <time>2017-10-08T09:24:13Z</time>
      </trkpt>
      <trkpt lat="43.39271" lon="6.67676">
        <ele>42.8</ele>
        <time>2017-10-08T09:24:15Z</time>
      </trkpt>
      <trkpt lat="43.3927" lon="6.67671">
        <ele>42</ele>
        <time>2017-10-08T09:24:16Z</time>
      </trkpt>
      <trkpt lat="43.39269" lon="6.67666">
        <ele>41.3</ele>
        <time>2017-10-08T09:24:17Z</time>
      </trkpt>
      <trkpt lat="43.39268" lon="6.67664">
        <ele>40.9</ele>
        <time>2017-10-08T09:24:18Z</time>
      </trkpt>
      <trkpt lat="43.39266" lon="6.67662">
        <ele>40.5</ele>
        <time>2017-10-08T09:24:19Z</time>
      </trkpt>
      <trkpt lat="43.3926" lon="6.67661">
        <ele>39.2</ele>
        <time>2017-10-08T09:24:22Z</time>
      </trkpt>
      <trkpt lat="43.39256" lon="6.67661">
        <ele>38.2</ele>
        <time>2017-10-08T09:24:24Z</time>
      </trkpt>
      <trkpt lat="43.39245" lon="6.67663">
        <ele>36</ele>
        <time>2017-10-08T09:24:29Z</time>
      </trkpt>
      <trkpt lat="43.39235" lon="6.67666">
        <ele>35.2</ele>
        <time>2017-10-08T09:24:36Z</time>
      </trkpt>
      <trkpt lat="43.3923" lon="6.67668">
        <ele>35.1</ele>
        <time>2017-10-08T09:24:41Z</time>
      </trkpt>
      <trkpt lat="43.39229" lon="6.67669">
        <ele>35.1</ele>
        <time>2017-10-08T09:24:42Z</time>
      </trkpt>
      <trkpt lat="43.3922" lon="6.67664">
        <ele>35</ele>
        <time>2017-10-08T09:24:48Z</time>
      </trkpt>
      <trkpt lat="43.39217" lon="6.67659">
        <ele>34.9</ele>
        <time>2017-10-08T09:24:50Z</time>
      </trkpt>
      <trkpt lat="43.39219" lon="6.67652">
        <ele>34.8</ele>
        <time>2017-10-08T09:24:52Z</time>
      </trkpt>
      <trkpt lat="43.3922" lon="6.6764">
        <ele>34.6</ele>
        <time>2017-10-08T09:24:55Z</time>
      </trkpt>
      <trkpt lat="43.39214" lon="6.67635">
        <ele>35</ele>
        <time>2017-10-08T09:24:58Z</time>
      </trkpt>
      <trkpt lat="43.39214" lon="6.67629">
        <ele>31.4</ele>
        <time>2017-10-08T09:25:00Z</time>
      </trkpt>
      <trkpt lat="43.39216" lon="6.67622">
        <ele>31.1</ele>
        <time>2017-10-08T09:25:02Z</time>
      </trkpt>
      <trkpt lat="43.39218" lon="6.6762">
        <ele>31</ele>
        <time>2017-10-08T09:25:03Z</time>
      </trkpt>
      <trkpt lat="43.39225" lon="6.67621">
        <ele>30.9</ele>
        <time>2017-10-08T09:25:05Z</time>
      </trkpt>
      <trkpt lat="43.39229" lon="6.67621">
        <ele>30.8</ele>
        <time>2017-10-08T09:25:06Z</time>
      </trkpt>
      <trkpt lat="43.39233" lon="6.6762">
        <ele>30.7</ele>
        <time>2017-10-08T09:25:07Z</time>
      </trkpt>
      <trkpt lat="43.3925" lon="6.67621">
        <ele>30.2</ele>
        <time>2017-10-08T09:25:11Z</time>
      </trkpt>
      <trkpt lat="43.39254" lon="6.67622">
        <ele>30.2</ele>
        <time>2017-10-08T09:25:12Z</time>
      </trkpt>
      <trkpt lat="43.39271" lon="6.6762">
        <ele>29.8</ele>
        <time>2017-10-08T09:25:16Z</time>
      </trkpt>
      <trkpt lat="43.39284" lon="6.67616">
        <ele>29.4</ele>
        <time>2017-10-08T09:25:20Z</time>
      </trkpt>
      <trkpt lat="43.39292" lon="6.67616">
        <ele>29.2</ele>
        <time>2017-10-08T09:25:22Z</time>
      </trkpt>
      <trkpt lat="43.39319" lon="6.67614">
        <ele>27.9</ele>
        <time>2017-10-08T09:25:28Z</time>
      </trkpt>
      <trkpt lat="43.39332" lon="6.67611">
        <ele>27.2</ele>
        <time>2017-10-08T09:25:31Z</time>
      </trkpt>
      <trkpt lat="43.3934" lon="6.67612">
        <ele>26.9</ele>
        <time>2017-10-08T09:25:33Z</time>
      </trkpt>
      <trkpt lat="43.39344" lon="6.67611">
        <ele>26.7</ele>
        <time>2017-10-08T09:25:34Z</time>
      </trkpt>
      <trkpt lat="43.39358" lon="6.67603">
        <ele>26</ele>
        <time>2017-10-08T09:25:37Z</time>
      </trkpt>
      <trkpt lat="43.39363" lon="6.676">
        <ele>25.9</ele>
        <time>2017-10-08T09:25:38Z</time>
      </trkpt>
      <trkpt lat="43.39377" lon="6.67592">
        <ele>25.4</ele>
        <time>2017-10-08T09:25:41Z</time>
      </trkpt>
      <trkpt lat="43.39382" lon="6.6759">
        <ele>25.3</ele>
        <time>2017-10-08T09:25:42Z</time>
      </trkpt>
      <trkpt lat="43.39399" lon="6.67581">
        <ele>24.8</ele>
        <time>2017-10-08T09:25:46Z</time>
      </trkpt>
      <trkpt lat="43.39406" lon="6.67574">
        <ele>24.4</ele>
        <time>2017-10-08T09:25:50Z</time>
      </trkpt>
      <trkpt lat="43.39413" lon="6.67574">
        <ele>24.1</ele>
        <time>2017-10-08T09:25:52Z</time>
      </trkpt>
      <trkpt lat="43.39417" lon="6.67575">
        <ele>23.9</ele>
        <time>2017-10-08T09:25:53Z</time>
      </trkpt>
      <trkpt lat="43.39429" lon="6.67582">
        <ele>23.4</ele>
        <time>2017-10-08T09:25:57Z</time>
      </trkpt>
      <trkpt lat="43.39432" lon="6.67584">
        <ele>23.2</ele>
        <time>2017-10-08T09:25:59Z</time>
      </trkpt>
      <trkpt lat="43.39437" lon="6.67582">
        <ele>23</ele>
        <time>2017-10-08T09:26:01Z</time>
      </trkpt>
      <trkpt lat="43.3945" lon="6.6758">
        <ele>22.4</ele>
        <time>2017-10-08T09:26:05Z</time>
      </trkpt>
      <trkpt lat="43.39468" lon="6.67577">
        <ele>21.6</ele>
        <time>2017-10-08T09:26:09Z</time>
      </trkpt>
      <trkpt lat="43.39479" lon="6.67565">
        <ele>20.8</ele>
        <time>2017-10-08T09:26:12Z</time>
      </trkpt>
      <trkpt lat="43.39482" lon="6.67559">
        <ele>20.3</ele>
        <time>2017-10-08T09:26:15Z</time>
      </trkpt>
      <trkpt lat="43.39484" lon="6.67557">
        <ele>20.2</ele>
        <time>2017-10-08T09:26:17Z</time>
      </trkpt>
      <trkpt lat="43.39487" lon="6.67555">
        <ele>20</ele>
        <time>2017-10-08T09:26:20Z</time>
      </trkpt>
      <trkpt lat="43.39496" lon="6.67552">
        <ele>19.3</ele>
        <time>2017-10-08T09:26:25Z</time>
      </trkpt>
      <trkpt lat="43.39501" lon="6.67551">
        <ele>19.1</ele>
        <time>2017-10-08T09:26:27Z</time>
      </trkpt>
      <trkpt lat="43.39507" lon="6.67553">
        <ele>18.9</ele>
        <time>2017-10-08T09:26:29Z</time>
      </trkpt>
      <trkpt lat="43.39511" lon="6.67555">
        <ele>18.7</ele>
        <time>2017-10-08T09:26:30Z</time>
      </trkpt>
      <trkpt lat="43.39516" lon="6.67555">
        <ele>18.4</ele>
        <time>2017-10-08T09:26:32Z</time>
      </trkpt>
      <trkpt lat="43.39519" lon="6.67552">
        <ele>18.3</ele>
        <time>2017-10-08T09:26:33Z</time>
      </trkpt>
      <trkpt lat="43.39521" lon="6.67547">
        <ele>18.2</ele>
        <time>2017-10-08T09:26:34Z</time>
      </trkpt>
      <trkpt lat="43.39526" lon="6.67537">
        <ele>18</ele>
        <time>2017-10-08T09:26:36Z</time>
      </trkpt>
      <trkpt lat="43.39529" lon="6.67532">
        <ele>17.9</ele>
        <time>2017-10-08T09:26:37Z</time>
      </trkpt>
      <trkpt lat="43.39543" lon="6.6752">
        <ele>17.5</ele>
        <time>2017-10-08T09:26:40Z</time>
      </trkpt>
      <trkpt lat="43.39548" lon="6.67516">
        <ele>17.4</ele>
        <time>2017-10-08T09:26:41Z</time>
      </trkpt>
      <trkpt lat="43.39554" lon="6.67513">
        <ele>17.3</ele>
        <time>2017-10-08T09:26:42Z</time>
      </trkpt>
      <trkpt lat="43.39592" lon="6.67495">
        <ele>16.3</ele>
        <time>2017-10-08T09:26:49Z</time>
      </trkpt>
      <trkpt lat="43.39617" lon="6.67486">
        <ele>15.5</ele>
        <time>2017-10-08T09:26:54Z</time>
      </trkpt>
      <trkpt lat="43.39622" lon="6.67485">
        <ele>15.4</ele>
        <time>2017-10-08T09:26:55Z</time>
      </trkpt>
      <trkpt lat="43.39644" lon="6.6748">
        <ele>14.8</ele>
        <time>2017-10-08T09:27:01Z</time>
      </trkpt>
      <trkpt lat="43.39684" lon="6.67475">
        <ele>14</ele>
        <time>2017-10-08T09:30:45Z</time>
      </trkpt>
      <trkpt lat="43.397" lon="6.67478">
        <ele>14</ele>
        <time>2017-10-08T09:30:51Z</time>
      </trkpt>
      <trkpt lat="43.39707" lon="6.67483">
        <ele>14</ele>
        <time>2017-10-08T09:30:54Z</time>
      </trkpt>
      <trkpt lat="43.3971" lon="6.67486">
        <ele>14</ele>
        <time>2017-10-08T09:30:58Z</time>
      </trkpt>
      <trkpt lat="43.39713" lon="6.6749">
        <ele>14</ele>
        <time>2017-10-08T09:31:01Z</time>
      </trkpt>
      <trkpt lat="43.39718" lon="6.67496">
        <ele>14</ele>
        <time>2017-10-08T09:31:07Z</time>
      </trkpt>
      <trkpt lat="43.3972" lon="6.67497">
        <ele>14</ele>
        <time>2017-10-08T09:31:12Z</time>
      </trkpt>
      <trkpt lat="43.39722" lon="6.67496">
        <ele>14</ele>
        <time>2017-10-08T09:31:14Z</time>
      </trkpt>
      <trkpt lat="43.39727" lon="6.67495">
        <ele>14</ele>
        <time>2017-10-08T09:31:19Z</time>
      </trkpt>
      <trkpt lat="43.3973" lon="6.67491">
        <ele>14</ele>
        <time>2017-10-08T09:31:21Z</time>
      </trkpt>
      <trkpt lat="43.39738" lon="6.6747">
        <ele>14</ele>
        <time>2017-10-08T09:31:26Z</time>
      </trkpt>
      <trkpt lat="43.39738" lon="6.6745">
        <ele>14</ele>
        <time>2017-10-08T09:31:30Z</time>
      </trkpt>
      <trkpt lat="43.39741" lon="6.67416">
        <ele>15.8</ele>
        <time>2017-10-08T09:31:37Z</time>
      </trkpt>
      <trkpt lat="43.39747" lon="6.6737">
        <ele>16.9</ele>
        <time>2017-10-08T09:31:43Z</time>
      </trkpt>
      <trkpt lat="43.39749" lon="6.67317">
        <ele>16.4</ele>
        <time>2017-10-08T09:31:50Z</time>
      </trkpt>
      <trkpt lat="43.39743" lon="6.67283">
        <ele>16.2</ele>
        <time>2017-10-08T09:31:55Z</time>
      </trkpt>
      <trkpt lat="43.39737" lon="6.67265">
        <ele>16.1</ele>
        <time>2017-10-08T09:31:58Z</time>
      </trkpt>
      <trkpt lat="43.39732" lon="6.67255">
        <ele>16</ele>
        <time>2017-10-08T09:32:00Z</time>
      </trkpt>
      <trkpt lat="43.3972" lon="6.67242">
        <ele>15.9</ele>
        <time>2017-10-08T09:32:04Z</time>
      </trkpt>
      <trkpt lat="43.39717" lon="6.67239">
        <ele>15.8</ele>
        <time>2017-10-08T09:32:05Z</time>
      </trkpt>
      <trkpt lat="43.3971" lon="6.67233">
        <ele>15.7</ele>
        <time>2017-10-08T09:32:08Z</time>
      </trkpt>
      <trkpt lat="43.39695" lon="6.67217">
        <ele>15.4</ele>
        <time>2017-10-08T09:34:54Z</time>
      </trkpt>
      <trkpt lat="43.3969" lon="6.67213">
        <ele>15.3</ele>
        <time>2017-10-08T09:34:57Z</time>
      </trkpt>
      <trkpt lat="43.39679" lon="6.67205">
        <ele>15.2</ele>
        <time>2017-10-08T09:35:01Z</time>
      </trkpt>
      <trkpt lat="43.39668" lon="6.67197">
        <ele>15</ele>
        <time>2017-10-08T09:35:04Z</time>
      </trkpt>
      <trkpt lat="43.39659" lon="6.67196">
        <ele>15.1</ele>
        <time>2017-10-08T09:35:06Z</time>
      </trkpt>
      <trkpt lat="43.3965" lon="6.67195">
        <ele>15.1</ele>
        <time>2017-10-08T09:35:08Z</time>
      </trkpt>
      <trkpt lat="43.39645" lon="6.67195">
        <ele>15.2</ele>
        <time>2017-10-08T09:35:09Z</time>
      </trkpt>
      <trkpt lat="43.39627" lon="6.672">
        <ele>15.3</ele>
        <time>2017-10-08T09:35:13Z</time>
      </trkpt>
      <trkpt lat="43.39623" lon="6.67202">
        <ele>15.3</ele>
        <time>2017-10-08T09:35:14Z</time>
      </trkpt>
      <trkpt lat="43.39601" lon="6.67214">
        <ele>15.3</ele>
        <time>2017-10-08T09:35:20Z</time>
      </trkpt>
      <trkpt lat="43.39594" lon="6.67218">
        <ele>15.4</ele>
        <time>2017-10-08T09:35:22Z</time>
      </trkpt>
      <trkpt lat="43.39579" lon="6.67225">
        <ele>15.4</ele>
        <time>2017-10-08T09:35:26Z</time>
      </trkpt>
      <trkpt lat="43.39571" lon="6.67224">
        <ele>15.5</ele>
        <time>2017-10-08T09:35:28Z</time>
      </trkpt>
      <trkpt lat="43.39567" lon="6.67222">
        <ele>15.5</ele>
        <time>2017-10-08T09:35:29Z</time>
      </trkpt>
      <trkpt lat="43.39558" lon="6.6721">
        <ele>15.5</ele>
        <time>2017-10-08T09:35:32Z</time>
      </trkpt>
      <trkpt lat="43.39556" lon="6.67206">
        <ele>15.5</ele>
        <time>2017-10-08T09:35:33Z</time>
      </trkpt>
      <trkpt lat="43.39539" lon="6.67169">
        <ele>15.7</ele>
        <time>2017-10-08T09:35:40Z</time>
      </trkpt>
      <trkpt lat="43.39528" lon="6.67151">
        <ele>15.8</ele>
        <time>2017-10-08T09:35:44Z</time>
      </trkpt>
      <trkpt lat="43.3952" lon="6.67144">
        <ele>15.8</ele>
        <time>2017-10-08T09:35:46Z</time>
      </trkpt>
      <trkpt lat="43.39512" lon="6.6714">
        <ele>15.9</ele>
        <time>2017-10-08T09:35:48Z</time>
      </trkpt>
      <trkpt lat="43.39504" lon="6.67138">
        <ele>15.9</ele>
        <time>2017-10-08T09:35:50Z</time>
      </trkpt>
      <trkpt lat="43.39501" lon="6.67136">
        <ele>15.9</ele>
        <time>2017-10-08T09:35:51Z</time>
      </trkpt>
      <trkpt lat="43.39497" lon="6.67133">
        <ele>15.9</ele>
        <time>2017-10-08T09:35:52Z</time>
      </trkpt>
      <trkpt lat="43.39487" lon="6.6711">
        <ele>16</ele>
        <time>2017-10-08T09:35:56Z</time>
      </trkpt>
      <trkpt lat="43.39474" lon="6.671">
        <ele>16.1</ele>
        <time>2017-10-08T09:36:00Z</time>
      </trkpt>
      <trkpt lat="43.39471" lon="6.67099">
        <ele>16.1</ele>
        <time>2017-10-08T09:36:01Z</time>
      </trkpt>
      <trkpt lat="43.39458" lon="6.6709">
        <ele>16.3</ele>
        <time>2017-10-08T09:36:05Z</time>
      </trkpt>
      <trkpt lat="43.3945" lon="6.67079">
        <ele>16.5</ele>
        <time>2017-10-08T09:36:08Z</time>
      </trkpt>
      <trkpt lat="43.39445" lon="6.67072">
        <ele>16.6</ele>
        <time>2017-10-08T09:36:10Z</time>
      </trkpt>
      <trkpt lat="43.39442" lon="6.67068">
        <ele>16.7</ele>
        <time>2017-10-08T09:36:11Z</time>
      </trkpt>
      <trkpt lat="43.39435" lon="6.67054">
        <ele>17.1</ele>
        <time>2017-10-08T09:36:14Z</time>
      </trkpt>
      <trkpt lat="43.39431" lon="6.67044">
        <ele>17.6</ele>
        <time>2017-10-08T09:36:16Z</time>
      </trkpt>
      <trkpt lat="43.39428" lon="6.6704">
        <ele>17.9</ele>
        <time>2017-10-08T09:36:17Z</time>
      </trkpt>
      <trkpt lat="43.39423" lon="6.67031">
        <ele>18.4</ele>
        <time>2017-10-08T09:36:19Z</time>
      </trkpt>
      <trkpt lat="43.39414" lon="6.67018">
        <ele>18.9</ele>
        <time>2017-10-08T09:36:22Z</time>
      </trkpt>
      <trkpt lat="43.3941" lon="6.67007">
        <ele>19</ele>
        <time>2017-10-08T09:36:24Z</time>
      </trkpt>
      <trkpt lat="43.39405" lon="6.66996">
        <ele>19.1</ele>
        <time>2017-10-08T09:36:26Z</time>
      </trkpt>
      <trkpt lat="43.39391" lon="6.66973">
        <ele>19.2</ele>
        <time>2017-10-08T09:36:31Z</time>
      </trkpt>
      <trkpt lat="43.39381" lon="6.6696">
        <ele>19.3</ele>
        <time>2017-10-08T09:36:34Z</time>
      </trkpt>
      <trkpt lat="43.39367" lon="6.66948">
        <ele>19.3</ele>
        <time>2017-10-08T09:36:37Z</time>
      </trkpt>
      <trkpt lat="43.39333" lon="6.66922">
        <ele>19.5</ele>
        <time>2017-10-08T09:36:45Z</time>
      </trkpt>
      <trkpt lat="43.39316" lon="6.6691">
        <ele>19.6</ele>
        <time>2017-10-08T09:36:49Z</time>
      </trkpt>
      <trkpt lat="43.39305" lon="6.66899">
        <ele>19.6</ele>
        <time>2017-10-08T09:36:52Z</time>
      </trkpt>
      <trkpt lat="43.39281" lon="6.66875">
        <ele>19.8</ele>
        <time>2017-10-08T09:36:58Z</time>
      </trkpt>
      <trkpt lat="43.39278" lon="6.6687">
        <ele>19.8</ele>
        <time>2017-10-08T09:36:59Z</time>
      </trkpt>
      <trkpt lat="43.39272" lon="6.66853">
        <ele>20.1</ele>
        <time>2017-10-08T09:37:02Z</time>
      </trkpt>
      <trkpt lat="43.3927" lon="6.6684">
        <ele>20.3</ele>
        <time>2017-10-08T09:37:04Z</time>
      </trkpt>
      <trkpt lat="43.3927" lon="6.66827">
        <ele>20.5</ele>
        <time>2017-10-08T09:37:06Z</time>
      </trkpt>
      <trkpt lat="43.39271" lon="6.66814">
        <ele>20.8</ele>
        <time>2017-10-08T09:37:08Z</time>
      </trkpt>
      <trkpt lat="43.39273" lon="6.66803">
        <ele>21.1</ele>
        <time>2017-10-08T09:37:10Z</time>
      </trkpt>
      <trkpt lat="43.39277" lon="6.66794">
        <ele>21.4</ele>
        <time>2017-10-08T09:37:12Z</time>
      </trkpt>
      <trkpt lat="43.39285" lon="6.66779">
        <ele>21.9</ele>
        <time>2017-10-08T09:37:15Z</time>
      </trkpt>
      <trkpt lat="43.39294" lon="6.66758">
        <ele>23</ele>
        <time>2017-10-08T09:37:20Z</time>
      </trkpt>
      <trkpt lat="43.39305" lon="6.66728">
        <ele>24.2</ele>
        <time>2017-10-08T09:37:29Z</time>
      </trkpt>
      <trkpt lat="43.39309" lon="6.66716">
        <ele>24.7</ele>
        <time>2017-10-08T09:37:33Z</time>
      </trkpt>
      <trkpt lat="43.39311" lon="6.66703">
        <ele>25.6</ele>
        <time>2017-10-08T09:37:37Z</time>
      </trkpt>
      <trkpt lat="43.39313" lon="6.66691">
        <ele>26.4</ele>
        <time>2017-10-08T09:37:41Z</time>
      </trkpt>
      <trkpt lat="43.39316" lon="6.66676">
        <ele>27.4</ele>
        <time>2017-10-08T09:37:46Z</time>
      </trkpt>
      <trkpt lat="43.39316" lon="6.66674">
        <ele>27.6</ele>
        <time>2017-10-08T09:37:47Z</time>
      </trkpt>
      <trkpt lat="43.39318" lon="6.66659">
        <ele>28.1</ele>
        <time>2017-10-08T09:37:52Z</time>
      </trkpt>
      <trkpt lat="43.39321" lon="6.66651">
        <ele>28.7</ele>
        <time>2017-10-08T09:37:55Z</time>
      </trkpt>
      <trkpt lat="43.39324" lon="6.66632">
        <ele>29.8</ele>
        <time>2017-10-08T09:38:02Z</time>
      </trkpt>
      <trkpt lat="43.39332" lon="6.66606">
        <ele>31</ele>
        <time>2017-10-08T09:38:11Z</time>
      </trkpt>
      <trkpt lat="43.39334" lon="6.66603">
        <ele>31</ele>
        <time>2017-10-08T09:38:12Z</time>
      </trkpt>
      <trkpt lat="43.39343" lon="6.6657">
        <ele>31.5</ele>
        <time>2017-10-08T09:38:21Z</time>
      </trkpt>
      <trkpt lat="43.39344" lon="6.66561">
        <ele>31.7</ele>
        <time>2017-10-08T09:38:24Z</time>
      </trkpt>
      <trkpt lat="43.39344" lon="6.66545">
        <ele>32.3</ele>
        <time>2017-10-08T09:38:29Z</time>
      </trkpt>
      <trkpt lat="43.39344" lon="6.66542">
        <ele>32.4</ele>
        <time>2017-10-08T09:38:30Z</time>
      </trkpt>
      <trkpt lat="43.39347" lon="6.66526">
        <ele>32.8</ele>
        <time>2017-10-08T09:38:35Z</time>
      </trkpt>
      <trkpt lat="43.39348" lon="6.66523">
        <ele>32.8</ele>
        <time>2017-10-08T09:38:36Z</time>
      </trkpt>
      <trkpt lat="43.39351" lon="6.66514">
        <ele>33</ele>
        <time>2017-10-08T09:38:39Z</time>
      </trkpt>
      <trkpt lat="43.39356" lon="6.66507">
        <ele>33</ele>
        <time>2017-10-08T09:38:42Z</time>
      </trkpt>
      <trkpt lat="43.3936" lon="6.66503">
        <ele>33</ele>
        <time>2017-10-08T09:38:44Z</time>
      </trkpt>
      <trkpt lat="43.39371" lon="6.66494">
        <ele>33.5</ele>
        <time>2017-10-08T09:38:49Z</time>
      </trkpt>
      <trkpt lat="43.39379" lon="6.66489">
        <ele>33.9</ele>
        <time>2017-10-08T09:38:52Z</time>
      </trkpt>
      <trkpt lat="43.39386" lon="6.66486">
        <ele>34</ele>
        <time>2017-10-08T09:38:55Z</time>
      </trkpt>
      <trkpt lat="43.39392" lon="6.66485">
        <ele>34.1</ele>
        <time>2017-10-08T09:38:58Z</time>
      </trkpt>
      <trkpt lat="43.39405" lon="6.6648">
        <ele>34.2</ele>
        <time>2017-10-08T09:39:04Z</time>
      </trkpt>
      <trkpt lat="43.39408" lon="6.66479">
        <ele>34.3</ele>
        <time>2017-10-08T09:39:05Z</time>
      </trkpt>
      <trkpt lat="43.39424" lon="6.66474">
        <ele>34.8</ele>
        <time>2017-10-08T09:39:12Z</time>
      </trkpt>
      <trkpt lat="43.39426" lon="6.66473">
        <ele>34.8</ele>
        <time>2017-10-08T09:39:13Z</time>
      </trkpt>
      <trkpt lat="43.39435" lon="6.66469">
        <ele>35</ele>
        <time>2017-10-08T09:39:17Z</time>
      </trkpt>
      <trkpt lat="43.39442" lon="6.66466">
        <ele>35.1</ele>
        <time>2017-10-08T09:39:20Z</time>
      </trkpt>
      <trkpt lat="43.39451" lon="6.66459">
        <ele>35.7</ele>
        <time>2017-10-08T09:39:25Z</time>
      </trkpt>
      <trkpt lat="43.39457" lon="6.66457">
        <ele>36.2</ele>
        <time>2017-10-08T09:39:28Z</time>
      </trkpt>
      <trkpt lat="43.39463" lon="6.66455">
        <ele>36.7</ele>
        <time>2017-10-08T09:39:31Z</time>
      </trkpt>
      <trkpt lat="43.39475" lon="6.66452">
        <ele>37.8</ele>
        <time>2017-10-08T09:39:37Z</time>
      </trkpt>
      <trkpt lat="43.39479" lon="6.6645">
        <ele>38</ele>
        <time>2017-10-08T09:39:39Z</time>
      </trkpt>
      <trkpt lat="43.39485" lon="6.66448">
        <ele>38.1</ele>
        <time>2017-10-08T09:39:42Z</time>
      </trkpt>
      <trkpt lat="43.39494" lon="6.66446">
        <ele>38.3</ele>
        <time>2017-10-08T09:39:47Z</time>
      </trkpt>
      <trkpt lat="43.39496" lon="6.66446">
        <ele>38.3</ele>
        <time>2017-10-08T09:39:48Z</time>
      </trkpt>
      <trkpt lat="43.39502" lon="6.66444">
        <ele>38.4</ele>
        <time>2017-10-08T09:39:51Z</time>
      </trkpt>
      <trkpt lat="43.39514" lon="6.66441">
        <ele>38.6</ele>
        <time>2017-10-08T09:39:57Z</time>
      </trkpt>
      <trkpt lat="43.39521" lon="6.6644">
        <ele>38.8</ele>
        <time>2017-10-08T09:40:00Z</time>
      </trkpt>
      <trkpt lat="43.39531" lon="6.66438">
        <ele>39.2</ele>
        <time>2017-10-08T09:40:05Z</time>
      </trkpt>
      <trkpt lat="43.39533" lon="6.66437">
        <ele>39.2</ele>
        <time>2017-10-08T09:40:06Z</time>
      </trkpt>
      <trkpt lat="43.39539" lon="6.66436">
        <ele>39.3</ele>
        <time>2017-10-08T09:40:09Z</time>
      </trkpt>
      <trkpt lat="43.39543" lon="6.66436">
        <ele>39.4</ele>
        <time>2017-10-08T09:40:11Z</time>
      </trkpt>
      <trkpt lat="43.39546" lon="6.66435">
        <ele>39.5</ele>
        <time>2017-10-08T09:40:13Z</time>
      </trkpt>
      <trkpt lat="43.39561" lon="6.66435">
        <ele>40.2</ele>
        <time>2017-10-08T09:40:21Z</time>
      </trkpt>
      <trkpt lat="43.39563" lon="6.66435">
        <ele>40.2</ele>
        <time>2017-10-08T09:40:22Z</time>
      </trkpt>
      <trkpt lat="43.39572" lon="6.66438">
        <ele>40.5</ele>
        <time>2017-10-08T09:40:26Z</time>
      </trkpt>
      <trkpt lat="43.39581" lon="6.66442">
        <ele>40.9</ele>
        <time>2017-10-08T09:40:29Z</time>
      </trkpt>
      <trkpt lat="43.39601" lon="6.66445">
        <ele>44.5</ele>
        <time>2017-10-08T09:40:35Z</time>
      </trkpt>
      <trkpt lat="43.39619" lon="6.66442">
        <ele>47.4</ele>
        <time>2017-10-08T09:40:42Z</time>
      </trkpt>
      <trkpt lat="43.39635" lon="6.66436">
        <ele>48.4</ele>
        <time>2017-10-08T09:40:48Z</time>
      </trkpt>
      <trkpt lat="43.39643" lon="6.66434">
        <ele>49</ele>
        <time>2017-10-08T09:40:51Z</time>
      </trkpt>
      <trkpt lat="43.3965" lon="6.66428">
        <ele>49.6</ele>
        <time>2017-10-08T09:40:54Z</time>
      </trkpt>
      <trkpt lat="43.39655" lon="6.66423">
        <ele>50.2</ele>
        <time>2017-10-08T09:40:57Z</time>
      </trkpt>
      <trkpt lat="43.39657" lon="6.66422">
        <ele>50.7</ele>
        <time>2017-10-08T09:40:58Z</time>
      </trkpt>
      <trkpt lat="43.39669" lon="6.66418">
        <ele>52.9</ele>
        <time>2017-10-08T09:41:04Z</time>
      </trkpt>
      <trkpt lat="43.39671" lon="6.66418">
        <ele>53.2</ele>
        <time>2017-10-08T09:41:05Z</time>
      </trkpt>
      <trkpt lat="43.39677" lon="6.66419">
        <ele>54.1</ele>
        <time>2017-10-08T09:41:08Z</time>
      </trkpt>
      <trkpt lat="43.39682" lon="6.66423">
        <ele>55.2</ele>
        <time>2017-10-08T09:41:11Z</time>
      </trkpt>
      <trkpt lat="43.39684" lon="6.66425">
        <ele>55.6</ele>
        <time>2017-10-08T09:41:12Z</time>
      </trkpt>
      <trkpt lat="43.3969" lon="6.66437">
        <ele>57</ele>
        <time>2017-10-08T09:41:17Z</time>
      </trkpt>
      <trkpt lat="43.39692" lon="6.66443">
        <ele>57.3</ele>
        <time>2017-10-08T09:41:19Z</time>
      </trkpt>
      <trkpt lat="43.39698" lon="6.66449">
        <ele>57.8</ele>
        <time>2017-10-08T09:41:22Z</time>
      </trkpt>
      <trkpt lat="43.397" lon="6.66449">
        <ele>58.1</ele>
        <time>2017-10-08T09:41:23Z</time>
      </trkpt>
      <trkpt lat="43.39702" lon="6.66441">
        <ele>58.8</ele>
        <time>2017-10-08T09:41:26Z</time>
      </trkpt>
      <trkpt lat="43.39701" lon="6.66434">
        <ele>59.1</ele>
        <time>2017-10-08T09:41:28Z</time>
      </trkpt>
      <trkpt lat="43.397" lon="6.66425">
        <ele>59.4</ele>
        <time>2017-10-08T09:41:31Z</time>
      </trkpt>
      <trkpt lat="43.39699" lon="6.66406">
        <ele>60.4</ele>
        <time>2017-10-08T09:41:37Z</time>
      </trkpt>
      <trkpt lat="43.39702" lon="6.66398">
        <ele>61</ele>
        <time>2017-10-08T09:41:40Z</time>
      </trkpt>
      <trkpt lat="43.39707" lon="6.66392">
        <ele>61.3</ele>
        <time>2017-10-08T09:41:43Z</time>
      </trkpt>
      <trkpt lat="43.39718" lon="6.66388">
        <ele>62.1</ele>
        <time>2017-10-08T09:41:49Z</time>
      </trkpt>
      <trkpt lat="43.39733" lon="6.66394">
        <ele>62.9</ele>
        <time>2017-10-08T09:41:56Z</time>
      </trkpt>
      <trkpt lat="43.39739" lon="6.66399">
        <ele>63.2</ele>
        <time>2017-10-08T09:42:00Z</time>
      </trkpt>
      <trkpt lat="43.39744" lon="6.66403">
        <ele>63.7</ele>
        <time>2017-10-08T09:42:03Z</time>
      </trkpt>
      <trkpt lat="43.39748" lon="6.66404">
        <ele>64.1</ele>
        <time>2017-10-08T09:42:05Z</time>
      </trkpt>
      <trkpt lat="43.39753" lon="6.66407">
        <ele>64.6</ele>
        <time>2017-10-08T09:42:08Z</time>
      </trkpt>
      <trkpt lat="43.39761" lon="6.66411">
        <ele>65.4</ele>
        <time>2017-10-08T09:42:12Z</time>
      </trkpt>
      <trkpt lat="43.39767" lon="6.66413">
        <ele>66.2</ele>
        <time>2017-10-08T09:42:15Z</time>
      </trkpt>
      <trkpt lat="43.39771" lon="6.66413">
        <ele>66.5</ele>
        <time>2017-10-08T09:42:17Z</time>
      </trkpt>
      <trkpt lat="43.3978" lon="6.66409">
        <ele>67.3</ele>
        <time>2017-10-08T09:42:22Z</time>
      </trkpt>
      <trkpt lat="43.39789" lon="6.66397">
        <ele>68.4</ele>
        <time>2017-10-08T09:42:28Z</time>
      </trkpt>
      <trkpt lat="43.39791" lon="6.66394">
        <ele>68.5</ele>
        <time>2017-10-08T09:42:29Z</time>
      </trkpt>
      <trkpt lat="43.39795" lon="6.66382">
        <ele>69.1</ele>
        <time>2017-10-08T09:42:34Z</time>
      </trkpt>
      <trkpt lat="43.39797" lon="6.66373">
        <ele>69.8</ele>
        <time>2017-10-08T09:42:37Z</time>
      </trkpt>
      <trkpt lat="43.39801" lon="6.66349">
        <ele>70.9</ele>
        <time>2017-10-08T09:42:45Z</time>
      </trkpt>
      <trkpt lat="43.39802" lon="6.66346">
        <ele>71.1</ele>
        <time>2017-10-08T09:42:46Z</time>
      </trkpt>
      <trkpt lat="43.39799" lon="6.66321">
        <ele>71.7</ele>
        <time>2017-10-08T09:42:52Z</time>
      </trkpt>
      <trkpt lat="43.39788" lon="6.66301">
        <ele>71.9</ele>
        <time>2017-10-08T09:42:58Z</time>
      </trkpt>
      <trkpt lat="43.3977" lon="6.66283">
        <ele>72.3</ele>
        <time>2017-10-08T09:43:06Z</time>
      </trkpt>
      <trkpt lat="43.39765" lon="6.66271">
        <ele>73.1</ele>
        <time>2017-10-08T09:43:10Z</time>
      </trkpt>
      <trkpt lat="43.39765" lon="6.66267">
        <ele>73.3</ele>
        <time>2017-10-08T09:43:11Z</time>
      </trkpt>
      <trkpt lat="43.39769" lon="6.66261">
        <ele>73.6</ele>
        <time>2017-10-08T09:43:13Z</time>
      </trkpt>
      <trkpt lat="43.39771" lon="6.6626">
        <ele>73.7</ele>
        <time>2017-10-08T09:43:14Z</time>
      </trkpt>
      <trkpt lat="43.39779" lon="6.66263">
        <ele>74.3</ele>
        <time>2017-10-08T09:43:17Z</time>
      </trkpt>
      <trkpt lat="43.39781" lon="6.66263">
        <ele>74.6</ele>
        <time>2017-10-08T09:43:18Z</time>
      </trkpt>
      <trkpt lat="43.39783" lon="6.66263">
        <ele>74.8</ele>
        <time>2017-10-08T09:43:19Z</time>
      </trkpt>
      <trkpt lat="43.39789" lon="6.66259">
        <ele>75.7</ele>
        <time>2017-10-08T09:43:22Z</time>
      </trkpt>
      <trkpt lat="43.3979" lon="6.66256">
        <ele>76.1</ele>
        <time>2017-10-08T09:43:23Z</time>
      </trkpt>
      <trkpt lat="43.39788" lon="6.6625">
        <ele>76.8</ele>
        <time>2017-10-08T09:43:25Z</time>
      </trkpt>
      <trkpt lat="43.39785" lon="6.66244">
        <ele>77.5</ele>
        <time>2017-10-08T09:43:27Z</time>
      </trkpt>
      <trkpt lat="43.39784" lon="6.66241">
        <ele>77.7</ele>
        <time>2017-10-08T09:43:28Z</time>
      </trkpt>
      <trkpt lat="43.39782" lon="6.66239">
        <ele>78</ele>
        <time>2017-10-08T09:43:29Z</time>
      </trkpt>
      <trkpt lat="43.39776" lon="6.66233">
        <ele>78.8</ele>
        <time>2017-10-08T09:43:32Z</time>
      </trkpt>
      <trkpt lat="43.39772" lon="6.66228">
        <ele>79.1</ele>
        <time>2017-10-08T09:43:34Z</time>
      </trkpt>
      <trkpt lat="43.39769" lon="6.66223">
        <ele>79.4</ele>
        <time>2017-10-08T09:43:36Z</time>
      </trkpt>
      <trkpt lat="43.39767" lon="6.66211">
        <ele>80</ele>
        <time>2017-10-08T09:43:40Z</time>
      </trkpt>
      <trkpt lat="43.39769" lon="6.66206">
        <ele>80.4</ele>
        <time>2017-10-08T09:43:42Z</time>
      </trkpt>
      <trkpt lat="43.39773" lon="6.66203">
        <ele>80.7</ele>
        <time>2017-10-08T09:43:44Z</time>
      </trkpt>
      <trkpt lat="43.39781" lon="6.66205">
        <ele>81.1</ele>
        <time>2017-10-08T09:43:48Z</time>
      </trkpt>
      <trkpt lat="43.39783" lon="6.66207">
        <ele>81.2</ele>
        <time>2017-10-08T09:43:49Z</time>
      </trkpt>
      <trkpt lat="43.39785" lon="6.66208">
        <ele>81.3</ele>
        <time>2017-10-08T09:43:50Z</time>
      </trkpt>
      <trkpt lat="43.39789" lon="6.6621">
        <ele>81.4</ele>
        <time>2017-10-08T09:43:52Z</time>
      </trkpt>
      <trkpt lat="43.39798" lon="6.66211">
        <ele>82.3</ele>
        <time>2017-10-08T09:43:57Z</time>
      </trkpt>
      <trkpt lat="43.39802" lon="6.66209">
        <ele>83.1</ele>
        <time>2017-10-08T09:43:59Z</time>
      </trkpt>
      <trkpt lat="43.39808" lon="6.66203">
        <ele>83.8</ele>
        <time>2017-10-08T09:44:03Z</time>
      </trkpt>
      <trkpt lat="43.39809" lon="6.66201">
        <ele>84</ele>
        <time>2017-10-08T09:44:04Z</time>
      </trkpt>
      <trkpt lat="43.39811" lon="6.66194">
        <ele>85.2</ele>
        <time>2017-10-08T09:44:07Z</time>
      </trkpt>
      <trkpt lat="43.39815" lon="6.66188">
        <ele>86.1</ele>
        <time>2017-10-08T09:44:10Z</time>
      </trkpt>
      <trkpt lat="43.39816" lon="6.66186">
        <ele>86.2</ele>
        <time>2017-10-08T09:44:11Z</time>
      </trkpt>
      <trkpt lat="43.39823" lon="6.66173">
        <ele>88.3</ele>
        <time>2017-10-08T09:44:18Z</time>
      </trkpt>
      <trkpt lat="43.39825" lon="6.66168">
        <ele>88.6</ele>
        <time>2017-10-08T09:44:20Z</time>
      </trkpt>
      <trkpt lat="43.39828" lon="6.66164">
        <ele>88.8</ele>
        <time>2017-10-08T09:44:22Z</time>
      </trkpt>
      <trkpt lat="43.39835" lon="6.6615">
        <ele>90.3</ele>
        <time>2017-10-08T09:44:28Z</time>
      </trkpt>
      <trkpt lat="43.39838" lon="6.66146">
        <ele>90.7</ele>
        <time>2017-10-08T09:44:30Z</time>
      </trkpt>
      <trkpt lat="43.39846" lon="6.66134">
        <ele>91.7</ele>
        <time>2017-10-08T09:44:36Z</time>
      </trkpt>
      <trkpt lat="43.39848" lon="6.66133">
        <ele>91.8</ele>
        <time>2017-10-08T09:44:37Z</time>
      </trkpt>
      <trkpt lat="43.39861" lon="6.66117">
        <ele>93.2</ele>
        <time>2017-10-08T09:44:45Z</time>
      </trkpt>
      <trkpt lat="43.39865" lon="6.66113">
        <ele>94</ele>
        <time>2017-10-08T09:44:47Z</time>
      </trkpt>
      <trkpt lat="43.39868" lon="6.66109">
        <ele>94.7</ele>
        <time>2017-10-08T09:44:49Z</time>
      </trkpt>
      <trkpt lat="43.39874" lon="6.66102">
        <ele>95.9</ele>
        <time>2017-10-08T09:44:53Z</time>
      </trkpt>
      <trkpt lat="43.39876" lon="6.66098">
        <ele>96.4</ele>
        <time>2017-10-08T09:44:55Z</time>
      </trkpt>
      <trkpt lat="43.39877" lon="6.66096">
        <ele>96.6</ele>
        <time>2017-10-08T09:44:56Z</time>
      </trkpt>
      <trkpt lat="43.3988" lon="6.66087">
        <ele>97.2</ele>
        <time>2017-10-08T09:45:00Z</time>
      </trkpt>
      <trkpt lat="43.39882" lon="6.66085">
        <ele>97.4</ele>
        <time>2017-10-08T09:45:01Z</time>
      </trkpt>
      <trkpt lat="43.39887" lon="6.66077">
        <ele>98</ele>
        <time>2017-10-08T09:45:05Z</time>
      </trkpt>
      <trkpt lat="43.39891" lon="6.66069">
        <ele>99.2</ele>
        <time>2017-10-08T09:45:08Z</time>
      </trkpt>
      <trkpt lat="43.39895" lon="6.66062">
        <ele>100.2</ele>
        <time>2017-10-08T09:45:11Z</time>
      </trkpt>
      <trkpt lat="43.39898" lon="6.66051">
        <ele>101.6</ele>
        <time>2017-10-08T09:45:15Z</time>
      </trkpt>
      <trkpt lat="43.39898" lon="6.66048">
        <ele>102</ele>
        <time>2017-10-08T09:45:16Z</time>
      </trkpt>
      <trkpt lat="43.39901" lon="6.66035">
        <ele>103.9</ele>
        <time>2017-10-08T09:45:21Z</time>
      </trkpt>
      <trkpt lat="43.39903" lon="6.6603">
        <ele>104.7</ele>
        <time>2017-10-08T09:45:23Z</time>
      </trkpt>
      <trkpt lat="43.39906" lon="6.66017">
        <ele>105.4</ele>
        <time>2017-10-08T09:45:28Z</time>
      </trkpt>
      <trkpt lat="43.39908" lon="6.6601">
        <ele>105.7</ele>
        <time>2017-10-08T09:45:31Z</time>
      </trkpt>
      <trkpt lat="43.39909" lon="6.66006">
        <ele>106</ele>
        <time>2017-10-08T09:45:33Z</time>
      </trkpt>
      <trkpt lat="43.39912" lon="6.65996">
        <ele>106.9</ele>
        <time>2017-10-08T09:45:37Z</time>
      </trkpt>
      <trkpt lat="43.39916" lon="6.65981">
        <ele>108</ele>
        <time>2017-10-08T09:45:43Z</time>
      </trkpt>
      <trkpt lat="43.39917" lon="6.65975">
        <ele>108.2</ele>
        <time>2017-10-08T09:45:45Z</time>
      </trkpt>
      <trkpt lat="43.39917" lon="6.65956">
        <ele>109</ele>
        <time>2017-10-08T09:45:52Z</time>
      </trkpt>
      <trkpt lat="43.39917" lon="6.6595">
        <ele>109.5</ele>
        <time>2017-10-08T09:45:54Z</time>
      </trkpt>
      <trkpt lat="43.39916" lon="6.65931">
        <ele>111.1</ele>
        <time>2017-10-08T09:46:01Z</time>
      </trkpt>
      <trkpt lat="43.39916" lon="6.65923">
        <ele>111.5</ele>
        <time>2017-10-08T09:46:04Z</time>
      </trkpt>
      <trkpt lat="43.39914" lon="6.65909">
        <ele>112.8</ele>
        <time>2017-10-08T09:46:09Z</time>
      </trkpt>
      <trkpt lat="43.39914" lon="6.65904">
        <ele>113.3</ele>
        <time>2017-10-08T09:46:11Z</time>
      </trkpt>
      <trkpt lat="43.39912" lon="6.6589">
        <ele>114</ele>
        <time>2017-10-08T09:46:16Z</time>
      </trkpt>
      <trkpt lat="43.39911" lon="6.65878">
        <ele>115.1</ele>
        <time>2017-10-08T09:46:20Z</time>
      </trkpt>
      <trkpt lat="43.39907" lon="6.65856">
        <ele>117</ele>
        <time>2017-10-08T09:46:28Z</time>
      </trkpt>
      <trkpt lat="43.39907" lon="6.65845">
        <ele>117.7</ele>
        <time>2017-10-08T09:46:32Z</time>
      </trkpt>
      <trkpt lat="43.39909" lon="6.6584">
        <ele>118.4</ele>
        <time>2017-10-08T09:46:34Z</time>
      </trkpt>
      <trkpt lat="43.39912" lon="6.65836">
        <ele>119</ele>
        <time>2017-10-08T09:46:36Z</time>
      </trkpt>
      <trkpt lat="43.39917" lon="6.65831">
        <ele>119.9</ele>
        <time>2017-10-08T09:46:39Z</time>
      </trkpt>
      <trkpt lat="43.39919" lon="6.6583">
        <ele>120.3</ele>
        <time>2017-10-08T09:46:40Z</time>
      </trkpt>
      <trkpt lat="43.39923" lon="6.65827">
        <ele>121</ele>
        <time>2017-10-08T09:46:42Z</time>
      </trkpt>
      <trkpt lat="43.39932" lon="6.65819">
        <ele>122.4</ele>
        <time>2017-10-08T09:46:47Z</time>
      </trkpt>
      <trkpt lat="43.39939" lon="6.65813">
        <ele>123.3</ele>
        <time>2017-10-08T09:46:51Z</time>
      </trkpt>
      <trkpt lat="43.39945" lon="6.6581">
        <ele>124</ele>
        <time>2017-10-08T09:46:54Z</time>
      </trkpt>
      <trkpt lat="43.39946" lon="6.65809">
        <ele>124.1</ele>
        <time>2017-10-08T09:46:55Z</time>
      </trkpt>
      <trkpt lat="43.39954" lon="6.65805">
        <ele>124.6</ele>
        <time>2017-10-08T09:46:59Z</time>
      </trkpt>
      <trkpt lat="43.39959" lon="6.65803">
        <ele>125.3</ele>
        <time>2017-10-08T09:47:02Z</time>
      </trkpt>
      <trkpt lat="43.39961" lon="6.65802">
        <ele>125.6</ele>
        <time>2017-10-08T09:47:03Z</time>
      </trkpt>
      <trkpt lat="43.39971" lon="6.65799">
        <ele>127</ele>
        <time>2017-10-08T09:47:08Z</time>
      </trkpt>
      <trkpt lat="43.39975" lon="6.65797">
        <ele>127.3</ele>
        <time>2017-10-08T09:47:10Z</time>
      </trkpt>
      <trkpt lat="43.39985" lon="6.65795">
        <ele>127.9</ele>
        <time>2017-10-08T09:47:15Z</time>
      </trkpt>
      <trkpt lat="43.39987" lon="6.65795">
        <ele>128.1</ele>
        <time>2017-10-08T09:47:16Z</time>
      </trkpt>
      <trkpt lat="43.39993" lon="6.65791">
        <ele>129</ele>
        <time>2017-10-08T09:47:19Z</time>
      </trkpt>
      <trkpt lat="43.39999" lon="6.65786">
        <ele>130</ele>
        <time>2017-10-08T09:47:22Z</time>
      </trkpt>
      <trkpt lat="43.40004" lon="6.6578">
        <ele>130.6</ele>
        <time>2017-10-08T09:47:25Z</time>
      </trkpt>
      <trkpt lat="43.40009" lon="6.6577">
        <ele>131.9</ele>
        <time>2017-10-08T09:47:29Z</time>
      </trkpt>
      <trkpt lat="43.40017" lon="6.65752">
        <ele>133.4</ele>
        <time>2017-10-08T09:47:36Z</time>
      </trkpt>
      <trkpt lat="43.40024" lon="6.65732">
        <ele>135.5</ele>
        <time>2017-10-08T09:47:44Z</time>
      </trkpt>
      <trkpt lat="43.40027" lon="6.65717">
        <ele>136.3</ele>
        <time>2017-10-08T09:47:49Z</time>
      </trkpt>
      <trkpt lat="43.4003" lon="6.65701">
        <ele>138.1</ele>
        <time>2017-10-08T09:47:55Z</time>
      </trkpt>
      <trkpt lat="43.40031" lon="6.6569">
        <ele>138.7</ele>
        <time>2017-10-08T09:47:59Z</time>
      </trkpt>
      <trkpt lat="43.40032" lon="6.65684">
        <ele>139.1</ele>
        <time>2017-10-08T09:48:01Z</time>
      </trkpt>
      <trkpt lat="43.40033" lon="6.65674">
        <ele>140.2</ele>
        <time>2017-10-08T09:48:05Z</time>
      </trkpt>
      <trkpt lat="43.40033" lon="6.65659">
        <ele>141.3</ele>
        <time>2017-10-08T09:48:10Z</time>
      </trkpt>
      <trkpt lat="43.40032" lon="6.65646">
        <ele>142</ele>
        <time>2017-10-08T09:48:15Z</time>
      </trkpt>
      <trkpt lat="43.4003" lon="6.65636">
        <ele>143.2</ele>
        <time>2017-10-08T09:48:19Z</time>
      </trkpt>
      <trkpt lat="43.4003" lon="6.65631">
        <ele>143.5</ele>
        <time>2017-10-08T09:48:21Z</time>
      </trkpt>
      <trkpt lat="43.40029" lon="6.65621">
        <ele>144.2</ele>
        <time>2017-10-08T09:48:25Z</time>
      </trkpt>
      <trkpt lat="43.40028" lon="6.65617">
        <ele>144.7</ele>
        <time>2017-10-08T09:48:27Z</time>
      </trkpt>
      <trkpt lat="43.40026" lon="6.65611">
        <ele>145.5</ele>
        <time>2017-10-08T09:48:29Z</time>
      </trkpt>
      <trkpt lat="43.40025" lon="6.65604">
        <ele>146.3</ele>
        <time>2017-10-08T09:48:32Z</time>
      </trkpt>
      <trkpt lat="43.40025" lon="6.65602">
        <ele>146.6</ele>
        <time>2017-10-08T09:48:33Z</time>
      </trkpt>
      <trkpt lat="43.40025" lon="6.65597">
        <ele>146.9</ele>
        <time>2017-10-08T09:48:35Z</time>
      </trkpt>
      <trkpt lat="43.40024" lon="6.65588">
        <ele>147.3</ele>
        <time>2017-10-08T09:48:39Z</time>
      </trkpt>
      <trkpt lat="43.40023" lon="6.65583">
        <ele>147.6</ele>
        <time>2017-10-08T09:48:41Z</time>
      </trkpt>
      <trkpt lat="43.40022" lon="6.65579">
        <ele>148.3</ele>
        <time>2017-10-08T09:48:43Z</time>
      </trkpt>
      <trkpt lat="43.40019" lon="6.65565">
        <ele>150.1</ele>
        <time>2017-10-08T09:48:49Z</time>
      </trkpt>
      <trkpt lat="43.40013" lon="6.65552">
        <ele>152.2</ele>
        <time>2017-10-08T09:48:55Z</time>
      </trkpt>
      <trkpt lat="43.40008" lon="6.65539">
        <ele>153.6</ele>
        <time>2017-10-08T09:49:02Z</time>
      </trkpt>
      <trkpt lat="43.40005" lon="6.65531">
        <ele>154.1</ele>
        <time>2017-10-08T09:49:06Z</time>
      </trkpt>
      <trkpt lat="43.4" lon="6.65524">
        <ele>155.6</ele>
        <time>2017-10-08T09:49:10Z</time>
      </trkpt>
      <trkpt lat="43.3999" lon="6.65514">
        <ele>157.3</ele>
        <time>2017-10-08T09:49:16Z</time>
      </trkpt>
      <trkpt lat="43.39987" lon="6.65511">
        <ele>157.6</ele>
        <time>2017-10-08T09:49:18Z</time>
      </trkpt>
      <trkpt lat="43.3997" lon="6.65497">
        <ele>160.2</ele>
        <time>2017-10-08T09:49:28Z</time>
      </trkpt>
      <trkpt lat="43.39953" lon="6.65488">
        <ele>161.9</ele>
        <time>2017-10-08T09:49:37Z</time>
      </trkpt>
      <trkpt lat="43.39951" lon="6.65488">
        <ele>162.1</ele>
        <time>2017-10-08T09:49:38Z</time>
      </trkpt>
      <trkpt lat="43.39941" lon="6.65482">
        <ele>163.3</ele>
        <time>2017-10-08T09:49:43Z</time>
      </trkpt>
      <trkpt lat="43.39935" lon="6.6548">
        <ele>164.4</ele>
        <time>2017-10-08T09:49:46Z</time>
      </trkpt>
      <trkpt lat="43.39927" lon="6.65477">
        <ele>165.4</ele>
        <time>2017-10-08T09:49:50Z</time>
      </trkpt>
      <trkpt lat="43.39919" lon="6.65473">
        <ele>167.2</ele>
        <time>2017-10-08T09:49:54Z</time>
      </trkpt>
      <trkpt lat="43.3991" lon="6.65467">
        <ele>168.9</ele>
        <time>2017-10-08T09:49:59Z</time>
      </trkpt>
      <trkpt lat="43.39901" lon="6.65458">
        <ele>169.9</ele>
        <time>2017-10-08T09:50:04Z</time>
      </trkpt>
      <trkpt lat="43.39896" lon="6.65449">
        <ele>171.4</ele>
        <time>2017-10-08T09:50:08Z</time>
      </trkpt>
      <trkpt lat="43.39895" lon="6.65446">
        <ele>171.7</ele>
        <time>2017-10-08T09:50:09Z</time>
      </trkpt>
      <trkpt lat="43.39891" lon="6.65431">
        <ele>173</ele>
        <time>2017-10-08T09:50:15Z</time>
      </trkpt>
      <trkpt lat="43.3989" lon="6.65422">
        <ele>173.8</ele>
        <time>2017-10-08T09:50:18Z</time>
      </trkpt>
      <trkpt lat="43.39889" lon="6.65404">
        <ele>176.3</ele>
        <time>2017-10-08T09:50:24Z</time>
      </trkpt>
      <trkpt lat="43.39888" lon="6.65389">
        <ele>177.2</ele>
        <time>2017-10-08T09:50:29Z</time>
      </trkpt>
      <trkpt lat="43.39886" lon="6.65384">
        <ele>177.6</ele>
        <time>2017-10-08T09:50:31Z</time>
      </trkpt>
      <trkpt lat="43.39882" lon="6.65359">
        <ele>180.4</ele>
        <time>2017-10-08T09:50:40Z</time>
      </trkpt>
      <trkpt lat="43.39876" lon="6.65352">
        <ele>181.1</ele>
        <time>2017-10-08T09:50:43Z</time>
      </trkpt>
      <trkpt lat="43.39872" lon="6.65349">
        <ele>181.6</ele>
        <time>2017-10-08T09:50:45Z</time>
      </trkpt>
      <trkpt lat="43.39863" lon="6.65347">
        <ele>182.4</ele>
        <time>2017-10-08T09:50:49Z</time>
      </trkpt>
      <trkpt lat="43.39859" lon="6.65347">
        <ele>183</ele>
        <time>2017-10-08T09:50:51Z</time>
      </trkpt>
      <trkpt lat="43.39854" lon="6.65346">
        <ele>183.9</ele>
        <time>2017-10-08T09:50:53Z</time>
      </trkpt>
      <trkpt lat="43.39844" lon="6.6534">
        <ele>185.2</ele>
        <time>2017-10-08T09:50:58Z</time>
      </trkpt>
      <trkpt lat="43.39842" lon="6.65339">
        <ele>185.4</ele>
        <time>2017-10-08T09:50:59Z</time>
      </trkpt>
      <trkpt lat="43.39833" lon="6.6533">
        <ele>186.6</ele>
        <time>2017-10-08T09:51:04Z</time>
      </trkpt>
      <trkpt lat="43.3983" lon="6.65326">
        <ele>187.4</ele>
        <time>2017-10-08T09:51:06Z</time>
      </trkpt>
      <trkpt lat="43.39824" lon="6.65311">
        <ele>189.1</ele>
        <time>2017-10-08T09:51:12Z</time>
      </trkpt>
      <trkpt lat="43.39822" lon="6.65308">
        <ele>189.2</ele>
        <time>2017-10-08T09:51:13Z</time>
      </trkpt>
      <trkpt lat="43.39813" lon="6.65293">
        <ele>190.4</ele>
        <time>2017-10-08T09:51:19Z</time>
      </trkpt>
      <trkpt lat="43.39806" lon="6.65291">
        <ele>191.6</ele>
        <time>2017-10-08T09:51:22Z</time>
      </trkpt>
      <trkpt lat="43.39797" lon="6.65294">
        <ele>192.5</ele>
        <time>2017-10-08T09:51:25Z</time>
      </trkpt>
      <trkpt lat="43.39795" lon="6.65296">
        <ele>192.7</ele>
        <time>2017-10-08T09:51:26Z</time>
      </trkpt>
      <trkpt lat="43.39788" lon="6.65308">
        <ele>192.9</ele>
        <time>2017-10-08T09:51:30Z</time>
      </trkpt>
      <trkpt lat="43.39787" lon="6.65312">
        <ele>192.8</ele>
        <time>2017-10-08T09:51:31Z</time>
      </trkpt>
      <trkpt lat="43.39778" lon="6.65324">
        <ele>192.3</ele>
        <time>2017-10-08T09:51:35Z</time>
      </trkpt>
      <trkpt lat="43.39775" lon="6.65326">
        <ele>192.2</ele>
        <time>2017-10-08T09:51:36Z</time>
      </trkpt>
      <trkpt lat="43.39758" lon="6.65334">
        <ele>191.8</ele>
        <time>2017-10-08T09:51:41Z</time>
      </trkpt>
      <trkpt lat="43.39743" lon="6.65342">
        <ele>191.4</ele>
        <time>2017-10-08T09:51:46Z</time>
      </trkpt>
      <trkpt lat="43.39729" lon="6.65351">
        <ele>190.9</ele>
        <time>2017-10-08T09:51:51Z</time>
      </trkpt>
      <trkpt lat="43.39727" lon="6.65352">
        <ele>190.8</ele>
        <time>2017-10-08T09:51:52Z</time>
      </trkpt>
      <trkpt lat="43.39717" lon="6.65365">
        <ele>190.6</ele>
        <time>2017-10-08T09:51:56Z</time>
      </trkpt>
      <trkpt lat="43.39716" lon="6.65369">
        <ele>190.5</ele>
        <time>2017-10-08T09:51:57Z</time>
      </trkpt>
      <trkpt lat="43.39706" lon="6.65389">
        <ele>190.5</ele>
        <time>2017-10-08T09:52:03Z</time>
      </trkpt>
      <trkpt lat="43.39704" lon="6.65392">
        <ele>190.5</ele>
        <time>2017-10-08T09:52:04Z</time>
      </trkpt>
      <trkpt lat="43.39691" lon="6.65403">
        <ele>190.5</ele>
        <time>2017-10-08T09:52:09Z</time>
      </trkpt>
      <trkpt lat="43.39686" lon="6.65408">
        <ele>190.5</ele>
        <time>2017-10-08T09:52:11Z</time>
      </trkpt>
      <trkpt lat="43.39672" lon="6.65413">
        <ele>190.5</ele>
        <time>2017-10-08T09:52:16Z</time>
      </trkpt>
      <trkpt lat="43.39669" lon="6.65413">
        <ele>190.5</ele>
        <time>2017-10-08T09:52:17Z</time>
      </trkpt>
      <trkpt lat="43.3965" lon="6.65405">
        <ele>190.4</ele>
        <time>2017-10-08T09:52:24Z</time>
      </trkpt>
      <trkpt lat="43.39645" lon="6.65401">
        <ele>190.4</ele>
        <time>2017-10-08T09:52:26Z</time>
      </trkpt>
      <trkpt lat="43.3963" lon="6.65385">
        <ele>190.4</ele>
        <time>2017-10-08T09:52:32Z</time>
      </trkpt>
      <trkpt lat="43.39612" lon="6.65363">
        <ele>190.1</ele>
        <time>2017-10-08T09:52:39Z</time>
      </trkpt>
      <trkpt lat="43.39609" lon="6.6536">
        <ele>190</ele>
        <time>2017-10-08T09:52:40Z</time>
      </trkpt>
      <trkpt lat="43.39589" lon="6.65335">
        <ele>189.6</ele>
        <time>2017-10-08T09:52:46Z</time>
      </trkpt>
      <trkpt lat="43.39575" lon="6.6532">
        <ele>189.5</ele>
        <time>2017-10-08T09:52:50Z</time>
      </trkpt>
      <trkpt lat="43.39568" lon="6.65313">
        <ele>189.4</ele>
        <time>2017-10-08T09:52:52Z</time>
      </trkpt>
      <trkpt lat="43.39555" lon="6.65305">
        <ele>189.4</ele>
        <time>2017-10-08T09:52:55Z</time>
      </trkpt>
      <trkpt lat="43.39541" lon="6.65298">
        <ele>189.3</ele>
        <time>2017-10-08T09:52:58Z</time>
      </trkpt>
      <trkpt lat="43.39528" lon="6.65291">
        <ele>189.2</ele>
        <time>2017-10-08T09:53:02Z</time>
      </trkpt>
      <trkpt lat="43.39518" lon="6.65284">
        <ele>189</ele>
        <time>2017-10-08T09:53:06Z</time>
      </trkpt>
      <trkpt lat="43.39508" lon="6.65276">
        <ele>189.3</ele>
        <time>2017-10-08T09:53:10Z</time>
      </trkpt>
      <trkpt lat="43.39505" lon="6.65273">
        <ele>189.4</ele>
        <time>2017-10-08T09:53:11Z</time>
      </trkpt>
      <trkpt lat="43.39491" lon="6.65264">
        <ele>190.3</ele>
        <time>2017-10-08T09:53:16Z</time>
      </trkpt>
      <trkpt lat="43.39481" lon="6.65257">
        <ele>190.8</ele>
        <time>2017-10-08T09:53:20Z</time>
      </trkpt>
      <trkpt lat="43.39476" lon="6.65252">
        <ele>191</ele>
        <time>2017-10-08T09:53:22Z</time>
      </trkpt>
      <trkpt lat="43.39474" lon="6.6525">
        <ele>191.1</ele>
        <time>2017-10-08T09:53:23Z</time>
      </trkpt>
      <trkpt lat="43.39466" lon="6.65245">
        <ele>191.4</ele>
        <time>2017-10-08T09:53:26Z</time>
      </trkpt>
      <trkpt lat="43.39457" lon="6.65238">
        <ele>192.1</ele>
        <time>2017-10-08T09:53:30Z</time>
      </trkpt>
      <trkpt lat="43.39454" lon="6.65227">
        <ele>194.5</ele>
        <time>2017-10-08T09:53:34Z</time>
      </trkpt>
      <trkpt lat="43.39455" lon="6.65224">
        <ele>194.9</ele>
        <time>2017-10-08T09:53:35Z</time>
      </trkpt>
      <trkpt lat="43.39456" lon="6.65222">
        <ele>195.2</ele>
        <time>2017-10-08T09:53:36Z</time>
      </trkpt>
      <trkpt lat="43.39459" lon="6.65221">
        <ele>195.7</ele>
        <time>2017-10-08T09:53:38Z</time>
      </trkpt>
      <trkpt lat="43.39461" lon="6.6522">
        <ele>195.8</ele>
        <time>2017-10-08T09:53:39Z</time>
      </trkpt>
      <trkpt lat="43.39466" lon="6.65219">
        <ele>196.2</ele>
        <time>2017-10-08T09:53:43Z</time>
      </trkpt>
      <trkpt lat="43.39467" lon="6.65219">
        <ele>196.3</ele>
        <time>2017-10-08T09:53:44Z</time>
      </trkpt>
      <trkpt lat="43.39469" lon="6.65219">
        <ele>196.4</ele>
        <time>2017-10-08T09:53:45Z</time>
      </trkpt>
      <trkpt lat="43.3947" lon="6.65219">
        <ele>196.6</ele>
        <time>2017-10-08T09:53:46Z</time>
      </trkpt>
      <trkpt lat="43.39477" lon="6.6522">
        <ele>198</ele>
        <time>2017-10-08T09:53:51Z</time>
      </trkpt>
      <trkpt lat="43.39481" lon="6.65221">
        <ele>198.5</ele>
        <time>2017-10-08T09:53:54Z</time>
      </trkpt>
      <trkpt lat="43.39483" lon="6.6522">
        <ele>198.8</ele>
        <time>2017-10-08T09:53:55Z</time>
      </trkpt>
      <trkpt lat="43.39491" lon="6.65219">
        <ele>200.5</ele>
        <time>2017-10-08T09:54:01Z</time>
      </trkpt>
      <trkpt lat="43.39496" lon="6.65219">
        <ele>201.2</ele>
        <time>2017-10-08T09:54:04Z</time>
      </trkpt>
      <trkpt lat="43.39503" lon="6.65219">
        <ele>202.5</ele>
        <time>2017-10-08T09:54:09Z</time>
      </trkpt>
      <trkpt lat="43.39504" lon="6.65219">
        <ele>202.7</ele>
        <time>2017-10-08T09:54:10Z</time>
      </trkpt>
      <trkpt lat="43.3951" lon="6.65219">
        <ele>203.4</ele>
        <time>2017-10-08T09:54:13Z</time>
      </trkpt>
      <trkpt lat="43.39514" lon="6.65217">
        <ele>204.2</ele>
        <time>2017-10-08T09:54:16Z</time>
      </trkpt>
      <trkpt lat="43.39519" lon="6.65217">
        <ele>205</ele>
        <time>2017-10-08T09:54:20Z</time>
      </trkpt>
      <trkpt lat="43.39523" lon="6.65216">
        <ele>205.4</ele>
        <time>2017-10-08T09:54:23Z</time>
      </trkpt>
      <trkpt lat="43.39529" lon="6.65216">
        <ele>206</ele>
        <time>2017-10-08T09:54:28Z</time>
      </trkpt>
      <trkpt lat="43.39533" lon="6.65216">
        <ele>206.6</ele>
        <time>2017-10-08T09:54:31Z</time>
      </trkpt>
      <trkpt lat="43.39542" lon="6.65215">
        <ele>207.3</ele>
        <time>2017-10-08T09:54:38Z</time>
      </trkpt>
      <trkpt lat="43.39544" lon="6.65215">
        <ele>207.5</ele>
        <time>2017-10-08T09:54:40Z</time>
      </trkpt>
      <trkpt lat="43.39548" lon="6.65215">
        <ele>207.7</ele>
        <time>2017-10-08T09:54:43Z</time>
      </trkpt>
      <trkpt lat="43.39553" lon="6.65216">
        <ele>208.2</ele>
        <time>2017-10-08T09:54:48Z</time>
      </trkpt>
      <trkpt lat="43.39556" lon="6.65216">
        <ele>208.6</ele>
        <time>2017-10-08T09:54:50Z</time>
      </trkpt>
      <trkpt lat="43.39568" lon="6.65217">
        <ele>210.2</ele>
        <time>2017-10-08T09:54:58Z</time>
      </trkpt>
      <trkpt lat="43.3957" lon="6.65217">
        <ele>210.4</ele>
        <time>2017-10-08T09:55:00Z</time>
      </trkpt>
      <trkpt lat="43.39575" lon="6.65217">
        <ele>211.5</ele>
        <time>2017-10-08T09:55:04Z</time>
      </trkpt>
      <trkpt lat="43.39576" lon="6.65217">
        <ele>211.8</ele>
        <time>2017-10-08T09:55:05Z</time>
      </trkpt>
      <trkpt lat="43.39579" lon="6.65218">
        <ele>212.6</ele>
        <time>2017-10-08T09:55:08Z</time>
      </trkpt>
      <trkpt lat="43.39583" lon="6.65218">
        <ele>213.6</ele>
        <time>2017-10-08T09:55:11Z</time>
      </trkpt>
      <trkpt lat="43.39584" lon="6.65218">
        <ele>213.9</ele>
        <time>2017-10-08T09:55:12Z</time>
      </trkpt>
      <trkpt lat="43.3959" lon="6.65217">
        <ele>214.7</ele>
        <time>2017-10-08T09:55:17Z</time>
      </trkpt>
      <trkpt lat="43.39594" lon="6.65218">
        <ele>215.4</ele>
        <time>2017-10-08T09:55:20Z</time>
      </trkpt>
      <trkpt lat="43.39595" lon="6.65218">
        <ele>215.6</ele>
        <time>2017-10-08T09:55:21Z</time>
      </trkpt>
      <trkpt lat="43.39598" lon="6.65217">
        <ele>216.4</ele>
        <time>2017-10-08T09:55:24Z</time>
      </trkpt>
      <trkpt lat="43.39604" lon="6.65217">
        <ele>217.3</ele>
        <time>2017-10-08T09:55:29Z</time>
      </trkpt>
      <trkpt lat="43.39605" lon="6.65217">
        <ele>217.5</ele>
        <time>2017-10-08T09:55:30Z</time>
      </trkpt>
      <trkpt lat="43.39611" lon="6.65217">
        <ele>218.9</ele>
        <time>2017-10-08T09:55:34Z</time>
      </trkpt>
      <trkpt lat="43.39616" lon="6.65216">
        <ele>219.9</ele>
        <time>2017-10-08T09:55:38Z</time>
      </trkpt>
      <trkpt lat="43.3962" lon="6.65215">
        <ele>220.8</ele>
        <time>2017-10-08T09:55:41Z</time>
      </trkpt>
      <trkpt lat="43.39624" lon="6.65214">
        <ele>221.9</ele>
        <time>2017-10-08T09:55:44Z</time>
      </trkpt>
      <trkpt lat="43.39625" lon="6.65213">
        <ele>222.3</ele>
        <time>2017-10-08T09:55:45Z</time>
      </trkpt>
      <trkpt lat="43.39629" lon="6.65212">
        <ele>223.5</ele>
        <time>2017-10-08T09:55:48Z</time>
      </trkpt>
      <trkpt lat="43.39632" lon="6.6521">
        <ele>224.1</ele>
        <time>2017-10-08T09:55:51Z</time>
      </trkpt>
      <trkpt lat="43.39636" lon="6.65208">
        <ele>225.2</ele>
        <time>2017-10-08T09:55:54Z</time>
      </trkpt>
      <trkpt lat="43.3964" lon="6.65205">
        <ele>226.1</ele>
        <time>2017-10-08T09:55:58Z</time>
      </trkpt>
      <trkpt lat="43.39641" lon="6.65204">
        <ele>226.3</ele>
        <time>2017-10-08T09:55:59Z</time>
      </trkpt>
      <trkpt lat="43.39644" lon="6.65202">
        <ele>227</ele>
        <time>2017-10-08T09:56:02Z</time>
      </trkpt>
      <trkpt lat="43.39648" lon="6.65198">
        <ele>227.9</ele>
        <time>2017-10-08T09:56:06Z</time>
      </trkpt>
      <trkpt lat="43.39649" lon="6.65197">
        <ele>228.1</ele>
        <time>2017-10-08T09:56:07Z</time>
      </trkpt>
      <trkpt lat="43.39655" lon="6.65189">
        <ele>229.5</ele>
        <time>2017-10-08T09:56:13Z</time>
      </trkpt>
      <trkpt lat="43.3966" lon="6.65177">
        <ele>231.2</ele>
        <time>2017-10-08T09:56:21Z</time>
      </trkpt>
      <trkpt lat="43.39661" lon="6.65174">
        <ele>231.8</ele>
        <time>2017-10-08T09:56:23Z</time>
      </trkpt>
      <trkpt lat="43.39664" lon="6.65168">
        <ele>232.8</ele>
        <time>2017-10-08T09:56:27Z</time>
      </trkpt>
      <trkpt lat="43.39666" lon="6.65162">
        <ele>233.7</ele>
        <time>2017-10-08T09:56:31Z</time>
      </trkpt>
      <trkpt lat="43.39667" lon="6.6516">
        <ele>233.9</ele>
        <time>2017-10-08T09:56:32Z</time>
      </trkpt>
      <trkpt lat="43.3967" lon="6.6515">
        <ele>234.9</ele>
        <time>2017-10-08T09:56:39Z</time>
      </trkpt>
      <trkpt lat="43.3967" lon="6.65149">
        <ele>235</ele>
        <time>2017-10-08T09:56:40Z</time>
      </trkpt>
      <trkpt lat="43.39673" lon="6.65144">
        <ele>235.4</ele>
        <time>2017-10-08T09:56:44Z</time>
      </trkpt>
      <trkpt lat="43.39673" lon="6.65141">
        <ele>235.7</ele>
        <time>2017-10-08T09:56:46Z</time>
      </trkpt>
      <trkpt lat="43.39676" lon="6.65135">
        <ele>236.7</ele>
        <time>2017-10-08T09:56:51Z</time>
      </trkpt>
      <trkpt lat="43.39677" lon="6.6513">
        <ele>237</ele>
        <time>2017-10-08T09:56:54Z</time>
      </trkpt>
      <trkpt lat="43.39681" lon="6.65124">
        <ele>237.5</ele>
        <time>2017-10-08T09:56:58Z</time>
      </trkpt>
      <trkpt lat="43.39684" lon="6.65115">
        <ele>238.4</ele>
        <time>2017-10-08T09:57:03Z</time>
      </trkpt>
      <trkpt lat="43.39689" lon="6.65097">
        <ele>239.5</ele>
        <time>2017-10-08T09:57:13Z</time>
      </trkpt>
      <trkpt lat="43.39691" lon="6.65092">
        <ele>239.7</ele>
        <time>2017-10-08T09:57:16Z</time>
      </trkpt>
      <trkpt lat="43.39694" lon="6.65085">
        <ele>239.9</ele>
        <time>2017-10-08T09:57:21Z</time>
      </trkpt>
      <trkpt lat="43.39695" lon="6.65081">
        <ele>240</ele>
        <time>2017-10-08T09:57:23Z</time>
      </trkpt>
      <trkpt lat="43.397" lon="6.6507">
        <ele>240</ele>
        <time>2017-10-08T09:57:29Z</time>
      </trkpt>
      <trkpt lat="43.39701" lon="6.65068">
        <ele>240</ele>
        <time>2017-10-08T09:57:30Z</time>
      </trkpt>
      <trkpt lat="43.39709" lon="6.65052">
        <ele>240.3</ele>
        <time>2017-10-08T09:57:39Z</time>
      </trkpt>
      <trkpt lat="43.3971" lon="6.65051">
        <ele>240.5</ele>
        <time>2017-10-08T09:57:40Z</time>
      </trkpt>
      <trkpt lat="43.39719" lon="6.65042">
        <ele>243.2</ele>
        <time>2017-10-08T09:57:47Z</time>
      </trkpt>
      <trkpt lat="43.39721" lon="6.65041">
        <ele>243.5</ele>
        <time>2017-10-08T09:57:48Z</time>
      </trkpt>
      <trkpt lat="43.3973" lon="6.65039">
        <ele>244.3</ele>
        <time>2017-10-08T09:57:55Z</time>
      </trkpt>
      <trkpt lat="43.39734" lon="6.65037">
        <ele>244.4</ele>
        <time>2017-10-08T09:57:58Z</time>
      </trkpt>
      <trkpt lat="43.39742" lon="6.65036">
        <ele>244.5</ele>
        <time>2017-10-08T09:58:03Z</time>
      </trkpt>
      <trkpt lat="43.39744" lon="6.65035">
        <ele>244.5</ele>
        <time>2017-10-08T09:58:04Z</time>
      </trkpt>
      <trkpt lat="43.39751" lon="6.65031">
        <ele>244.8</ele>
        <time>2017-10-08T09:58:09Z</time>
      </trkpt>
      <trkpt lat="43.39753" lon="6.6503">
        <ele>244.8</ele>
        <time>2017-10-08T09:58:10Z</time>
      </trkpt>
      <trkpt lat="43.39756" lon="6.65026">
        <ele>245.1</ele>
        <time>2017-10-08T09:58:13Z</time>
      </trkpt>
      <trkpt lat="43.39761" lon="6.65021">
        <ele>246.8</ele>
        <time>2017-10-08T09:58:17Z</time>
      </trkpt>
      <trkpt lat="43.39763" lon="6.65018">
        <ele>247.5</ele>
        <time>2017-10-08T09:58:19Z</time>
      </trkpt>
      <trkpt lat="43.3977" lon="6.65015">
        <ele>248.4</ele>
        <time>2017-10-08T09:58:24Z</time>
      </trkpt>
      <trkpt lat="43.39772" lon="6.65013">
        <ele>248.7</ele>
        <time>2017-10-08T09:58:26Z</time>
      </trkpt>
      <trkpt lat="43.39781" lon="6.65011">
        <ele>249.9</ele>
        <time>2017-10-08T09:58:32Z</time>
      </trkpt>
      <trkpt lat="43.39785" lon="6.65009">
        <ele>250.3</ele>
        <time>2017-10-08T09:58:35Z</time>
      </trkpt>
      <trkpt lat="43.39786" lon="6.65009">
        <ele>250.4</ele>
        <time>2017-10-08T09:58:36Z</time>
      </trkpt>
      <trkpt lat="43.39793" lon="6.65008">
        <ele>250.8</ele>
        <time>2017-10-08T09:58:41Z</time>
      </trkpt>
      <trkpt lat="43.39795" lon="6.65008">
        <ele>250.9</ele>
        <time>2017-10-08T09:58:43Z</time>
      </trkpt>
      <trkpt lat="43.398" lon="6.65008">
        <ele>251.7</ele>
        <time>2017-10-08T09:58:46Z</time>
      </trkpt>
      <trkpt lat="43.39806" lon="6.65006">
        <ele>252.7</ele>
        <time>2017-10-08T09:58:51Z</time>
      </trkpt>
      <trkpt lat="43.39808" lon="6.65005">
        <ele>252.9</ele>
        <time>2017-10-08T09:58:52Z</time>
      </trkpt>
      <trkpt lat="43.39814" lon="6.65005">
        <ele>253.6</ele>
        <time>2017-10-08T09:58:56Z</time>
      </trkpt>
      <trkpt lat="43.39819" lon="6.65004">
        <ele>254.6</ele>
        <time>2017-10-08T09:59:00Z</time>
      </trkpt>
      <trkpt lat="43.39821" lon="6.65004">
        <ele>254.8</ele>
        <time>2017-10-08T09:59:02Z</time>
      </trkpt>
      <trkpt lat="43.39827" lon="6.65001">
        <ele>255.5</ele>
        <time>2017-10-08T09:59:07Z</time>
      </trkpt>
      <trkpt lat="43.3983" lon="6.65">
        <ele>256.1</ele>
        <time>2017-10-08T09:59:09Z</time>
      </trkpt>
      <trkpt lat="43.39835" lon="6.64998">
        <ele>257.1</ele>
        <time>2017-10-08T09:59:13Z</time>
      </trkpt>
      <trkpt lat="43.39838" lon="6.64995">
        <ele>257.5</ele>
        <time>2017-10-08T09:59:16Z</time>
      </trkpt>
      <trkpt lat="43.3984" lon="6.64993">
        <ele>257.9</ele>
        <time>2017-10-08T09:59:18Z</time>
      </trkpt>
      <trkpt lat="43.39846" lon="6.6499">
        <ele>259.2</ele>
        <time>2017-10-08T09:59:23Z</time>
      </trkpt>
      <trkpt lat="43.39848" lon="6.64989">
        <ele>259.5</ele>
        <time>2017-10-08T09:59:25Z</time>
      </trkpt>
      <trkpt lat="43.39849" lon="6.64988">
        <ele>259.6</ele>
        <time>2017-10-08T09:59:26Z</time>
      </trkpt>
      <trkpt lat="43.39853" lon="6.64985">
        <ele>260</ele>
        <time>2017-10-08T09:59:29Z</time>
      </trkpt>
      <trkpt lat="43.39859" lon="6.64981">
        <ele>261.3</ele>
        <time>2017-10-08T09:59:34Z</time>
      </trkpt>
      <trkpt lat="43.39863" lon="6.64977">
        <ele>261.7</ele>
        <time>2017-10-08T09:59:37Z</time>
      </trkpt>
      <trkpt lat="43.39866" lon="6.64975">
        <ele>262</ele>
        <time>2017-10-08T09:59:40Z</time>
      </trkpt>
      <trkpt lat="43.39873" lon="6.64971">
        <ele>263.3</ele>
        <time>2017-10-08T09:59:45Z</time>
      </trkpt>
      <trkpt lat="43.39874" lon="6.6497">
        <ele>263.5</ele>
        <time>2017-10-08T09:59:46Z</time>
      </trkpt>
      <trkpt lat="43.39878" lon="6.64968">
        <ele>263.8</ele>
        <time>2017-10-08T09:59:49Z</time>
      </trkpt>
      <trkpt lat="43.39883" lon="6.64966">
        <ele>264.3</ele>
        <time>2017-10-08T09:59:53Z</time>
      </trkpt>
      <trkpt lat="43.39885" lon="6.64965">
        <ele>264.7</ele>
        <time>2017-10-08T09:59:55Z</time>
      </trkpt>
      <trkpt lat="43.39888" lon="6.64965">
        <ele>265.2</ele>
        <time>2017-10-08T09:59:57Z</time>
      </trkpt>
      <trkpt lat="43.39897" lon="6.64965">
        <ele>266</ele>
        <time>2017-10-08T10:01:14Z</time>
      </trkpt>
      <trkpt lat="43.39903" lon="6.64963">
        <ele>266.8</ele>
        <time>2017-10-08T10:01:17Z</time>
      </trkpt>
      <trkpt lat="43.3991" lon="6.64962">
        <ele>268</ele>
        <time>2017-10-08T10:01:22Z</time>
      </trkpt>
      <trkpt lat="43.39911" lon="6.64962">
        <ele>268.1</ele>
        <time>2017-10-08T10:01:23Z</time>
      </trkpt>
      <trkpt lat="43.39911" lon="6.64962">
        <ele>268.2</ele>
        <time>2017-10-08T10:01:24Z</time>
      </trkpt>
      <trkpt lat="43.39924" lon="6.64954">
        <ele>270.3</ele>
        <time>2017-10-08T10:01:37Z</time>
      </trkpt>
      <trkpt lat="43.39925" lon="6.64951">
        <ele>270.7</ele>
        <time>2017-10-08T10:01:39Z</time>
      </trkpt>
      <trkpt lat="43.39926" lon="6.64949">
        <ele>271</ele>
        <time>2017-10-08T10:01:41Z</time>
      </trkpt>
      <trkpt lat="43.39928" lon="6.64947">
        <ele>271.3</ele>
        <time>2017-10-08T10:01:43Z</time>
      </trkpt>
      <trkpt lat="43.3993" lon="6.64945">
        <ele>271.9</ele>
        <time>2017-10-08T10:01:45Z</time>
      </trkpt>
      <trkpt lat="43.39931" lon="6.64945">
        <ele>272.1</ele>
        <time>2017-10-08T10:01:46Z</time>
      </trkpt>
      <trkpt lat="43.39935" lon="6.64943">
        <ele>273.1</ele>
        <time>2017-10-08T10:01:49Z</time>
      </trkpt>
      <trkpt lat="43.39936" lon="6.64942">
        <ele>273.3</ele>
        <time>2017-10-08T10:01:50Z</time>
      </trkpt>
      <trkpt lat="43.39939" lon="6.64941">
        <ele>274.1</ele>
        <time>2017-10-08T10:01:53Z</time>
      </trkpt>
      <trkpt lat="43.39946" lon="6.64941">
        <ele>275.3</ele>
        <time>2017-10-08T10:02:00Z</time>
      </trkpt>
      <trkpt lat="43.39953" lon="6.64941">
        <ele>276.5</ele>
        <time>2017-10-08T10:02:05Z</time>
      </trkpt>
      <trkpt lat="43.39956" lon="6.64941">
        <ele>277.3</ele>
        <time>2017-10-08T10:02:07Z</time>
      </trkpt>
      <trkpt lat="43.39961" lon="6.6494">
        <ele>278.5</ele>
        <time>2017-10-08T10:02:10Z</time>
      </trkpt>
      <trkpt lat="43.39967" lon="6.6494">
        <ele>279.8</ele>
        <time>2017-10-08T10:02:14Z</time>
      </trkpt>
      <trkpt lat="43.39973" lon="6.64941">
        <ele>281.3</ele>
        <time>2017-10-08T10:02:18Z</time>
      </trkpt>
      <trkpt lat="43.39978" lon="6.64943">
        <ele>282.7</ele>
        <time>2017-10-08T10:02:21Z</time>
      </trkpt>
      <trkpt lat="43.39981" lon="6.64944">
        <ele>283.5</ele>
        <time>2017-10-08T10:02:23Z</time>
      </trkpt>
      <trkpt lat="43.39984" lon="6.64945">
        <ele>284.2</ele>
        <time>2017-10-08T10:02:25Z</time>
      </trkpt>
      <trkpt lat="43.39987" lon="6.64945">
        <ele>285</ele>
        <time>2017-10-08T10:02:29Z</time>
      </trkpt>
      <trkpt lat="43.39996" lon="6.64944">
        <ele>286.6</ele>
        <time>2017-10-08T10:02:36Z</time>
      </trkpt>
      <trkpt lat="43.39997" lon="6.64945">
        <ele>286.8</ele>
        <time>2017-10-08T10:02:37Z</time>
      </trkpt>
      <trkpt lat="43.40005" lon="6.64943">
        <ele>288.6</ele>
        <time>2017-10-08T10:02:43Z</time>
      </trkpt>
      <trkpt lat="43.40009" lon="6.64941">
        <ele>289.2</ele>
        <time>2017-10-08T10:02:46Z</time>
      </trkpt>
      <trkpt lat="43.40011" lon="6.6494">
        <ele>289.6</ele>
        <time>2017-10-08T10:02:47Z</time>
      </trkpt>
      <trkpt lat="43.401" lon="6.6487">
        <ele>308.7</ele>
        <time>2017-10-08T10:13:23Z</time>
      </trkpt>
      <trkpt lat="43.40108" lon="6.64864">
        <ele>309.1</ele>
        <time>2017-10-08T10:13:30Z</time>
      </trkpt>
      <trkpt lat="43.40116" lon="6.64851">
        <ele>309.6</ele>
        <time>2017-10-08T10:13:40Z</time>
      </trkpt>
      <trkpt lat="43.40123" lon="6.6484">
        <ele>310.3</ele>
        <time>2017-10-08T10:13:45Z</time>
      </trkpt>
      <trkpt lat="43.40125" lon="6.64836">
        <ele>310.5</ele>
        <time>2017-10-08T10:13:46Z</time>
      </trkpt>
      <trkpt lat="43.40138" lon="6.64808">
        <ele>311.1</ele>
        <time>2017-10-08T10:13:53Z</time>
      </trkpt>
      <trkpt lat="43.40146" lon="6.64794">
        <ele>311.2</ele>
        <time>2017-10-08T10:13:56Z</time>
      </trkpt>
      <trkpt lat="43.40159" lon="6.64772">
        <ele>311.2</ele>
        <time>2017-10-08T10:14:00Z</time>
      </trkpt>
      <trkpt lat="43.40195" lon="6.64723">
        <ele>316.9</ele>
        <time>2017-10-08T10:14:08Z</time>
      </trkpt>
      <trkpt lat="43.40285" lon="6.64745">
        <ele>305.1</ele>
        <time>2017-10-08T10:14:14Z</time>
      </trkpt>
      <trkpt lat="43.40293" lon="6.64743">
        <ele>304.9</ele>
        <time>2017-10-08T10:14:15Z</time>
      </trkpt>
      <trkpt lat="43.40314" lon="6.64739">
        <ele>304.4</ele>
        <time>2017-10-08T10:14:18Z</time>
      </trkpt>
      <trkpt lat="43.40345" lon="6.64733">
        <ele>304</ele>
        <time>2017-10-08T10:14:23Z</time>
      </trkpt>
      <trkpt lat="43.4035" lon="6.64733">
        <ele>303.9</ele>
        <time>2017-10-08T10:14:24Z</time>
      </trkpt>
      <trkpt lat="43.40349" lon="6.64735">
        <ele>303.9</ele>
        <time>2017-10-08T10:14:25Z</time>
      </trkpt>
      <trkpt lat="43.40352" lon="6.64737">
        <ele>303.9</ele>
        <time>2017-10-08T10:14:26Z</time>
      </trkpt>
      <trkpt lat="43.40362" lon="6.64742">
        <ele>303.8</ele>
        <time>2017-10-08T10:14:28Z</time>
      </trkpt>
      <trkpt lat="43.40402" lon="6.64762">
        <ele>303.3</ele>
        <time>2017-10-08T10:14:34Z</time>
      </trkpt>
      <trkpt lat="43.40428" lon="6.64772">
        <ele>302.4</ele>
        <time>2017-10-08T10:14:39Z</time>
      </trkpt>
      <trkpt lat="43.40447" lon="6.64778">
        <ele>301.3</ele>
        <time>2017-10-08T10:14:43Z</time>
      </trkpt>
      <trkpt lat="43.40472" lon="6.64786">
        <ele>300.4</ele>
        <time>2017-10-08T10:14:47Z</time>
      </trkpt>
      <trkpt lat="43.40493" lon="6.64791">
        <ele>300</ele>
        <time>2017-10-08T10:14:50Z</time>
      </trkpt>
      <trkpt lat="43.40523" lon="6.64796">
        <ele>298.8</ele>
        <time>2017-10-08T10:14:54Z</time>
      </trkpt>
      <trkpt lat="43.4058" lon="6.64807">
        <ele>296.7</ele>
        <time>2017-10-08T10:15:01Z</time>
      </trkpt>
      <trkpt lat="43.40595" lon="6.64811">
        <ele>295.9</ele>
        <time>2017-10-08T10:15:03Z</time>
      </trkpt>
      <trkpt lat="43.40634" lon="6.64817">
        <ele>294.3</ele>
        <time>2017-10-08T10:15:09Z</time>
      </trkpt>
      <trkpt lat="43.40675" lon="6.64827">
        <ele>293.1</ele>
        <time>2017-10-08T10:15:17Z</time>
      </trkpt>
      <trkpt lat="43.40693" lon="6.64833">
        <ele>292.3</ele>
        <time>2017-10-08T10:15:21Z</time>
      </trkpt>
      <trkpt lat="43.40707" lon="6.64839">
        <ele>290.9</ele>
        <time>2017-10-08T10:15:25Z</time>
      </trkpt>
      <trkpt lat="43.40711" lon="6.6484">
        <ele>290.8</ele>
        <time>2017-10-08T10:15:26Z</time>
      </trkpt>
      <trkpt lat="43.40734" lon="6.64852">
        <ele>289.5</ele>
        <time>2017-10-08T10:15:33Z</time>
      </trkpt>
      <trkpt lat="43.40741" lon="6.64859">
        <ele>289</ele>
        <time>2017-10-08T10:15:35Z</time>
      </trkpt>
      <trkpt lat="43.40754" lon="6.64874">
        <ele>287.9</ele>
        <time>2017-10-08T10:15:40Z</time>
      </trkpt>
      <trkpt lat="43.4076" lon="6.64887">
        <ele>287.3</ele>
        <time>2017-10-08T10:15:45Z</time>
      </trkpt>
      <trkpt lat="43.40762" lon="6.6489">
        <ele>287.2</ele>
        <time>2017-10-08T10:15:46Z</time>
      </trkpt>
      <trkpt lat="43.40771" lon="6.64906">
        <ele>286.7</ele>
        <time>2017-10-08T10:15:53Z</time>
      </trkpt>
      <trkpt lat="43.40775" lon="6.64916">
        <ele>286.4</ele>
        <time>2017-10-08T10:15:58Z</time>
      </trkpt>
      <trkpt lat="43.40777" lon="6.64922">
        <ele>286</ele>
        <time>2017-10-08T10:16:01Z</time>
      </trkpt>
      <trkpt lat="43.40778" lon="6.64928">
        <ele>285.6</ele>
        <time>2017-10-08T10:16:04Z</time>
      </trkpt>
      <trkpt lat="43.40781" lon="6.6494">
        <ele>284.8</ele>
        <time>2017-10-08T10:16:09Z</time>
      </trkpt>
      <trkpt lat="43.40781" lon="6.64943">
        <ele>284.6</ele>
        <time>2017-10-08T10:16:10Z</time>
      </trkpt>
      <trkpt lat="43.40783" lon="6.64954">
        <ele>283.7</ele>
        <time>2017-10-08T10:16:14Z</time>
      </trkpt>
      <trkpt lat="43.40784" lon="6.64967">
        <ele>282.7</ele>
        <time>2017-10-08T10:16:19Z</time>
      </trkpt>
      <trkpt lat="43.40785" lon="6.64991">
        <ele>281.1</ele>
        <time>2017-10-08T10:16:26Z</time>
      </trkpt>
      <trkpt lat="43.40787" lon="6.65028">
        <ele>279.4</ele>
        <time>2017-10-08T10:16:36Z</time>
      </trkpt>
      <trkpt lat="43.4079" lon="6.65055">
        <ele>278.5</ele>
        <time>2017-10-08T10:16:43Z</time>
      </trkpt>
      <trkpt lat="43.40793" lon="6.65083">
        <ele>276.9</ele>
        <time>2017-10-08T10:16:50Z</time>
      </trkpt>
      <trkpt lat="43.40796" lon="6.6512">
        <ele>275.6</ele>
        <time>2017-10-08T10:16:57Z</time>
      </trkpt>
      <trkpt lat="43.40799" lon="6.65162">
        <ele>274.6</ele>
        <time>2017-10-08T10:17:04Z</time>
      </trkpt>
      <trkpt lat="43.40799" lon="6.65166">
        <ele>274.5</ele>
        <time>2017-10-08T10:17:05Z</time>
      </trkpt>
      <trkpt lat="43.40804" lon="6.65185">
        <ele>274</ele>
        <time>2017-10-08T10:17:10Z</time>
      </trkpt>
      <trkpt lat="43.40806" lon="6.65188">
        <ele>274</ele>
        <time>2017-10-08T10:17:11Z</time>
      </trkpt>
      <trkpt lat="43.40813" lon="6.65195">
        <ele>274</ele>
        <time>2017-10-08T10:17:15Z</time>
      </trkpt>
      <trkpt lat="43.40815" lon="6.65196">
        <ele>274</ele>
        <time>2017-10-08T10:17:16Z</time>
      </trkpt>
      <trkpt lat="43.40823" lon="6.65195">
        <ele>274</ele>
        <time>2017-10-08T10:17:20Z</time>
      </trkpt>
      <trkpt lat="43.40825" lon="6.65193">
        <ele>274</ele>
        <time>2017-10-08T10:17:21Z</time>
      </trkpt>
      <trkpt lat="43.40827" lon="6.65191">
        <ele>275.1</ele>
        <time>2017-10-08T10:17:22Z</time>
      </trkpt>
      <trkpt lat="43.40832" lon="6.65182">
        <ele>277.9</ele>
        <time>2017-10-08T10:17:26Z</time>
      </trkpt>
      <trkpt lat="43.40828" lon="6.65177">
        <ele>279.6</ele>
        <time>2017-10-08T10:17:28Z</time>
      </trkpt>
      <trkpt lat="43.40828" lon="6.65174">
        <ele>280.3</ele>
        <time>2017-10-08T10:17:29Z</time>
      </trkpt>
      <trkpt lat="43.40827" lon="6.6517">
        <ele>281.6</ele>
        <time>2017-10-08T10:17:31Z</time>
      </trkpt>
      <trkpt lat="43.40826" lon="6.65168">
        <ele>282.2</ele>
        <time>2017-10-08T10:17:32Z</time>
      </trkpt>
      <trkpt lat="43.40824" lon="6.65163">
        <ele>283.8</ele>
        <time>2017-10-08T10:17:35Z</time>
      </trkpt>
      <trkpt lat="43.40824" lon="6.65161">
        <ele>284.2</ele>
        <time>2017-10-08T10:17:36Z</time>
      </trkpt>
      <trkpt lat="43.40823" lon="6.65156">
        <ele>285.5</ele>
        <time>2017-10-08T10:17:39Z</time>
      </trkpt>
      <trkpt lat="43.40822" lon="6.6515">
        <ele>287.3</ele>
        <time>2017-10-08T10:17:42Z</time>
      </trkpt>
      <trkpt lat="43.40822" lon="6.65148">
        <ele>288</ele>
        <time>2017-10-08T10:17:43Z</time>
      </trkpt>
      <trkpt lat="43.40824" lon="6.65135">
        <ele>291.7</ele>
        <time>2017-10-08T10:17:50Z</time>
      </trkpt>
      <trkpt lat="43.40828" lon="6.65128">
        <ele>293.6</ele>
        <time>2017-10-08T10:17:55Z</time>
      </trkpt>
      <trkpt lat="43.4083" lon="6.65123">
        <ele>295.4</ele>
        <time>2017-10-08T10:17:59Z</time>
      </trkpt>
      <trkpt lat="43.40852" lon="6.65061">
        <ele>312.3</ele>
        <time>2017-10-08T10:18:50Z</time>
      </trkpt>
      <trkpt lat="43.40851" lon="6.65053">
        <ele>314</ele>
        <time>2017-10-08T10:18:54Z</time>
      </trkpt>
      <trkpt lat="43.4085" lon="6.65043">
        <ele>314.2</ele>
        <time>2017-10-08T10:19:01Z</time>
      </trkpt>
      <trkpt lat="43.4085" lon="6.6504">
        <ele>314.2</ele>
        <time>2017-10-08T10:19:03Z</time>
      </trkpt>
      <trkpt lat="43.40849" lon="6.65037">
        <ele>314.3</ele>
        <time>2017-10-08T10:19:05Z</time>
      </trkpt>
      <trkpt lat="43.40847" lon="6.65021">
        <ele>314.5</ele>
        <time>2017-10-08T10:19:13Z</time>
      </trkpt>
      <trkpt lat="43.40845" lon="6.65004">
        <ele>314.7</ele>
        <time>2017-10-08T10:19:17Z</time>
      </trkpt>
      <trkpt lat="43.40844" lon="6.64997">
        <ele>314.7</ele>
        <time>2017-10-08T10:19:18Z</time>
      </trkpt>
      <trkpt lat="43.40845" lon="6.64961">
        <ele>314.9</ele>
        <time>2017-10-08T10:19:22Z</time>
      </trkpt>
      <trkpt lat="43.40847" lon="6.64931">
        <ele>314.1</ele>
        <time>2017-10-08T10:19:26Z</time>
      </trkpt>
      <trkpt lat="43.40846" lon="6.64925">
        <ele>313.8</ele>
        <time>2017-10-08T10:19:27Z</time>
      </trkpt>
      <trkpt lat="43.40833" lon="6.64909">
        <ele>312.8</ele>
        <time>2017-10-08T10:19:31Z</time>
      </trkpt>
      <trkpt lat="43.40828" lon="6.64906">
        <ele>312.5</ele>
        <time>2017-10-08T10:19:32Z</time>
      </trkpt>
      <trkpt lat="43.40809" lon="6.6489">
        <ele>311.7</ele>
        <time>2017-10-08T10:19:36Z</time>
      </trkpt>
      <trkpt lat="43.40804" lon="6.64883">
        <ele>311.5</ele>
        <time>2017-10-08T10:19:37Z</time>
      </trkpt>
      <trkpt lat="43.40792" lon="6.64848">
        <ele>310.5</ele>
        <time>2017-10-08T10:19:41Z</time>
      </trkpt>
      <trkpt lat="43.40781" lon="6.64812">
        <ele>306.3</ele>
        <time>2017-10-08T10:19:46Z</time>
      </trkpt>
      <trkpt lat="43.40781" lon="6.64794">
        <ele>304.5</ele>
        <time>2017-10-08T10:19:49Z</time>
      </trkpt>
      <trkpt lat="43.40782" lon="6.64784">
        <ele>304</ele>
        <time>2017-10-08T10:19:51Z</time>
      </trkpt>
      <trkpt lat="43.40781" lon="6.6478">
        <ele>303.8</ele>
        <time>2017-10-08T10:19:52Z</time>
      </trkpt>
      <trkpt lat="43.40778" lon="6.64772">
        <ele>303.3</ele>
        <time>2017-10-08T10:19:54Z</time>
      </trkpt>
      <trkpt lat="43.40766" lon="6.64757">
        <ele>302.1</ele>
        <time>2017-10-08T10:19:58Z</time>
      </trkpt>
      <trkpt lat="43.40727" lon="6.64725">
        <ele>299.2</ele>
        <time>2017-10-08T10:20:08Z</time>
      </trkpt>
      <trkpt lat="43.40702" lon="6.64696">
        <ele>297</ele>
        <time>2017-10-08T10:20:15Z</time>
      </trkpt>
      <trkpt lat="43.40699" lon="6.64695">
        <ele>296.9</ele>
        <time>2017-10-08T10:20:16Z</time>
      </trkpt>
      <trkpt lat="43.4069" lon="6.64705">
        <ele>296.6</ele>
        <time>2017-10-08T10:20:18Z</time>
      </trkpt>
      <trkpt lat="43.40661" lon="6.64746">
        <ele>294.9</ele>
        <time>2017-10-08T10:20:24Z</time>
      </trkpt>
      <trkpt lat="43.4065" lon="6.6476">
        <ele>294.1</ele>
        <time>2017-10-08T10:20:26Z</time>
      </trkpt>
      <trkpt lat="43.40636" lon="6.64767">
        <ele>294.3</ele>
        <time>2017-10-08T10:20:28Z</time>
      </trkpt>
      <trkpt lat="43.40613" lon="6.6476">
        <ele>294.8</ele>
        <time>2017-10-08T10:20:31Z</time>
      </trkpt>
      <trkpt lat="43.40605" lon="6.64756">
        <ele>295.1</ele>
        <time>2017-10-08T10:20:32Z</time>
      </trkpt>
      <trkpt lat="43.40599" lon="6.64753">
        <ele>295.3</ele>
        <time>2017-10-08T10:20:33Z</time>
      </trkpt>
      <trkpt lat="43.40588" lon="6.64747">
        <ele>295.9</ele>
        <time>2017-10-08T10:20:35Z</time>
      </trkpt>
      <trkpt lat="43.40577" lon="6.64747">
        <ele>296.7</ele>
        <time>2017-10-08T10:20:37Z</time>
      </trkpt>
      <trkpt lat="43.40568" lon="6.64753">
        <ele>296.8</ele>
        <time>2017-10-08T10:20:39Z</time>
      </trkpt>
      <trkpt lat="43.40563" lon="6.64757">
        <ele>296.8</ele>
        <time>2017-10-08T10:20:40Z</time>
      </trkpt>
      <trkpt lat="43.40549" lon="6.64765">
        <ele>297.3</ele>
        <time>2017-10-08T10:20:43Z</time>
      </trkpt>
      <trkpt lat="43.40543" lon="6.64764">
        <ele>297.6</ele>
        <time>2017-10-08T10:20:45Z</time>
      </trkpt>
      <trkpt lat="43.40542" lon="6.64762">
        <ele>297.6</ele>
        <time>2017-10-08T10:20:46Z</time>
      </trkpt>
      <trkpt lat="43.40547" lon="6.64741">
        <ele>298.4</ele>
        <time>2017-10-08T10:21:11Z</time>
      </trkpt>
      <trkpt lat="43.4053" lon="6.64732">
        <ele>299.5</ele>
        <time>2017-10-08T10:21:20Z</time>
      </trkpt>
      <trkpt lat="43.40522" lon="6.64723">
        <ele>299.9</ele>
        <time>2017-10-08T10:21:23Z</time>
      </trkpt>
      <trkpt lat="43.40517" lon="6.64717">
        <ele>300.2</ele>
        <time>2017-10-08T10:21:26Z</time>
      </trkpt>
      <trkpt lat="43.40514" lon="6.64715">
        <ele>300.4</ele>
        <time>2017-10-08T10:21:28Z</time>
      </trkpt>
      <trkpt lat="43.40506" lon="6.64709">
        <ele>300.8</ele>
        <time>2017-10-08T10:21:32Z</time>
      </trkpt>
      <trkpt lat="43.40502" lon="6.64706">
        <ele>300.9</ele>
        <time>2017-10-08T10:21:34Z</time>
      </trkpt>
      <trkpt lat="43.40487" lon="6.64698">
        <ele>301.1</ele>
        <time>2017-10-08T10:21:42Z</time>
      </trkpt>
      <trkpt lat="43.40468" lon="6.64695">
        <ele>301.8</ele>
        <time>2017-10-08T10:21:50Z</time>
      </trkpt>
      <trkpt lat="43.40462" lon="6.64694">
        <ele>302.3</ele>
        <time>2017-10-08T10:21:53Z</time>
      </trkpt>
      <trkpt lat="43.40457" lon="6.64691">
        <ele>302.7</ele>
        <time>2017-10-08T10:21:55Z</time>
      </trkpt>
      <trkpt lat="43.40455" lon="6.6469">
        <ele>302.9</ele>
        <time>2017-10-08T10:21:56Z</time>
      </trkpt>
      <trkpt lat="43.40453" lon="6.64688">
        <ele>303.1</ele>
        <time>2017-10-08T10:21:57Z</time>
      </trkpt>
      <trkpt lat="43.4045" lon="6.64685">
        <ele>303.4</ele>
        <time>2017-10-08T10:21:59Z</time>
      </trkpt>
      <trkpt lat="43.40446" lon="6.64681">
        <ele>303.8</ele>
        <time>2017-10-08T10:22:02Z</time>
      </trkpt>
      <trkpt lat="43.40442" lon="6.64677">
        <ele>304.1</ele>
        <time>2017-10-08T10:22:06Z</time>
      </trkpt>
      <trkpt lat="43.40436" lon="6.64672">
        <ele>304.3</ele>
        <time>2017-10-08T10:22:11Z</time>
      </trkpt>
      <trkpt lat="43.40435" lon="6.64671">
        <ele>304.3</ele>
        <time>2017-10-08T10:22:12Z</time>
      </trkpt>
      <trkpt lat="43.40424" lon="6.64667">
        <ele>304.7</ele>
        <time>2017-10-08T10:22:21Z</time>
      </trkpt>
      <trkpt lat="43.40421" lon="6.64666">
        <ele>304.9</ele>
        <time>2017-10-08T10:22:23Z</time>
      </trkpt>
      <trkpt lat="43.40413" lon="6.64666">
        <ele>305.2</ele>
        <time>2017-10-08T10:22:28Z</time>
      </trkpt>
      <trkpt lat="43.40398" lon="6.64662">
        <ele>305.6</ele>
        <time>2017-10-08T10:22:36Z</time>
      </trkpt>
      <trkpt lat="43.40387" lon="6.64658">
        <ele>306.2</ele>
        <time>2017-10-08T10:22:43Z</time>
      </trkpt>
      <trkpt lat="43.40381" lon="6.64658">
        <ele>306.4</ele>
        <time>2017-10-08T10:22:47Z</time>
      </trkpt>
      <trkpt lat="43.40377" lon="6.64659">
        <ele>306.6</ele>
        <time>2017-10-08T10:22:50Z</time>
      </trkpt>
      <trkpt lat="43.40375" lon="6.6466">
        <ele>306.7</ele>
        <time>2017-10-08T10:22:51Z</time>
      </trkpt>
      <trkpt lat="43.40369" lon="6.64661">
        <ele>307.1</ele>
        <time>2017-10-08T10:22:55Z</time>
      </trkpt>
      <trkpt lat="43.40363" lon="6.64663">
        <ele>307.3</ele>
        <time>2017-10-08T10:22:59Z</time>
      </trkpt>
      <trkpt lat="43.40354" lon="6.64667">
        <ele>307.3</ele>
        <time>2017-10-08T10:23:06Z</time>
      </trkpt>
      <trkpt lat="43.40342" lon="6.64675">
        <ele>307.3</ele>
        <time>2017-10-08T10:23:12Z</time>
      </trkpt>
      <trkpt lat="43.40324" lon="6.64679">
        <ele>307.5</ele>
        <time>2017-10-08T10:23:17Z</time>
      </trkpt>
      <trkpt lat="43.40317" lon="6.64677">
        <ele>307.7</ele>
        <time>2017-10-08T10:23:20Z</time>
      </trkpt>
      <trkpt lat="43.40309" lon="6.64676">
        <ele>308.4</ele>
        <time>2017-10-08T10:23:24Z</time>
      </trkpt>
      <trkpt lat="43.40304" lon="6.64674">
        <ele>308.8</ele>
        <time>2017-10-08T10:23:27Z</time>
      </trkpt>
      <trkpt lat="43.40299" lon="6.64673">
        <ele>309.3</ele>
        <time>2017-10-08T10:23:30Z</time>
      </trkpt>
      <trkpt lat="43.40296" lon="6.64671">
        <ele>309.5</ele>
        <time>2017-10-08T10:23:32Z</time>
      </trkpt>
      <trkpt lat="43.40294" lon="6.6467">
        <ele>309.6</ele>
        <time>2017-10-08T10:23:33Z</time>
      </trkpt>
      <trkpt lat="43.40287" lon="6.64666">
        <ele>309.9</ele>
        <time>2017-10-08T10:23:38Z</time>
      </trkpt>
      <trkpt lat="43.40283" lon="6.64664">
        <ele>310.2</ele>
        <time>2017-10-08T10:23:40Z</time>
      </trkpt>
      <trkpt lat="43.4028" lon="6.64663">
        <ele>310.5</ele>
        <time>2017-10-08T10:23:42Z</time>
      </trkpt>
      <trkpt lat="43.4027" lon="6.64656">
        <ele>310.8</ele>
        <time>2017-10-08T10:23:48Z</time>
      </trkpt>
      <trkpt lat="43.40252" lon="6.64648">
        <ele>311.5</ele>
        <time>2017-10-08T10:23:55Z</time>
      </trkpt>
      <trkpt lat="43.40232" lon="6.64647">
        <ele>311.5</ele>
        <time>2017-10-08T10:24:01Z</time>
      </trkpt>
      <trkpt lat="43.4021" lon="6.64648">
        <ele>311.4</ele>
        <time>2017-10-08T10:24:07Z</time>
      </trkpt>
      <trkpt lat="43.40184" lon="6.64649">
        <ele>311.2</ele>
        <time>2017-10-08T10:24:14Z</time>
      </trkpt>
      <trkpt lat="43.4016" lon="6.64655">
        <ele>310.8</ele>
        <time>2017-10-08T10:24:21Z</time>
      </trkpt>
      <trkpt lat="43.40143" lon="6.64666">
        <ele>310.5</ele>
        <time>2017-10-08T10:24:24Z</time>
      </trkpt>
      <trkpt lat="43.40139" lon="6.64671">
        <ele>310.4</ele>
        <time>2017-10-08T10:24:25Z</time>
      </trkpt>
      <trkpt lat="43.40127" lon="6.64689">
        <ele>310.1</ele>
        <time>2017-10-08T10:24:29Z</time>
      </trkpt>
      <trkpt lat="43.40121" lon="6.64697">
        <ele>310</ele>
        <time>2017-10-08T10:24:31Z</time>
      </trkpt>
      <trkpt lat="43.4011" lon="6.64708">
        <ele>309.9</ele>
        <time>2017-10-08T10:24:34Z</time>
      </trkpt>
      <trkpt lat="43.40093" lon="6.64717">
        <ele>309.8</ele>
        <time>2017-10-08T10:24:39Z</time>
      </trkpt>
      <trkpt lat="43.40089" lon="6.6472">
        <ele>309.7</ele>
        <time>2017-10-08T10:24:40Z</time>
      </trkpt>
      <trkpt lat="43.40072" lon="6.6474">
        <ele>309.7</ele>
        <time>2017-10-08T10:24:45Z</time>
      </trkpt>
      <trkpt lat="43.40069" lon="6.64744">
        <ele>309.7</ele>
        <time>2017-10-08T10:24:46Z</time>
      </trkpt>
      <trkpt lat="43.40052" lon="6.64771">
        <ele>310</ele>
        <time>2017-10-08T10:24:52Z</time>
      </trkpt>
      <trkpt lat="43.40051" lon="6.64775">
        <ele>309.9</ele>
        <time>2017-10-08T10:24:53Z</time>
      </trkpt>
      <trkpt lat="43.40042" lon="6.6479">
        <ele>309.7</ele>
        <time>2017-10-08T10:24:58Z</time>
      </trkpt>
      <trkpt lat="43.40033" lon="6.64812">
        <ele>308.9</ele>
        <time>2017-10-08T10:25:04Z</time>
      </trkpt>
      <trkpt lat="43.40028" lon="6.64829">
        <ele>307.6</ele>
        <time>2017-10-08T10:25:09Z</time>
      </trkpt>
      <trkpt lat="43.40023" lon="6.64832">
        <ele>306.9</ele>
        <time>2017-10-08T10:25:11Z</time>
      </trkpt>
      <trkpt lat="43.40007" lon="6.64827">
        <ele>304.8</ele>
        <time>2017-10-08T10:25:15Z</time>
      </trkpt>
      <trkpt lat="43.39985" lon="6.64818">
        <ele>301.1</ele>
        <time>2017-10-08T10:25:20Z</time>
      </trkpt>
      <trkpt lat="43.3998" lon="6.64818">
        <ele>300.3</ele>
        <time>2017-10-08T10:25:21Z</time>
      </trkpt>
      <trkpt lat="43.39976" lon="6.64819">
        <ele>299.6</ele>
        <time>2017-10-08T10:25:22Z</time>
      </trkpt>
      <trkpt lat="43.39961" lon="6.64824">
        <ele>296.6</ele>
        <time>2017-10-08T10:25:25Z</time>
      </trkpt>
      <trkpt lat="43.39946" lon="6.64828">
        <ele>292.8</ele>
        <time>2017-10-08T10:25:28Z</time>
      </trkpt>
      <trkpt lat="43.39941" lon="6.6483">
        <ele>291.3</ele>
        <time>2017-10-08T10:25:29Z</time>
      </trkpt>
      <trkpt lat="43.39926" lon="6.64836">
        <ele>286.4</ele>
        <time>2017-10-08T10:25:32Z</time>
      </trkpt>
      <trkpt lat="43.39921" lon="6.64838">
        <ele>284.6</ele>
        <time>2017-10-08T10:25:33Z</time>
      </trkpt>
      <trkpt lat="43.39916" lon="6.64838">
        <ele>282.8</ele>
        <time>2017-10-08T10:25:34Z</time>
      </trkpt>
      <trkpt lat="43.39911" lon="6.64837">
        <ele>281.4</ele>
        <time>2017-10-08T10:25:35Z</time>
      </trkpt>
      <trkpt lat="43.39893" lon="6.64836">
        <ele>277.4</ele>
        <time>2017-10-08T10:25:38Z</time>
      </trkpt>
      <trkpt lat="43.39887" lon="6.64838">
        <ele>276.3</ele>
        <time>2017-10-08T10:25:39Z</time>
      </trkpt>
      <trkpt lat="43.39873" lon="6.64852">
        <ele>273.3</ele>
        <time>2017-10-08T10:25:42Z</time>
      </trkpt>
      <trkpt lat="43.39868" lon="6.6487">
        <ele>270</ele>
        <time>2017-10-08T10:25:45Z</time>
      </trkpt>
      <trkpt lat="43.39867" lon="6.64874">
        <ele>269.1</ele>
        <time>2017-10-08T10:25:46Z</time>
      </trkpt>
      <trkpt lat="43.39863" lon="6.64881">
        <ele>267.8</ele>
        <time>2017-10-08T10:25:48Z</time>
      </trkpt>
      <trkpt lat="43.3986" lon="6.64886">
        <ele>266.8</ele>
        <time>2017-10-08T10:25:50Z</time>
      </trkpt>
      <trkpt lat="43.39858" lon="6.64888">
        <ele>266.2</ele>
        <time>2017-10-08T10:25:51Z</time>
      </trkpt>
      <trkpt lat="43.39853" lon="6.64893">
        <ele>265.1</ele>
        <time>2017-10-08T10:25:53Z</time>
      </trkpt>
      <trkpt lat="43.39844" lon="6.64905">
        <ele>263.2</ele>
        <time>2017-10-08T10:25:56Z</time>
      </trkpt>
      <trkpt lat="43.39841" lon="6.64911">
        <ele>262.4</ele>
        <time>2017-10-08T10:25:57Z</time>
      </trkpt>
      <trkpt lat="43.39837" lon="6.64916">
        <ele>261.7</ele>
        <time>2017-10-08T10:25:58Z</time>
      </trkpt>
      <trkpt lat="43.3983" lon="6.64925">
        <ele>260.3</ele>
        <time>2017-10-08T10:26:00Z</time>
      </trkpt>
      <trkpt lat="43.39822" lon="6.64931">
        <ele>258.6</ele>
        <time>2017-10-08T10:26:02Z</time>
      </trkpt>
      <trkpt lat="43.39817" lon="6.64934">
        <ele>257.5</ele>
        <time>2017-10-08T10:26:03Z</time>
      </trkpt>
      <trkpt lat="43.39813" lon="6.64937">
        <ele>256.4</ele>
        <time>2017-10-08T10:26:04Z</time>
      </trkpt>
      <trkpt lat="43.39808" lon="6.64941">
        <ele>255.3</ele>
        <time>2017-10-08T10:26:05Z</time>
      </trkpt>
      <trkpt lat="43.39804" lon="6.64946">
        <ele>254.1</ele>
        <time>2017-10-08T10:26:06Z</time>
      </trkpt>
      <trkpt lat="43.39797" lon="6.64954">
        <ele>252</ele>
        <time>2017-10-08T10:26:08Z</time>
      </trkpt>
      <trkpt lat="43.39788" lon="6.6496">
        <ele>249.7</ele>
        <time>2017-10-08T10:26:10Z</time>
      </trkpt>
      <trkpt lat="43.39779" lon="6.64964">
        <ele>247.6</ele>
        <time>2017-10-08T10:26:12Z</time>
      </trkpt>
      <trkpt lat="43.39768" lon="6.64965">
        <ele>245.4</ele>
        <time>2017-10-08T10:26:14Z</time>
      </trkpt>
      <trkpt lat="43.39763" lon="6.64965">
        <ele>244.4</ele>
        <time>2017-10-08T10:26:15Z</time>
      </trkpt>
      <trkpt lat="43.39757" lon="6.64965">
        <ele>243.2</ele>
        <time>2017-10-08T10:26:16Z</time>
      </trkpt>
      <trkpt lat="43.39752" lon="6.64965">
        <ele>242.1</ele>
        <time>2017-10-08T10:26:17Z</time>
      </trkpt>
      <trkpt lat="43.39746" lon="6.64966">
        <ele>240.9</ele>
        <time>2017-10-08T10:26:18Z</time>
      </trkpt>
      <trkpt lat="43.39734" lon="6.6497">
        <ele>238.8</ele>
        <time>2017-10-08T10:26:20Z</time>
      </trkpt>
      <trkpt lat="43.39722" lon="6.64977">
        <ele>236.8</ele>
        <time>2017-10-08T10:26:22Z</time>
      </trkpt>
      <trkpt lat="43.3971" lon="6.64987">
        <ele>234.7</ele>
        <time>2017-10-08T10:26:24Z</time>
      </trkpt>
      <trkpt lat="43.39703" lon="6.64993">
        <ele>233.8</ele>
        <time>2017-10-08T10:26:25Z</time>
      </trkpt>
      <trkpt lat="43.39697" lon="6.64998">
        <ele>232.8</ele>
        <time>2017-10-08T10:26:26Z</time>
      </trkpt>
      <trkpt lat="43.39684" lon="6.65011">
        <ele>230.8</ele>
        <time>2017-10-08T10:26:28Z</time>
      </trkpt>
      <trkpt lat="43.39672" lon="6.65025">
        <ele>228.8</ele>
        <time>2017-10-08T10:26:30Z</time>
      </trkpt>
      <trkpt lat="43.3966" lon="6.65039">
        <ele>226.8</ele>
        <time>2017-10-08T10:26:32Z</time>
      </trkpt>
      <trkpt lat="43.39649" lon="6.65052">
        <ele>224.9</ele>
        <time>2017-10-08T10:26:34Z</time>
      </trkpt>
      <trkpt lat="43.39639" lon="6.65064">
        <ele>222.2</ele>
        <time>2017-10-08T10:26:36Z</time>
      </trkpt>
      <trkpt lat="43.39635" lon="6.65068">
        <ele>221.2</ele>
        <time>2017-10-08T10:26:37Z</time>
      </trkpt>
      <trkpt lat="43.3963" lon="6.65071">
        <ele>220.3</ele>
        <time>2017-10-08T10:26:38Z</time>
      </trkpt>
      <trkpt lat="43.39623" lon="6.65072">
        <ele>219.1</ele>
        <time>2017-10-08T10:26:40Z</time>
      </trkpt>
      <trkpt lat="43.3962" lon="6.65072">
        <ele>218.7</ele>
        <time>2017-10-08T10:26:41Z</time>
      </trkpt>
      <trkpt lat="43.39618" lon="6.65071">
        <ele>218.3</ele>
        <time>2017-10-08T10:26:42Z</time>
      </trkpt>
      <trkpt lat="43.39616" lon="6.6507">
        <ele>218</ele>
        <time>2017-10-08T10:26:43Z</time>
      </trkpt>
      <trkpt lat="43.39614" lon="6.65069">
        <ele>217.7</ele>
        <time>2017-10-08T10:26:44Z</time>
      </trkpt>
      <trkpt lat="43.39612" lon="6.65067">
        <ele>217.4</ele>
        <time>2017-10-08T10:26:45Z</time>
      </trkpt>
      <trkpt lat="43.3961" lon="6.65066">
        <ele>217</ele>
        <time>2017-10-08T10:26:46Z</time>
      </trkpt>
      <trkpt lat="43.39608" lon="6.65064">
        <ele>216.7</ele>
        <time>2017-10-08T10:26:47Z</time>
      </trkpt>
      <trkpt lat="43.39607" lon="6.65063">
        <ele>216.4</ele>
        <time>2017-10-08T10:26:48Z</time>
      </trkpt>
      <trkpt lat="43.39605" lon="6.65061">
        <ele>216.1</ele>
        <time>2017-10-08T10:26:49Z</time>
      </trkpt>
      <trkpt lat="43.39601" lon="6.65059">
        <ele>215.4</ele>
        <time>2017-10-08T10:26:51Z</time>
      </trkpt>
      <trkpt lat="43.39599" lon="6.65058">
        <ele>215</ele>
        <time>2017-10-08T10:26:53Z</time>
      </trkpt>
      <trkpt lat="43.39597" lon="6.65058">
        <ele>214.6</ele>
        <time>2017-10-08T10:26:55Z</time>
      </trkpt>
      <trkpt lat="43.39596" lon="6.65058">
        <ele>214.5</ele>
        <time>2017-10-08T10:26:56Z</time>
      </trkpt>
      <trkpt lat="43.3954" lon="6.65108">
        <ele>200.9</ele>
        <time>2017-10-08T10:33:15Z</time>
      </trkpt>
      <trkpt lat="43.39538" lon="6.6511">
        <ele>200.3</ele>
        <time>2017-10-08T10:33:18Z</time>
      </trkpt>
      <trkpt lat="43.39537" lon="6.6511">
        <ele>200.1</ele>
        <time>2017-10-08T10:33:19Z</time>
      </trkpt>
      <trkpt lat="43.39532" lon="6.6511">
        <ele>198.9</ele>
        <time>2017-10-08T10:33:30Z</time>
      </trkpt>
      <trkpt lat="43.39528" lon="6.6511">
        <ele>197.8</ele>
        <time>2017-10-08T10:33:32Z</time>
      </trkpt>
      <trkpt lat="43.39524" lon="6.65109">
        <ele>196.5</ele>
        <time>2017-10-08T10:33:34Z</time>
      </trkpt>
      <trkpt lat="43.39521" lon="6.65108">
        <ele>195.6</ele>
        <time>2017-10-08T10:33:37Z</time>
      </trkpt>
      <trkpt lat="43.39519" lon="6.65108">
        <ele>194.7</ele>
        <time>2017-10-08T10:33:44Z</time>
      </trkpt>
      <trkpt lat="43.39516" lon="6.65107">
        <ele>193.9</ele>
        <time>2017-10-08T10:33:46Z</time>
      </trkpt>
      <trkpt lat="43.39478" lon="6.65077">
        <ele>185.3</ele>
        <time>2017-10-08T10:35:14Z</time>
      </trkpt>
      <trkpt lat="43.39477" lon="6.65076">
        <ele>184.7</ele>
        <time>2017-10-08T10:35:15Z</time>
      </trkpt>
      <trkpt lat="43.39465" lon="6.65069">
        <ele>179.5</ele>
        <time>2017-10-08T10:35:52Z</time>
      </trkpt>
      <trkpt lat="43.39464" lon="6.6507">
        <ele>179</ele>
        <time>2017-10-08T10:35:53Z</time>
      </trkpt>
      <trkpt lat="43.39459" lon="6.65074">
        <ele>176.9</ele>
        <time>2017-10-08T10:36:03Z</time>
      </trkpt>
      <trkpt lat="43.39457" lon="6.65076">
        <ele>176.4</ele>
        <time>2017-10-08T10:36:19Z</time>
      </trkpt>
      <trkpt lat="43.39455" lon="6.65078">
        <ele>175.3</ele>
        <time>2017-10-08T10:36:21Z</time>
      </trkpt>
      <trkpt lat="43.39453" lon="6.65079">
        <ele>173.6</ele>
        <time>2017-10-08T10:36:22Z</time>
      </trkpt>
      <trkpt lat="43.39447" lon="6.6508">
        <ele>171</ele>
        <time>2017-10-08T10:36:26Z</time>
      </trkpt>
      <trkpt lat="43.39443" lon="6.65081">
        <ele>171.1</ele>
        <time>2017-10-08T10:36:28Z</time>
      </trkpt>
      <trkpt lat="43.39441" lon="6.65083">
        <ele>171.3</ele>
        <time>2017-10-08T10:36:34Z</time>
      </trkpt>
      <trkpt lat="43.39436" lon="6.65085">
        <ele>171.5</ele>
        <time>2017-10-08T10:36:37Z</time>
      </trkpt>
      <trkpt lat="43.39428" lon="6.65089">
        <ele>171.8</ele>
        <time>2017-10-08T10:36:40Z</time>
      </trkpt>
      <trkpt lat="43.39425" lon="6.65093">
        <ele>171.9</ele>
        <time>2017-10-08T10:36:41Z</time>
      </trkpt>
      <trkpt lat="43.39421" lon="6.65099">
        <ele>172</ele>
        <time>2017-10-08T10:36:42Z</time>
      </trkpt>
      <trkpt lat="43.39415" lon="6.65114">
        <ele>172.3</ele>
        <time>2017-10-08T10:36:44Z</time>
      </trkpt>
      <trkpt lat="43.39406" lon="6.65134">
        <ele>172.7</ele>
        <time>2017-10-08T10:36:47Z</time>
      </trkpt>
      <trkpt lat="43.39405" lon="6.6514">
        <ele>172.8</ele>
        <time>2017-10-08T10:36:48Z</time>
      </trkpt>
      <trkpt lat="43.39403" lon="6.65145">
        <ele>172.8</ele>
        <time>2017-10-08T10:36:49Z</time>
      </trkpt>
      <trkpt lat="43.39402" lon="6.65152">
        <ele>172.9</ele>
        <time>2017-10-08T10:36:50Z</time>
      </trkpt>
      <trkpt lat="43.39404" lon="6.65168">
        <ele>173</ele>
        <time>2017-10-08T10:36:53Z</time>
      </trkpt>
      <trkpt lat="43.39404" lon="6.65172">
        <ele>173.1</ele>
        <time>2017-10-08T10:36:54Z</time>
      </trkpt>
      <trkpt lat="43.39402" lon="6.65174">
        <ele>173.2</ele>
        <time>2017-10-08T10:36:55Z</time>
      </trkpt>
      <trkpt lat="43.394" lon="6.65175">
        <ele>173.3</ele>
        <time>2017-10-08T10:36:56Z</time>
      </trkpt>
      <trkpt lat="43.39394" lon="6.65163">
        <ele>173.8</ele>
        <time>2017-10-08T10:36:59Z</time>
      </trkpt>
      <trkpt lat="43.39392" lon="6.65158">
        <ele>174</ele>
        <time>2017-10-08T10:37:00Z</time>
      </trkpt>
      <trkpt lat="43.39386" lon="6.65148">
        <ele>174.7</ele>
        <time>2017-10-08T10:37:04Z</time>
      </trkpt>
      <trkpt lat="43.39382" lon="6.65145">
        <ele>175.1</ele>
        <time>2017-10-08T10:37:14Z</time>
      </trkpt>
      <trkpt lat="43.39367" lon="6.6515">
        <ele>176.4</ele>
        <time>2017-10-08T10:41:07Z</time>
      </trkpt>
      <trkpt lat="43.39366" lon="6.65153">
        <ele>176.7</ele>
        <time>2017-10-08T10:41:09Z</time>
      </trkpt>
      <trkpt lat="43.39355" lon="6.65163">
        <ele>177.9</ele>
        <time>2017-10-08T10:41:14Z</time>
      </trkpt>
      <trkpt lat="43.39346" lon="6.65172">
        <ele>178.8</ele>
        <time>2017-10-08T10:41:17Z</time>
      </trkpt>
      <trkpt lat="43.39344" lon="6.65177">
        <ele>179.1</ele>
        <time>2017-10-08T10:41:18Z</time>
      </trkpt>
      <trkpt lat="43.39341" lon="6.65185">
        <ele>179.5</ele>
        <time>2017-10-08T10:41:20Z</time>
      </trkpt>
      <trkpt lat="43.39332" lon="6.65207">
        <ele>180.6</ele>
        <time>2017-10-08T10:41:24Z</time>
      </trkpt>
      <trkpt lat="43.39319" lon="6.65234">
        <ele>178</ele>
        <time>2017-10-08T10:41:30Z</time>
      </trkpt>
      <trkpt lat="43.39316" lon="6.65238">
        <ele>177.3</ele>
        <time>2017-10-08T10:41:32Z</time>
      </trkpt>
      <trkpt lat="43.39312" lon="6.65241">
        <ele>176.6</ele>
        <time>2017-10-08T10:48:47Z</time>
      </trkpt>
      <trkpt lat="43.39304" lon="6.65252">
        <ele>174.7</ele>
        <time>2017-10-08T10:48:51Z</time>
      </trkpt>
      <trkpt lat="43.39301" lon="6.65256">
        <ele>174.1</ele>
        <time>2017-10-08T10:48:52Z</time>
      </trkpt>
      <trkpt lat="43.39298" lon="6.65267">
        <ele>171.9</ele>
        <time>2017-10-08T10:48:54Z</time>
      </trkpt>
      <trkpt lat="43.39298" lon="6.65274">
        <ele>170.4</ele>
        <time>2017-10-08T10:48:55Z</time>
      </trkpt>
      <trkpt lat="43.39299" lon="6.65281">
        <ele>168.8</ele>
        <time>2017-10-08T10:48:56Z</time>
      </trkpt>
      <trkpt lat="43.39301" lon="6.65296">
        <ele>165.3</ele>
        <time>2017-10-08T10:48:58Z</time>
      </trkpt>
      <trkpt lat="43.39302" lon="6.65311">
        <ele>161.9</ele>
        <time>2017-10-08T10:49:00Z</time>
      </trkpt>
      <trkpt lat="43.39301" lon="6.65321">
        <ele>159.5</ele>
        <time>2017-10-08T10:49:01Z</time>
      </trkpt>
      <trkpt lat="43.39299" lon="6.6533">
        <ele>157</ele>
        <time>2017-10-08T10:49:02Z</time>
      </trkpt>
      <trkpt lat="43.39295" lon="6.65349">
        <ele>152.2</ele>
        <time>2017-10-08T10:49:04Z</time>
      </trkpt>
      <trkpt lat="43.3929" lon="6.65369">
        <ele>150.1</ele>
        <time>2017-10-08T10:49:06Z</time>
      </trkpt>
      <trkpt lat="43.39284" lon="6.65387">
        <ele>148.4</ele>
        <time>2017-10-08T10:49:08Z</time>
      </trkpt>
      <trkpt lat="43.39278" lon="6.65403">
        <ele>147.1</ele>
        <time>2017-10-08T10:49:10Z</time>
      </trkpt>
      <trkpt lat="43.39271" lon="6.65419">
        <ele>145.9</ele>
        <time>2017-10-08T10:49:12Z</time>
      </trkpt>
      <trkpt lat="43.39265" lon="6.65436">
        <ele>144.8</ele>
        <time>2017-10-08T10:49:14Z</time>
      </trkpt>
      <trkpt lat="43.39261" lon="6.65452">
        <ele>143.8</ele>
        <time>2017-10-08T10:49:16Z</time>
      </trkpt>
      <trkpt lat="43.39256" lon="6.65466">
        <ele>142.9</ele>
        <time>2017-10-08T10:49:18Z</time>
      </trkpt>
      <trkpt lat="43.39251" lon="6.65479">
        <ele>142.2</ele>
        <time>2017-10-08T10:49:20Z</time>
      </trkpt>
      <trkpt lat="43.39245" lon="6.65491">
        <ele>141.6</ele>
        <time>2017-10-08T10:49:22Z</time>
      </trkpt>
      <trkpt lat="43.39238" lon="6.65503">
        <ele>141.1</ele>
        <time>2017-10-08T10:49:24Z</time>
      </trkpt>
      <trkpt lat="43.39235" lon="6.65509">
        <ele>141</ele>
        <time>2017-10-08T10:49:25Z</time>
      </trkpt>
      <trkpt lat="43.39231" lon="6.65515">
        <ele>140.9</ele>
        <time>2017-10-08T10:49:26Z</time>
      </trkpt>
      <trkpt lat="43.39224" lon="6.65526">
        <ele>140.8</ele>
        <time>2017-10-08T10:49:28Z</time>
      </trkpt>
      <trkpt lat="43.39213" lon="6.65532">
        <ele>141</ele>
        <time>2017-10-08T10:49:30Z</time>
      </trkpt>
      <trkpt lat="43.39209" lon="6.65533">
        <ele>141.1</ele>
        <time>2017-10-08T10:49:31Z</time>
      </trkpt>
      <trkpt lat="43.39205" lon="6.65534">
        <ele>141.2</ele>
        <time>2017-10-08T10:49:32Z</time>
      </trkpt>
      <trkpt lat="43.39199" lon="6.65534">
        <ele>141.5</ele>
        <time>2017-10-08T10:49:34Z</time>
      </trkpt>
      <trkpt lat="43.39191" lon="6.65533">
        <ele>141.9</ele>
        <time>2017-10-08T10:49:36Z</time>
      </trkpt>
      <trkpt lat="43.39185" lon="6.65533">
        <ele>142.2</ele>
        <time>2017-10-08T10:49:38Z</time>
      </trkpt>
      <trkpt lat="43.39181" lon="6.65534">
        <ele>142.5</ele>
        <time>2017-10-08T10:49:40Z</time>
      </trkpt>
      <trkpt lat="43.39177" lon="6.65535">
        <ele>142.8</ele>
        <time>2017-10-08T10:49:42Z</time>
      </trkpt>
      <trkpt lat="43.39173" lon="6.65538">
        <ele>143.1</ele>
        <time>2017-10-08T10:49:44Z</time>
      </trkpt>
      <trkpt lat="43.3917" lon="6.65539">
        <ele>143.5</ele>
        <time>2017-10-08T10:49:46Z</time>
      </trkpt>
      <trkpt lat="43.39167" lon="6.65542">
        <ele>144.1</ele>
        <time>2017-10-08T10:49:48Z</time>
      </trkpt>
      <trkpt lat="43.39163" lon="6.65545">
        <ele>145.6</ele>
        <time>2017-10-08T10:49:51Z</time>
      </trkpt>
      <trkpt lat="43.39158" lon="6.65547">
        <ele>147.2</ele>
        <time>2017-10-08T10:49:54Z</time>
      </trkpt>
      <trkpt lat="43.39154" lon="6.65549">
        <ele>147.8</ele>
        <time>2017-10-08T10:49:56Z</time>
      </trkpt>
      <trkpt lat="43.39153" lon="6.6555">
        <ele>148.1</ele>
        <time>2017-10-08T10:49:57Z</time>
      </trkpt>
      <trkpt lat="43.39147" lon="6.65559">
        <ele>151.5</ele>
        <time>2017-10-08T10:50:04Z</time>
      </trkpt>
      <trkpt lat="43.39148" lon="6.65563">
        <ele>152.5</ele>
        <time>2017-10-08T10:50:06Z</time>
      </trkpt>
      <trkpt lat="43.39154" lon="6.6557">
        <ele>154.3</ele>
        <time>2017-10-08T10:50:10Z</time>
      </trkpt>
      <trkpt lat="43.39165" lon="6.65588">
        <ele>156.7</ele>
        <time>2017-10-08T10:50:17Z</time>
      </trkpt>
      <trkpt lat="43.39168" lon="6.65612">
        <ele>158</ele>
        <time>2017-10-08T10:50:25Z</time>
      </trkpt>
      <trkpt lat="43.39165" lon="6.65627">
        <ele>159.5</ele>
        <time>2017-10-08T10:50:30Z</time>
      </trkpt>
      <trkpt lat="43.39162" lon="6.65633">
        <ele>160.7</ele>
        <time>2017-10-08T10:50:32Z</time>
      </trkpt>
      <trkpt lat="43.39158" lon="6.65641">
        <ele>162.1</ele>
        <time>2017-10-08T10:50:35Z</time>
      </trkpt>
      <trkpt lat="43.39156" lon="6.65647">
        <ele>162.8</ele>
        <time>2017-10-08T10:50:37Z</time>
      </trkpt>
      <trkpt lat="43.39153" lon="6.65655">
        <ele>162.8</ele>
        <time>2017-10-08T10:50:40Z</time>
      </trkpt>
      <trkpt lat="43.39153" lon="6.65664">
        <ele>162.5</ele>
        <time>2017-10-08T10:50:43Z</time>
      </trkpt>
      <trkpt lat="43.39153" lon="6.65672">
        <ele>162.2</ele>
        <time>2017-10-08T10:50:45Z</time>
      </trkpt>
      <trkpt lat="43.39152" lon="6.65681">
        <ele>161.9</ele>
        <time>2017-10-08T10:50:47Z</time>
      </trkpt>
      <trkpt lat="43.39148" lon="6.65705">
        <ele>161.1</ele>
        <time>2017-10-08T10:50:51Z</time>
      </trkpt>
      <trkpt lat="43.39146" lon="6.65712">
        <ele>160.8</ele>
        <time>2017-10-08T10:50:52Z</time>
      </trkpt>
      <trkpt lat="43.39134" lon="6.65734">
        <ele>159.7</ele>
        <time>2017-10-08T10:50:56Z</time>
      </trkpt>
      <trkpt lat="43.39119" lon="6.65751">
        <ele>158.3</ele>
        <time>2017-10-08T10:51:00Z</time>
      </trkpt>
      <trkpt lat="43.39115" lon="6.65754">
        <ele>158</ele>
        <time>2017-10-08T10:51:01Z</time>
      </trkpt>
      <trkpt lat="43.39099" lon="6.65756">
        <ele>156.5</ele>
        <time>2017-10-08T10:51:04Z</time>
      </trkpt>
      <trkpt lat="43.39085" lon="6.65756">
        <ele>154.6</ele>
        <time>2017-10-08T10:51:06Z</time>
      </trkpt>
      <trkpt lat="43.39043" lon="6.65738">
        <ele>148.7</ele>
        <time>2017-10-08T10:51:10Z</time>
      </trkpt>
      <trkpt lat="43.39034" lon="6.65736">
        <ele>147.9</ele>
        <time>2017-10-08T10:51:11Z</time>
      </trkpt>
      <trkpt lat="43.38993" lon="6.65724">
        <ele>141.1</ele>
        <time>2017-10-08T10:51:16Z</time>
      </trkpt>
      <trkpt lat="43.38986" lon="6.65723">
        <ele>139.4</ele>
        <time>2017-10-08T10:51:17Z</time>
      </trkpt>
      <trkpt lat="43.38964" lon="6.65716">
        <ele>134.8</ele>
        <time>2017-10-08T10:51:21Z</time>
      </trkpt>
      <trkpt lat="43.38949" lon="6.65715">
        <ele>132.5</ele>
        <time>2017-10-08T10:51:24Z</time>
      </trkpt>
      <trkpt lat="43.38944" lon="6.65713">
        <ele>131.5</ele>
        <time>2017-10-08T10:51:25Z</time>
      </trkpt>
      <trkpt lat="43.38935" lon="6.6571">
        <ele>129.9</ele>
        <time>2017-10-08T10:51:27Z</time>
      </trkpt>
      <trkpt lat="43.38925" lon="6.65707">
        <ele>127.9</ele>
        <time>2017-10-08T10:51:29Z</time>
      </trkpt>
      <trkpt lat="43.38915" lon="6.65702">
        <ele>125.9</ele>
        <time>2017-10-08T10:51:31Z</time>
      </trkpt>
      <trkpt lat="43.38902" lon="6.65693">
        <ele>124</ele>
        <time>2017-10-08T10:51:34Z</time>
      </trkpt>
      <trkpt lat="43.38893" lon="6.6569">
        <ele>122.8</ele>
        <time>2017-10-08T10:51:36Z</time>
      </trkpt>
      <trkpt lat="43.38888" lon="6.65688">
        <ele>122.2</ele>
        <time>2017-10-08T10:51:37Z</time>
      </trkpt>
      <trkpt lat="43.38876" lon="6.65684">
        <ele>121</ele>
        <time>2017-10-08T10:51:39Z</time>
      </trkpt>
      <trkpt lat="43.38865" lon="6.6568">
        <ele>119.3</ele>
        <time>2017-10-08T10:51:41Z</time>
      </trkpt>
      <trkpt lat="43.38855" lon="6.65678">
        <ele>118</ele>
        <time>2017-10-08T10:51:43Z</time>
      </trkpt>
      <trkpt lat="43.38849" lon="6.65676">
        <ele>117.1</ele>
        <time>2017-10-08T10:51:44Z</time>
      </trkpt>
      <trkpt lat="43.38843" lon="6.65675">
        <ele>116.2</ele>
        <time>2017-10-08T10:51:45Z</time>
      </trkpt>
      <trkpt lat="43.3883" lon="6.65671">
        <ele>114.8</ele>
        <time>2017-10-08T10:51:47Z</time>
      </trkpt>
      <trkpt lat="43.38816" lon="6.65667">
        <ele>113.7</ele>
        <time>2017-10-08T10:51:49Z</time>
      </trkpt>
      <trkpt lat="43.3881" lon="6.65665">
        <ele>113</ele>
        <time>2017-10-08T10:51:50Z</time>
      </trkpt>
      <trkpt lat="43.38804" lon="6.65665">
        <ele>112.8</ele>
        <time>2017-10-08T10:51:51Z</time>
      </trkpt>
      <trkpt lat="43.3879" lon="6.65671">
        <ele>112.1</ele>
        <time>2017-10-08T10:51:53Z</time>
      </trkpt>
      <trkpt lat="43.38784" lon="6.65676">
        <ele>111.8</ele>
        <time>2017-10-08T10:51:54Z</time>
      </trkpt>
      <trkpt lat="43.38777" lon="6.6568">
        <ele>111.6</ele>
        <time>2017-10-08T10:51:55Z</time>
      </trkpt>
      <trkpt lat="43.38764" lon="6.65689">
        <ele>111.1</ele>
        <time>2017-10-08T10:51:57Z</time>
      </trkpt>
      <trkpt lat="43.38756" lon="6.65691">
        <ele>110.7</ele>
        <time>2017-10-08T10:51:58Z</time>
      </trkpt>
      <trkpt lat="43.38748" lon="6.65692">
        <ele>110.1</ele>
        <time>2017-10-08T10:51:59Z</time>
      </trkpt>
      <trkpt lat="43.38734" lon="6.65693">
        <ele>108.8</ele>
        <time>2017-10-08T10:52:01Z</time>
      </trkpt>
      <trkpt lat="43.3872" lon="6.65696">
        <ele>107.6</ele>
        <time>2017-10-08T10:52:03Z</time>
      </trkpt>
      <trkpt lat="43.38714" lon="6.657">
        <ele>107.2</ele>
        <time>2017-10-08T10:52:04Z</time>
      </trkpt>
      <trkpt lat="43.38707" lon="6.65705">
        <ele>107.1</ele>
        <time>2017-10-08T10:52:05Z</time>
      </trkpt>
      <trkpt lat="43.38694" lon="6.65716">
        <ele>107</ele>
        <time>2017-10-08T10:52:07Z</time>
      </trkpt>
      <trkpt lat="43.38684" lon="6.65725">
        <ele>107</ele>
        <time>2017-10-08T10:52:09Z</time>
      </trkpt>
      <trkpt lat="43.3868" lon="6.65729">
        <ele>107.1</ele>
        <time>2017-10-08T10:52:10Z</time>
      </trkpt>
      <trkpt lat="43.38672" lon="6.65738">
        <ele>107.3</ele>
        <time>2017-10-08T10:52:13Z</time>
      </trkpt>
      <trkpt lat="43.38665" lon="6.65747">
        <ele>107.4</ele>
        <time>2017-10-08T10:52:16Z</time>
      </trkpt>
      <trkpt lat="43.38661" lon="6.65763">
        <ele>107.1</ele>
        <time>2017-10-08T10:52:19Z</time>
      </trkpt>
      <trkpt lat="43.3866" lon="6.65777">
        <ele>106.7</ele>
        <time>2017-10-08T10:52:21Z</time>
      </trkpt>
      <trkpt lat="43.38659" lon="6.65794">
        <ele>106</ele>
        <time>2017-10-08T10:52:23Z</time>
      </trkpt>
      <trkpt lat="43.38659" lon="6.65804">
        <ele>105.5</ele>
        <time>2017-10-08T10:52:24Z</time>
      </trkpt>
      <trkpt lat="43.38658" lon="6.65824">
        <ele>104.4</ele>
        <time>2017-10-08T10:52:26Z</time>
      </trkpt>
      <trkpt lat="43.38657" lon="6.65844">
        <ele>103.3</ele>
        <time>2017-10-08T10:52:28Z</time>
      </trkpt>
      <trkpt lat="43.38657" lon="6.65854">
        <ele>102.8</ele>
        <time>2017-10-08T10:52:29Z</time>
      </trkpt>
      <trkpt lat="43.38658" lon="6.65873">
        <ele>101</ele>
        <time>2017-10-08T10:52:31Z</time>
      </trkpt>
      <trkpt lat="43.38657" lon="6.65891">
        <ele>98.7</ele>
        <time>2017-10-08T10:52:33Z</time>
      </trkpt>
      <trkpt lat="43.38656" lon="6.65899">
        <ele>97.4</ele>
        <time>2017-10-08T10:52:34Z</time>
      </trkpt>
      <trkpt lat="43.38655" lon="6.65908">
        <ele>96.3</ele>
        <time>2017-10-08T10:52:35Z</time>
      </trkpt>
      <trkpt lat="43.38653" lon="6.65935">
        <ele>93.3</ele>
        <time>2017-10-08T10:52:38Z</time>
      </trkpt>
      <trkpt lat="43.38652" lon="6.65953">
        <ele>91.7</ele>
        <time>2017-10-08T10:52:40Z</time>
      </trkpt>
      <trkpt lat="43.38649" lon="6.65977">
        <ele>89.9</ele>
        <time>2017-10-08T10:52:43Z</time>
      </trkpt>
      <trkpt lat="43.38647" lon="6.65993">
        <ele>88.8</ele>
        <time>2017-10-08T10:52:45Z</time>
      </trkpt>
      <trkpt lat="43.38644" lon="6.66">
        <ele>88.3</ele>
        <time>2017-10-08T10:52:46Z</time>
      </trkpt>
      <trkpt lat="43.38634" lon="6.66019">
        <ele>86.7</ele>
        <time>2017-10-08T10:52:49Z</time>
      </trkpt>
      <trkpt lat="43.38628" lon="6.66021">
        <ele>85.9</ele>
        <time>2017-10-08T10:52:50Z</time>
      </trkpt>
      <trkpt lat="43.38619" lon="6.66018">
        <ele>85.2</ele>
        <time>2017-10-08T10:52:51Z</time>
      </trkpt>
      <trkpt lat="43.38605" lon="6.66014">
        <ele>83.7</ele>
        <time>2017-10-08T10:52:53Z</time>
      </trkpt>
      <trkpt lat="43.38598" lon="6.66011">
        <ele>82.4</ele>
        <time>2017-10-08T10:52:55Z</time>
      </trkpt>
      <trkpt lat="43.38596" lon="6.6601">
        <ele>81.9</ele>
        <time>2017-10-08T10:52:56Z</time>
      </trkpt>
      <trkpt lat="43.38594" lon="6.66009">
        <ele>81.6</ele>
        <time>2017-10-08T10:52:57Z</time>
      </trkpt>
      <trkpt lat="43.38589" lon="6.66008">
        <ele>80.6</ele>
        <time>2017-10-08T10:53:00Z</time>
      </trkpt>
      <trkpt lat="43.38586" lon="6.66009">
        <ele>80</ele>
        <time>2017-10-08T10:53:03Z</time>
      </trkpt>
      <trkpt lat="43.38585" lon="6.66011">
        <ele>79.6</ele>
        <time>2017-10-08T10:53:05Z</time>
      </trkpt>
      <trkpt lat="43.38584" lon="6.66014">
        <ele>79.3</ele>
        <time>2017-10-08T10:53:07Z</time>
      </trkpt>
      <trkpt lat="43.38583" lon="6.66017">
        <ele>78.9</ele>
        <time>2017-10-08T10:53:09Z</time>
      </trkpt>
      <trkpt lat="43.38582" lon="6.6602">
        <ele>78.5</ele>
        <time>2017-10-08T10:53:11Z</time>
      </trkpt>
      <trkpt lat="43.38581" lon="6.66026">
        <ele>77.5</ele>
        <time>2017-10-08T10:53:13Z</time>
      </trkpt>
      <trkpt lat="43.3858" lon="6.66035">
        <ele>75.9</ele>
        <time>2017-10-08T10:53:15Z</time>
      </trkpt>
      <trkpt lat="43.38579" lon="6.6604">
        <ele>75.2</ele>
        <time>2017-10-08T10:53:16Z</time>
      </trkpt>
      <trkpt lat="43.38578" lon="6.6605">
        <ele>73.4</ele>
        <time>2017-10-08T10:53:18Z</time>
      </trkpt>
      <trkpt lat="43.38574" lon="6.66055">
        <ele>72.1</ele>
        <time>2017-10-08T10:53:20Z</time>
      </trkpt>
      <trkpt lat="43.3857" lon="6.66054">
        <ele>71</ele>
        <time>2017-10-08T10:53:21Z</time>
      </trkpt>
      <trkpt lat="43.38563" lon="6.66049">
        <ele>68.7</ele>
        <time>2017-10-08T10:53:23Z</time>
      </trkpt>
      <trkpt lat="43.38557" lon="6.66042">
        <ele>66.3</ele>
        <time>2017-10-08T10:53:25Z</time>
      </trkpt>
      <trkpt lat="43.38555" lon="6.66039">
        <ele>66.1</ele>
        <time>2017-10-08T10:53:26Z</time>
      </trkpt>
      <trkpt lat="43.38547" lon="6.66031">
        <ele>65.6</ele>
        <time>2017-10-08T10:53:29Z</time>
      </trkpt>
      <trkpt lat="43.38538" lon="6.6602">
        <ele>65.4</ele>
        <time>2017-10-08T10:53:32Z</time>
      </trkpt>
      <trkpt lat="43.38532" lon="6.66012">
        <ele>65.4</ele>
        <time>2017-10-08T10:53:34Z</time>
      </trkpt>
      <trkpt lat="43.38529" lon="6.66008">
        <ele>65.3</ele>
        <time>2017-10-08T10:53:35Z</time>
      </trkpt>
      <trkpt lat="43.38525" lon="6.66003">
        <ele>65.3</ele>
        <time>2017-10-08T10:53:36Z</time>
      </trkpt>
      <trkpt lat="43.38509" lon="6.65984">
        <ele>65.2</ele>
        <time>2017-10-08T10:53:40Z</time>
      </trkpt>
      <trkpt lat="43.38499" lon="6.65973">
        <ele>65.2</ele>
        <time>2017-10-08T10:53:42Z</time>
      </trkpt>
      <trkpt lat="43.38495" lon="6.65967">
        <ele>65.2</ele>
        <time>2017-10-08T10:53:43Z</time>
      </trkpt>
      <trkpt lat="43.3849" lon="6.65949">
        <ele>65.1</ele>
        <time>2017-10-08T10:53:45Z</time>
      </trkpt>
      <trkpt lat="43.38488" lon="6.6594">
        <ele>65</ele>
        <time>2017-10-08T10:53:46Z</time>
      </trkpt>
      <trkpt lat="43.38486" lon="6.65922">
        <ele>64.9</ele>
        <time>2017-10-08T10:53:48Z</time>
      </trkpt>
      <trkpt lat="43.38485" lon="6.65912">
        <ele>64.8</ele>
        <time>2017-10-08T10:53:49Z</time>
      </trkpt>
      <trkpt lat="43.38483" lon="6.65893">
        <ele>64.6</ele>
        <time>2017-10-08T10:53:51Z</time>
      </trkpt>
      <trkpt lat="43.38481" lon="6.65885">
        <ele>64.5</ele>
        <time>2017-10-08T10:53:52Z</time>
      </trkpt>
      <trkpt lat="43.38483" lon="6.65876">
        <ele>64.4</ele>
        <time>2017-10-08T10:53:53Z</time>
      </trkpt>
      <trkpt lat="43.38486" lon="6.65869">
        <ele>64.3</ele>
        <time>2017-10-08T10:53:54Z</time>
      </trkpt>
      <trkpt lat="43.38493" lon="6.65856">
        <ele>63.8</ele>
        <time>2017-10-08T10:53:56Z</time>
      </trkpt>
      <trkpt lat="43.38502" lon="6.65846">
        <ele>63.1</ele>
        <time>2017-10-08T10:53:58Z</time>
      </trkpt>
      <trkpt lat="43.38512" lon="6.65839">
        <ele>62.3</ele>
        <time>2017-10-08T10:54:00Z</time>
      </trkpt>
      <trkpt lat="43.38522" lon="6.65829">
        <ele>61.3</ele>
        <time>2017-10-08T10:54:02Z</time>
      </trkpt>
      <trkpt lat="43.38525" lon="6.65824">
        <ele>60.7</ele>
        <time>2017-10-08T10:54:03Z</time>
      </trkpt>
      <trkpt lat="43.38527" lon="6.6582">
        <ele>60.4</ele>
        <time>2017-10-08T10:54:04Z</time>
      </trkpt>
      <trkpt lat="43.38528" lon="6.65818">
        <ele>60.1</ele>
        <time>2017-10-08T10:54:05Z</time>
      </trkpt>
      <trkpt lat="43.38526" lon="6.65815">
        <ele>59.9</ele>
        <time>2017-10-08T10:54:06Z</time>
      </trkpt>
      <trkpt lat="43.38524" lon="6.65814">
        <ele>59.6</ele>
        <time>2017-10-08T10:54:07Z</time>
      </trkpt>
      <trkpt lat="43.38519" lon="6.65812">
        <ele>59.1</ele>
        <time>2017-10-08T10:54:08Z</time>
      </trkpt>
      <trkpt lat="43.38503" lon="6.65804">
        <ele>58.1</ele>
        <time>2017-10-08T10:54:11Z</time>
      </trkpt>
      <trkpt lat="43.38491" lon="6.65803">
        <ele>57.9</ele>
        <time>2017-10-08T10:54:13Z</time>
      </trkpt>
      <trkpt lat="43.38464" lon="6.65803">
        <ele>57.6</ele>
        <time>2017-10-08T10:54:17Z</time>
      </trkpt>
      <trkpt lat="43.38452" lon="6.65798">
        <ele>57.5</ele>
        <time>2017-10-08T10:54:19Z</time>
      </trkpt>
      <trkpt lat="43.38445" lon="6.65775">
        <ele>57.2</ele>
        <time>2017-10-08T10:54:22Z</time>
      </trkpt>
      <trkpt lat="43.38445" lon="6.65765">
        <ele>57.1</ele>
        <time>2017-10-08T10:54:23Z</time>
      </trkpt>
      <trkpt lat="43.38444" lon="6.65755">
        <ele>57.2</ele>
        <time>2017-10-08T10:54:24Z</time>
      </trkpt>
      <trkpt lat="43.38447" lon="6.65725">
        <ele>58.2</ele>
        <time>2017-10-08T10:54:27Z</time>
      </trkpt>
      <trkpt lat="43.3846" lon="6.65691">
        <ele>59</ele>
        <time>2017-10-08T10:54:31Z</time>
      </trkpt>
      <trkpt lat="43.38472" lon="6.6567">
        <ele>59.4</ele>
        <time>2017-10-08T10:54:34Z</time>
      </trkpt>
      <trkpt lat="43.38486" lon="6.65647">
        <ele>60</ele>
        <time>2017-10-08T10:54:37Z</time>
      </trkpt>
      <trkpt lat="43.38496" lon="6.65618">
        <ele>60.7</ele>
        <time>2017-10-08T10:54:41Z</time>
      </trkpt>
      <trkpt lat="43.38498" lon="6.65609">
        <ele>60.9</ele>
        <time>2017-10-08T10:54:42Z</time>
      </trkpt>
      <trkpt lat="43.38499" lon="6.65591">
        <ele>61.3</ele>
        <time>2017-10-08T10:54:44Z</time>
      </trkpt>
      <trkpt lat="43.38498" lon="6.65581">
        <ele>61.5</ele>
        <time>2017-10-08T10:54:45Z</time>
      </trkpt>
      <trkpt lat="43.38497" lon="6.65571">
        <ele>61.7</ele>
        <time>2017-10-08T10:54:46Z</time>
      </trkpt>
      <trkpt lat="43.385" lon="6.65539">
        <ele>62.2</ele>
        <time>2017-10-08T10:54:49Z</time>
      </trkpt>
      <trkpt lat="43.38505" lon="6.6552">
        <ele>63</ele>
        <time>2017-10-08T10:54:51Z</time>
      </trkpt>
      <trkpt lat="43.38507" lon="6.65513">
        <ele>63</ele>
        <time>2017-10-08T10:54:52Z</time>
      </trkpt>
      <trkpt lat="43.38512" lon="6.65503">
        <ele>63</ele>
        <time>2017-10-08T10:54:54Z</time>
      </trkpt>
      <trkpt lat="43.38512" lon="6.65498">
        <ele>62.4</ele>
        <time>2017-10-08T10:54:56Z</time>
      </trkpt>
      <trkpt lat="43.3851" lon="6.65499">
        <ele>62</ele>
        <time>2017-10-08T10:54:57Z</time>
      </trkpt>
      <trkpt lat="43.38501" lon="6.65506">
        <ele>60.1</ele>
        <time>2017-10-08T10:55:00Z</time>
      </trkpt>
      <trkpt lat="43.38493" lon="6.6551">
        <ele>58.6</ele>
        <time>2017-10-08T10:55:02Z</time>
      </trkpt>
      <trkpt lat="43.38478" lon="6.65514">
        <ele>56.1</ele>
        <time>2017-10-08T10:55:05Z</time>
      </trkpt>
      <trkpt lat="43.38455" lon="6.65519">
        <ele>49</ele>
        <time>2017-10-08T10:55:11Z</time>
      </trkpt>
      <trkpt lat="43.38453" lon="6.65515">
        <ele>50.1</ele>
        <time>2017-10-08T10:55:12Z</time>
      </trkpt>
      <trkpt lat="43.38452" lon="6.65504">
        <ele>51.8</ele>
        <time>2017-10-08T10:55:14Z</time>
      </trkpt>
      <trkpt lat="43.38453" lon="6.65498">
        <ele>52.4</ele>
        <time>2017-10-08T10:55:15Z</time>
      </trkpt>
      <trkpt lat="43.3846" lon="6.65487">
        <ele>54.1</ele>
        <time>2017-10-08T10:55:18Z</time>
      </trkpt>
      <trkpt lat="43.38463" lon="6.65485">
        <ele>54.9</ele>
        <time>2017-10-08T10:55:19Z</time>
      </trkpt>
      <trkpt lat="43.38467" lon="6.65484">
        <ele>55.5</ele>
        <time>2017-10-08T10:55:20Z</time>
      </trkpt>
      <trkpt lat="43.38472" lon="6.65481">
        <ele>56.7</ele>
        <time>2017-10-08T10:55:22Z</time>
      </trkpt>
      <trkpt lat="43.38475" lon="6.6548">
        <ele>57.3</ele>
        <time>2017-10-08T10:55:23Z</time>
      </trkpt>
      <trkpt lat="43.38479" lon="6.65476">
        <ele>59.1</ele>
        <time>2017-10-08T10:55:25Z</time>
      </trkpt>
      <trkpt lat="43.38481" lon="6.65473">
        <ele>60</ele>
        <time>2017-10-08T10:55:26Z</time>
      </trkpt>
      <trkpt lat="43.38485" lon="6.65469">
        <ele>61.6</ele>
        <time>2017-10-08T10:55:28Z</time>
      </trkpt>
      <trkpt lat="43.38489" lon="6.65465">
        <ele>62.4</ele>
        <time>2017-10-08T10:55:30Z</time>
      </trkpt>
      <trkpt lat="43.38491" lon="6.65462">
        <ele>62.7</ele>
        <time>2017-10-08T10:55:31Z</time>
      </trkpt>
      <trkpt lat="43.38497" lon="6.65457">
        <ele>63.6</ele>
        <time>2017-10-08T10:55:34Z</time>
      </trkpt>
      <trkpt lat="43.38501" lon="6.65451">
        <ele>64.3</ele>
        <time>2017-10-08T10:55:37Z</time>
      </trkpt>
      <trkpt lat="43.38504" lon="6.65449">
        <ele>64.8</ele>
        <time>2017-10-08T10:55:39Z</time>
      </trkpt>
      <trkpt lat="43.38516" lon="6.65436">
        <ele>69.6</ele>
        <time>2017-10-08T10:55:44Z</time>
      </trkpt>
      <trkpt lat="43.38527" lon="6.65409">
        <ele>74.4</ele>
        <time>2017-10-08T10:55:49Z</time>
      </trkpt>
      <trkpt lat="43.38521" lon="6.65394">
        <ele>76.3</ele>
        <time>2017-10-08T10:55:52Z</time>
      </trkpt>
      <trkpt lat="43.38502" lon="6.65374">
        <ele>77.1</ele>
        <time>2017-10-08T10:55:57Z</time>
      </trkpt>
      <trkpt lat="43.38497" lon="6.65372">
        <ele>77.1</ele>
        <time>2017-10-08T10:55:58Z</time>
      </trkpt>
      <trkpt lat="43.38475" lon="6.65358">
        <ele>77.1</ele>
        <time>2017-10-08T10:56:03Z</time>
      </trkpt>
      <trkpt lat="43.38471" lon="6.65353">
        <ele>77</ele>
        <time>2017-10-08T10:56:04Z</time>
      </trkpt>
      <trkpt lat="43.38467" lon="6.65347">
        <ele>77</ele>
        <time>2017-10-08T10:56:05Z</time>
      </trkpt>
      <trkpt lat="43.38459" lon="6.65323">
        <ele>76.5</ele>
        <time>2017-10-08T10:56:08Z</time>
      </trkpt>
      <trkpt lat="43.38456" lon="6.65315">
        <ele>76.2</ele>
        <time>2017-10-08T10:56:09Z</time>
      </trkpt>
      <trkpt lat="43.38441" lon="6.65259">
        <ele>74.8</ele>
        <time>2017-10-08T10:56:15Z</time>
      </trkpt>
      <trkpt lat="43.38435" lon="6.65245">
        <ele>74.8</ele>
        <time>2017-10-08T10:56:17Z</time>
      </trkpt>
      <trkpt lat="43.38428" lon="6.65224">
        <ele>74.9</ele>
        <time>2017-10-08T10:56:20Z</time>
      </trkpt>
      <trkpt lat="43.38426" lon="6.65193">
        <ele>75</ele>
        <time>2017-10-08T10:56:24Z</time>
      </trkpt>
      <trkpt lat="43.38425" lon="6.65185">
        <ele>75</ele>
        <time>2017-10-08T10:56:25Z</time>
      </trkpt>
      <trkpt lat="43.38423" lon="6.65166">
        <ele>74.9</ele>
        <time>2017-10-08T10:56:27Z</time>
      </trkpt>
      <trkpt lat="43.38416" lon="6.65131">
        <ele>74.8</ele>
        <time>2017-10-08T10:56:31Z</time>
      </trkpt>
      <trkpt lat="43.38415" lon="6.65112">
        <ele>74.6</ele>
        <time>2017-10-08T10:56:33Z</time>
      </trkpt>
      <trkpt lat="43.38415" lon="6.65102">
        <ele>74.5</ele>
        <time>2017-10-08T10:56:34Z</time>
      </trkpt>
      <trkpt lat="43.38415" lon="6.65081">
        <ele>73.8</ele>
        <time>2017-10-08T10:56:36Z</time>
      </trkpt>
      <trkpt lat="43.38413" lon="6.6507">
        <ele>73.4</ele>
        <time>2017-10-08T10:56:37Z</time>
      </trkpt>
      <trkpt lat="43.38409" lon="6.65061">
        <ele>73</ele>
        <time>2017-10-08T10:56:38Z</time>
      </trkpt>
      <trkpt lat="43.38405" lon="6.65053">
        <ele>72.6</ele>
        <time>2017-10-08T10:56:39Z</time>
      </trkpt>
      <trkpt lat="43.38399" lon="6.65033">
        <ele>72.1</ele>
        <time>2017-10-08T10:56:41Z</time>
      </trkpt>
      <trkpt lat="43.38397" lon="6.65023">
        <ele>72</ele>
        <time>2017-10-08T10:56:42Z</time>
      </trkpt>
      <trkpt lat="43.38393" lon="6.65014">
        <ele>72</ele>
        <time>2017-10-08T10:56:43Z</time>
      </trkpt>
      <trkpt lat="43.38376" lon="6.64988">
        <ele>71.9</ele>
        <time>2017-10-08T10:56:47Z</time>
      </trkpt>
      <trkpt lat="43.38359" lon="6.64964">
        <ele>71.6</ele>
        <time>2017-10-08T10:56:51Z</time>
      </trkpt>
      <trkpt lat="43.38355" lon="6.64956">
        <ele>71.3</ele>
        <time>2017-10-08T10:56:52Z</time>
      </trkpt>
      <trkpt lat="43.38349" lon="6.64923">
        <ele>69.7</ele>
        <time>2017-10-08T10:56:55Z</time>
      </trkpt>
      <trkpt lat="43.38347" lon="6.64915">
        <ele>69.1</ele>
        <time>2017-10-08T10:56:56Z</time>
      </trkpt>
      <trkpt lat="43.3834" lon="6.64902">
        <ele>67.9</ele>
        <time>2017-10-08T10:56:58Z</time>
      </trkpt>
      <trkpt lat="43.38338" lon="6.64897">
        <ele>67.6</ele>
        <time>2017-10-08T10:56:59Z</time>
      </trkpt>
      <trkpt lat="43.38335" lon="6.64892">
        <ele>67.3</ele>
        <time>2017-10-08T10:57:00Z</time>
      </trkpt>
      <trkpt lat="43.38327" lon="6.64884">
        <ele>67.1</ele>
        <time>2017-10-08T10:57:02Z</time>
      </trkpt>
      <trkpt lat="43.38319" lon="6.64874">
        <ele>67</ele>
        <time>2017-10-08T10:57:04Z</time>
      </trkpt>
      <trkpt lat="43.38316" lon="6.64867">
        <ele>67</ele>
        <time>2017-10-08T10:57:05Z</time>
      </trkpt>
      <trkpt lat="43.38311" lon="6.64853">
        <ele>69.2</ele>
        <time>2017-10-08T10:57:07Z</time>
      </trkpt>
      <trkpt lat="43.38309" lon="6.64841">
        <ele>71.8</ele>
        <time>2017-10-08T10:57:09Z</time>
      </trkpt>
      <trkpt lat="43.38309" lon="6.64831">
        <ele>73.8</ele>
        <time>2017-10-08T10:57:11Z</time>
      </trkpt>
      <trkpt lat="43.38308" lon="6.64827">
        <ele>74.7</ele>
        <time>2017-10-08T10:57:12Z</time>
      </trkpt>
      <trkpt lat="43.38305" lon="6.6482">
        <ele>75</ele>
        <time>2017-10-08T10:57:15Z</time>
      </trkpt>
      <trkpt lat="43.38304" lon="6.64819">
        <ele>75</ele>
        <time>2017-10-08T10:57:16Z</time>
      </trkpt>
      <trkpt lat="43.38304" lon="6.64815">
        <ele>75</ele>
        <time>2017-10-08T10:57:19Z</time>
      </trkpt>
      <trkpt lat="43.38153" lon="6.64763">
        <ele>83.3</ele>
        <time>2017-10-08T11:05:00Z</time>
      </trkpt>
      <trkpt lat="43.38146" lon="6.64758">
        <ele>84</ele>
        <time>2017-10-08T11:05:11Z</time>
      </trkpt>
      <trkpt lat="43.3814" lon="6.64756">
        <ele>84.4</ele>
        <time>2017-10-08T11:05:16Z</time>
      </trkpt>
      <trkpt lat="43.38134" lon="6.64755">
        <ele>85.2</ele>
        <time>2017-10-08T11:05:22Z</time>
      </trkpt>
      <trkpt lat="43.3813" lon="6.64753">
        <ele>86</ele>
        <time>2017-10-08T11:05:26Z</time>
      </trkpt>
      <trkpt lat="43.38127" lon="6.64753">
        <ele>86.6</ele>
        <time>2017-10-08T11:05:30Z</time>
      </trkpt>
      <trkpt lat="43.38126" lon="6.64753">
        <ele>86.8</ele>
        <time>2017-10-08T11:05:31Z</time>
      </trkpt>
      <trkpt lat="43.38123" lon="6.64754">
        <ele>87.2</ele>
        <time>2017-10-08T11:05:33Z</time>
      </trkpt>
      <trkpt lat="43.38119" lon="6.64756">
        <ele>87.6</ele>
        <time>2017-10-08T11:05:37Z</time>
      </trkpt>
      <trkpt lat="43.38109" lon="6.64756">
        <ele>88.1</ele>
        <time>2017-10-08T11:05:51Z</time>
      </trkpt>
      <trkpt lat="43.38104" lon="6.64756">
        <ele>88.3</ele>
        <time>2017-10-08T11:05:54Z</time>
      </trkpt>
      <trkpt lat="43.38102" lon="6.64756">
        <ele>88.6</ele>
        <time>2017-10-08T11:05:57Z</time>
      </trkpt>
      <trkpt lat="43.38099" lon="6.64757">
        <ele>88.9</ele>
        <time>2017-10-08T11:05:59Z</time>
      </trkpt>
      <trkpt lat="43.38096" lon="6.64756">
        <ele>89.2</ele>
        <time>2017-10-08T11:06:01Z</time>
      </trkpt>
      <trkpt lat="43.38091" lon="6.6475">
        <ele>89.4</ele>
        <time>2017-10-08T11:06:04Z</time>
      </trkpt>
      <trkpt lat="43.38082" lon="6.64728">
        <ele>89.6</ele>
        <time>2017-10-08T11:06:10Z</time>
      </trkpt>
      <trkpt lat="43.38078" lon="6.64702">
        <ele>89.6</ele>
        <time>2017-10-08T11:06:16Z</time>
      </trkpt>
      <trkpt lat="43.38079" lon="6.64697">
        <ele>89.6</ele>
        <time>2017-10-08T11:06:17Z</time>
      </trkpt>
      <trkpt lat="43.38082" lon="6.64681">
        <ele>89.4</ele>
        <time>2017-10-08T11:06:20Z</time>
      </trkpt>
      <trkpt lat="43.38084" lon="6.64665">
        <ele>89.2</ele>
        <time>2017-10-08T11:06:23Z</time>
      </trkpt>
      <trkpt lat="43.38087" lon="6.64654">
        <ele>88.9</ele>
        <time>2017-10-08T11:06:25Z</time>
      </trkpt>
      <trkpt lat="43.38089" lon="6.64649">
        <ele>88.7</ele>
        <time>2017-10-08T11:06:26Z</time>
      </trkpt>
      <trkpt lat="43.38093" lon="6.6464">
        <ele>88.3</ele>
        <time>2017-10-08T11:06:28Z</time>
      </trkpt>
      <trkpt lat="43.38096" lon="6.6462">
        <ele>87.5</ele>
        <time>2017-10-08T11:06:32Z</time>
      </trkpt>
      <trkpt lat="43.38098" lon="6.64597">
        <ele>87</ele>
        <time>2017-10-08T11:06:37Z</time>
      </trkpt>
      <trkpt lat="43.38106" lon="6.64584">
        <ele>86.5</ele>
        <time>2017-10-08T11:06:41Z</time>
      </trkpt>
      <trkpt lat="43.38118" lon="6.64587">
        <ele>87.1</ele>
        <time>2017-10-08T11:06:46Z</time>
      </trkpt>
      <trkpt lat="43.38126" lon="6.64591">
        <ele>88.2</ele>
        <time>2017-10-08T11:06:51Z</time>
      </trkpt>
      <trkpt lat="43.38127" lon="6.64592">
        <ele>88.5</ele>
        <time>2017-10-08T11:06:53Z</time>
      </trkpt>
      <trkpt lat="43.38128" lon="6.64591">
        <ele>88.2</ele>
        <time>2017-10-08T11:06:54Z</time>
      </trkpt>
      <trkpt lat="43.38131" lon="6.64589">
        <ele>88.5</ele>
        <time>2017-10-08T11:06:56Z</time>
      </trkpt>
      <trkpt lat="43.38132" lon="6.64587">
        <ele>88.6</ele>
        <time>2017-10-08T11:06:57Z</time>
      </trkpt>
      <trkpt lat="43.38137" lon="6.6458">
        <ele>88.9</ele>
        <time>2017-10-08T11:07:00Z</time>
      </trkpt>
      <trkpt lat="43.3814" lon="6.64578">
        <ele>89.3</ele>
        <time>2017-10-08T11:07:02Z</time>
      </trkpt>
      <trkpt lat="43.38144" lon="6.64578">
        <ele>89.9</ele>
        <time>2017-10-08T11:07:05Z</time>
      </trkpt>
      <trkpt lat="43.38148" lon="6.64575">
        <ele>91.3</ele>
        <time>2017-10-08T11:07:09Z</time>
      </trkpt>
      <trkpt lat="43.38149" lon="6.64574">
        <ele>91.3</ele>
        <time>2017-10-08T11:07:10Z</time>
      </trkpt>
      <trkpt lat="43.38154" lon="6.6457">
        <ele>92.8</ele>
        <time>2017-10-08T11:07:15Z</time>
      </trkpt>
      <trkpt lat="43.38158" lon="6.64566">
        <ele>93.5</ele>
        <time>2017-10-08T11:07:19Z</time>
      </trkpt>
      <trkpt lat="43.38162" lon="6.6456">
        <ele>94.2</ele>
        <time>2017-10-08T11:07:25Z</time>
      </trkpt>
      <trkpt lat="43.38165" lon="6.64557">
        <ele>94.9</ele>
        <time>2017-10-08T11:07:29Z</time>
      </trkpt>
      <trkpt lat="43.38169" lon="6.64552">
        <ele>95.6</ele>
        <time>2017-10-08T11:07:34Z</time>
      </trkpt>
      <trkpt lat="43.38172" lon="6.64549">
        <ele>96.2</ele>
        <time>2017-10-08T11:07:38Z</time>
      </trkpt>
      <trkpt lat="43.38173" lon="6.64539">
        <ele>97.4</ele>
        <time>2017-10-08T11:07:42Z</time>
      </trkpt>
      <trkpt lat="43.38174" lon="6.64536">
        <ele>97.4</ele>
        <time>2017-10-08T11:07:43Z</time>
      </trkpt>
      <trkpt lat="43.38176" lon="6.64529">
        <ele>98.5</ele>
        <time>2017-10-08T11:07:47Z</time>
      </trkpt>
      <trkpt lat="43.38179" lon="6.64525">
        <ele>99.4</ele>
        <time>2017-10-08T11:07:51Z</time>
      </trkpt>
      <trkpt lat="43.38182" lon="6.64524">
        <ele>100.2</ele>
        <time>2017-10-08T11:07:53Z</time>
      </trkpt>
      <trkpt lat="43.38185" lon="6.64518">
        <ele>101.2</ele>
        <time>2017-10-08T11:07:58Z</time>
      </trkpt>
      <trkpt lat="43.38185" lon="6.64514">
        <ele>101.3</ele>
        <time>2017-10-08T11:08:00Z</time>
      </trkpt>
      <trkpt lat="43.38186" lon="6.64505">
        <ele>101.5</ele>
        <time>2017-10-08T11:08:05Z</time>
      </trkpt>
      <trkpt lat="43.38186" lon="6.645">
        <ele>101.6</ele>
        <time>2017-10-08T11:08:08Z</time>
      </trkpt>
      <trkpt lat="43.38187" lon="6.64497">
        <ele>101.5</ele>
        <time>2017-10-08T11:08:10Z</time>
      </trkpt>
      <trkpt lat="43.38189" lon="6.64494">
        <ele>102.3</ele>
        <time>2017-10-08T11:08:13Z</time>
      </trkpt>
      <trkpt lat="43.38191" lon="6.64492">
        <ele>102.9</ele>
        <time>2017-10-08T11:08:15Z</time>
      </trkpt>
      <trkpt lat="43.38196" lon="6.64492">
        <ele>103.4</ele>
        <time>2017-10-08T11:08:19Z</time>
      </trkpt>
      <trkpt lat="43.38199" lon="6.64492">
        <ele>103.9</ele>
        <time>2017-10-08T11:08:22Z</time>
      </trkpt>
      <trkpt lat="43.38201" lon="6.64491">
        <ele>103.9</ele>
        <time>2017-10-08T11:08:24Z</time>
      </trkpt>
      <trkpt lat="43.38202" lon="6.6449">
        <ele>104</ele>
        <time>2017-10-08T11:08:25Z</time>
      </trkpt>
      <trkpt lat="43.38203" lon="6.64486">
        <ele>104</ele>
        <time>2017-10-08T11:08:27Z</time>
      </trkpt>
      <trkpt lat="43.38203" lon="6.64484">
        <ele>104.1</ele>
        <time>2017-10-08T11:08:28Z</time>
      </trkpt>
      <trkpt lat="43.38203" lon="6.6448">
        <ele>104.3</ele>
        <time>2017-10-08T11:08:30Z</time>
      </trkpt>
      <trkpt lat="43.38205" lon="6.64471">
        <ele>104.6</ele>
        <time>2017-10-08T11:08:34Z</time>
      </trkpt>
      <trkpt lat="43.38207" lon="6.64468">
        <ele>104.7</ele>
        <time>2017-10-08T11:08:35Z</time>
      </trkpt>
      <trkpt lat="43.38208" lon="6.64453">
        <ele>105.3</ele>
        <time>2017-10-08T11:08:39Z</time>
      </trkpt>
      <trkpt lat="43.38208" lon="6.64448">
        <ele>105.5</ele>
        <time>2017-10-08T11:08:41Z</time>
      </trkpt>
      <trkpt lat="43.38205" lon="6.64432">
        <ele>106.2</ele>
        <time>2017-10-08T11:08:47Z</time>
      </trkpt>
      <trkpt lat="43.38201" lon="6.64403">
        <ele>106.7</ele>
        <time>2017-10-08T11:08:54Z</time>
      </trkpt>
      <trkpt lat="43.38208" lon="6.64374">
        <ele>106.9</ele>
        <time>2017-10-08T11:08:59Z</time>
      </trkpt>
      <trkpt lat="43.38213" lon="6.64362">
        <ele>106.9</ele>
        <time>2017-10-08T11:09:01Z</time>
      </trkpt>
      <trkpt lat="43.38222" lon="6.64341">
        <ele>106.9</ele>
        <time>2017-10-08T11:09:04Z</time>
      </trkpt>
      <trkpt lat="43.38235" lon="6.64312">
        <ele>106.7</ele>
        <time>2017-10-08T11:09:09Z</time>
      </trkpt>
      <trkpt lat="43.38238" lon="6.64289">
        <ele>106.1</ele>
        <time>2017-10-08T11:09:14Z</time>
      </trkpt>
      <trkpt lat="43.38238" lon="6.64271">
        <ele>104.1</ele>
        <time>2017-10-08T11:09:17Z</time>
      </trkpt>
      <trkpt lat="43.3824" lon="6.64259">
        <ele>103.3</ele>
        <time>2017-10-08T11:09:19Z</time>
      </trkpt>
      <trkpt lat="43.38247" lon="6.64239">
        <ele>102.5</ele>
        <time>2017-10-08T11:09:24Z</time>
      </trkpt>
      <trkpt lat="43.38263" lon="6.64229">
        <ele>102</ele>
        <time>2017-10-08T11:09:31Z</time>
      </trkpt>
      <trkpt lat="43.38268" lon="6.64219">
        <ele>101.7</ele>
        <time>2017-10-08T11:09:35Z</time>
      </trkpt>
      <trkpt lat="43.38269" lon="6.64213">
        <ele>101.5</ele>
        <time>2017-10-08T11:09:37Z</time>
      </trkpt>
      <trkpt lat="43.38264" lon="6.64196">
        <ele>103.6</ele>
        <time>2017-10-08T11:09:42Z</time>
      </trkpt>
      <trkpt lat="43.38256" lon="6.64184">
        <ele>111.3</ele>
        <time>2017-10-08T11:09:45Z</time>
      </trkpt>
      <trkpt lat="43.38248" lon="6.64175">
        <ele>117.6</ele>
        <time>2017-10-08T11:09:47Z</time>
      </trkpt>
      <trkpt lat="43.38223" lon="6.64153">
        <ele>127.3</ele>
        <time>2017-10-08T11:09:52Z</time>
      </trkpt>
      <trkpt lat="43.38219" lon="6.6414">
        <ele>125.2</ele>
        <time>2017-10-08T11:09:54Z</time>
      </trkpt>
      <trkpt lat="43.38225" lon="6.64108">
        <ele>121.9</ele>
        <time>2017-10-08T11:09:58Z</time>
      </trkpt>
      <trkpt lat="43.38228" lon="6.64101">
        <ele>121.4</ele>
        <time>2017-10-08T11:09:59Z</time>
      </trkpt>
      <trkpt lat="43.3823" lon="6.64095">
        <ele>121.2</ele>
        <time>2017-10-08T11:10:00Z</time>
      </trkpt>
      <trkpt lat="43.38243" lon="6.6407">
        <ele>120.6</ele>
        <time>2017-10-08T11:10:04Z</time>
      </trkpt>
      <trkpt lat="43.38248" lon="6.64065">
        <ele>120.5</ele>
        <time>2017-10-08T11:10:05Z</time>
      </trkpt>
      <trkpt lat="43.38273" lon="6.64048">
        <ele>120</ele>
        <time>2017-10-08T11:10:10Z</time>
      </trkpt>
      <trkpt lat="43.38277" lon="6.64045">
        <ele>119.9</ele>
        <time>2017-10-08T11:10:11Z</time>
      </trkpt>
      <trkpt lat="43.38291" lon="6.64036">
        <ele>119.5</ele>
        <time>2017-10-08T11:10:15Z</time>
      </trkpt>
      <trkpt lat="43.383" lon="6.64019">
        <ele>119.2</ele>
        <time>2017-10-08T11:10:20Z</time>
      </trkpt>
      <trkpt lat="43.38301" lon="6.6401">
        <ele>119.1</ele>
        <time>2017-10-08T11:10:22Z</time>
      </trkpt>
      <trkpt lat="43.38302" lon="6.63991">
        <ele>118.9</ele>
        <time>2017-10-08T11:10:26Z</time>
      </trkpt>
      <trkpt lat="43.38301" lon="6.63976">
        <ele>118.8</ele>
        <time>2017-10-08T11:10:29Z</time>
      </trkpt>
      <trkpt lat="43.38301" lon="6.63971">
        <ele>118.8</ele>
        <time>2017-10-08T11:10:30Z</time>
      </trkpt>
      <trkpt lat="43.38298" lon="6.63948">
        <ele>118.6</ele>
        <time>2017-10-08T11:10:35Z</time>
      </trkpt>
      <trkpt lat="43.38297" lon="6.63943">
        <ele>118.6</ele>
        <time>2017-10-08T11:10:36Z</time>
      </trkpt>
      <trkpt lat="43.38291" lon="6.63922">
        <ele>118.3</ele>
        <time>2017-10-08T11:10:40Z</time>
      </trkpt>
      <trkpt lat="43.38286" lon="6.63913">
        <ele>118.1</ele>
        <time>2017-10-08T11:10:42Z</time>
      </trkpt>
      <trkpt lat="43.38275" lon="6.63902">
        <ele>117.7</ele>
        <time>2017-10-08T11:10:45Z</time>
      </trkpt>
      <trkpt lat="43.38267" lon="6.63896">
        <ele>117.5</ele>
        <time>2017-10-08T11:10:47Z</time>
      </trkpt>
      <trkpt lat="43.38242" lon="6.63871">
        <ele>116.9</ele>
        <time>2017-10-08T11:10:54Z</time>
      </trkpt>
      <trkpt lat="43.38221" lon="6.6385">
        <ele>116.2</ele>
        <time>2017-10-08T11:11:01Z</time>
      </trkpt>
      <trkpt lat="43.38212" lon="6.63844">
        <ele>116.1</ele>
        <time>2017-10-08T11:11:04Z</time>
      </trkpt>
      <trkpt lat="43.38204" lon="6.63841">
        <ele>117</ele>
        <time>2017-10-08T11:11:07Z</time>
      </trkpt>
      <trkpt lat="43.382" lon="6.63839">
        <ele>117.7</ele>
        <time>2017-10-08T11:11:09Z</time>
      </trkpt>
      <trkpt lat="43.38192" lon="6.63833">
        <ele>118.4</ele>
        <time>2017-10-08T11:11:13Z</time>
      </trkpt>
      <trkpt lat="43.38191" lon="6.63831">
        <ele>118.8</ele>
        <time>2017-10-08T11:11:14Z</time>
      </trkpt>
      <trkpt lat="43.38188" lon="6.63827">
        <ele>119.4</ele>
        <time>2017-10-08T11:11:16Z</time>
      </trkpt>
      <trkpt lat="43.38178" lon="6.63822">
        <ele>120.1</ele>
        <time>2017-10-08T11:11:21Z</time>
      </trkpt>
      <trkpt lat="43.3817" lon="6.63818">
        <ele>120.8</ele>
        <time>2017-10-08T11:11:25Z</time>
      </trkpt>
      <trkpt lat="43.38163" lon="6.63813">
        <ele>121.5</ele>
        <time>2017-10-08T11:11:28Z</time>
      </trkpt>
      <trkpt lat="43.38154" lon="6.63808">
        <ele>122.1</ele>
        <time>2017-10-08T11:11:33Z</time>
      </trkpt>
      <trkpt lat="43.38147" lon="6.63807">
        <ele>123</ele>
        <time>2017-10-08T11:11:37Z</time>
      </trkpt>
      <trkpt lat="43.38138" lon="6.63805">
        <ele>123.5</ele>
        <time>2017-10-08T11:11:42Z</time>
      </trkpt>
      <trkpt lat="43.38129" lon="6.63805">
        <ele>123.9</ele>
        <time>2017-10-08T11:11:46Z</time>
      </trkpt>
      <trkpt lat="43.38126" lon="6.63804">
        <ele>124</ele>
        <time>2017-10-08T11:11:47Z</time>
      </trkpt>
      <trkpt lat="43.38119" lon="6.63801">
        <ele>124.9</ele>
        <time>2017-10-08T11:11:51Z</time>
      </trkpt>
      <trkpt lat="43.38117" lon="6.638">
        <ele>125.1</ele>
        <time>2017-10-08T11:11:52Z</time>
      </trkpt>
      <trkpt lat="43.3811" lon="6.638">
        <ele>125.5</ele>
        <time>2017-10-08T11:11:56Z</time>
      </trkpt>
      <trkpt lat="43.38103" lon="6.63798">
        <ele>126</ele>
        <time>2017-10-08T11:12:00Z</time>
      </trkpt>
      <trkpt lat="43.38099" lon="6.63797">
        <ele>126.4</ele>
        <time>2017-10-08T11:12:02Z</time>
      </trkpt>
      <trkpt lat="43.38089" lon="6.63792">
        <ele>127.5</ele>
        <time>2017-10-08T11:12:08Z</time>
      </trkpt>
      <trkpt lat="43.38083" lon="6.63787">
        <ele>128.3</ele>
        <time>2017-10-08T11:12:12Z</time>
      </trkpt>
      <trkpt lat="43.38076" lon="6.63783">
        <ele>129</ele>
        <time>2017-10-08T11:12:16Z</time>
      </trkpt>
      <trkpt lat="43.38075" lon="6.63782">
        <ele>129.1</ele>
        <time>2017-10-08T11:12:17Z</time>
      </trkpt>
      <trkpt lat="43.38067" lon="6.63774">
        <ele>129.7</ele>
        <time>2017-10-08T11:12:23Z</time>
      </trkpt>
      <trkpt lat="43.3806" lon="6.63772">
        <ele>130.5</ele>
        <time>2017-10-08T11:12:27Z</time>
      </trkpt>
      <trkpt lat="43.38058" lon="6.63772">
        <ele>130.6</ele>
        <time>2017-10-08T11:12:28Z</time>
      </trkpt>
      <trkpt lat="43.38054" lon="6.63773">
        <ele>130.8</ele>
        <time>2017-10-08T11:12:30Z</time>
      </trkpt>
      <trkpt lat="43.3805" lon="6.63774">
        <ele>131</ele>
        <time>2017-10-08T11:12:32Z</time>
      </trkpt>
      <trkpt lat="43.38046" lon="6.63773">
        <ele>131.1</ele>
        <time>2017-10-08T11:12:34Z</time>
      </trkpt>
      <trkpt lat="43.3804" lon="6.63771">
        <ele>131.4</ele>
        <time>2017-10-08T11:12:37Z</time>
      </trkpt>
      <trkpt lat="43.38039" lon="6.6377">
        <ele>131.6</ele>
        <time>2017-10-08T11:12:38Z</time>
      </trkpt>
      <trkpt lat="43.38025" lon="6.63764">
        <ele>133</ele>
        <time>2017-10-08T11:12:46Z</time>
      </trkpt>
      <trkpt lat="43.38019" lon="6.63761">
        <ele>133.3</ele>
        <time>2017-10-08T11:12:49Z</time>
      </trkpt>
      <trkpt lat="43.38013" lon="6.63756">
        <ele>133.9</ele>
        <time>2017-10-08T11:12:53Z</time>
      </trkpt>
      <trkpt lat="43.3801" lon="6.63755">
        <ele>134.3</ele>
        <time>2017-10-08T11:12:55Z</time>
      </trkpt>
      <trkpt lat="43.38005" lon="6.63755">
        <ele>134.6</ele>
        <time>2017-10-08T11:12:57Z</time>
      </trkpt>
      <trkpt lat="43.38004" lon="6.63755">
        <ele>134.7</ele>
        <time>2017-10-08T11:12:58Z</time>
      </trkpt>
      <trkpt lat="43.37998" lon="6.63754">
        <ele>135.2</ele>
        <time>2017-10-08T11:13:01Z</time>
      </trkpt>
      <trkpt lat="43.37989" lon="6.63753">
        <ele>136.2</ele>
        <time>2017-10-08T11:13:06Z</time>
      </trkpt>
      <trkpt lat="43.37987" lon="6.63753">
        <ele>136.3</ele>
        <time>2017-10-08T11:13:07Z</time>
      </trkpt>
      <trkpt lat="43.37982" lon="6.63752">
        <ele>136.5</ele>
        <time>2017-10-08T11:13:10Z</time>
      </trkpt>
      <trkpt lat="43.37981" lon="6.63753">
        <ele>136.6</ele>
        <time>2017-10-08T11:13:11Z</time>
      </trkpt>
      <trkpt lat="43.37979" lon="6.63753">
        <ele>136.7</ele>
        <time>2017-10-08T11:13:12Z</time>
      </trkpt>
      <trkpt lat="43.37968" lon="6.63756">
        <ele>137.6</ele>
        <time>2017-10-08T11:13:18Z</time>
      </trkpt>
      <trkpt lat="43.37964" lon="6.63756">
        <ele>138</ele>
        <time>2017-10-08T11:13:20Z</time>
      </trkpt>
      <trkpt lat="43.37958" lon="6.63756">
        <ele>138.4</ele>
        <time>2017-10-08T11:13:23Z</time>
      </trkpt>
      <trkpt lat="43.3795" lon="6.63758">
        <ele>138.8</ele>
        <time>2017-10-08T11:13:27Z</time>
      </trkpt>
      <trkpt lat="43.37945" lon="6.63758">
        <ele>139.3</ele>
        <time>2017-10-08T11:13:30Z</time>
      </trkpt>
      <trkpt lat="43.37939" lon="6.63759">
        <ele>140</ele>
        <time>2017-10-08T11:13:33Z</time>
      </trkpt>
      <trkpt lat="43.37935" lon="6.6376">
        <ele>140.4</ele>
        <time>2017-10-08T11:13:35Z</time>
      </trkpt>
      <trkpt lat="43.3793" lon="6.63761">
        <ele>140.6</ele>
        <time>2017-10-08T11:13:38Z</time>
      </trkpt>
      <trkpt lat="43.37918" lon="6.63762">
        <ele>141.1</ele>
        <time>2017-10-08T11:13:43Z</time>
      </trkpt>
      <trkpt lat="43.37916" lon="6.63762">
        <ele>141.3</ele>
        <time>2017-10-08T11:13:44Z</time>
      </trkpt>
      <trkpt lat="43.37902" lon="6.63765">
        <ele>142.4</ele>
        <time>2017-10-08T11:13:51Z</time>
      </trkpt>
      <trkpt lat="43.379" lon="6.63765">
        <ele>142.5</ele>
        <time>2017-10-08T11:13:52Z</time>
      </trkpt>
      <trkpt lat="43.37889" lon="6.63764">
        <ele>143.1</ele>
        <time>2017-10-08T11:13:57Z</time>
      </trkpt>
      <trkpt lat="43.37885" lon="6.63764">
        <ele>143.5</ele>
        <time>2017-10-08T11:13:59Z</time>
      </trkpt>
      <trkpt lat="43.37873" lon="6.63764">
        <ele>144</ele>
        <time>2017-10-08T11:14:05Z</time>
      </trkpt>
      <trkpt lat="43.37871" lon="6.63764">
        <ele>144.1</ele>
        <time>2017-10-08T11:14:06Z</time>
      </trkpt>
      <trkpt lat="43.37859" lon="6.63759">
        <ele>144.5</ele>
        <time>2017-10-08T11:14:14Z</time>
      </trkpt>
      <trkpt lat="43.37849" lon="6.63756">
        <ele>145</ele>
        <time>2017-10-08T11:14:21Z</time>
      </trkpt>
      <trkpt lat="43.37846" lon="6.63755">
        <ele>145.3</ele>
        <time>2017-10-08T11:14:23Z</time>
      </trkpt>
      <trkpt lat="43.37835" lon="6.63756">
        <ele>146.4</ele>
        <time>2017-10-08T11:14:30Z</time>
      </trkpt>
      <trkpt lat="43.37827" lon="6.63756">
        <ele>146.7</ele>
        <time>2017-10-08T11:14:35Z</time>
      </trkpt>
      <trkpt lat="43.37826" lon="6.63756">
        <ele>146.7</ele>
        <time>2017-10-08T11:14:36Z</time>
      </trkpt>
      <trkpt lat="43.37812" lon="6.63756">
        <ele>147.9</ele>
        <time>2017-10-08T11:14:45Z</time>
      </trkpt>
      <trkpt lat="43.37803" lon="6.63752">
        <ele>148.5</ele>
        <time>2017-10-08T11:14:52Z</time>
      </trkpt>
      <trkpt lat="43.37797" lon="6.63749">
        <ele>148.9</ele>
        <time>2017-10-08T11:14:56Z</time>
      </trkpt>
      <trkpt lat="43.37792" lon="6.63749">
        <ele>149.4</ele>
        <time>2017-10-08T11:15:00Z</time>
      </trkpt>
      <trkpt lat="43.37786" lon="6.63749">
        <ele>150.1</ele>
        <time>2017-10-08T11:15:04Z</time>
      </trkpt>
      <trkpt lat="43.3778" lon="6.63747">
        <ele>150.4</ele>
        <time>2017-10-08T11:15:08Z</time>
      </trkpt>
      <trkpt lat="43.37779" lon="6.63746">
        <ele>150.5</ele>
        <time>2017-10-08T11:15:09Z</time>
      </trkpt>
      <trkpt lat="43.37771" lon="6.63745">
        <ele>151</ele>
        <time>2017-10-08T11:15:14Z</time>
      </trkpt>
      <trkpt lat="43.37769" lon="6.63744">
        <ele>151.1</ele>
        <time>2017-10-08T11:15:15Z</time>
      </trkpt>
      <trkpt lat="43.37765" lon="6.63745">
        <ele>151.6</ele>
        <time>2017-10-08T11:15:18Z</time>
      </trkpt>
      <trkpt lat="43.37759" lon="6.63744">
        <ele>152.2</ele>
        <time>2017-10-08T11:15:21Z</time>
      </trkpt>
      <trkpt lat="43.37751" lon="6.63734">
        <ele>152.8</ele>
        <time>2017-10-08T11:15:27Z</time>
      </trkpt>
      <trkpt lat="43.37751" lon="6.63731">
        <ele>153</ele>
        <time>2017-10-08T11:15:28Z</time>
      </trkpt>
      <trkpt lat="43.3775" lon="6.63724">
        <ele>153.5</ele>
        <time>2017-10-08T11:15:31Z</time>
      </trkpt>
      <trkpt lat="43.37751" lon="6.63721">
        <ele>153.7</ele>
        <time>2017-10-08T11:15:32Z</time>
      </trkpt>
      <trkpt lat="43.37751" lon="6.63716">
        <ele>153.9</ele>
        <time>2017-10-08T11:15:34Z</time>
      </trkpt>
      <trkpt lat="43.37751" lon="6.63713">
        <ele>154</ele>
        <time>2017-10-08T11:15:35Z</time>
      </trkpt>
      <trkpt lat="43.37747" lon="6.63699">
        <ele>154.2</ele>
        <time>2017-10-08T11:15:40Z</time>
      </trkpt>
      <trkpt lat="43.37745" lon="6.63697">
        <ele>154.3</ele>
        <time>2017-10-08T11:15:41Z</time>
      </trkpt>
      <trkpt lat="43.37737" lon="6.63693">
        <ele>154.5</ele>
        <time>2017-10-08T11:15:44Z</time>
      </trkpt>
      <trkpt lat="43.37733" lon="6.63689">
        <ele>154.6</ele>
        <time>2017-10-08T11:15:46Z</time>
      </trkpt>
      <trkpt lat="43.37725" lon="6.63671">
        <ele>155.4</ele>
        <time>2017-10-08T11:15:51Z</time>
      </trkpt>
      <trkpt lat="43.3771" lon="6.6364">
        <ele>155.9</ele>
        <time>2017-10-08T11:15:58Z</time>
      </trkpt>
      <trkpt lat="43.37703" lon="6.63617">
        <ele>155.9</ele>
        <time>2017-10-08T11:16:03Z</time>
      </trkpt>
      <trkpt lat="43.37709" lon="6.63602">
        <ele>155.8</ele>
        <time>2017-10-08T11:16:06Z</time>
      </trkpt>
      <trkpt lat="43.37716" lon="6.63596">
        <ele>155.8</ele>
        <time>2017-10-08T11:16:08Z</time>
      </trkpt>
      <trkpt lat="43.37719" lon="6.63593">
        <ele>155.8</ele>
        <time>2017-10-08T11:16:09Z</time>
      </trkpt>
      <trkpt lat="43.37725" lon="6.63585">
        <ele>155.8</ele>
        <time>2017-10-08T11:16:11Z</time>
      </trkpt>
      <trkpt lat="43.37727" lon="6.63565">
        <ele>155.7</ele>
        <time>2017-10-08T11:16:15Z</time>
      </trkpt>
      <trkpt lat="43.37725" lon="6.63543">
        <ele>155.7</ele>
        <time>2017-10-08T11:16:19Z</time>
      </trkpt>
      <trkpt lat="43.37725" lon="6.63538">
        <ele>155.7</ele>
        <time>2017-10-08T11:16:20Z</time>
      </trkpt>
      <trkpt lat="43.3773" lon="6.63515">
        <ele>155.7</ele>
        <time>2017-10-08T11:16:25Z</time>
      </trkpt>
      <trkpt lat="43.37739" lon="6.63477">
        <ele>155.7</ele>
        <time>2017-10-08T11:16:33Z</time>
      </trkpt>
      <trkpt lat="43.37741" lon="6.63453">
        <ele>155.8</ele>
        <time>2017-10-08T11:16:38Z</time>
      </trkpt>
      <trkpt lat="43.3774" lon="6.63446">
        <ele>155.9</ele>
        <time>2017-10-08T11:16:40Z</time>
      </trkpt>
      <trkpt lat="43.37737" lon="6.63435">
        <ele>156.1</ele>
        <time>2017-10-08T11:16:43Z</time>
      </trkpt>
      <trkpt lat="43.37732" lon="6.63426">
        <ele>156.4</ele>
        <time>2017-10-08T11:16:46Z</time>
      </trkpt>
      <trkpt lat="43.37731" lon="6.63423">
        <ele>156.7</ele>
        <time>2017-10-08T11:16:47Z</time>
      </trkpt>
      <trkpt lat="43.37726" lon="6.63409">
        <ele>157.8</ele>
        <time>2017-10-08T11:16:51Z</time>
      </trkpt>
      <trkpt lat="43.37724" lon="6.63401">
        <ele>158.3</ele>
        <time>2017-10-08T11:16:53Z</time>
      </trkpt>
      <trkpt lat="43.37722" lon="6.63394">
        <ele>158.9</ele>
        <time>2017-10-08T11:16:55Z</time>
      </trkpt>
      <trkpt lat="43.37719" lon="6.6338">
        <ele>159.5</ele>
        <time>2017-10-08T11:16:59Z</time>
      </trkpt>
      <trkpt lat="43.37718" lon="6.63374">
        <ele>159.7</ele>
        <time>2017-10-08T11:17:01Z</time>
      </trkpt>
      <trkpt lat="43.37712" lon="6.63362">
        <ele>160.6</ele>
        <time>2017-10-08T11:17:06Z</time>
      </trkpt>
      <trkpt lat="43.37701" lon="6.63359">
        <ele>162</ele>
        <time>2017-10-08T11:17:12Z</time>
      </trkpt>
      <trkpt lat="43.37695" lon="6.63359">
        <ele>162.6</ele>
        <time>2017-10-08T11:17:15Z</time>
      </trkpt>
      <trkpt lat="43.37687" lon="6.63361">
        <ele>163.6</ele>
        <time>2017-10-08T11:17:19Z</time>
      </trkpt>
      <trkpt lat="43.37685" lon="6.63361">
        <ele>163.8</ele>
        <time>2017-10-08T11:17:20Z</time>
      </trkpt>
      <trkpt lat="43.37674" lon="6.63363">
        <ele>164.6</ele>
        <time>2017-10-08T11:17:25Z</time>
      </trkpt>
      <trkpt lat="43.37669" lon="6.63363">
        <ele>164.9</ele>
        <time>2017-10-08T11:17:28Z</time>
      </trkpt>
      <trkpt lat="43.37664" lon="6.63363">
        <ele>165</ele>
        <time>2017-10-08T11:17:30Z</time>
      </trkpt>
      <trkpt lat="43.3765" lon="6.63366">
        <ele>165.5</ele>
        <time>2017-10-08T11:17:37Z</time>
      </trkpt>
      <trkpt lat="43.37644" lon="6.63371">
        <ele>165.8</ele>
        <time>2017-10-08T11:17:41Z</time>
      </trkpt>
      <trkpt lat="43.37643" lon="6.63375">
        <ele>167.2</ele>
        <time>2017-10-08T11:17:43Z</time>
      </trkpt>
      <trkpt lat="43.37647" lon="6.63382">
        <ele>167.8</ele>
        <time>2017-10-08T11:17:47Z</time>
      </trkpt>
      <trkpt lat="43.37648" lon="6.63383">
        <ele>167.9</ele>
        <time>2017-10-08T11:17:48Z</time>
      </trkpt>
      <trkpt lat="43.3765" lon="6.63384">
        <ele>168.1</ele>
        <time>2017-10-08T11:17:49Z</time>
      </trkpt>
      <trkpt lat="43.37651" lon="6.63386">
        <ele>168.2</ele>
        <time>2017-10-08T11:17:50Z</time>
      </trkpt>
      <trkpt lat="43.37657" lon="6.63391">
        <ele>168.9</ele>
        <time>2017-10-08T11:17:54Z</time>
      </trkpt>
      <trkpt lat="43.37659" lon="6.63393">
        <ele>169.2</ele>
        <time>2017-10-08T11:17:56Z</time>
      </trkpt>
      <trkpt lat="43.37663" lon="6.63398">
        <ele>169.6</ele>
        <time>2017-10-08T11:17:59Z</time>
      </trkpt>
      <trkpt lat="43.37666" lon="6.63402">
        <ele>169.8</ele>
        <time>2017-10-08T11:18:01Z</time>
      </trkpt>
      <trkpt lat="43.37668" lon="6.63406">
        <ele>170.1</ele>
        <time>2017-10-08T11:18:03Z</time>
      </trkpt>
      <trkpt lat="43.37675" lon="6.63417">
        <ele>170.5</ele>
        <time>2017-10-08T11:18:08Z</time>
      </trkpt>
      <trkpt lat="43.37677" lon="6.63421">
        <ele>170.7</ele>
        <time>2017-10-08T11:18:10Z</time>
      </trkpt>
      <trkpt lat="43.37678" lon="6.63437">
        <ele>172</ele>
        <time>2017-10-08T11:18:16Z</time>
      </trkpt>
      <trkpt lat="43.37677" lon="6.63453">
        <ele>172.7</ele>
        <time>2017-10-08T11:18:22Z</time>
      </trkpt>
      <trkpt lat="43.37677" lon="6.63462">
        <ele>173</ele>
        <time>2017-10-08T11:18:25Z</time>
      </trkpt>
      <trkpt lat="43.37673" lon="6.63491">
        <ele>174.4</ele>
        <time>2017-10-08T11:18:33Z</time>
      </trkpt>
      <trkpt lat="43.37663" lon="6.63516">
        <ele>174.8</ele>
        <time>2017-10-08T11:18:39Z</time>
      </trkpt>
      <trkpt lat="43.37651" lon="6.63541">
        <ele>175</ele>
        <time>2017-10-08T11:18:46Z</time>
      </trkpt>
      <trkpt lat="43.37636" lon="6.63569">
        <ele>175.7</ele>
        <time>2017-10-08T11:18:54Z</time>
      </trkpt>
      <trkpt lat="43.37628" lon="6.63579">
        <ele>176.7</ele>
        <time>2017-10-08T11:18:58Z</time>
      </trkpt>
      <trkpt lat="43.37621" lon="6.63586">
        <ele>177</ele>
        <time>2017-10-08T11:19:01Z</time>
      </trkpt>
      <trkpt lat="43.37615" lon="6.63593">
        <ele>177.3</ele>
        <time>2017-10-08T11:19:04Z</time>
      </trkpt>
      <trkpt lat="43.37607" lon="6.63601">
        <ele>177.8</ele>
        <time>2017-10-08T11:19:08Z</time>
      </trkpt>
      <trkpt lat="43.37605" lon="6.63604">
        <ele>178.1</ele>
        <time>2017-10-08T11:19:09Z</time>
      </trkpt>
      <trkpt lat="43.37602" lon="6.63616">
        <ele>179</ele>
        <time>2017-10-08T11:19:13Z</time>
      </trkpt>
      <trkpt lat="43.37602" lon="6.6362">
        <ele>179.4</ele>
        <time>2017-10-08T11:19:15Z</time>
      </trkpt>
      <trkpt lat="43.37603" lon="6.63628">
        <ele>179.9</ele>
        <time>2017-10-08T11:19:19Z</time>
      </trkpt>
      <trkpt lat="43.37604" lon="6.63631">
        <ele>180</ele>
        <time>2017-10-08T11:19:20Z</time>
      </trkpt>
      <trkpt lat="43.37605" lon="6.63644">
        <ele>181.5</ele>
        <time>2017-10-08T11:19:26Z</time>
      </trkpt>
      <trkpt lat="43.37606" lon="6.63646">
        <ele>181.8</ele>
        <time>2017-10-08T11:19:27Z</time>
      </trkpt>
      <trkpt lat="43.37609" lon="6.63653">
        <ele>182.6</ele>
        <time>2017-10-08T11:19:31Z</time>
      </trkpt>
      <trkpt lat="43.37611" lon="6.63657">
        <ele>183.1</ele>
        <time>2017-10-08T11:19:33Z</time>
      </trkpt>
      <trkpt lat="43.37613" lon="6.63665">
        <ele>183.9</ele>
        <time>2017-10-08T11:19:37Z</time>
      </trkpt>
      <trkpt lat="43.37614" lon="6.63671">
        <ele>184.3</ele>
        <time>2017-10-08T11:19:40Z</time>
      </trkpt>
      <trkpt lat="43.37622" lon="6.63687">
        <ele>185.4</ele>
        <time>2017-10-08T11:19:48Z</time>
      </trkpt>
      <trkpt lat="43.37625" lon="6.63692">
        <ele>186</ele>
        <time>2017-10-08T11:19:50Z</time>
      </trkpt>
      <trkpt lat="43.37631" lon="6.63705">
        <ele>186.7</ele>
        <time>2017-10-08T11:19:56Z</time>
      </trkpt>
      <trkpt lat="43.37634" lon="6.63721">
        <ele>187.5</ele>
        <time>2017-10-08T11:20:03Z</time>
      </trkpt>
      <trkpt lat="43.37632" lon="6.63733">
        <ele>189</ele>
        <time>2017-10-08T11:20:09Z</time>
      </trkpt>
      <trkpt lat="43.37628" lon="6.6374">
        <ele>190</ele>
        <time>2017-10-08T11:20:13Z</time>
      </trkpt>
      <trkpt lat="43.37626" lon="6.63743">
        <ele>190.5</ele>
        <time>2017-10-08T11:20:15Z</time>
      </trkpt>
      <trkpt lat="43.37623" lon="6.63756">
        <ele>191.6</ele>
        <time>2017-10-08T11:20:20Z</time>
      </trkpt>
      <trkpt lat="43.37624" lon="6.63765">
        <ele>192.4</ele>
        <time>2017-10-08T11:20:25Z</time>
      </trkpt>
      <trkpt lat="43.37624" lon="6.63766">
        <ele>192.6</ele>
        <time>2017-10-08T11:20:26Z</time>
      </trkpt>
      <trkpt lat="43.37626" lon="6.6377">
        <ele>193.1</ele>
        <time>2017-10-08T11:20:28Z</time>
      </trkpt>
      <trkpt lat="43.3763" lon="6.63776">
        <ele>193.7</ele>
        <time>2017-10-08T11:20:32Z</time>
      </trkpt>
      <trkpt lat="43.3763" lon="6.63777">
        <ele>193.8</ele>
        <time>2017-10-08T11:20:33Z</time>
      </trkpt>
      <trkpt lat="43.37633" lon="6.63783">
        <ele>194.1</ele>
        <time>2017-10-08T11:20:37Z</time>
      </trkpt>
      <trkpt lat="43.37636" lon="6.63787">
        <ele>194.5</ele>
        <time>2017-10-08T11:20:40Z</time>
      </trkpt>
      <trkpt lat="43.37638" lon="6.63792">
        <ele>195</ele>
        <time>2017-10-08T11:20:43Z</time>
      </trkpt>
      <trkpt lat="43.37641" lon="6.63799">
        <ele>195.9</ele>
        <time>2017-10-08T11:20:47Z</time>
      </trkpt>
      <trkpt lat="43.37642" lon="6.63802">
        <ele>196.3</ele>
        <time>2017-10-08T11:20:49Z</time>
      </trkpt>
      <trkpt lat="43.37646" lon="6.6381">
        <ele>196.9</ele>
        <time>2017-10-08T11:20:53Z</time>
      </trkpt>
      <trkpt lat="43.37648" lon="6.63814">
        <ele>197.6</ele>
        <time>2017-10-08T11:20:56Z</time>
      </trkpt>
      <trkpt lat="43.37651" lon="6.6382">
        <ele>198.5</ele>
        <time>2017-10-08T11:20:59Z</time>
      </trkpt>
      <trkpt lat="43.37655" lon="6.63827">
        <ele>199</ele>
        <time>2017-10-08T11:21:04Z</time>
      </trkpt>
      <trkpt lat="43.37655" lon="6.63828">
        <ele>199.2</ele>
        <time>2017-10-08T11:21:05Z</time>
      </trkpt>
      <trkpt lat="43.37662" lon="6.63841">
        <ele>200.7</ele>
        <time>2017-10-08T11:21:12Z</time>
      </trkpt>
      <trkpt lat="43.37662" lon="6.63843">
        <ele>200.8</ele>
        <time>2017-10-08T11:21:13Z</time>
      </trkpt>
      <trkpt lat="43.37663" lon="6.63846">
        <ele>201</ele>
        <time>2017-10-08T11:21:15Z</time>
      </trkpt>
      <trkpt lat="43.37665" lon="6.63854">
        <ele>201.3</ele>
        <time>2017-10-08T11:21:19Z</time>
      </trkpt>
      <trkpt lat="43.37666" lon="6.63856">
        <ele>201.4</ele>
        <time>2017-10-08T11:21:20Z</time>
      </trkpt>
      <trkpt lat="43.37668" lon="6.6387">
        <ele>202.3</ele>
        <time>2017-10-08T11:21:27Z</time>
      </trkpt>
      <trkpt lat="43.37669" lon="6.63876">
        <ele>203</ele>
        <time>2017-10-08T11:21:30Z</time>
      </trkpt>
      <trkpt lat="43.37671" lon="6.63887">
        <ele>204.1</ele>
        <time>2017-10-08T11:21:36Z</time>
      </trkpt>
      <trkpt lat="43.37671" lon="6.63889">
        <ele>204.3</ele>
        <time>2017-10-08T11:21:37Z</time>
      </trkpt>
      <trkpt lat="43.37673" lon="6.63897">
        <ele>205.2</ele>
        <time>2017-10-08T11:21:41Z</time>
      </trkpt>
      <trkpt lat="43.37676" lon="6.63904">
        <ele>206.2</ele>
        <time>2017-10-08T11:21:45Z</time>
      </trkpt>
      <trkpt lat="43.37679" lon="6.6391">
        <ele>206.6</ele>
        <time>2017-10-08T11:21:48Z</time>
      </trkpt>
      <trkpt lat="43.37681" lon="6.63918">
        <ele>207.7</ele>
        <time>2017-10-08T11:21:52Z</time>
      </trkpt>
      <trkpt lat="43.37683" lon="6.63921">
        <ele>208.3</ele>
        <time>2017-10-08T11:21:54Z</time>
      </trkpt>
      <trkpt lat="43.37683" lon="6.63931">
        <ele>209.1</ele>
        <time>2017-10-08T11:21:59Z</time>
      </trkpt>
      <trkpt lat="43.37686" lon="6.63936">
        <ele>210</ele>
        <time>2017-10-08T11:24:15Z</time>
      </trkpt>
      <trkpt lat="43.37688" lon="6.63937">
        <ele>218.3</ele>
        <time>2017-10-08T11:24:16Z</time>
      </trkpt>
      <trkpt lat="43.37709" lon="6.63942">
        <ele>216.9</ele>
        <time>2017-10-08T11:24:21Z</time>
      </trkpt>
      <trkpt lat="43.37721" lon="6.63943">
        <ele>216</ele>
        <time>2017-10-08T11:24:23Z</time>
      </trkpt>
      <trkpt lat="43.37735" lon="6.63947">
        <ele>214.7</ele>
        <time>2017-10-08T11:24:26Z</time>
      </trkpt>
      <trkpt lat="43.37739" lon="6.63949">
        <ele>214.3</ele>
        <time>2017-10-08T11:24:27Z</time>
      </trkpt>
      <trkpt lat="43.37743" lon="6.63952">
        <ele>213.8</ele>
        <time>2017-10-08T11:24:28Z</time>
      </trkpt>
      <trkpt lat="43.37753" lon="6.63962">
        <ele>212.3</ele>
        <time>2017-10-08T11:24:31Z</time>
      </trkpt>
      <trkpt lat="43.37753" lon="6.6397">
        <ele>211.4</ele>
        <time>2017-10-08T11:24:33Z</time>
      </trkpt>
      <trkpt lat="43.37751" lon="6.63974">
        <ele>210.6</ele>
        <time>2017-10-08T11:24:34Z</time>
      </trkpt>
      <trkpt lat="43.37744" lon="6.63987">
        <ele>209.5</ele>
        <time>2017-10-08T11:24:37Z</time>
      </trkpt>
      <trkpt lat="43.37731" lon="6.64006">
        <ele>207.6</ele>
        <time>2017-10-08T11:24:41Z</time>
      </trkpt>
      <trkpt lat="43.37721" lon="6.64012">
        <ele>207.8</ele>
        <time>2017-10-08T11:24:43Z</time>
      </trkpt>
      <trkpt lat="43.37716" lon="6.64013">
        <ele>207.6</ele>
        <time>2017-10-08T11:24:44Z</time>
      </trkpt>
      <trkpt lat="43.37707" lon="6.64016">
        <ele>208.5</ele>
        <time>2017-10-08T11:24:46Z</time>
      </trkpt>
      <trkpt lat="43.37698" lon="6.64016">
        <ele>208.8</ele>
        <time>2017-10-08T11:24:48Z</time>
      </trkpt>
      <trkpt lat="43.37693" lon="6.64017">
        <ele>208.8</ele>
        <time>2017-10-08T11:24:49Z</time>
      </trkpt>
      <trkpt lat="43.37679" lon="6.64021">
        <ele>207.7</ele>
        <time>2017-10-08T11:24:52Z</time>
      </trkpt>
      <trkpt lat="43.37667" lon="6.64026">
        <ele>206.6</ele>
        <time>2017-10-08T11:24:55Z</time>
      </trkpt>
      <trkpt lat="43.37662" lon="6.64029">
        <ele>206.5</ele>
        <time>2017-10-08T11:24:57Z</time>
      </trkpt>
      <trkpt lat="43.37661" lon="6.64031">
        <ele>205.7</ele>
        <time>2017-10-08T11:24:58Z</time>
      </trkpt>
      <trkpt lat="43.37683" lon="6.64055">
        <ele>200.7</ele>
        <time>2017-10-08T11:25:29Z</time>
      </trkpt>
      <trkpt lat="43.3768" lon="6.64063">
        <ele>199.7</ele>
        <time>2017-10-08T11:25:32Z</time>
      </trkpt>
      <trkpt lat="43.37678" lon="6.64065">
        <ele>199.2</ele>
        <time>2017-10-08T11:25:33Z</time>
      </trkpt>
      <trkpt lat="43.37676" lon="6.64068">
        <ele>198.7</ele>
        <time>2017-10-08T11:25:34Z</time>
      </trkpt>
      <trkpt lat="43.37662" lon="6.6408">
        <ele>196.5</ele>
        <time>2017-10-08T11:25:38Z</time>
      </trkpt>
      <trkpt lat="43.37653" lon="6.64087">
        <ele>195.6</ele>
        <time>2017-10-08T11:25:39Z</time>
      </trkpt>
      <trkpt lat="43.37636" lon="6.64104">
        <ele>193.7</ele>
        <time>2017-10-08T11:25:42Z</time>
      </trkpt>
      <trkpt lat="43.37628" lon="6.64112">
        <ele>192.8</ele>
        <time>2017-10-08T11:25:44Z</time>
      </trkpt>
      <trkpt lat="43.37625" lon="6.64116">
        <ele>192.3</ele>
        <time>2017-10-08T11:25:45Z</time>
      </trkpt>
      <trkpt lat="43.37623" lon="6.64118">
        <ele>191.9</ele>
        <time>2017-10-08T11:25:46Z</time>
      </trkpt>
      <trkpt lat="43.37622" lon="6.64121">
        <ele>191.5</ele>
        <time>2017-10-08T11:25:47Z</time>
      </trkpt>
      <trkpt lat="43.37626" lon="6.64122">
        <ele>190.8</ele>
        <time>2017-10-08T11:25:49Z</time>
      </trkpt>
      <trkpt lat="43.37636" lon="6.64125">
        <ele>188.9</ele>
        <time>2017-10-08T11:25:51Z</time>
      </trkpt>
      <trkpt lat="43.37649" lon="6.64128">
        <ele>186.9</ele>
        <time>2017-10-08T11:25:53Z</time>
      </trkpt>
      <trkpt lat="43.37657" lon="6.64127">
        <ele>186</ele>
        <time>2017-10-08T11:25:54Z</time>
      </trkpt>
      <trkpt lat="43.37667" lon="6.64124">
        <ele>185.1</ele>
        <time>2017-10-08T11:25:55Z</time>
      </trkpt>
      <trkpt lat="43.37685" lon="6.64118">
        <ele>183.5</ele>
        <time>2017-10-08T11:25:57Z</time>
      </trkpt>
      <trkpt lat="43.377" lon="6.64111">
        <ele>182.1</ele>
        <time>2017-10-08T11:25:59Z</time>
      </trkpt>
      <trkpt lat="43.37725" lon="6.64104">
        <ele>180.3</ele>
        <time>2017-10-08T11:26:03Z</time>
      </trkpt>
      <trkpt lat="43.3773" lon="6.64104">
        <ele>180</ele>
        <time>2017-10-08T11:26:04Z</time>
      </trkpt>
      <trkpt lat="43.37745" lon="6.64101">
        <ele>178.6</ele>
        <time>2017-10-08T11:26:07Z</time>
      </trkpt>
      <trkpt lat="43.37762" lon="6.64097">
        <ele>175.8</ele>
        <time>2017-10-08T11:26:10Z</time>
      </trkpt>
      <trkpt lat="43.37774" lon="6.64093">
        <ele>173.6</ele>
        <time>2017-10-08T11:26:12Z</time>
      </trkpt>
      <trkpt lat="43.37788" lon="6.64093">
        <ele>171.1</ele>
        <time>2017-10-08T11:26:14Z</time>
      </trkpt>
      <trkpt lat="43.37801" lon="6.64092">
        <ele>169.1</ele>
        <time>2017-10-08T11:26:16Z</time>
      </trkpt>
      <trkpt lat="43.37813" lon="6.64091">
        <ele>167.3</ele>
        <time>2017-10-08T11:26:18Z</time>
      </trkpt>
      <trkpt lat="43.37825" lon="6.64088">
        <ele>165.8</ele>
        <time>2017-10-08T11:26:20Z</time>
      </trkpt>
      <trkpt lat="43.37831" lon="6.64087">
        <ele>165</ele>
        <time>2017-10-08T11:26:21Z</time>
      </trkpt>
      <trkpt lat="43.37837" lon="6.64086">
        <ele>164.5</ele>
        <time>2017-10-08T11:26:22Z</time>
      </trkpt>
      <trkpt lat="43.37849" lon="6.64082">
        <ele>163.2</ele>
        <time>2017-10-08T11:26:24Z</time>
      </trkpt>
      <trkpt lat="43.37861" lon="6.64077">
        <ele>161.6</ele>
        <time>2017-10-08T11:26:26Z</time>
      </trkpt>
      <trkpt lat="43.37867" lon="6.64075">
        <ele>160.8</ele>
        <time>2017-10-08T11:26:27Z</time>
      </trkpt>
      <trkpt lat="43.37872" lon="6.64076">
        <ele>160.1</ele>
        <time>2017-10-08T11:26:28Z</time>
      </trkpt>
      <trkpt lat="43.37881" lon="6.64079">
        <ele>158.9</ele>
        <time>2017-10-08T11:26:30Z</time>
      </trkpt>
      <trkpt lat="43.37884" lon="6.64081">
        <ele>158.3</ele>
        <time>2017-10-08T11:26:31Z</time>
      </trkpt>
      <trkpt lat="43.37888" lon="6.64083">
        <ele>157.7</ele>
        <time>2017-10-08T11:26:32Z</time>
      </trkpt>
      <trkpt lat="43.37894" lon="6.64086">
        <ele>156.7</ele>
        <time>2017-10-08T11:26:34Z</time>
      </trkpt>
      <trkpt lat="43.379" lon="6.64087">
        <ele>155.7</ele>
        <time>2017-10-08T11:26:36Z</time>
      </trkpt>
      <trkpt lat="43.37907" lon="6.64088">
        <ele>154.6</ele>
        <time>2017-10-08T11:26:38Z</time>
      </trkpt>
      <trkpt lat="43.37915" lon="6.6409">
        <ele>153.3</ele>
        <time>2017-10-08T11:26:40Z</time>
      </trkpt>
      <trkpt lat="43.37924" lon="6.64093">
        <ele>151.7</ele>
        <time>2017-10-08T11:26:42Z</time>
      </trkpt>
      <trkpt lat="43.37928" lon="6.64095">
        <ele>150.8</ele>
        <time>2017-10-08T11:26:43Z</time>
      </trkpt>
      <trkpt lat="43.37932" lon="6.64097">
        <ele>150.1</ele>
        <time>2017-10-08T11:26:44Z</time>
      </trkpt>
      <trkpt lat="43.37938" lon="6.64099">
        <ele>149</ele>
        <time>2017-10-08T11:26:46Z</time>
      </trkpt>
      <trkpt lat="43.37943" lon="6.641">
        <ele>148</ele>
        <time>2017-10-08T11:26:48Z</time>
      </trkpt>
      <trkpt lat="43.37948" lon="6.64102">
        <ele>146.9</ele>
        <time>2017-10-08T11:26:50Z</time>
      </trkpt>
      <trkpt lat="43.37955" lon="6.64103">
        <ele>145.2</ele>
        <time>2017-10-08T11:26:52Z</time>
      </trkpt>
      <trkpt lat="43.37964" lon="6.64108">
        <ele>142.9</ele>
        <time>2017-10-08T11:26:54Z</time>
      </trkpt>
      <trkpt lat="43.37974" lon="6.64115">
        <ele>140.6</ele>
        <time>2017-10-08T11:26:56Z</time>
      </trkpt>
      <trkpt lat="43.37989" lon="6.64126">
        <ele>137.6</ele>
        <time>2017-10-08T11:26:59Z</time>
      </trkpt>
      <trkpt lat="43.38001" lon="6.64133">
        <ele>135.8</ele>
        <time>2017-10-08T11:27:01Z</time>
      </trkpt>
      <trkpt lat="43.38006" lon="6.64136">
        <ele>135</ele>
        <time>2017-10-08T11:27:02Z</time>
      </trkpt>
      <trkpt lat="43.38016" lon="6.64143">
        <ele>134</ele>
        <time>2017-10-08T11:27:04Z</time>
      </trkpt>
      <trkpt lat="43.38031" lon="6.64155">
        <ele>132.9</ele>
        <time>2017-10-08T11:27:07Z</time>
      </trkpt>
      <trkpt lat="43.38035" lon="6.64159">
        <ele>132.5</ele>
        <time>2017-10-08T11:27:08Z</time>
      </trkpt>
      <trkpt lat="43.38045" lon="6.64166">
        <ele>131.5</ele>
        <time>2017-10-08T11:27:10Z</time>
      </trkpt>
      <trkpt lat="43.38053" lon="6.64174">
        <ele>130.2</ele>
        <time>2017-10-08T11:27:12Z</time>
      </trkpt>
      <trkpt lat="43.38061" lon="6.64183">
        <ele>128.7</ele>
        <time>2017-10-08T11:27:14Z</time>
      </trkpt>
      <trkpt lat="43.38064" lon="6.64188">
        <ele>128</ele>
        <time>2017-10-08T11:27:15Z</time>
      </trkpt>
      <trkpt lat="43.38065" lon="6.64192">
        <ele>128</ele>
        <time>2017-10-08T11:27:16Z</time>
      </trkpt>
      <trkpt lat="43.38066" lon="6.64198">
        <ele>128</ele>
        <time>2017-10-08T11:27:18Z</time>
      </trkpt>
      <trkpt lat="43.38067" lon="6.64203">
        <ele>128</ele>
        <time>2017-10-08T11:27:19Z</time>
      </trkpt>
      <trkpt lat="43.38068" lon="6.64208">
        <ele>128</ele>
        <time>2017-10-08T11:27:20Z</time>
      </trkpt>
      <trkpt lat="43.38068" lon="6.64218">
        <ele>127.2</ele>
        <time>2017-10-08T11:27:22Z</time>
      </trkpt>
      <trkpt lat="43.38069" lon="6.64226">
        <ele>126.5</ele>
        <time>2017-10-08T11:27:24Z</time>
      </trkpt>
      <trkpt lat="43.38069" lon="6.64228">
        <ele>126.4</ele>
        <time>2017-10-08T11:27:25Z</time>
      </trkpt>
      <trkpt lat="43.38069" lon="6.64229">
        <ele>126.3</ele>
        <time>2017-10-08T11:27:26Z</time>
      </trkpt>
      <trkpt lat="43.38067" lon="6.64234">
        <ele>125.9</ele>
        <time>2017-10-08T11:27:44Z</time>
      </trkpt>
      <trkpt lat="43.38067" lon="6.64236">
        <ele>125.7</ele>
        <time>2017-10-08T11:27:45Z</time>
      </trkpt>
      <trkpt lat="43.38066" lon="6.6424">
        <ele>125.4</ele>
        <time>2017-10-08T11:27:47Z</time>
      </trkpt>
      <trkpt lat="43.38065" lon="6.64245">
        <ele>125</ele>
        <time>2017-10-08T11:27:49Z</time>
      </trkpt>
      <trkpt lat="43.38063" lon="6.64253">
        <ele>124.4</ele>
        <time>2017-10-08T11:27:52Z</time>
      </trkpt>
      <trkpt lat="43.38063" lon="6.64256">
        <ele>124.2</ele>
        <time>2017-10-08T11:27:53Z</time>
      </trkpt>
      <trkpt lat="43.38063" lon="6.6426">
        <ele>123.9</ele>
        <time>2017-10-08T11:27:55Z</time>
      </trkpt>
      <trkpt lat="43.38064" lon="6.64266">
        <ele>123.6</ele>
        <time>2017-10-08T11:27:59Z</time>
      </trkpt>
      <trkpt lat="43.38065" lon="6.64267">
        <ele>123.5</ele>
        <time>2017-10-08T11:28:00Z</time>
      </trkpt>
      <trkpt lat="43.38069" lon="6.64274">
        <ele>123.2</ele>
        <time>2017-10-08T11:28:03Z</time>
      </trkpt>
      <trkpt lat="43.38072" lon="6.64278">
        <ele>123</ele>
        <time>2017-10-08T11:28:05Z</time>
      </trkpt>
      <trkpt lat="43.38074" lon="6.64279">
        <ele>122.9</ele>
        <time>2017-10-08T11:28:06Z</time>
      </trkpt>
      <trkpt lat="43.38077" lon="6.6428">
        <ele>122.7</ele>
        <time>2017-10-08T11:28:07Z</time>
      </trkpt>
      <trkpt lat="43.3808" lon="6.6428">
        <ele>122.5</ele>
        <time>2017-10-08T11:28:09Z</time>
      </trkpt>
      <trkpt lat="43.38084" lon="6.64281">
        <ele>122.3</ele>
        <time>2017-10-08T11:28:26Z</time>
      </trkpt>
      <trkpt lat="43.38088" lon="6.64282">
        <ele>122.1</ele>
        <time>2017-10-08T11:28:28Z</time>
      </trkpt>
      <trkpt lat="43.38098" lon="6.64283">
        <ele>121.6</ele>
        <time>2017-10-08T11:28:32Z</time>
      </trkpt>
      <trkpt lat="43.38103" lon="6.64281">
        <ele>121.3</ele>
        <time>2017-10-08T11:28:34Z</time>
      </trkpt>
      <trkpt lat="43.38113" lon="6.64271">
        <ele>120.9</ele>
        <time>2017-10-08T11:28:39Z</time>
      </trkpt>
      <trkpt lat="43.38118" lon="6.64265">
        <ele>120.7</ele>
        <time>2017-10-08T11:28:41Z</time>
      </trkpt>
      <trkpt lat="43.38135" lon="6.64263">
        <ele>120.1</ele>
        <time>2017-10-08T11:28:46Z</time>
      </trkpt>
      <trkpt lat="43.38147" lon="6.64264">
        <ele>119.5</ele>
        <time>2017-10-08T11:28:49Z</time>
      </trkpt>
      <trkpt lat="43.38158" lon="6.6426">
        <ele>119</ele>
        <time>2017-10-08T11:28:51Z</time>
      </trkpt>
      <trkpt lat="43.38163" lon="6.64257">
        <ele>118.7</ele>
        <time>2017-10-08T11:28:52Z</time>
      </trkpt>
      <trkpt lat="43.38168" lon="6.64254">
        <ele>118.5</ele>
        <time>2017-10-08T11:28:53Z</time>
      </trkpt>
      <trkpt lat="43.38187" lon="6.64242">
        <ele>117.5</ele>
        <time>2017-10-08T11:28:57Z</time>
      </trkpt>
      <trkpt lat="43.38199" lon="6.64233">
        <ele>116.6</ele>
        <time>2017-10-08T11:29:00Z</time>
      </trkpt>
      <trkpt lat="43.38206" lon="6.64225">
        <ele>115.1</ele>
        <time>2017-10-08T11:29:02Z</time>
      </trkpt>
      <trkpt lat="43.38209" lon="6.6422">
        <ele>114.4</ele>
        <time>2017-10-08T11:29:03Z</time>
      </trkpt>
      <trkpt lat="43.38213" lon="6.64218">
        <ele>113.7</ele>
        <time>2017-10-08T11:29:04Z</time>
      </trkpt>
      <trkpt lat="43.38222" lon="6.64222">
        <ele>112.4</ele>
        <time>2017-10-08T11:29:06Z</time>
      </trkpt>
      <trkpt lat="43.38232" lon="6.64239">
        <ele>110.1</ele>
        <time>2017-10-08T11:29:09Z</time>
      </trkpt>
      <trkpt lat="43.38235" lon="6.64264">
        <ele>107.9</ele>
        <time>2017-10-08T11:29:12Z</time>
      </trkpt>
      <trkpt lat="43.38235" lon="6.64273">
        <ele>107.3</ele>
        <time>2017-10-08T11:29:13Z</time>
      </trkpt>
      <trkpt lat="43.38235" lon="6.64294">
        <ele>106</ele>
        <time>2017-10-08T11:29:16Z</time>
      </trkpt>
      <trkpt lat="43.38232" lon="6.64302">
        <ele>105.3</ele>
        <time>2017-10-08T11:29:17Z</time>
      </trkpt>
      <trkpt lat="43.3823" lon="6.64308">
        <ele>104.7</ele>
        <time>2017-10-08T11:29:18Z</time>
      </trkpt>
      <trkpt lat="43.38224" lon="6.64322">
        <ele>103.5</ele>
        <time>2017-10-08T11:29:20Z</time>
      </trkpt>
      <trkpt lat="43.38219" lon="6.64329">
        <ele>102.8</ele>
        <time>2017-10-08T11:29:21Z</time>
      </trkpt>
      <trkpt lat="43.38213" lon="6.64336">
        <ele>102.2</ele>
        <time>2017-10-08T11:29:22Z</time>
      </trkpt>
      <trkpt lat="43.38206" lon="6.64343">
        <ele>101.8</ele>
        <time>2017-10-08T11:29:23Z</time>
      </trkpt>
      <trkpt lat="43.38192" lon="6.64355">
        <ele>100.7</ele>
        <time>2017-10-08T11:29:25Z</time>
      </trkpt>
      <trkpt lat="43.38184" lon="6.64362">
        <ele>99.7</ele>
        <time>2017-10-08T11:29:26Z</time>
      </trkpt>
      <trkpt lat="43.38175" lon="6.64369">
        <ele>98.8</ele>
        <time>2017-10-08T11:29:27Z</time>
      </trkpt>
      <trkpt lat="43.38154" lon="6.64394">
        <ele>96.1</ele>
        <time>2017-10-08T11:29:30Z</time>
      </trkpt>
      <trkpt lat="43.38147" lon="6.64404">
        <ele>95.4</ele>
        <time>2017-10-08T11:29:31Z</time>
      </trkpt>
      <trkpt lat="43.38135" lon="6.64425">
        <ele>94.9</ele>
        <time>2017-10-08T11:29:33Z</time>
      </trkpt>
      <trkpt lat="43.38123" lon="6.64443">
        <ele>94.1</ele>
        <time>2017-10-08T11:29:35Z</time>
      </trkpt>
      <trkpt lat="43.38118" lon="6.64449">
        <ele>93.8</ele>
        <time>2017-10-08T11:29:36Z</time>
      </trkpt>
      <trkpt lat="43.38114" lon="6.64453">
        <ele>93.6</ele>
        <time>2017-10-08T11:29:37Z</time>
      </trkpt>
      <trkpt lat="43.38107" lon="6.64453">
        <ele>93.2</ele>
        <time>2017-10-08T11:29:38Z</time>
      </trkpt>
      <trkpt lat="43.38101" lon="6.64449">
        <ele>92.9</ele>
        <time>2017-10-08T11:29:39Z</time>
      </trkpt>
      <trkpt lat="43.38082" lon="6.64434">
        <ele>91.7</ele>
        <time>2017-10-08T11:29:42Z</time>
      </trkpt>
      <trkpt lat="43.38076" lon="6.6443">
        <ele>91.2</ele>
        <time>2017-10-08T11:29:43Z</time>
      </trkpt>
      <trkpt lat="43.38069" lon="6.64427">
        <ele>90.5</ele>
        <time>2017-10-08T11:29:44Z</time>
      </trkpt>
      <trkpt lat="43.38055" lon="6.64429">
        <ele>89.2</ele>
        <time>2017-10-08T11:29:46Z</time>
      </trkpt>
      <trkpt lat="43.38031" lon="6.64446">
        <ele>87.7</ele>
        <time>2017-10-08T11:29:50Z</time>
      </trkpt>
      <trkpt lat="43.38013" lon="6.64458">
        <ele>87.5</ele>
        <time>2017-10-08T11:29:53Z</time>
      </trkpt>
      <trkpt lat="43.38007" lon="6.64459">
        <ele>87.5</ele>
        <time>2017-10-08T11:29:54Z</time>
      </trkpt>
      <trkpt lat="43.38" lon="6.64458">
        <ele>87.5</ele>
        <time>2017-10-08T11:29:55Z</time>
      </trkpt>
      <trkpt lat="43.37955" lon="6.64447">
        <ele>86.4</ele>
        <time>2017-10-08T11:30:02Z</time>
      </trkpt>
      <trkpt lat="43.37948" lon="6.64446">
        <ele>85.9</ele>
        <time>2017-10-08T11:30:03Z</time>
      </trkpt>
      <trkpt lat="43.37929" lon="6.64444">
        <ele>85.5</ele>
        <time>2017-10-08T11:30:06Z</time>
      </trkpt>
      <trkpt lat="43.37922" lon="6.64446">
        <ele>86</ele>
        <time>2017-10-08T11:30:07Z</time>
      </trkpt>
      <trkpt lat="43.37915" lon="6.64447">
        <ele>86.7</ele>
        <time>2017-10-08T11:30:08Z</time>
      </trkpt>
      <trkpt lat="43.37871" lon="6.64454">
        <ele>92.3</ele>
        <time>2017-10-08T11:30:15Z</time>
      </trkpt>
      <trkpt lat="43.37854" lon="6.64466">
        <ele>92.2</ele>
        <time>2017-10-08T11:30:19Z</time>
      </trkpt>
      <trkpt lat="43.3785" lon="6.6447">
        <ele>91.9</ele>
        <time>2017-10-08T11:30:20Z</time>
      </trkpt>
      <trkpt lat="43.37825" lon="6.64488">
        <ele>92</ele>
        <time>2017-10-08T11:30:26Z</time>
      </trkpt>
      <trkpt lat="43.37806" lon="6.64501">
        <ele>94.1</ele>
        <time>2017-10-08T11:30:31Z</time>
      </trkpt>
      <trkpt lat="43.37796" lon="6.64508">
        <ele>96.1</ele>
        <time>2017-10-08T11:30:34Z</time>
      </trkpt>
      <trkpt lat="43.37772" lon="6.64516">
        <ele>101.5</ele>
        <time>2017-10-08T11:30:40Z</time>
      </trkpt>
      <trkpt lat="43.37764" lon="6.64521">
        <ele>103.5</ele>
        <time>2017-10-08T11:30:42Z</time>
      </trkpt>
      <trkpt lat="43.37759" lon="6.64528">
        <ele>105.2</ele>
        <time>2017-10-08T11:30:44Z</time>
      </trkpt>
      <trkpt lat="43.37756" lon="6.64535">
        <ele>106.7</ele>
        <time>2017-10-08T11:30:46Z</time>
      </trkpt>
      <trkpt lat="43.37753" lon="6.64541">
        <ele>107.2</ele>
        <time>2017-10-08T11:30:48Z</time>
      </trkpt>
      <trkpt lat="43.37752" lon="6.64544">
        <ele>107.4</ele>
        <time>2017-10-08T11:30:49Z</time>
      </trkpt>
      <trkpt lat="43.37751" lon="6.64548">
        <ele>107.7</ele>
        <time>2017-10-08T11:30:51Z</time>
      </trkpt>
      <trkpt lat="43.37749" lon="6.64556">
        <ele>108.2</ele>
        <time>2017-10-08T11:30:54Z</time>
      </trkpt>
      <trkpt lat="43.37747" lon="6.64559">
        <ele>108.5</ele>
        <time>2017-10-08T11:30:56Z</time>
      </trkpt>
      <trkpt lat="43.37745" lon="6.64562">
        <ele>108.8</ele>
        <time>2017-10-08T11:30:58Z</time>
      </trkpt>
      <trkpt lat="43.37741" lon="6.64568">
        <ele>109.4</ele>
        <time>2017-10-08T11:31:02Z</time>
      </trkpt>
      <trkpt lat="43.37738" lon="6.64571">
        <ele>109.6</ele>
        <time>2017-10-08T11:31:04Z</time>
      </trkpt>
      <trkpt lat="43.37732" lon="6.64578">
        <ele>110.1</ele>
        <time>2017-10-08T11:31:08Z</time>
      </trkpt>
      <trkpt lat="43.37729" lon="6.6458">
        <ele>110.3</ele>
        <time>2017-10-08T11:31:10Z</time>
      </trkpt>
      <trkpt lat="43.37713" lon="6.6459">
        <ele>111.1</ele>
        <time>2017-10-08T11:31:17Z</time>
      </trkpt>
      <trkpt lat="43.37711" lon="6.64591">
        <ele>111.2</ele>
        <time>2017-10-08T11:31:18Z</time>
      </trkpt>
      <trkpt lat="43.37695" lon="6.64596">
        <ele>111.9</ele>
        <time>2017-10-08T11:31:24Z</time>
      </trkpt>
      <trkpt lat="43.37678" lon="6.64596">
        <ele>112.6</ele>
        <time>2017-10-08T11:31:31Z</time>
      </trkpt>
      <trkpt lat="43.37676" lon="6.64596">
        <ele>112.7</ele>
        <time>2017-10-08T11:31:32Z</time>
      </trkpt>
      <trkpt lat="43.37662" lon="6.6459">
        <ele>113.5</ele>
        <time>2017-10-08T11:31:39Z</time>
      </trkpt>
      <trkpt lat="43.37642" lon="6.64578">
        <ele>114.8</ele>
        <time>2017-10-08T11:31:47Z</time>
      </trkpt>
      <trkpt lat="43.37633" lon="6.64576">
        <ele>114.2</ele>
        <time>2017-10-08T11:31:49Z</time>
      </trkpt>
      <trkpt lat="43.3762" lon="6.64575">
        <ele>113</ele>
        <time>2017-10-08T11:31:52Z</time>
      </trkpt>
      <trkpt lat="43.3761" lon="6.64577">
        <ele>112.6</ele>
        <time>2017-10-08T11:31:54Z</time>
      </trkpt>
      <trkpt lat="43.37589" lon="6.64584">
        <ele>111.8</ele>
        <time>2017-10-08T11:31:58Z</time>
      </trkpt>
      <trkpt lat="43.37564" lon="6.64598">
        <ele>110.8</ele>
        <time>2017-10-08T11:32:03Z</time>
      </trkpt>
      <trkpt lat="43.3756" lon="6.64602">
        <ele>110.6</ele>
        <time>2017-10-08T11:32:04Z</time>
      </trkpt>
      <trkpt lat="43.37551" lon="6.6461">
        <ele>110.1</ele>
        <time>2017-10-08T11:32:06Z</time>
      </trkpt>
      <trkpt lat="43.37533" lon="6.64624">
        <ele>108.4</ele>
        <time>2017-10-08T11:32:10Z</time>
      </trkpt>
      <trkpt lat="43.37496" lon="6.64655">
        <ele>107.2</ele>
        <time>2017-10-08T11:32:19Z</time>
      </trkpt>
      <trkpt lat="43.37469" lon="6.64675">
        <ele>108.6</ele>
        <time>2017-10-08T11:32:26Z</time>
      </trkpt>
      <trkpt lat="43.3745" lon="6.64689">
        <ele>109.6</ele>
        <time>2017-10-08T11:32:31Z</time>
      </trkpt>
      <trkpt lat="43.37443" lon="6.64694">
        <ele>109.6</ele>
        <time>2017-10-08T11:32:33Z</time>
      </trkpt>
      <trkpt lat="43.37429" lon="6.64705">
        <ele>109.5</ele>
        <time>2017-10-08T11:32:37Z</time>
      </trkpt>
      <trkpt lat="43.37413" lon="6.64719">
        <ele>109.3</ele>
        <time>2017-10-08T11:32:42Z</time>
      </trkpt>
      <trkpt lat="43.37403" lon="6.64726">
        <ele>109.3</ele>
        <time>2017-10-08T11:32:45Z</time>
      </trkpt>
      <trkpt lat="43.37386" lon="6.64741">
        <ele>109.4</ele>
        <time>2017-10-08T11:32:50Z</time>
      </trkpt>
      <trkpt lat="43.37379" lon="6.64748">
        <ele>109.2</ele>
        <time>2017-10-08T11:32:52Z</time>
      </trkpt>
      <trkpt lat="43.37361" lon="6.64764">
        <ele>107.2</ele>
        <time>2017-10-08T11:32:57Z</time>
      </trkpt>
      <trkpt lat="43.37357" lon="6.64765">
        <ele>106.8</ele>
        <time>2017-10-08T11:32:58Z</time>
      </trkpt>
      <trkpt lat="43.37344" lon="6.64766">
        <ele>105.9</ele>
        <time>2017-10-08T11:33:01Z</time>
      </trkpt>
      <trkpt lat="43.37336" lon="6.64766">
        <ele>105.8</ele>
        <time>2017-10-08T11:33:03Z</time>
      </trkpt>
      <trkpt lat="43.37306" lon="6.64769">
        <ele>106</ele>
        <time>2017-10-08T11:33:11Z</time>
      </trkpt>
      <trkpt lat="43.37277" lon="6.6477">
        <ele>106.3</ele>
        <time>2017-10-08T11:33:17Z</time>
      </trkpt>
      <trkpt lat="43.37264" lon="6.64757">
        <ele>109.1</ele>
        <time>2017-10-08T11:33:21Z</time>
      </trkpt>
      <trkpt lat="43.37246" lon="6.64725">
        <ele>112</ele>
        <time>2017-10-08T11:33:29Z</time>
      </trkpt>
      <trkpt lat="43.37244" lon="6.6472">
        <ele>112.2</ele>
        <time>2017-10-08T11:33:30Z</time>
      </trkpt>
      <trkpt lat="43.37226" lon="6.64692">
        <ele>113.6</ele>
        <time>2017-10-08T11:33:37Z</time>
      </trkpt>
      <trkpt lat="43.3721" lon="6.64693">
        <ele>114.4</ele>
        <time>2017-10-08T11:33:41Z</time>
      </trkpt>
      <trkpt lat="43.37201" lon="6.64696">
        <ele>114.9</ele>
        <time>2017-10-08T11:33:43Z</time>
      </trkpt>
      <trkpt lat="43.37174" lon="6.64705">
        <ele>118.2</ele>
        <time>2017-10-08T11:33:50Z</time>
      </trkpt>
      <trkpt lat="43.3717" lon="6.64708">
        <ele>118.9</ele>
        <time>2017-10-08T11:33:51Z</time>
      </trkpt>
      <trkpt lat="43.37158" lon="6.64715">
        <ele>121</ele>
        <time>2017-10-08T11:33:55Z</time>
      </trkpt>
      <trkpt lat="43.37155" lon="6.64717">
        <ele>121.1</ele>
        <time>2017-10-08T11:33:56Z</time>
      </trkpt>
      <trkpt lat="43.37133" lon="6.64725">
        <ele>121.4</ele>
        <time>2017-10-08T11:34:02Z</time>
      </trkpt>
      <trkpt lat="43.37103" lon="6.64739">
        <ele>122</ele>
        <time>2017-10-08T11:34:10Z</time>
      </trkpt>
      <trkpt lat="43.37089" lon="6.64748">
        <ele>122.6</ele>
        <time>2017-10-08T11:34:14Z</time>
      </trkpt>
      <trkpt lat="43.37073" lon="6.64759">
        <ele>123.1</ele>
        <time>2017-10-08T11:34:19Z</time>
      </trkpt>
      <trkpt lat="43.37052" lon="6.64768">
        <ele>122.7</ele>
        <time>2017-10-08T11:34:25Z</time>
      </trkpt>
      <trkpt lat="43.3704" lon="6.64771">
        <ele>122</ele>
        <time>2017-10-08T11:34:28Z</time>
      </trkpt>
      <trkpt lat="43.37016" lon="6.6477">
        <ele>120.4</ele>
        <time>2017-10-08T11:34:35Z</time>
      </trkpt>
      <trkpt lat="43.37008" lon="6.64769">
        <ele>120</ele>
        <time>2017-10-08T11:34:37Z</time>
      </trkpt>
      <trkpt lat="43.36978" lon="6.64758">
        <ele>119.8</ele>
        <time>2017-10-08T11:34:45Z</time>
      </trkpt>
      <trkpt lat="43.36951" lon="6.64757">
        <ele>120.7</ele>
        <time>2017-10-08T11:34:52Z</time>
      </trkpt>
      <trkpt lat="43.36928" lon="6.64762">
        <ele>123.1</ele>
        <time>2017-10-08T11:34:58Z</time>
      </trkpt>
      <trkpt lat="43.3692" lon="6.64765">
        <ele>123.5</ele>
        <time>2017-10-08T11:35:00Z</time>
      </trkpt>
      <trkpt lat="43.36895" lon="6.64779">
        <ele>124</ele>
        <time>2017-10-08T11:35:07Z</time>
      </trkpt>
      <trkpt lat="43.36888" lon="6.64783">
        <ele>124</ele>
        <time>2017-10-08T11:35:09Z</time>
      </trkpt>
      <trkpt lat="43.36881" lon="6.64793">
        <ele>123.4</ele>
        <time>2017-10-08T11:35:12Z</time>
      </trkpt>
      <trkpt lat="43.36872" lon="6.64811">
        <ele>121.6</ele>
        <time>2017-10-08T11:35:16Z</time>
      </trkpt>
      <trkpt lat="43.3687" lon="6.64816">
        <ele>121.1</ele>
        <time>2017-10-08T11:35:17Z</time>
      </trkpt>
      <trkpt lat="43.36868" lon="6.6484">
        <ele>118.8</ele>
        <time>2017-10-08T11:35:22Z</time>
      </trkpt>
      <trkpt lat="43.36865" lon="6.64848">
        <ele>118.2</ele>
        <time>2017-10-08T11:35:24Z</time>
      </trkpt>
      <trkpt lat="43.36861" lon="6.64857">
        <ele>117.6</ele>
        <time>2017-10-08T11:35:27Z</time>
      </trkpt>
      <trkpt lat="43.36859" lon="6.64858">
        <ele>117.4</ele>
        <time>2017-10-08T11:35:28Z</time>
      </trkpt>
      <trkpt lat="43.36848" lon="6.64863">
        <ele>117.1</ele>
        <time>2017-10-08T11:35:32Z</time>
      </trkpt>
      <trkpt lat="43.36832" lon="6.64864">
        <ele>117.2</ele>
        <time>2017-10-08T11:35:36Z</time>
      </trkpt>
      <trkpt lat="43.36821" lon="6.64868">
        <ele>117.4</ele>
        <time>2017-10-08T11:35:39Z</time>
      </trkpt>
      <trkpt lat="43.36817" lon="6.64869">
        <ele>117.5</ele>
        <time>2017-10-08T11:35:40Z</time>
      </trkpt>
      <trkpt lat="43.36794" lon="6.64874">
        <ele>118.3</ele>
        <time>2017-10-08T11:35:46Z</time>
      </trkpt>
      <trkpt lat="43.36787" lon="6.64875">
        <ele>118.4</ele>
        <time>2017-10-08T11:35:48Z</time>
      </trkpt>
      <trkpt lat="43.36765" lon="6.64876">
        <ele>118.7</ele>
        <time>2017-10-08T11:35:54Z</time>
      </trkpt>
      <trkpt lat="43.36748" lon="6.64876">
        <ele>119.3</ele>
        <time>2017-10-08T11:35:58Z</time>
      </trkpt>
      <trkpt lat="43.36733" lon="6.64878">
        <ele>119.7</ele>
        <time>2017-10-08T11:36:02Z</time>
      </trkpt>
      <trkpt lat="43.36709" lon="6.64887">
        <ele>120.4</ele>
        <time>2017-10-08T11:36:09Z</time>
      </trkpt>
      <trkpt lat="43.36706" lon="6.64888">
        <ele>120.5</ele>
        <time>2017-10-08T11:36:10Z</time>
      </trkpt>
      <trkpt lat="43.36691" lon="6.64895">
        <ele>120.8</ele>
        <time>2017-10-08T11:36:15Z</time>
      </trkpt>
      <trkpt lat="43.36674" lon="6.64903">
        <ele>120.8</ele>
        <time>2017-10-08T11:36:21Z</time>
      </trkpt>
      <trkpt lat="43.36665" lon="6.64908">
        <ele>120.9</ele>
        <time>2017-10-08T11:36:24Z</time>
      </trkpt>
      <trkpt lat="43.36662" lon="6.64909">
        <ele>120.9</ele>
        <time>2017-10-08T11:36:25Z</time>
      </trkpt>
      <trkpt lat="43.36647" lon="6.64916">
        <ele>120.9</ele>
        <time>2017-10-08T11:36:30Z</time>
      </trkpt>
      <trkpt lat="43.36644" lon="6.64918">
        <ele>120.9</ele>
        <time>2017-10-08T11:36:31Z</time>
      </trkpt>
      <trkpt lat="43.36633" lon="6.64924">
        <ele>121</ele>
        <time>2017-10-08T11:36:34Z</time>
      </trkpt>
      <trkpt lat="43.36615" lon="6.64933">
        <ele>121.1</ele>
        <time>2017-10-08T11:36:39Z</time>
      </trkpt>
      <trkpt lat="43.3659" lon="6.6495">
        <ele>122.7</ele>
        <time>2017-10-08T11:36:47Z</time>
      </trkpt>
      <trkpt lat="43.36569" lon="6.6497">
        <ele>128.3</ele>
        <time>2017-10-08T11:36:55Z</time>
      </trkpt>
      <trkpt lat="43.36564" lon="6.64979">
        <ele>129.9</ele>
        <time>2017-10-08T11:36:58Z</time>
      </trkpt>
      <trkpt lat="43.36563" lon="6.64991">
        <ele>130.8</ele>
        <time>2017-10-08T11:37:01Z</time>
      </trkpt>
      <trkpt lat="43.36563" lon="6.65016">
        <ele>132</ele>
        <time>2017-10-08T11:37:06Z</time>
      </trkpt>
      <trkpt lat="43.36563" lon="6.65021">
        <ele>132.3</ele>
        <time>2017-10-08T11:37:07Z</time>
      </trkpt>
      <trkpt lat="43.36568" lon="6.6506">
        <ele>134.3</ele>
        <time>2017-10-08T11:37:15Z</time>
      </trkpt>
      <trkpt lat="43.36571" lon="6.65094">
        <ele>137.2</ele>
        <time>2017-10-08T11:37:22Z</time>
      </trkpt>
      <trkpt lat="43.36581" lon="6.65126">
        <ele>138.5</ele>
        <time>2017-10-08T11:37:29Z</time>
      </trkpt>
      <trkpt lat="43.36586" lon="6.65159">
        <ele>138.7</ele>
        <time>2017-10-08T11:37:36Z</time>
      </trkpt>
      <trkpt lat="43.36588" lon="6.65192">
        <ele>139</ele>
        <time>2017-10-08T11:37:43Z</time>
      </trkpt>
      <trkpt lat="43.36586" lon="6.65225">
        <ele>139.7</ele>
        <time>2017-10-08T11:37:50Z</time>
      </trkpt>
      <trkpt lat="43.36582" lon="6.65267">
        <ele>140.2</ele>
        <time>2017-10-08T11:37:59Z</time>
      </trkpt>
      <trkpt lat="43.36582" lon="6.65301">
        <ele>140.7</ele>
        <time>2017-10-08T11:38:07Z</time>
      </trkpt>
      <trkpt lat="43.36583" lon="6.65304">
        <ele>140.7</ele>
        <time>2017-10-08T11:38:08Z</time>
      </trkpt>
      <trkpt lat="43.36591" lon="6.65323">
        <ele>141.6</ele>
        <time>2017-10-08T11:38:13Z</time>
      </trkpt>
      <trkpt lat="43.36592" lon="6.65327">
        <ele>141.7</ele>
        <time>2017-10-08T11:38:14Z</time>
      </trkpt>
      <trkpt lat="43.36595" lon="6.65349">
        <ele>142.2</ele>
        <time>2017-10-08T11:38:19Z</time>
      </trkpt>
      <trkpt lat="43.36595" lon="6.65378">
        <ele>142.9</ele>
        <time>2017-10-08T11:38:25Z</time>
      </trkpt>
      <trkpt lat="43.36594" lon="6.65383">
        <ele>143.1</ele>
        <time>2017-10-08T11:38:26Z</time>
      </trkpt>
      <trkpt lat="43.36596" lon="6.65406">
        <ele>143.4</ele>
        <time>2017-10-08T11:38:31Z</time>
      </trkpt>
      <trkpt lat="43.36598" lon="6.65443">
        <ele>143.5</ele>
        <time>2017-10-08T11:38:38Z</time>
      </trkpt>
      <trkpt lat="43.36599" lon="6.65448">
        <ele>143.5</ele>
        <time>2017-10-08T11:38:39Z</time>
      </trkpt>
      <trkpt lat="43.36599" lon="6.65454">
        <ele>143.5</ele>
        <time>2017-10-08T11:38:40Z</time>
      </trkpt>
      <trkpt lat="43.366" lon="6.65467">
        <ele>143.6</ele>
        <time>2017-10-08T11:38:43Z</time>
      </trkpt>
      <trkpt lat="43.36605" lon="6.65486">
        <ele>143.8</ele>
        <time>2017-10-08T11:38:49Z</time>
      </trkpt>
      <trkpt lat="43.36608" lon="6.65494">
        <ele>144</ele>
        <time>2017-10-08T11:38:52Z</time>
      </trkpt>
      <trkpt lat="43.36612" lon="6.65507">
        <ele>144.9</ele>
        <time>2017-10-08T11:38:57Z</time>
      </trkpt>
      <trkpt lat="43.36614" lon="6.65515">
        <ele>145.4</ele>
        <time>2017-10-08T11:39:01Z</time>
      </trkpt>
      <trkpt lat="43.36616" lon="6.65522">
        <ele>145.7</ele>
        <time>2017-10-08T11:39:04Z</time>
      </trkpt>
      <trkpt lat="43.36615" lon="6.65529">
        <ele>146.2</ele>
        <time>2017-10-08T11:39:07Z</time>
      </trkpt>
      <trkpt lat="43.36613" lon="6.65542">
        <ele>146.4</ele>
        <time>2017-10-08T11:39:11Z</time>
      </trkpt>
      <trkpt lat="43.3661" lon="6.65565">
        <ele>146.6</ele>
        <time>2017-10-08T11:39:16Z</time>
      </trkpt>
      <trkpt lat="43.36611" lon="6.65583">
        <ele>146.7</ele>
        <time>2017-10-08T11:39:20Z</time>
      </trkpt>
      <trkpt lat="43.36612" lon="6.65593">
        <ele>146.8</ele>
        <time>2017-10-08T11:39:22Z</time>
      </trkpt>
      <trkpt lat="43.36616" lon="6.65604">
        <ele>147.1</ele>
        <time>2017-10-08T11:39:26Z</time>
      </trkpt>
      <trkpt lat="43.3662" lon="6.6561">
        <ele>147.6</ele>
        <time>2017-10-08T11:39:29Z</time>
      </trkpt>
      <trkpt lat="43.36625" lon="6.65618">
        <ele>148.3</ele>
        <time>2017-10-08T11:39:33Z</time>
      </trkpt>
      <trkpt lat="43.36626" lon="6.65621">
        <ele>148.4</ele>
        <time>2017-10-08T11:39:34Z</time>
      </trkpt>
      <trkpt lat="43.36629" lon="6.65628">
        <ele>148.9</ele>
        <time>2017-10-08T11:39:37Z</time>
      </trkpt>
      <trkpt lat="43.36633" lon="6.65642">
        <ele>149.6</ele>
        <time>2017-10-08T11:39:42Z</time>
      </trkpt>
      <trkpt lat="43.36636" lon="6.65655">
        <ele>149.9</ele>
        <time>2017-10-08T11:39:47Z</time>
      </trkpt>
      <trkpt lat="43.36638" lon="6.65662">
        <ele>150</ele>
        <time>2017-10-08T11:39:50Z</time>
      </trkpt>
      <trkpt lat="43.36647" lon="6.65682">
        <ele>151.2</ele>
        <time>2017-10-08T11:39:57Z</time>
      </trkpt>
      <trkpt lat="43.36653" lon="6.65693">
        <ele>151.4</ele>
        <time>2017-10-08T11:40:01Z</time>
      </trkpt>
      <trkpt lat="43.36656" lon="6.65702">
        <ele>151.5</ele>
        <time>2017-10-08T11:40:04Z</time>
      </trkpt>
      <trkpt lat="43.36663" lon="6.65717">
        <ele>151.7</ele>
        <time>2017-10-08T11:40:09Z</time>
      </trkpt>
      <trkpt lat="43.36665" lon="6.6572">
        <ele>151.8</ele>
        <time>2017-10-08T11:40:10Z</time>
      </trkpt>
      <trkpt lat="43.3667" lon="6.65729">
        <ele>152</ele>
        <time>2017-10-08T11:40:14Z</time>
      </trkpt>
      <trkpt lat="43.36676" lon="6.65737">
        <ele>152.5</ele>
        <time>2017-10-08T11:40:17Z</time>
      </trkpt>
      <trkpt lat="43.36681" lon="6.65748">
        <ele>153.1</ele>
        <time>2017-10-08T11:40:21Z</time>
      </trkpt>
      <trkpt lat="43.36682" lon="6.65756">
        <ele>153.5</ele>
        <time>2017-10-08T11:40:24Z</time>
      </trkpt>
      <trkpt lat="43.36683" lon="6.6576">
        <ele>153.8</ele>
        <time>2017-10-08T11:40:25Z</time>
      </trkpt>
      <trkpt lat="43.36682" lon="6.65772">
        <ele>154.5</ele>
        <time>2017-10-08T11:40:29Z</time>
      </trkpt>
      <trkpt lat="43.36679" lon="6.6578">
        <ele>154.8</ele>
        <time>2017-10-08T11:40:32Z</time>
      </trkpt>
      <trkpt lat="43.36678" lon="6.65786">
        <ele>155</ele>
        <time>2017-10-08T11:40:34Z</time>
      </trkpt>
      <trkpt lat="43.3667" lon="6.65799">
        <ele>156.1</ele>
        <time>2017-10-08T11:40:39Z</time>
      </trkpt>
      <trkpt lat="43.36665" lon="6.65806">
        <ele>156.6</ele>
        <time>2017-10-08T11:40:42Z</time>
      </trkpt>
      <trkpt lat="43.36656" lon="6.65817">
        <ele>157.1</ele>
        <time>2017-10-08T11:40:47Z</time>
      </trkpt>
      <trkpt lat="43.36652" lon="6.65834">
        <ele>158</ele>
        <time>2017-10-08T11:40:53Z</time>
      </trkpt>
      <trkpt lat="43.36648" lon="6.65857">
        <ele>158.4</ele>
        <time>2017-10-08T11:41:00Z</time>
      </trkpt>
      <trkpt lat="43.36655" lon="6.65872">
        <ele>158.6</ele>
        <time>2017-10-08T11:41:05Z</time>
      </trkpt>
      <trkpt lat="43.36664" lon="6.65873">
        <ele>158.9</ele>
        <time>2017-10-08T11:41:09Z</time>
      </trkpt>
      <trkpt lat="43.36675" lon="6.65868">
        <ele>159.8</ele>
        <time>2017-10-08T11:41:16Z</time>
      </trkpt>
      <trkpt lat="43.36679" lon="6.65866">
        <ele>160.1</ele>
        <time>2017-10-08T11:41:18Z</time>
      </trkpt>
      <trkpt lat="43.36687" lon="6.65861">
        <ele>160.7</ele>
        <time>2017-10-08T11:41:22Z</time>
      </trkpt>
      <trkpt lat="43.36689" lon="6.6586">
        <ele>160.8</ele>
        <time>2017-10-08T11:41:23Z</time>
      </trkpt>
      <trkpt lat="43.36697" lon="6.65857">
        <ele>161.5</ele>
        <time>2017-10-08T11:41:29Z</time>
      </trkpt>
      <trkpt lat="43.36702" lon="6.65856">
        <ele>161.8</ele>
        <time>2017-10-08T11:41:32Z</time>
      </trkpt>
      <trkpt lat="43.36705" lon="6.65857">
        <ele>161.9</ele>
        <time>2017-10-08T11:41:34Z</time>
      </trkpt>
      <trkpt lat="43.36706" lon="6.65858">
        <ele>161.9</ele>
        <time>2017-10-08T11:41:35Z</time>
      </trkpt>
      <trkpt lat="43.36711" lon="6.65863">
        <ele>162.2</ele>
        <time>2017-10-08T11:41:39Z</time>
      </trkpt>
      <trkpt lat="43.36714" lon="6.65867">
        <ele>162.7</ele>
        <time>2017-10-08T11:41:42Z</time>
      </trkpt>
      <trkpt lat="43.36715" lon="6.65869">
        <ele>162.9</ele>
        <time>2017-10-08T11:41:43Z</time>
      </trkpt>
      <trkpt lat="43.36718" lon="6.65876">
        <ele>163.5</ele>
        <time>2017-10-08T11:41:47Z</time>
      </trkpt>
      <trkpt lat="43.36718" lon="6.65878">
        <ele>163.6</ele>
        <time>2017-10-08T11:41:48Z</time>
      </trkpt>
      <trkpt lat="43.36723" lon="6.65891">
        <ele>164.5</ele>
        <time>2017-10-08T11:41:56Z</time>
      </trkpt>
      <trkpt lat="43.36723" lon="6.65894">
        <ele>164.8</ele>
        <time>2017-10-08T11:41:58Z</time>
      </trkpt>
      <trkpt lat="43.36725" lon="6.65898">
        <ele>165.1</ele>
        <time>2017-10-08T11:42:00Z</time>
      </trkpt>
      <trkpt lat="43.36727" lon="6.65907">
        <ele>165.7</ele>
        <time>2017-10-08T11:42:05Z</time>
      </trkpt>
      <trkpt lat="43.36729" lon="6.6591">
        <ele>166</ele>
        <time>2017-10-08T11:42:07Z</time>
      </trkpt>
      <trkpt lat="43.36731" lon="6.65918">
        <ele>166.8</ele>
        <time>2017-10-08T11:42:12Z</time>
      </trkpt>
      <trkpt lat="43.36735" lon="6.65931">
        <ele>167.3</ele>
        <time>2017-10-08T11:42:20Z</time>
      </trkpt>
      <trkpt lat="43.36735" lon="6.65933">
        <ele>167.3</ele>
        <time>2017-10-08T11:42:21Z</time>
      </trkpt>
      <trkpt lat="43.36737" lon="6.65946">
        <ele>168.3</ele>
        <time>2017-10-08T11:42:28Z</time>
      </trkpt>
      <trkpt lat="43.36738" lon="6.65947">
        <ele>168.4</ele>
        <time>2017-10-08T11:42:29Z</time>
      </trkpt>
      <trkpt lat="43.36739" lon="6.65954">
        <ele>168.8</ele>
        <time>2017-10-08T11:42:33Z</time>
      </trkpt>
      <trkpt lat="43.36741" lon="6.65962">
        <ele>169.3</ele>
        <time>2017-10-08T11:42:37Z</time>
      </trkpt>
      <trkpt lat="43.36741" lon="6.65966">
        <ele>169.8</ele>
        <time>2017-10-08T11:42:39Z</time>
      </trkpt>
      <trkpt lat="43.36745" lon="6.65977">
        <ele>171</ele>
        <time>2017-10-08T11:42:44Z</time>
      </trkpt>
      <trkpt lat="43.36748" lon="6.65989">
        <ele>171.9</ele>
        <time>2017-10-08T11:42:49Z</time>
      </trkpt>
      <trkpt lat="43.36749" lon="6.65993">
        <ele>172</ele>
        <time>2017-10-08T11:42:51Z</time>
      </trkpt>
      <trkpt lat="43.36752" lon="6.66009">
        <ele>172.4</ele>
        <time>2017-10-08T11:42:57Z</time>
      </trkpt>
      <trkpt lat="43.36755" lon="6.66022">
        <ele>172.7</ele>
        <time>2017-10-08T11:43:03Z</time>
      </trkpt>
      <trkpt lat="43.36759" lon="6.66036">
        <ele>173.6</ele>
        <time>2017-10-08T11:43:09Z</time>
      </trkpt>
      <trkpt lat="43.3676" lon="6.66045">
        <ele>174</ele>
        <time>2017-10-08T11:43:14Z</time>
      </trkpt>
      <trkpt lat="43.36761" lon="6.6605">
        <ele>174.2</ele>
        <time>2017-10-08T11:43:16Z</time>
      </trkpt>
      <trkpt lat="43.36759" lon="6.66063">
        <ele>175</ele>
        <time>2017-10-08T11:43:22Z</time>
      </trkpt>
      <trkpt lat="43.36758" lon="6.66067">
        <ele>175.3</ele>
        <time>2017-10-08T11:43:24Z</time>
      </trkpt>
      <trkpt lat="43.36756" lon="6.66085">
        <ele>176.2</ele>
        <time>2017-10-08T11:43:30Z</time>
      </trkpt>
      <trkpt lat="43.36757" lon="6.66093">
        <ele>176.7</ele>
        <time>2017-10-08T11:43:33Z</time>
      </trkpt>
      <trkpt lat="43.36757" lon="6.66109">
        <ele>177.4</ele>
        <time>2017-10-08T11:43:39Z</time>
      </trkpt>
      <trkpt lat="43.36759" lon="6.66119">
        <ele>177.8</ele>
        <time>2017-10-08T11:43:43Z</time>
      </trkpt>
      <trkpt lat="43.36761" lon="6.66129">
        <ele>178.6</ele>
        <time>2017-10-08T11:43:47Z</time>
      </trkpt>
      <trkpt lat="43.3676" lon="6.66131">
        <ele>178.7</ele>
        <time>2017-10-08T11:43:48Z</time>
      </trkpt>
      <trkpt lat="43.36753" lon="6.66141">
        <ele>179.5</ele>
        <time>2017-10-08T11:43:52Z</time>
      </trkpt>
      <trkpt lat="43.36751" lon="6.66144">
        <ele>179.8</ele>
        <time>2017-10-08T11:43:53Z</time>
      </trkpt>
      <trkpt lat="43.36741" lon="6.66159">
        <ele>182.9</ele>
        <time>2017-10-08T11:43:58Z</time>
      </trkpt>
      <trkpt lat="43.3674" lon="6.66163">
        <ele>185.4</ele>
        <time>2017-10-08T11:43:59Z</time>
      </trkpt>
      <trkpt lat="43.3673" lon="6.66181">
        <ele>188</ele>
        <time>2017-10-08T11:44:05Z</time>
      </trkpt>
      <trkpt lat="43.3672" lon="6.66202">
        <ele>188</ele>
        <time>2017-10-08T11:44:13Z</time>
      </trkpt>
      <trkpt lat="43.36719" lon="6.66204">
        <ele>188</ele>
        <time>2017-10-08T11:44:14Z</time>
      </trkpt>
      <trkpt lat="43.36711" lon="6.66218">
        <ele>188</ele>
        <time>2017-10-08T11:44:20Z</time>
      </trkpt>
      <trkpt lat="43.36709" lon="6.66227">
        <ele>188</ele>
        <time>2017-10-08T11:44:24Z</time>
      </trkpt>
      <trkpt lat="43.36711" lon="6.66242">
        <ele>188</ele>
        <time>2017-10-08T11:44:30Z</time>
      </trkpt>
      <trkpt lat="43.36697" lon="6.66255">
        <ele>188.2</ele>
        <time>2017-10-08T11:52:44Z</time>
      </trkpt>
      <trkpt lat="43.36693" lon="6.66274">
        <ele>188.5</ele>
        <time>2017-10-08T11:52:51Z</time>
      </trkpt>
      <trkpt lat="43.36692" lon="6.66281">
        <ele>188.6</ele>
        <time>2017-10-08T11:52:53Z</time>
      </trkpt>
      <trkpt lat="43.36686" lon="6.66293">
        <ele>188.6</ele>
        <time>2017-10-08T11:52:58Z</time>
      </trkpt>
      <trkpt lat="43.36682" lon="6.66296">
        <ele>188.6</ele>
        <time>2017-10-08T11:53:00Z</time>
      </trkpt>
      <trkpt lat="43.36673" lon="6.66304">
        <ele>188.2</ele>
        <time>2017-10-08T11:53:04Z</time>
      </trkpt>
      <trkpt lat="43.36668" lon="6.66326">
        <ele>187.4</ele>
        <time>2017-10-08T11:53:08Z</time>
      </trkpt>
      <trkpt lat="43.36668" lon="6.66333">
        <ele>187.3</ele>
        <time>2017-10-08T11:53:09Z</time>
      </trkpt>
      <trkpt lat="43.36668" lon="6.66362">
        <ele>187.1</ele>
        <time>2017-10-08T11:53:13Z</time>
      </trkpt>
      <trkpt lat="43.36667" lon="6.66382">
        <ele>187</ele>
        <time>2017-10-08T11:53:16Z</time>
      </trkpt>
      <trkpt lat="43.3667" lon="6.66402">
        <ele>187</ele>
        <time>2017-10-08T11:53:20Z</time>
      </trkpt>
      <trkpt lat="43.36675" lon="6.66409">
        <ele>186.5</ele>
        <time>2017-10-08T11:53:29Z</time>
      </trkpt>
      <trkpt lat="43.36674" lon="6.66419">
        <ele>185.4</ele>
        <time>2017-10-08T11:53:46Z</time>
      </trkpt>
      <trkpt lat="43.36674" lon="6.66422">
        <ele>185.1</ele>
        <time>2017-10-08T11:53:47Z</time>
      </trkpt>
      <trkpt lat="43.36675" lon="6.6643">
        <ele>184.2</ele>
        <time>2017-10-08T11:53:50Z</time>
      </trkpt>
      <trkpt lat="43.3668" lon="6.66439">
        <ele>182.9</ele>
        <time>2017-10-08T11:53:54Z</time>
      </trkpt>
      <trkpt lat="43.36681" lon="6.66443">
        <ele>182.2</ele>
        <time>2017-10-08T11:53:56Z</time>
      </trkpt>
      <trkpt lat="43.36682" lon="6.66445">
        <ele>181.9</ele>
        <time>2017-10-08T11:53:57Z</time>
      </trkpt>
      <trkpt lat="43.36681" lon="6.66454">
        <ele>180.2</ele>
        <time>2017-10-08T11:54:00Z</time>
      </trkpt>
      <trkpt lat="43.36684" lon="6.66464">
        <ele>178</ele>
        <time>2017-10-08T11:54:04Z</time>
      </trkpt>
      <trkpt lat="43.36687" lon="6.66474">
        <ele>176.3</ele>
        <time>2017-10-08T11:54:18Z</time>
      </trkpt>
      <trkpt lat="43.36687" lon="6.66476">
        <ele>175.9</ele>
        <time>2017-10-08T11:54:19Z</time>
      </trkpt>
      <trkpt lat="43.36687" lon="6.66479">
        <ele>175.5</ele>
        <time>2017-10-08T11:54:20Z</time>
      </trkpt>
      <trkpt lat="43.36688" lon="6.66494">
        <ele>173.4</ele>
        <time>2017-10-08T11:54:24Z</time>
      </trkpt>
      <trkpt lat="43.36688" lon="6.66503">
        <ele>172.2</ele>
        <time>2017-10-08T11:54:27Z</time>
      </trkpt>
      <trkpt lat="43.36688" lon="6.66506">
        <ele>171.8</ele>
        <time>2017-10-08T11:54:28Z</time>
      </trkpt>
      <trkpt lat="43.3669" lon="6.66515">
        <ele>170.6</ele>
        <time>2017-10-08T11:54:31Z</time>
      </trkpt>
      <trkpt lat="43.36691" lon="6.66523">
        <ele>169.7</ele>
        <time>2017-10-08T11:54:33Z</time>
      </trkpt>
      <trkpt lat="43.36693" lon="6.66531">
        <ele>168.7</ele>
        <time>2017-10-08T11:54:35Z</time>
      </trkpt>
      <trkpt lat="43.36695" lon="6.66539">
        <ele>167.8</ele>
        <time>2017-10-08T11:54:37Z</time>
      </trkpt>
      <trkpt lat="43.36697" lon="6.66555">
        <ele>166.3</ele>
        <time>2017-10-08T11:54:40Z</time>
      </trkpt>
      <trkpt lat="43.367" lon="6.66567">
        <ele>165.1</ele>
        <time>2017-10-08T11:54:42Z</time>
      </trkpt>
      <trkpt lat="43.36703" lon="6.66581">
        <ele>163.5</ele>
        <time>2017-10-08T11:54:44Z</time>
      </trkpt>
      <trkpt lat="43.36705" lon="6.66594">
        <ele>162.2</ele>
        <time>2017-10-08T11:54:46Z</time>
      </trkpt>
      <trkpt lat="43.36707" lon="6.666">
        <ele>161.6</ele>
        <time>2017-10-08T11:54:47Z</time>
      </trkpt>
      <trkpt lat="43.3671" lon="6.66608">
        <ele>160.4</ele>
        <time>2017-10-08T11:54:49Z</time>
      </trkpt>
      <trkpt lat="43.36715" lon="6.6662">
        <ele>158.5</ele>
        <time>2017-10-08T11:54:52Z</time>
      </trkpt>
      <trkpt lat="43.36719" lon="6.66631">
        <ele>156.5</ele>
        <time>2017-10-08T11:54:55Z</time>
      </trkpt>
      <trkpt lat="43.36721" lon="6.66638">
        <ele>155.2</ele>
        <time>2017-10-08T11:54:57Z</time>
      </trkpt>
      <trkpt lat="43.36722" lon="6.66644">
        <ele>154</ele>
        <time>2017-10-08T11:54:59Z</time>
      </trkpt>
      <trkpt lat="43.36723" lon="6.66647">
        <ele>153.5</ele>
        <time>2017-10-08T11:55:00Z</time>
      </trkpt>
      <trkpt lat="43.36724" lon="6.66658">
        <ele>151.9</ele>
        <time>2017-10-08T11:55:03Z</time>
      </trkpt>
      <trkpt lat="43.36726" lon="6.66669">
        <ele>150.3</ele>
        <time>2017-10-08T11:55:06Z</time>
      </trkpt>
      <trkpt lat="43.36727" lon="6.66674">
        <ele>149.7</ele>
        <time>2017-10-08T11:55:07Z</time>
      </trkpt>
      <trkpt lat="43.36728" lon="6.6668">
        <ele>149.1</ele>
        <time>2017-10-08T11:55:08Z</time>
      </trkpt>
      <trkpt lat="43.36729" lon="6.66692">
        <ele>147.9</ele>
        <time>2017-10-08T11:55:10Z</time>
      </trkpt>
      <trkpt lat="43.3673" lon="6.66705">
        <ele>146.6</ele>
        <time>2017-10-08T11:55:12Z</time>
      </trkpt>
      <trkpt lat="43.3673" lon="6.66719">
        <ele>145.5</ele>
        <time>2017-10-08T11:55:14Z</time>
      </trkpt>
      <trkpt lat="43.36729" lon="6.66732">
        <ele>144.6</ele>
        <time>2017-10-08T11:55:16Z</time>
      </trkpt>
      <trkpt lat="43.36728" lon="6.66744">
        <ele>143.9</ele>
        <time>2017-10-08T11:55:18Z</time>
      </trkpt>
      <trkpt lat="43.36727" lon="6.66756">
        <ele>143.2</ele>
        <time>2017-10-08T11:55:20Z</time>
      </trkpt>
      <trkpt lat="43.36727" lon="6.66763">
        <ele>142.8</ele>
        <time>2017-10-08T11:55:21Z</time>
      </trkpt>
      <trkpt lat="43.36727" lon="6.66769">
        <ele>142.5</ele>
        <time>2017-10-08T11:55:22Z</time>
      </trkpt>
      <trkpt lat="43.36726" lon="6.66791">
        <ele>141.9</ele>
        <time>2017-10-08T11:55:25Z</time>
      </trkpt>
      <trkpt lat="43.36725" lon="6.66805">
        <ele>141.6</ele>
        <time>2017-10-08T11:55:27Z</time>
      </trkpt>
      <trkpt lat="43.36726" lon="6.66812">
        <ele>141.5</ele>
        <time>2017-10-08T11:55:28Z</time>
      </trkpt>
      <trkpt lat="43.36728" lon="6.66824">
        <ele>140.7</ele>
        <time>2017-10-08T11:55:30Z</time>
      </trkpt>
      <trkpt lat="43.36729" lon="6.66837">
        <ele>139.6</ele>
        <time>2017-10-08T11:55:32Z</time>
      </trkpt>
      <trkpt lat="43.3673" lon="6.66844">
        <ele>138.9</ele>
        <time>2017-10-08T11:55:33Z</time>
      </trkpt>
      <trkpt lat="43.3673" lon="6.6685">
        <ele>138.2</ele>
        <time>2017-10-08T11:55:34Z</time>
      </trkpt>
      <trkpt lat="43.36727" lon="6.66864">
        <ele>136.8</ele>
        <time>2017-10-08T11:55:36Z</time>
      </trkpt>
      <trkpt lat="43.36725" lon="6.6687">
        <ele>135.9</ele>
        <time>2017-10-08T11:55:37Z</time>
      </trkpt>
      <trkpt lat="43.36718" lon="6.66881">
        <ele>134.3</ele>
        <time>2017-10-08T11:55:39Z</time>
      </trkpt>
      <trkpt lat="43.36715" lon="6.66885">
        <ele>133.7</ele>
        <time>2017-10-08T11:55:40Z</time>
      </trkpt>
      <trkpt lat="43.36711" lon="6.66885">
        <ele>133.1</ele>
        <time>2017-10-08T11:55:41Z</time>
      </trkpt>
      <trkpt lat="43.36704" lon="6.66883">
        <ele>133.5</ele>
        <time>2017-10-08T11:55:43Z</time>
      </trkpt>
      <trkpt lat="43.367" lon="6.66882">
        <ele>133.8</ele>
        <time>2017-10-08T11:55:45Z</time>
      </trkpt>
      <trkpt lat="43.36698" lon="6.66881">
        <ele>133.9</ele>
        <time>2017-10-08T11:55:46Z</time>
      </trkpt>
      <trkpt lat="43.36696" lon="6.6688">
        <ele>134.2</ele>
        <time>2017-10-08T11:55:49Z</time>
      </trkpt>
      <trkpt lat="43.36695" lon="6.66879">
        <ele>134.3</ele>
        <time>2017-10-08T11:55:51Z</time>
      </trkpt>
      <trkpt lat="43.36704" lon="6.66903">
        <ele>132.7</ele>
        <time>2017-10-08T11:56:27Z</time>
      </trkpt>
      <trkpt lat="43.36706" lon="6.6691">
        <ele>132.7</ele>
        <time>2017-10-08T11:56:30Z</time>
      </trkpt>
      <trkpt lat="43.36708" lon="6.6692">
        <ele>133</ele>
        <time>2017-10-08T11:56:34Z</time>
      </trkpt>
      <trkpt lat="43.3671" lon="6.66936">
        <ele>134.2</ele>
        <time>2017-10-08T11:56:41Z</time>
      </trkpt>
      <trkpt lat="43.3671" lon="6.66938">
        <ele>134.5</ele>
        <time>2017-10-08T11:56:42Z</time>
      </trkpt>
      <trkpt lat="43.36711" lon="6.66958">
        <ele>135.9</ele>
        <time>2017-10-08T11:56:51Z</time>
      </trkpt>
      <trkpt lat="43.36711" lon="6.6696">
        <ele>136.1</ele>
        <time>2017-10-08T11:56:52Z</time>
      </trkpt>
      <trkpt lat="43.36712" lon="6.66975">
        <ele>137.6</ele>
        <time>2017-10-08T11:56:58Z</time>
      </trkpt>
      <trkpt lat="43.36711" lon="6.66984">
        <ele>137.9</ele>
        <time>2017-10-08T11:57:01Z</time>
      </trkpt>
      <trkpt lat="43.36709" lon="6.66995">
        <ele>138.2</ele>
        <time>2017-10-08T11:57:05Z</time>
      </trkpt>
      <trkpt lat="43.36705" lon="6.67011">
        <ele>139</ele>
        <time>2017-10-08T11:57:11Z</time>
      </trkpt>
      <trkpt lat="43.367" lon="6.67037">
        <ele>140.3</ele>
        <time>2017-10-08T11:57:18Z</time>
      </trkpt>
      <trkpt lat="43.36689" lon="6.67072">
        <ele>140.6</ele>
        <time>2017-10-08T11:57:24Z</time>
      </trkpt>
      <trkpt lat="43.36683" lon="6.67107">
        <ele>140.4</ele>
        <time>2017-10-08T11:57:30Z</time>
      </trkpt>
      <trkpt lat="43.36684" lon="6.67114">
        <ele>140.4</ele>
        <time>2017-10-08T11:57:31Z</time>
      </trkpt>
      <trkpt lat="43.36686" lon="6.67128">
        <ele>140.2</ele>
        <time>2017-10-08T11:57:33Z</time>
      </trkpt>
      <trkpt lat="43.3669" lon="6.67153">
        <ele>139.5</ele>
        <time>2017-10-08T11:57:36Z</time>
      </trkpt>
      <trkpt lat="43.3669" lon="6.67202">
        <ele>137.6</ele>
        <time>2017-10-08T11:57:41Z</time>
      </trkpt>
      <trkpt lat="43.36686" lon="6.67226">
        <ele>135.7</ele>
        <time>2017-10-08T11:57:44Z</time>
      </trkpt>
      <trkpt lat="43.36682" lon="6.67233">
        <ele>134.9</ele>
        <time>2017-10-08T11:57:45Z</time>
      </trkpt>
      <trkpt lat="43.36676" lon="6.67245">
        <ele>133.5</ele>
        <time>2017-10-08T11:57:47Z</time>
      </trkpt>
      <trkpt lat="43.3667" lon="6.6725">
        <ele>132.7</ele>
        <time>2017-10-08T11:57:49Z</time>
      </trkpt>
      <trkpt lat="43.36664" lon="6.67254">
        <ele>132.2</ele>
        <time>2017-10-08T11:57:51Z</time>
      </trkpt>
      <trkpt lat="43.36662" lon="6.67258">
        <ele>132</ele>
        <time>2017-10-08T11:57:52Z</time>
      </trkpt>
      <trkpt lat="43.36659" lon="6.67264">
        <ele>131.8</ele>
        <time>2017-10-08T11:57:53Z</time>
      </trkpt>
      <trkpt lat="43.36658" lon="6.6727">
        <ele>131.6</ele>
        <time>2017-10-08T11:57:54Z</time>
      </trkpt>
      <trkpt lat="43.36658" lon="6.67277">
        <ele>131.3</ele>
        <time>2017-10-08T11:57:55Z</time>
      </trkpt>
      <trkpt lat="43.36657" lon="6.67298">
        <ele>130.3</ele>
        <time>2017-10-08T11:57:58Z</time>
      </trkpt>
      <trkpt lat="43.36656" lon="6.67305">
        <ele>129.7</ele>
        <time>2017-10-08T11:57:59Z</time>
      </trkpt>
      <trkpt lat="43.36654" lon="6.67319">
        <ele>129.1</ele>
        <time>2017-10-08T11:58:01Z</time>
      </trkpt>
      <trkpt lat="43.36654" lon="6.67325">
        <ele>128.9</ele>
        <time>2017-10-08T11:58:02Z</time>
      </trkpt>
      <trkpt lat="43.36655" lon="6.67329">
        <ele>128.8</ele>
        <time>2017-10-08T11:58:03Z</time>
      </trkpt>
      <trkpt lat="43.36666" lon="6.6734">
        <ele>128.4</ele>
        <time>2017-10-08T11:58:07Z</time>
      </trkpt>
      <trkpt lat="43.36669" lon="6.67341">
        <ele>128.4</ele>
        <time>2017-10-08T11:58:08Z</time>
      </trkpt>
      <trkpt lat="43.36678" lon="6.67342">
        <ele>128.2</ele>
        <time>2017-10-08T11:58:10Z</time>
      </trkpt>
      <trkpt lat="43.36692" lon="6.67345">
        <ele>128.2</ele>
        <time>2017-10-08T11:58:14Z</time>
      </trkpt>
      <trkpt lat="43.36703" lon="6.67357">
        <ele>128.2</ele>
        <time>2017-10-08T11:58:20Z</time>
      </trkpt>
      <trkpt lat="43.36705" lon="6.67363">
        <ele>128.1</ele>
        <time>2017-10-08T11:58:22Z</time>
      </trkpt>
      <trkpt lat="43.36708" lon="6.67387">
        <ele>128.1</ele>
        <time>2017-10-08T11:58:29Z</time>
      </trkpt>
      <trkpt lat="43.36708" lon="6.67403">
        <ele>128.1</ele>
        <time>2017-10-08T11:58:34Z</time>
      </trkpt>
      <trkpt lat="43.36708" lon="6.6742">
        <ele>128</ele>
        <time>2017-10-08T11:58:40Z</time>
      </trkpt>
      <trkpt lat="43.36709" lon="6.67424">
        <ele>128</ele>
        <time>2017-10-08T11:58:41Z</time>
      </trkpt>
      <trkpt lat="43.36719" lon="6.6745">
        <ele>127.8</ele>
        <time>2017-10-08T11:58:47Z</time>
      </trkpt>
      <trkpt lat="43.36729" lon="6.67487">
        <ele>127.5</ele>
        <time>2017-10-08T11:58:55Z</time>
      </trkpt>
      <trkpt lat="43.36742" lon="6.67516">
        <ele>127.3</ele>
        <time>2017-10-08T11:59:02Z</time>
      </trkpt>
      <trkpt lat="43.36754" lon="6.67544">
        <ele>127</ele>
        <time>2017-10-08T11:59:09Z</time>
      </trkpt>
      <trkpt lat="43.36759" lon="6.67567">
        <ele>126.6</ele>
        <time>2017-10-08T11:59:15Z</time>
      </trkpt>
      <trkpt lat="43.36762" lon="6.67576">
        <ele>126.5</ele>
        <time>2017-10-08T11:59:17Z</time>
      </trkpt>
      <trkpt lat="43.36767" lon="6.67591">
        <ele>126.2</ele>
        <time>2017-10-08T11:59:21Z</time>
      </trkpt>
      <trkpt lat="43.36764" lon="6.67614">
        <ele>126</ele>
        <time>2017-10-08T11:59:28Z</time>
      </trkpt>
      <trkpt lat="43.36761" lon="6.67629">
        <ele>125.9</ele>
        <time>2017-10-08T11:59:34Z</time>
      </trkpt>
      <trkpt lat="43.36754" lon="6.67645">
        <ele>125.9</ele>
        <time>2017-10-08T11:59:41Z</time>
      </trkpt>
      <trkpt lat="43.36751" lon="6.6766">
        <ele>126</ele>
        <time>2017-10-08T11:59:47Z</time>
      </trkpt>
      <trkpt lat="43.36748" lon="6.6768">
        <ele>126</ele>
        <time>2017-10-08T11:59:54Z</time>
      </trkpt>
      <trkpt lat="43.36747" lon="6.67685">
        <ele>137</ele>
        <time>2017-10-08T11:59:56Z</time>
      </trkpt>
      <trkpt lat="43.36745" lon="6.67699">
        <ele>137.7</ele>
        <time>2017-10-08T12:00:00Z</time>
      </trkpt>
      <trkpt lat="43.36748" lon="6.6771">
        <ele>138</ele>
        <time>2017-10-08T12:00:04Z</time>
      </trkpt>
      <trkpt lat="43.36748" lon="6.67713">
        <ele>138.1</ele>
        <time>2017-10-08T12:00:05Z</time>
      </trkpt>
      <trkpt lat="43.36748" lon="6.67719">
        <ele>138.2</ele>
        <time>2017-10-08T12:00:07Z</time>
      </trkpt>
      <trkpt lat="43.36748" lon="6.67734">
        <ele>138.8</ele>
        <time>2017-10-08T12:00:13Z</time>
      </trkpt>
      <trkpt lat="43.36749" lon="6.67738">
        <ele>139.1</ele>
        <time>2017-10-08T12:00:15Z</time>
      </trkpt>
      <trkpt lat="43.3675" lon="6.67745">
        <ele>139.6</ele>
        <time>2017-10-08T12:00:18Z</time>
      </trkpt>
      <trkpt lat="43.36751" lon="6.67751">
        <ele>140.1</ele>
        <time>2017-10-08T12:00:21Z</time>
      </trkpt>
      <trkpt lat="43.36753" lon="6.67757">
        <ele>140.6</ele>
        <time>2017-10-08T12:00:24Z</time>
      </trkpt>
      <trkpt lat="43.36754" lon="6.67763">
        <ele>140.9</ele>
        <time>2017-10-08T12:00:27Z</time>
      </trkpt>
      <trkpt lat="43.36755" lon="6.67767">
        <ele>141.1</ele>
        <time>2017-10-08T12:00:29Z</time>
      </trkpt>
      <trkpt lat="43.36756" lon="6.6777">
        <ele>141.2</ele>
        <time>2017-10-08T12:00:30Z</time>
      </trkpt>
      <trkpt lat="43.36757" lon="6.67776">
        <ele>141.8</ele>
        <time>2017-10-08T12:00:33Z</time>
      </trkpt>
      <trkpt lat="43.36759" lon="6.67783">
        <ele>142.4</ele>
        <time>2017-10-08T12:00:36Z</time>
      </trkpt>
      <trkpt lat="43.36761" lon="6.6779">
        <ele>142.8</ele>
        <time>2017-10-08T12:00:39Z</time>
      </trkpt>
      <trkpt lat="43.36761" lon="6.67792">
        <ele>143</ele>
        <time>2017-10-08T12:00:40Z</time>
      </trkpt>
      <trkpt lat="43.36762" lon="6.67794">
        <ele>143.3</ele>
        <time>2017-10-08T12:00:41Z</time>
      </trkpt>
      <trkpt lat="43.36763" lon="6.67799">
        <ele>143.8</ele>
        <time>2017-10-08T12:00:43Z</time>
      </trkpt>
      <trkpt lat="43.36764" lon="6.67804">
        <ele>144.1</ele>
        <time>2017-10-08T12:00:45Z</time>
      </trkpt>
      <trkpt lat="43.36764" lon="6.67808">
        <ele>144.3</ele>
        <time>2017-10-08T12:00:47Z</time>
      </trkpt>
      <trkpt lat="43.36764" lon="6.6781">
        <ele>144.4</ele>
        <time>2017-10-08T12:00:48Z</time>
      </trkpt>
      <trkpt lat="43.36766" lon="6.67817">
        <ele>145.2</ele>
        <time>2017-10-08T12:00:51Z</time>
      </trkpt>
      <trkpt lat="43.36766" lon="6.67827">
        <ele>145.7</ele>
        <time>2017-10-08T12:00:55Z</time>
      </trkpt>
      <trkpt lat="43.36766" lon="6.67829">
        <ele>145.9</ele>
        <time>2017-10-08T12:00:56Z</time>
      </trkpt>
      <trkpt lat="43.36767" lon="6.67837">
        <ele>146.7</ele>
        <time>2017-10-08T12:01:00Z</time>
      </trkpt>
      <trkpt lat="43.36767" lon="6.67843">
        <ele>147</ele>
        <time>2017-10-08T12:01:03Z</time>
      </trkpt>
      <trkpt lat="43.36767" lon="6.67845">
        <ele>147.1</ele>
        <time>2017-10-08T12:01:04Z</time>
      </trkpt>
      <trkpt lat="43.36767" lon="6.67849">
        <ele>147.5</ele>
        <time>2017-10-08T12:01:06Z</time>
      </trkpt>
      <trkpt lat="43.36766" lon="6.67856">
        <ele>148.2</ele>
        <time>2017-10-08T12:01:10Z</time>
      </trkpt>
      <trkpt lat="43.36765" lon="6.67858">
        <ele>148.4</ele>
        <time>2017-10-08T12:01:11Z</time>
      </trkpt>
      <trkpt lat="43.36764" lon="6.67861">
        <ele>148.7</ele>
        <time>2017-10-08T12:01:13Z</time>
      </trkpt>
      <trkpt lat="43.36763" lon="6.67867">
        <ele>149.3</ele>
        <time>2017-10-08T12:01:16Z</time>
      </trkpt>
      <trkpt lat="43.36763" lon="6.67871">
        <ele>149.7</ele>
        <time>2017-10-08T12:01:18Z</time>
      </trkpt>
      <trkpt lat="43.36763" lon="6.67876">
        <ele>150.2</ele>
        <time>2017-10-08T12:01:21Z</time>
      </trkpt>
      <trkpt lat="43.36763" lon="6.67883">
        <ele>150.8</ele>
        <time>2017-10-08T12:01:25Z</time>
      </trkpt>
      <trkpt lat="43.36763" lon="6.67889">
        <ele>151.6</ele>
        <time>2017-10-08T12:01:28Z</time>
      </trkpt>
      <trkpt lat="43.36764" lon="6.679">
        <ele>152.7</ele>
        <time>2017-10-08T12:01:35Z</time>
      </trkpt>
      <trkpt lat="43.36765" lon="6.67902">
        <ele>152.9</ele>
        <time>2017-10-08T12:01:36Z</time>
      </trkpt>
      <trkpt lat="43.36768" lon="6.67909">
        <ele>153.6</ele>
        <time>2017-10-08T12:01:40Z</time>
      </trkpt>
      <trkpt lat="43.36769" lon="6.67918">
        <ele>154.5</ele>
        <time>2017-10-08T12:01:45Z</time>
      </trkpt>
      <trkpt lat="43.3677" lon="6.67922">
        <ele>154.9</ele>
        <time>2017-10-08T12:01:47Z</time>
      </trkpt>
      <trkpt lat="43.36772" lon="6.67931">
        <ele>155.6</ele>
        <time>2017-10-08T12:01:51Z</time>
      </trkpt>
      <trkpt lat="43.36772" lon="6.67935">
        <ele>156</ele>
        <time>2017-10-08T12:01:53Z</time>
      </trkpt>
      <trkpt lat="43.36772" lon="6.67941">
        <ele>156.4</ele>
        <time>2017-10-08T12:01:56Z</time>
      </trkpt>
      <trkpt lat="43.36768" lon="6.67948">
        <ele>156.9</ele>
        <time>2017-10-08T12:02:00Z</time>
      </trkpt>
      <trkpt lat="43.36766" lon="6.67951">
        <ele>157</ele>
        <time>2017-10-08T12:02:02Z</time>
      </trkpt>
      <trkpt lat="43.36762" lon="6.67959">
        <ele>157.1</ele>
        <time>2017-10-08T12:02:06Z</time>
      </trkpt>
      <trkpt lat="43.36761" lon="6.67962">
        <ele>157.1</ele>
        <time>2017-10-08T12:02:07Z</time>
      </trkpt>
      <trkpt lat="43.36753" lon="6.67984">
        <ele>157.4</ele>
        <time>2017-10-08T12:02:15Z</time>
      </trkpt>
      <trkpt lat="43.36741" lon="6.67998">
        <ele>157.5</ele>
        <time>2017-10-08T12:02:21Z</time>
      </trkpt>
      <trkpt lat="43.36721" lon="6.68">
        <ele>157.6</ele>
        <time>2017-10-08T12:02:27Z</time>
      </trkpt>
      <trkpt lat="43.367" lon="6.68011">
        <ele>157.8</ele>
        <time>2017-10-08T12:02:34Z</time>
      </trkpt>
      <trkpt lat="43.36696" lon="6.68028">
        <ele>158.1</ele>
        <time>2017-10-08T12:02:38Z</time>
      </trkpt>
      <trkpt lat="43.36696" lon="6.68048">
        <ele>158.9</ele>
        <time>2017-10-08T12:02:42Z</time>
      </trkpt>
      <trkpt lat="43.36699" lon="6.68062">
        <ele>159.8</ele>
        <time>2017-10-08T12:02:45Z</time>
      </trkpt>
      <trkpt lat="43.36709" lon="6.68082">
        <ele>160.6</ele>
        <time>2017-10-08T12:02:50Z</time>
      </trkpt>
      <trkpt lat="43.36711" lon="6.68086">
        <ele>160.6</ele>
        <time>2017-10-08T12:02:51Z</time>
      </trkpt>
      <trkpt lat="43.36721" lon="6.68113">
        <ele>161</ele>
        <time>2017-10-08T12:02:57Z</time>
      </trkpt>
      <trkpt lat="43.36722" lon="6.68128">
        <ele>161.5</ele>
        <time>2017-10-08T12:03:00Z</time>
      </trkpt>
      <trkpt lat="43.36721" lon="6.6814">
        <ele>162</ele>
        <time>2017-10-08T12:03:02Z</time>
      </trkpt>
      <trkpt lat="43.36711" lon="6.68173">
        <ele>163.2</ele>
        <time>2017-10-08T12:03:08Z</time>
      </trkpt>
      <trkpt lat="43.36696" lon="6.68198">
        <ele>163.3</ele>
        <time>2017-10-08T12:03:13Z</time>
      </trkpt>
      <trkpt lat="43.36693" lon="6.68201">
        <ele>163.4</ele>
        <time>2017-10-08T12:03:14Z</time>
      </trkpt>
      <trkpt lat="43.3667" lon="6.68224">
        <ele>163.5</ele>
        <time>2017-10-08T12:03:20Z</time>
      </trkpt>
      <trkpt lat="43.36667" lon="6.68228">
        <ele>163.5</ele>
        <time>2017-10-08T12:03:21Z</time>
      </trkpt>
      <trkpt lat="43.36647" lon="6.68243">
        <ele>163.5</ele>
        <time>2017-10-08T12:03:26Z</time>
      </trkpt>
      <trkpt lat="43.36638" lon="6.68244">
        <ele>163.6</ele>
        <time>2017-10-08T12:03:28Z</time>
      </trkpt>
      <trkpt lat="43.36619" lon="6.68233">
        <ele>163.6</ele>
        <time>2017-10-08T12:03:32Z</time>
      </trkpt>
      <trkpt lat="43.36614" lon="6.68229">
        <ele>163.6</ele>
        <time>2017-10-08T12:03:33Z</time>
      </trkpt>
      <trkpt lat="43.36582" lon="6.68208">
        <ele>163.7</ele>
        <time>2017-10-08T12:03:40Z</time>
      </trkpt>
      <trkpt lat="43.36552" lon="6.68185">
        <ele>163.8</ele>
        <time>2017-10-08T12:03:47Z</time>
      </trkpt>
      <trkpt lat="43.36546" lon="6.68176">
        <ele>163.8</ele>
        <time>2017-10-08T12:03:49Z</time>
      </trkpt>
      <trkpt lat="43.3654" lon="6.6816">
        <ele>163.8</ele>
        <time>2017-10-08T12:03:52Z</time>
      </trkpt>
      <trkpt lat="43.36533" lon="6.68144">
        <ele>163.9</ele>
        <time>2017-10-08T12:03:55Z</time>
      </trkpt>
      <trkpt lat="43.36521" lon="6.68134">
        <ele>163.9</ele>
        <time>2017-10-08T12:03:58Z</time>
      </trkpt>
      <trkpt lat="43.36502" lon="6.68129">
        <ele>164</ele>
        <time>2017-10-08T12:04:02Z</time>
      </trkpt>
      <trkpt lat="43.36486" lon="6.68125">
        <ele>164</ele>
        <time>2017-10-08T12:04:05Z</time>
      </trkpt>
      <trkpt lat="43.36471" lon="6.68118">
        <ele>164.1</ele>
        <time>2017-10-08T12:04:08Z</time>
      </trkpt>
      <trkpt lat="43.36466" lon="6.68116">
        <ele>164.1</ele>
        <time>2017-10-08T12:04:09Z</time>
      </trkpt>
      <trkpt lat="43.36461" lon="6.68114">
        <ele>164.1</ele>
        <time>2017-10-08T12:04:10Z</time>
      </trkpt>
      <trkpt lat="43.36446" lon="6.6812">
        <ele>164.1</ele>
        <time>2017-10-08T12:04:13Z</time>
      </trkpt>
      <trkpt lat="43.36442" lon="6.68125">
        <ele>164.2</ele>
        <time>2017-10-08T12:04:14Z</time>
      </trkpt>
      <trkpt lat="43.36439" lon="6.68138">
        <ele>164.2</ele>
        <time>2017-10-08T12:04:16Z</time>
      </trkpt>
      <trkpt lat="43.36438" lon="6.68159">
        <ele>164.3</ele>
        <time>2017-10-08T12:04:19Z</time>
      </trkpt>
      <trkpt lat="43.36438" lon="6.68165">
        <ele>164.3</ele>
        <time>2017-10-08T12:04:20Z</time>
      </trkpt>
      <trkpt lat="43.36438" lon="6.68172">
        <ele>164.3</ele>
        <time>2017-10-08T12:04:21Z</time>
      </trkpt>
      <trkpt lat="43.36442" lon="6.68213">
        <ele>164.4</ele>
        <time>2017-10-08T12:04:27Z</time>
      </trkpt>
      <trkpt lat="43.36444" lon="6.68227">
        <ele>164.4</ele>
        <time>2017-10-08T12:04:29Z</time>
      </trkpt>
      <trkpt lat="43.36449" lon="6.68269">
        <ele>164.5</ele>
        <time>2017-10-08T12:04:35Z</time>
      </trkpt>
      <trkpt lat="43.36448" lon="6.68284">
        <ele>164.6</ele>
        <time>2017-10-08T12:04:37Z</time>
      </trkpt>
      <trkpt lat="43.36447" lon="6.68292">
        <ele>164.6</ele>
        <time>2017-10-08T12:04:38Z</time>
      </trkpt>
      <trkpt lat="43.3644" lon="6.68315">
        <ele>164.6</ele>
        <time>2017-10-08T12:04:41Z</time>
      </trkpt>
      <trkpt lat="43.36437" lon="6.68321">
        <ele>164.6</ele>
        <time>2017-10-08T12:04:42Z</time>
      </trkpt>
      <trkpt lat="43.36428" lon="6.6834">
        <ele>164.7</ele>
        <time>2017-10-08T12:04:45Z</time>
      </trkpt>
      <trkpt lat="43.36424" lon="6.68346">
        <ele>164.7</ele>
        <time>2017-10-08T12:04:46Z</time>
      </trkpt>
      <trkpt lat="43.36413" lon="6.68363">
        <ele>164.8</ele>
        <time>2017-10-08T12:04:49Z</time>
      </trkpt>
      <trkpt lat="43.36402" lon="6.68369">
        <ele>164.8</ele>
        <time>2017-10-08T12:04:51Z</time>
      </trkpt>
      <trkpt lat="43.36388" lon="6.68362">
        <ele>164.8</ele>
        <time>2017-10-08T12:04:53Z</time>
      </trkpt>
      <trkpt lat="43.36376" lon="6.6836">
        <ele>164.9</ele>
        <time>2017-10-08T12:04:55Z</time>
      </trkpt>
      <trkpt lat="43.3637" lon="6.68362">
        <ele>164.9</ele>
        <time>2017-10-08T12:04:56Z</time>
      </trkpt>
      <trkpt lat="43.36358" lon="6.68373">
        <ele>164.9</ele>
        <time>2017-10-08T12:04:59Z</time>
      </trkpt>
      <trkpt lat="43.36347" lon="6.68395">
        <ele>165</ele>
        <time>2017-10-08T12:05:03Z</time>
      </trkpt>
      <trkpt lat="43.36343" lon="6.68409">
        <ele>161.7</ele>
        <time>2017-10-08T12:05:07Z</time>
      </trkpt>
      <trkpt lat="43.3634" lon="6.68418">
        <ele>157</ele>
        <time>2017-10-08T12:05:17Z</time>
      </trkpt>
      <trkpt lat="43.36339" lon="6.68422">
        <ele>155.3</ele>
        <time>2017-10-08T12:05:18Z</time>
      </trkpt>
      <trkpt lat="43.36337" lon="6.68429">
        <ele>151.8</ele>
        <time>2017-10-08T12:05:22Z</time>
      </trkpt>
      <trkpt lat="43.36337" lon="6.68439">
        <ele>150.9</ele>
        <time>2017-10-08T12:05:26Z</time>
      </trkpt>
      <trkpt lat="43.36336" lon="6.68441">
        <ele>150.9</ele>
        <time>2017-10-08T12:05:27Z</time>
      </trkpt>
      <trkpt lat="43.36337" lon="6.68447">
        <ele>150.9</ele>
        <time>2017-10-08T12:05:30Z</time>
      </trkpt>
      <trkpt lat="43.36339" lon="6.68448">
        <ele>150.9</ele>
        <time>2017-10-08T12:05:31Z</time>
      </trkpt>
      <trkpt lat="43.36341" lon="6.68452">
        <ele>151.1</ele>
        <time>2017-10-08T12:05:34Z</time>
      </trkpt>
      <trkpt lat="43.36343" lon="6.68455">
        <ele>151.2</ele>
        <time>2017-10-08T12:05:36Z</time>
      </trkpt>
      <trkpt lat="43.36344" lon="6.68456">
        <ele>151.3</ele>
        <time>2017-10-08T12:05:37Z</time>
      </trkpt>
      <trkpt lat="43.36348" lon="6.68459">
        <ele>151.6</ele>
        <time>2017-10-08T12:05:40Z</time>
      </trkpt>
      <trkpt lat="43.36352" lon="6.68463">
        <ele>152</ele>
        <time>2017-10-08T12:05:42Z</time>
      </trkpt>
      <trkpt lat="43.36361" lon="6.68471">
        <ele>152.9</ele>
        <time>2017-10-08T12:05:46Z</time>
      </trkpt>
      <trkpt lat="43.36369" lon="6.68478">
        <ele>153.3</ele>
        <time>2017-10-08T12:05:50Z</time>
      </trkpt>
      <trkpt lat="43.3637" lon="6.68481">
        <ele>153.3</ele>
        <time>2017-10-08T12:05:51Z</time>
      </trkpt>
      <trkpt lat="43.3638" lon="6.68497">
        <ele>153.9</ele>
        <time>2017-10-08T12:05:58Z</time>
      </trkpt>
      <trkpt lat="43.36386" lon="6.68508">
        <ele>154.5</ele>
        <time>2017-10-08T12:06:02Z</time>
      </trkpt>
      <trkpt lat="43.36391" lon="6.68516">
        <ele>155.2</ele>
        <time>2017-10-08T12:06:05Z</time>
      </trkpt>
      <trkpt lat="43.36405" lon="6.68534">
        <ele>156.5</ele>
        <time>2017-10-08T12:06:12Z</time>
      </trkpt>
      <trkpt lat="43.36409" lon="6.68539">
        <ele>156.8</ele>
        <time>2017-10-08T12:06:14Z</time>
      </trkpt>
      <trkpt lat="43.36418" lon="6.68543">
        <ele>157.8</ele>
        <time>2017-10-08T12:06:18Z</time>
      </trkpt>
      <trkpt lat="43.36431" lon="6.68551">
        <ele>158.7</ele>
        <time>2017-10-08T12:06:24Z</time>
      </trkpt>
      <trkpt lat="43.36433" lon="6.68552">
        <ele>158.8</ele>
        <time>2017-10-08T12:06:25Z</time>
      </trkpt>
      <trkpt lat="43.36443" lon="6.68562">
        <ele>159</ele>
        <time>2017-10-08T12:06:30Z</time>
      </trkpt>
      <trkpt lat="43.36445" lon="6.68564">
        <ele>159.1</ele>
        <time>2017-10-08T12:06:31Z</time>
      </trkpt>
      <trkpt lat="43.36458" lon="6.6858">
        <ele>159.3</ele>
        <time>2017-10-08T12:06:37Z</time>
      </trkpt>
      <trkpt lat="43.36472" lon="6.6861">
        <ele>159.5</ele>
        <time>2017-10-08T12:06:44Z</time>
      </trkpt>
      <trkpt lat="43.36488" lon="6.68641">
        <ele>159.4</ele>
        <time>2017-10-08T12:06:51Z</time>
      </trkpt>
      <trkpt lat="43.365" lon="6.68666">
        <ele>158.8</ele>
        <time>2017-10-08T12:06:57Z</time>
      </trkpt>
      <trkpt lat="43.36516" lon="6.68701">
        <ele>157.2</ele>
        <time>2017-10-08T12:07:04Z</time>
      </trkpt>
      <trkpt lat="43.36518" lon="6.68706">
        <ele>157</ele>
        <time>2017-10-08T12:07:05Z</time>
      </trkpt>
      <trkpt lat="43.36524" lon="6.68722">
        <ele>156.7</ele>
        <time>2017-10-08T12:07:08Z</time>
      </trkpt>
      <trkpt lat="43.36525" lon="6.68727">
        <ele>156.6</ele>
        <time>2017-10-08T12:07:09Z</time>
      </trkpt>
      <trkpt lat="43.36526" lon="6.68744">
        <ele>156.5</ele>
        <time>2017-10-08T12:07:12Z</time>
      </trkpt>
      <trkpt lat="43.36525" lon="6.68749">
        <ele>156.5</ele>
        <time>2017-10-08T12:07:13Z</time>
      </trkpt>
      <trkpt lat="43.36523" lon="6.6876">
        <ele>156.4</ele>
        <time>2017-10-08T12:07:15Z</time>
      </trkpt>
      <trkpt lat="43.36519" lon="6.68776">
        <ele>156.3</ele>
        <time>2017-10-08T12:07:18Z</time>
      </trkpt>
      <trkpt lat="43.36518" lon="6.68782">
        <ele>156.2</ele>
        <time>2017-10-08T12:07:19Z</time>
      </trkpt>
      <trkpt lat="43.36513" lon="6.68792">
        <ele>155.9</ele>
        <time>2017-10-08T12:07:21Z</time>
      </trkpt>
      <trkpt lat="43.365" lon="6.68812">
        <ele>154.3</ele>
        <time>2017-10-08T12:07:25Z</time>
      </trkpt>
      <trkpt lat="43.36484" lon="6.68822">
        <ele>152.4</ele>
        <time>2017-10-08T12:07:30Z</time>
      </trkpt>
      <trkpt lat="43.36467" lon="6.68816">
        <ele>150.8</ele>
        <time>2017-10-08T12:07:35Z</time>
      </trkpt>
      <trkpt lat="43.36458" lon="6.6882">
        <ele>150.3</ele>
        <time>2017-10-08T12:07:38Z</time>
      </trkpt>
      <trkpt lat="43.3645" lon="6.68827">
        <ele>149.8</ele>
        <time>2017-10-08T12:07:40Z</time>
      </trkpt>
      <trkpt lat="43.36446" lon="6.6883">
        <ele>149.5</ele>
        <time>2017-10-08T12:07:41Z</time>
      </trkpt>
      <trkpt lat="43.36433" lon="6.68837">
        <ele>149.5</ele>
        <time>2017-10-08T12:07:44Z</time>
      </trkpt>
      <trkpt lat="43.36426" lon="6.68836">
        <ele>150.6</ele>
        <time>2017-10-08T12:07:46Z</time>
      </trkpt>
      <trkpt lat="43.36422" lon="6.68835">
        <ele>151</ele>
        <time>2017-10-08T12:07:47Z</time>
      </trkpt>
      <trkpt lat="43.36409" lon="6.68834">
        <ele>151.7</ele>
        <time>2017-10-08T12:07:51Z</time>
      </trkpt>
      <trkpt lat="43.36406" lon="6.68833">
        <ele>151.8</ele>
        <time>2017-10-08T12:07:52Z</time>
      </trkpt>
      <trkpt lat="43.36397" lon="6.68834">
        <ele>152.5</ele>
        <time>2017-10-08T12:07:55Z</time>
      </trkpt>
      <trkpt lat="43.36389" lon="6.68835">
        <ele>153.3</ele>
        <time>2017-10-08T12:07:58Z</time>
      </trkpt>
      <trkpt lat="43.36385" lon="6.68837">
        <ele>153.6</ele>
        <time>2017-10-08T12:08:00Z</time>
      </trkpt>
      <trkpt lat="43.36373" lon="6.68845">
        <ele>154</ele>
        <time>2017-10-08T12:08:07Z</time>
      </trkpt>
      <trkpt lat="43.3637" lon="6.68849">
        <ele>154.1</ele>
        <time>2017-10-08T12:08:09Z</time>
      </trkpt>
      <trkpt lat="43.36364" lon="6.68867">
        <ele>154.4</ele>
        <time>2017-10-08T12:08:12Z</time>
      </trkpt>
      <trkpt lat="43.36358" lon="6.68889">
        <ele>154.6</ele>
        <time>2017-10-08T12:08:16Z</time>
      </trkpt>
      <trkpt lat="43.36356" lon="6.68896">
        <ele>154.6</ele>
        <time>2017-10-08T12:08:18Z</time>
      </trkpt>
      <trkpt lat="43.36343" lon="6.68919">
        <ele>155.1</ele>
        <time>2017-10-08T12:08:25Z</time>
      </trkpt>
      <trkpt lat="43.36329" lon="6.6894">
        <ele>156.7</ele>
        <time>2017-10-08T12:08:33Z</time>
      </trkpt>
      <trkpt lat="43.36315" lon="6.6895">
        <ele>156.5</ele>
        <time>2017-10-08T12:08:40Z</time>
      </trkpt>
      <trkpt lat="43.36297" lon="6.68963">
        <ele>154.5</ele>
        <time>2017-10-08T12:08:45Z</time>
      </trkpt>
      <trkpt lat="43.36291" lon="6.68972">
        <ele>154.7</ele>
        <time>2017-10-08T12:08:47Z</time>
      </trkpt>
      <trkpt lat="43.36288" lon="6.68983">
        <ele>155.2</ele>
        <time>2017-10-08T12:08:50Z</time>
      </trkpt>
      <trkpt lat="43.36284" lon="6.69001">
        <ele>156.3</ele>
        <time>2017-10-08T12:08:57Z</time>
      </trkpt>
      <trkpt lat="43.36282" lon="6.69014">
        <ele>158.8</ele>
        <time>2017-10-08T12:09:03Z</time>
      </trkpt>
      <trkpt lat="43.36281" lon="6.69021">
        <ele>160.6</ele>
        <time>2017-10-08T12:09:06Z</time>
      </trkpt>
      <trkpt lat="43.3628" lon="6.69024">
        <ele>162.7</ele>
        <time>2017-10-08T12:09:08Z</time>
      </trkpt>
      <trkpt lat="43.36279" lon="6.69029">
        <ele>163.9</ele>
        <time>2017-10-08T12:09:11Z</time>
      </trkpt>
      <trkpt lat="43.36278" lon="6.69036">
        <ele>164.8</ele>
        <time>2017-10-08T12:09:15Z</time>
      </trkpt>
      <trkpt lat="43.36276" lon="6.69041">
        <ele>166.5</ele>
        <time>2017-10-08T12:09:19Z</time>
      </trkpt>
      <trkpt lat="43.36273" lon="6.69048">
        <ele>167.5</ele>
        <time>2017-10-08T12:09:25Z</time>
      </trkpt>
      <trkpt lat="43.36272" lon="6.69052">
        <ele>167.8</ele>
        <time>2017-10-08T12:09:27Z</time>
      </trkpt>
      <trkpt lat="43.36272" lon="6.69061">
        <ele>168.5</ele>
        <time>2017-10-08T12:09:31Z</time>
      </trkpt>
      <trkpt lat="43.36272" lon="6.69067">
        <ele>169</ele>
        <time>2017-10-08T12:09:33Z</time>
      </trkpt>
      <trkpt lat="43.36271" lon="6.69084">
        <ele>170</ele>
        <time>2017-10-08T12:09:37Z</time>
      </trkpt>
      <trkpt lat="43.36269" lon="6.69098">
        <ele>170.7</ele>
        <time>2017-10-08T12:09:40Z</time>
      </trkpt>
      <trkpt lat="43.36268" lon="6.69103">
        <ele>171</ele>
        <time>2017-10-08T12:09:41Z</time>
      </trkpt>
      <trkpt lat="43.36267" lon="6.69113">
        <ele>171.6</ele>
        <time>2017-10-08T12:09:43Z</time>
      </trkpt>
      <trkpt lat="43.36267" lon="6.69126">
        <ele>172.3</ele>
        <time>2017-10-08T12:09:45Z</time>
      </trkpt>
      <trkpt lat="43.36275" lon="6.69149">
        <ele>173.9</ele>
        <time>2017-10-08T12:09:50Z</time>
      </trkpt>
      <trkpt lat="43.3628" lon="6.69158">
        <ele>174.5</ele>
        <time>2017-10-08T12:09:52Z</time>
      </trkpt>
      <trkpt lat="43.36282" lon="6.6917">
        <ele>175.1</ele>
        <time>2017-10-08T12:09:54Z</time>
      </trkpt>
      <trkpt lat="43.36282" lon="6.69177">
        <ele>175.5</ele>
        <time>2017-10-08T12:09:55Z</time>
      </trkpt>
      <trkpt lat="43.36283" lon="6.69211">
        <ele>177.7</ele>
        <time>2017-10-08T12:09:59Z</time>
      </trkpt>
      <trkpt lat="43.36285" lon="6.69223">
        <ele>179</ele>
        <time>2017-10-08T12:10:01Z</time>
      </trkpt>
      <trkpt lat="43.36288" lon="6.69228">
        <ele>178.9</ele>
        <time>2017-10-08T12:10:02Z</time>
      </trkpt>
      <trkpt lat="43.3629" lon="6.69231">
        <ele>178.5</ele>
        <time>2017-10-08T12:10:03Z</time>
      </trkpt>
      <trkpt lat="43.36293" lon="6.69234">
        <ele>178</ele>
        <time>2017-10-08T12:10:05Z</time>
      </trkpt>
      <trkpt lat="43.36294" lon="6.69235">
        <ele>177.7</ele>
        <time>2017-10-08T12:10:06Z</time>
      </trkpt>
      <trkpt lat="43.36296" lon="6.69237">
        <ele>177.4</ele>
        <time>2017-10-08T12:10:07Z</time>
      </trkpt>
      <trkpt lat="43.36304" lon="6.69241">
        <ele>176.3</ele>
        <time>2017-10-08T12:10:09Z</time>
      </trkpt>
      <trkpt lat="43.3631" lon="6.69243">
        <ele>175.3</ele>
        <time>2017-10-08T12:10:10Z</time>
      </trkpt>
      <trkpt lat="43.36317" lon="6.69247">
        <ele>174.3</ele>
        <time>2017-10-08T12:10:11Z</time>
      </trkpt>
      <trkpt lat="43.36331" lon="6.69259">
        <ele>171.9</ele>
        <time>2017-10-08T12:10:13Z</time>
      </trkpt>
      <trkpt lat="43.36347" lon="6.69274">
        <ele>169.3</ele>
        <time>2017-10-08T12:10:15Z</time>
      </trkpt>
      <trkpt lat="43.36364" lon="6.69286">
        <ele>167.1</ele>
        <time>2017-10-08T12:10:17Z</time>
      </trkpt>
      <trkpt lat="43.36372" lon="6.69291">
        <ele>166.1</ele>
        <time>2017-10-08T12:10:18Z</time>
      </trkpt>
      <trkpt lat="43.3638" lon="6.69295">
        <ele>165.2</ele>
        <time>2017-10-08T12:10:19Z</time>
      </trkpt>
      <trkpt lat="43.36397" lon="6.693">
        <ele>163.4</ele>
        <time>2017-10-08T12:10:21Z</time>
      </trkpt>
      <trkpt lat="43.36405" lon="6.69302">
        <ele>162.5</ele>
        <time>2017-10-08T12:10:22Z</time>
      </trkpt>
      <trkpt lat="43.36414" lon="6.69304">
        <ele>161.5</ele>
        <time>2017-10-08T12:10:23Z</time>
      </trkpt>
      <trkpt lat="43.3643" lon="6.69311">
        <ele>159.3</ele>
        <time>2017-10-08T12:10:25Z</time>
      </trkpt>
      <trkpt lat="43.36444" lon="6.69324">
        <ele>157</ele>
        <time>2017-10-08T12:10:27Z</time>
      </trkpt>
      <trkpt lat="43.36456" lon="6.6934">
        <ele>154.8</ele>
        <time>2017-10-08T12:10:29Z</time>
      </trkpt>
      <trkpt lat="43.36464" lon="6.69358">
        <ele>153.1</ele>
        <time>2017-10-08T12:10:31Z</time>
      </trkpt>
      <trkpt lat="43.3647" lon="6.69375">
        <ele>152.3</ele>
        <time>2017-10-08T12:10:33Z</time>
      </trkpt>
      <trkpt lat="43.36475" lon="6.69392">
        <ele>151.9</ele>
        <time>2017-10-08T12:10:35Z</time>
      </trkpt>
      <trkpt lat="43.36472" lon="6.69402">
        <ele>151.7</ele>
        <time>2017-10-08T12:10:36Z</time>
      </trkpt>
      <trkpt lat="43.36467" lon="6.6943">
        <ele>151.3</ele>
        <time>2017-10-08T12:10:39Z</time>
      </trkpt>
      <trkpt lat="43.36463" lon="6.69449">
        <ele>150.4</ele>
        <time>2017-10-08T12:10:41Z</time>
      </trkpt>
      <trkpt lat="43.36462" lon="6.6946">
        <ele>149.8</ele>
        <time>2017-10-08T12:10:42Z</time>
      </trkpt>
      <trkpt lat="43.36464" lon="6.69482">
        <ele>148.3</ele>
        <time>2017-10-08T12:10:44Z</time>
      </trkpt>
      <trkpt lat="43.36469" lon="6.69501">
        <ele>146.7</ele>
        <time>2017-10-08T12:10:46Z</time>
      </trkpt>
      <trkpt lat="43.36477" lon="6.69515">
        <ele>145.2</ele>
        <time>2017-10-08T12:10:48Z</time>
      </trkpt>
      <trkpt lat="43.36482" lon="6.69521">
        <ele>144.5</ele>
        <time>2017-10-08T12:10:49Z</time>
      </trkpt>
      <trkpt lat="43.36494" lon="6.69535">
        <ele>142.9</ele>
        <time>2017-10-08T12:10:51Z</time>
      </trkpt>
      <trkpt lat="43.36504" lon="6.69552">
        <ele>141.5</ele>
        <time>2017-10-08T12:10:53Z</time>
      </trkpt>
      <trkpt lat="43.36516" lon="6.69577">
        <ele>139.9</ele>
        <time>2017-10-08T12:10:56Z</time>
      </trkpt>
      <trkpt lat="43.36528" lon="6.696">
        <ele>138.9</ele>
        <time>2017-10-08T12:10:59Z</time>
      </trkpt>
      <trkpt lat="43.36536" lon="6.69615">
        <ele>138.2</ele>
        <time>2017-10-08T12:11:01Z</time>
      </trkpt>
      <trkpt lat="43.36539" lon="6.69623">
        <ele>137.7</ele>
        <time>2017-10-08T12:11:02Z</time>
      </trkpt>
      <trkpt lat="43.36547" lon="6.69651">
        <ele>136.1</ele>
        <time>2017-10-08T12:11:05Z</time>
      </trkpt>
      <trkpt lat="43.3655" lon="6.6966">
        <ele>135.6</ele>
        <time>2017-10-08T12:11:06Z</time>
      </trkpt>
      <trkpt lat="43.36556" lon="6.6968">
        <ele>134.5</ele>
        <time>2017-10-08T12:11:08Z</time>
      </trkpt>
      <trkpt lat="43.36566" lon="6.69706">
        <ele>132</ele>
        <time>2017-10-08T12:11:11Z</time>
      </trkpt>
      <trkpt lat="43.36569" lon="6.69714">
        <ele>131.2</ele>
        <time>2017-10-08T12:11:12Z</time>
      </trkpt>
      <trkpt lat="43.36575" lon="6.69728">
        <ele>129.5</ele>
        <time>2017-10-08T12:11:14Z</time>
      </trkpt>
      <trkpt lat="43.3658" lon="6.69744">
        <ele>128</ele>
        <time>2017-10-08T12:11:17Z</time>
      </trkpt>
      <trkpt lat="43.36579" lon="6.69751">
        <ele>128</ele>
        <time>2017-10-08T12:11:19Z</time>
      </trkpt>
      <trkpt lat="43.36577" lon="6.6975">
        <ele>128</ele>
        <time>2017-10-08T12:11:20Z</time>
      </trkpt>
      <trkpt lat="43.36571" lon="6.69744">
        <ele>128</ele>
        <time>2017-10-08T12:11:22Z</time>
      </trkpt>
      <trkpt lat="43.36566" lon="6.69736">
        <ele>128</ele>
        <time>2017-10-08T12:11:24Z</time>
      </trkpt>
      <trkpt lat="43.36562" lon="6.69729">
        <ele>128.1</ele>
        <time>2017-10-08T12:11:26Z</time>
      </trkpt>
      <trkpt lat="43.36551" lon="6.69702">
        <ele>128.7</ele>
        <time>2017-10-08T12:11:33Z</time>
      </trkpt>
      <trkpt lat="43.3655" lon="6.69699">
        <ele>128.9</ele>
        <time>2017-10-08T12:11:34Z</time>
      </trkpt>
      <trkpt lat="43.3654" lon="6.69685">
        <ele>129.9</ele>
        <time>2017-10-08T12:11:40Z</time>
      </trkpt>
      <trkpt lat="43.36537" lon="6.69681">
        <ele>130.1</ele>
        <time>2017-10-08T12:11:42Z</time>
      </trkpt>
      <trkpt lat="43.36536" lon="6.69679">
        <ele>130.2</ele>
        <time>2017-10-08T12:11:43Z</time>
      </trkpt>
      <trkpt lat="43.36531" lon="6.69676">
        <ele>130.7</ele>
        <time>2017-10-08T12:11:46Z</time>
      </trkpt>
      <trkpt lat="43.36525" lon="6.69673">
        <ele>131.3</ele>
        <time>2017-10-08T12:11:49Z</time>
      </trkpt>
      <trkpt lat="43.36523" lon="6.69672">
        <ele>131.5</ele>
        <time>2017-10-08T12:11:50Z</time>
      </trkpt>
      <trkpt lat="43.36513" lon="6.69666">
        <ele>132.2</ele>
        <time>2017-10-08T12:11:56Z</time>
      </trkpt>
      <trkpt lat="43.3651" lon="6.69665">
        <ele>132.5</ele>
        <time>2017-10-08T12:11:58Z</time>
      </trkpt>
      <trkpt lat="43.36503" lon="6.69666">
        <ele>132.9</ele>
        <time>2017-10-08T12:12:02Z</time>
      </trkpt>
      <trkpt lat="43.36495" lon="6.69671">
        <ele>133.1</ele>
        <time>2017-10-08T12:12:06Z</time>
      </trkpt>
      <trkpt lat="43.36491" lon="6.69678">
        <ele>133.2</ele>
        <time>2017-10-08T12:12:09Z</time>
      </trkpt>
      <trkpt lat="43.36486" lon="6.69688">
        <ele>133.4</ele>
        <time>2017-10-08T12:12:13Z</time>
      </trkpt>
      <trkpt lat="43.36477" lon="6.69703">
        <ele>133.7</ele>
        <time>2017-10-08T12:12:18Z</time>
      </trkpt>
      <trkpt lat="43.36469" lon="6.69712">
        <ele>134</ele>
        <time>2017-10-08T12:12:21Z</time>
      </trkpt>
      <trkpt lat="43.36458" lon="6.69721">
        <ele>134.9</ele>
        <time>2017-10-08T12:12:25Z</time>
      </trkpt>
      <trkpt lat="43.36451" lon="6.69724">
        <ele>135.4</ele>
        <time>2017-10-08T12:12:29Z</time>
      </trkpt>
      <trkpt lat="43.36445" lon="6.69726">
        <ele>136.4</ele>
        <time>2017-10-08T12:12:33Z</time>
      </trkpt>
      <trkpt lat="43.36436" lon="6.69725">
        <ele>137.6</ele>
        <time>2017-10-08T12:12:38Z</time>
      </trkpt>
      <trkpt lat="43.36432" lon="6.69724">
        <ele>138</ele>
        <time>2017-10-08T12:12:40Z</time>
      </trkpt>
      <trkpt lat="43.36427" lon="6.69723">
        <ele>138.7</ele>
        <time>2017-10-08T12:12:44Z</time>
      </trkpt>
      <trkpt lat="43.36421" lon="6.69718">
        <ele>139.5</ele>
        <time>2017-10-08T12:12:49Z</time>
      </trkpt>
      <trkpt lat="43.36416" lon="6.69716">
        <ele>140.3</ele>
        <time>2017-10-08T12:12:53Z</time>
      </trkpt>
      <trkpt lat="43.36412" lon="6.69715">
        <ele>140.6</ele>
        <time>2017-10-08T12:12:56Z</time>
      </trkpt>
      <trkpt lat="43.3641" lon="6.69713">
        <ele>140.8</ele>
        <time>2017-10-08T12:12:58Z</time>
      </trkpt>
      <trkpt lat="43.36408" lon="6.6971">
        <ele>140.9</ele>
        <time>2017-10-08T12:13:00Z</time>
      </trkpt>
      <trkpt lat="43.364" lon="6.69704">
        <ele>142.1</ele>
        <time>2017-10-08T12:13:07Z</time>
      </trkpt>
      <trkpt lat="43.36399" lon="6.69703">
        <ele>142.2</ele>
        <time>2017-10-08T12:13:08Z</time>
      </trkpt>
      <trkpt lat="43.36393" lon="6.69698">
        <ele>142.9</ele>
        <time>2017-10-08T12:13:13Z</time>
      </trkpt>
      <trkpt lat="43.36391" lon="6.69697">
        <ele>143.3</ele>
        <time>2017-10-08T12:13:15Z</time>
      </trkpt>
      <trkpt lat="43.36385" lon="6.69693">
        <ele>144</ele>
        <time>2017-10-08T12:13:22Z</time>
      </trkpt>
      <trkpt lat="43.36379" lon="6.69688">
        <ele>144.6</ele>
        <time>2017-10-08T12:13:29Z</time>
      </trkpt>
      <trkpt lat="43.36376" lon="6.69684">
        <ele>145.4</ele>
        <time>2017-10-08T12:13:33Z</time>
      </trkpt>
      <trkpt lat="43.36374" lon="6.69681">
        <ele>145.8</ele>
        <time>2017-10-08T12:13:36Z</time>
      </trkpt>
      <trkpt lat="43.3637" lon="6.69679">
        <ele>146.1</ele>
        <time>2017-10-08T12:13:39Z</time>
      </trkpt>
      <trkpt lat="43.36369" lon="6.69678">
        <ele>146.3</ele>
        <time>2017-10-08T12:13:40Z</time>
      </trkpt>
      <trkpt lat="43.36366" lon="6.69677">
        <ele>147.1</ele>
        <time>2017-10-08T12:13:43Z</time>
      </trkpt>
      <trkpt lat="43.36361" lon="6.69675">
        <ele>147.8</ele>
        <time>2017-10-08T12:13:47Z</time>
      </trkpt>
      <trkpt lat="43.3636" lon="6.69675">
        <ele>147.9</ele>
        <time>2017-10-08T12:13:48Z</time>
      </trkpt>
      <trkpt lat="43.36357" lon="6.69674">
        <ele>148.6</ele>
        <time>2017-10-08T12:13:51Z</time>
      </trkpt>
      <trkpt lat="43.36356" lon="6.69674">
        <ele>148.8</ele>
        <time>2017-10-08T12:13:52Z</time>
      </trkpt>
      <trkpt lat="43.36351" lon="6.69673">
        <ele>149.6</ele>
        <time>2017-10-08T12:13:56Z</time>
      </trkpt>
      <trkpt lat="43.36349" lon="6.69673">
        <ele>150</ele>
        <time>2017-10-08T12:13:58Z</time>
      </trkpt>
      <trkpt lat="43.36347" lon="6.69672">
        <ele>150.3</ele>
        <time>2017-10-08T12:14:00Z</time>
      </trkpt>
      <trkpt lat="43.36343" lon="6.69671">
        <ele>151</ele>
        <time>2017-10-08T12:14:04Z</time>
      </trkpt>
      <trkpt lat="43.36342" lon="6.69671">
        <ele>151.2</ele>
        <time>2017-10-08T12:14:05Z</time>
      </trkpt>
      <trkpt lat="43.36338" lon="6.69672">
        <ele>151.7</ele>
        <time>2017-10-08T12:14:08Z</time>
      </trkpt>
      <trkpt lat="43.36335" lon="6.69672">
        <ele>152.4</ele>
        <time>2017-10-08T12:14:11Z</time>
      </trkpt>
      <trkpt lat="43.36334" lon="6.69671">
        <ele>152.6</ele>
        <time>2017-10-08T12:14:12Z</time>
      </trkpt>
      <trkpt lat="43.36332" lon="6.69671">
        <ele>153</ele>
        <time>2017-10-08T12:14:14Z</time>
      </trkpt>
      <trkpt lat="43.36328" lon="6.69671">
        <ele>153.5</ele>
        <time>2017-10-08T12:14:17Z</time>
      </trkpt>
      <trkpt lat="43.36325" lon="6.69671">
        <ele>154.4</ele>
        <time>2017-10-08T12:14:20Z</time>
      </trkpt>
      <trkpt lat="43.36323" lon="6.69671">
        <ele>154.6</ele>
        <time>2017-10-08T12:14:21Z</time>
      </trkpt>
      <trkpt lat="43.3632" lon="6.69669">
        <ele>155</ele>
        <time>2017-10-08T12:14:24Z</time>
      </trkpt>
      <trkpt lat="43.36317" lon="6.69669">
        <ele>155.6</ele>
        <time>2017-10-08T12:14:27Z</time>
      </trkpt>
      <trkpt lat="43.36316" lon="6.69669">
        <ele>155.8</ele>
        <time>2017-10-08T12:14:28Z</time>
      </trkpt>
      <trkpt lat="43.36313" lon="6.69667">
        <ele>156.4</ele>
        <time>2017-10-08T12:14:31Z</time>
      </trkpt>
      <trkpt lat="43.36311" lon="6.69666">
        <ele>156.7</ele>
        <time>2017-10-08T12:14:33Z</time>
      </trkpt>
      <trkpt lat="43.36309" lon="6.69665">
        <ele>157</ele>
        <time>2017-10-08T12:14:35Z</time>
      </trkpt>
      <trkpt lat="43.36304" lon="6.69661">
        <ele>158</ele>
        <time>2017-10-08T12:14:40Z</time>
      </trkpt>
      <trkpt lat="43.36301" lon="6.69659">
        <ele>158.3</ele>
        <time>2017-10-08T12:14:43Z</time>
      </trkpt>
      <trkpt lat="43.36298" lon="6.69657">
        <ele>158.6</ele>
        <time>2017-10-08T12:14:46Z</time>
      </trkpt>
      <trkpt lat="43.36295" lon="6.69653">
        <ele>159.1</ele>
        <time>2017-10-08T12:14:50Z</time>
      </trkpt>
      <trkpt lat="43.36294" lon="6.69652">
        <ele>159.3</ele>
        <time>2017-10-08T12:14:51Z</time>
      </trkpt>
      <trkpt lat="43.36292" lon="6.6965">
        <ele>159.6</ele>
        <time>2017-10-08T12:14:53Z</time>
      </trkpt>
      <trkpt lat="43.36289" lon="6.69646">
        <ele>160</ele>
        <time>2017-10-08T12:14:57Z</time>
      </trkpt>
      <trkpt lat="43.36286" lon="6.69642">
        <ele>160.2</ele>
        <time>2017-10-08T12:15:01Z</time>
      </trkpt>
      <trkpt lat="43.36283" lon="6.69639">
        <ele>160.4</ele>
        <time>2017-10-08T12:15:04Z</time>
      </trkpt>
      <trkpt lat="43.36279" lon="6.69634">
        <ele>161</ele>
        <time>2017-10-08T12:15:08Z</time>
      </trkpt>
      <trkpt lat="43.36275" lon="6.69628">
        <ele>161.5</ele>
        <time>2017-10-08T12:15:12Z</time>
      </trkpt>
      <trkpt lat="43.36268" lon="6.69617">
        <ele>162.2</ele>
        <time>2017-10-08T12:15:20Z</time>
      </trkpt>
      <trkpt lat="43.36267" lon="6.69616">
        <ele>162.4</ele>
        <time>2017-10-08T12:15:21Z</time>
      </trkpt>
      <trkpt lat="43.36262" lon="6.69607">
        <ele>163.2</ele>
        <time>2017-10-08T12:15:28Z</time>
      </trkpt>
      <trkpt lat="43.3626" lon="6.69606">
        <ele>163.3</ele>
        <time>2017-10-08T12:15:29Z</time>
      </trkpt>
      <trkpt lat="43.36255" lon="6.69604">
        <ele>163.8</ele>
        <time>2017-10-08T12:15:34Z</time>
      </trkpt>
      <trkpt lat="43.36253" lon="6.69603">
        <ele>164</ele>
        <time>2017-10-08T12:15:35Z</time>
      </trkpt>
      <trkpt lat="43.36248" lon="6.69598">
        <ele>165.2</ele>
        <time>2017-10-08T12:15:40Z</time>
      </trkpt>
      <trkpt lat="43.36245" lon="6.69594">
        <ele>165.6</ele>
        <time>2017-10-08T12:15:43Z</time>
      </trkpt>
      <trkpt lat="43.36238" lon="6.69584">
        <ele>167.1</ele>
        <time>2017-10-08T12:15:51Z</time>
      </trkpt>
      <trkpt lat="43.36232" lon="6.69575">
        <ele>168.3</ele>
        <time>2017-10-08T12:15:58Z</time>
      </trkpt>
      <trkpt lat="43.3623" lon="6.69572">
        <ele>168.7</ele>
        <time>2017-10-08T12:16:00Z</time>
      </trkpt>
      <trkpt lat="43.36226" lon="6.69561">
        <ele>169.2</ele>
        <time>2017-10-08T12:16:07Z</time>
      </trkpt>
      <trkpt lat="43.36219" lon="6.69544">
        <ele>170.5</ele>
        <time>2017-10-08T12:16:18Z</time>
      </trkpt>
      <trkpt lat="43.36217" lon="6.69537">
        <ele>170.8</ele>
        <time>2017-10-08T12:16:22Z</time>
      </trkpt>
      <trkpt lat="43.36214" lon="6.69532">
        <ele>171.4</ele>
        <time>2017-10-08T12:16:26Z</time>
      </trkpt>
      <trkpt lat="43.3621" lon="6.69528">
        <ele>172</ele>
        <time>2017-10-08T12:16:29Z</time>
      </trkpt>
      <trkpt lat="43.36206" lon="6.69527">
        <ele>172.4</ele>
        <time>2017-10-08T12:16:32Z</time>
      </trkpt>
      <trkpt lat="43.36205" lon="6.69526">
        <ele>172.7</ele>
        <time>2017-10-08T12:16:33Z</time>
      </trkpt>
      <trkpt lat="43.36204" lon="6.69525">
        <ele>173</ele>
        <time>2017-10-08T12:16:34Z</time>
      </trkpt>
      <trkpt lat="43.36202" lon="6.69523">
        <ele>173.5</ele>
        <time>2017-10-08T12:16:36Z</time>
      </trkpt>
      <trkpt lat="43.362" lon="6.69522">
        <ele>174</ele>
        <time>2017-10-08T12:16:38Z</time>
      </trkpt>
      <trkpt lat="43.36198" lon="6.69521">
        <ele>174.2</ele>
        <time>2017-10-08T12:16:39Z</time>
      </trkpt>
      <trkpt lat="43.36193" lon="6.69518">
        <ele>175.6</ele>
        <time>2017-10-08T12:16:43Z</time>
      </trkpt>
      <trkpt lat="43.36191" lon="6.69517">
        <ele>175.8</ele>
        <time>2017-10-08T12:16:44Z</time>
      </trkpt>
      <trkpt lat="43.36186" lon="6.69513">
        <ele>176.6</ele>
        <time>2017-10-08T12:16:48Z</time>
      </trkpt>
      <trkpt lat="43.36182" lon="6.69509">
        <ele>177.5</ele>
        <time>2017-10-08T12:16:52Z</time>
      </trkpt>
      <trkpt lat="43.36178" lon="6.69505">
        <ele>177.8</ele>
        <time>2017-10-08T12:16:55Z</time>
      </trkpt>
      <trkpt lat="43.36174" lon="6.69501">
        <ele>178.2</ele>
        <time>2017-10-08T12:16:59Z</time>
      </trkpt>
      <trkpt lat="43.36169" lon="6.69494">
        <ele>178.9</ele>
        <time>2017-10-08T12:17:05Z</time>
      </trkpt>
      <trkpt lat="43.36167" lon="6.6949">
        <ele>179.1</ele>
        <time>2017-10-08T12:17:08Z</time>
      </trkpt>
      <trkpt lat="43.3616" lon="6.69485">
        <ele>179.4</ele>
        <time>2017-10-08T12:17:14Z</time>
      </trkpt>
      <trkpt lat="43.36158" lon="6.69484">
        <ele>179.5</ele>
        <time>2017-10-08T12:17:15Z</time>
      </trkpt>
      <trkpt lat="43.36153" lon="6.69479">
        <ele>180.1</ele>
        <time>2017-10-08T12:17:20Z</time>
      </trkpt>
      <trkpt lat="43.36151" lon="6.69476">
        <ele>180.4</ele>
        <time>2017-10-08T12:17:22Z</time>
      </trkpt>
      <trkpt lat="43.36148" lon="6.69474">
        <ele>180.8</ele>
        <time>2017-10-08T12:17:24Z</time>
      </trkpt>
      <trkpt lat="43.36141" lon="6.69471">
        <ele>181.2</ele>
        <time>2017-10-08T12:17:29Z</time>
      </trkpt>
      <trkpt lat="43.3614" lon="6.6947">
        <ele>181.3</ele>
        <time>2017-10-08T12:17:30Z</time>
      </trkpt>
      <trkpt lat="43.36136" lon="6.69469">
        <ele>181.7</ele>
        <time>2017-10-08T12:17:33Z</time>
      </trkpt>
      <trkpt lat="43.36131" lon="6.69469">
        <ele>182.2</ele>
        <time>2017-10-08T12:17:36Z</time>
      </trkpt>
      <trkpt lat="43.36128" lon="6.69468">
        <ele>182.5</ele>
        <time>2017-10-08T12:17:38Z</time>
      </trkpt>
      <trkpt lat="43.36126" lon="6.69469">
        <ele>182.6</ele>
        <time>2017-10-08T12:17:39Z</time>
      </trkpt>
      <trkpt lat="43.36121" lon="6.69469">
        <ele>182.8</ele>
        <time>2017-10-08T12:17:42Z</time>
      </trkpt>
      <trkpt lat="43.36115" lon="6.69469">
        <ele>183.1</ele>
        <time>2017-10-08T12:17:45Z</time>
      </trkpt>
      <trkpt lat="43.36114" lon="6.69469">
        <ele>183.2</ele>
        <time>2017-10-08T12:17:46Z</time>
      </trkpt>
      <trkpt lat="43.36108" lon="6.69469">
        <ele>183.6</ele>
        <time>2017-10-08T12:17:49Z</time>
      </trkpt>
      <trkpt lat="43.36101" lon="6.6947">
        <ele>184.3</ele>
        <time>2017-10-08T12:17:53Z</time>
      </trkpt>
      <trkpt lat="43.361" lon="6.6947">
        <ele>184.4</ele>
        <time>2017-10-08T12:17:54Z</time>
      </trkpt>
      <trkpt lat="43.36095" lon="6.69471">
        <ele>184.8</ele>
        <time>2017-10-08T12:17:57Z</time>
      </trkpt>
      <trkpt lat="43.36085" lon="6.6947">
        <ele>185.5</ele>
        <time>2017-10-08T12:18:01Z</time>
      </trkpt>
      <trkpt lat="43.3607" lon="6.69465">
        <ele>185.7</ele>
        <time>2017-10-08T12:18:06Z</time>
      </trkpt>
      <trkpt lat="43.36067" lon="6.69464">
        <ele>185.7</ele>
        <time>2017-10-08T12:18:07Z</time>
      </trkpt>
      <trkpt lat="43.36055" lon="6.69472">
        <ele>185.5</ele>
        <time>2017-10-08T12:18:12Z</time>
      </trkpt>
      <trkpt lat="43.36053" lon="6.69478">
        <ele>185.4</ele>
        <time>2017-10-08T12:18:13Z</time>
      </trkpt>
      <trkpt lat="43.3605" lon="6.69499">
        <ele>184.7</ele>
        <time>2017-10-08T12:18:16Z</time>
      </trkpt>
      <trkpt lat="43.3605" lon="6.69506">
        <ele>184.2</ele>
        <time>2017-10-08T12:18:17Z</time>
      </trkpt>
      <trkpt lat="43.36049" lon="6.69513">
        <ele>183.8</ele>
        <time>2017-10-08T12:18:18Z</time>
      </trkpt>
      <trkpt lat="43.36049" lon="6.69526">
        <ele>183.3</ele>
        <time>2017-10-08T12:18:21Z</time>
      </trkpt>
      <trkpt lat="43.36047" lon="6.6953">
        <ele>183.2</ele>
        <time>2017-10-08T12:18:23Z</time>
      </trkpt>
      <trkpt lat="43.36045" lon="6.6953">
        <ele>184.5</ele>
        <time>2017-10-08T12:18:24Z</time>
      </trkpt>
      <trkpt lat="43.36042" lon="6.69528">
        <ele>184.9</ele>
        <time>2017-10-08T12:18:26Z</time>
      </trkpt>
      <trkpt lat="43.36039" lon="6.69523">
        <ele>185.5</ele>
        <time>2017-10-08T12:18:29Z</time>
      </trkpt>
      <trkpt lat="43.36037" lon="6.6952">
        <ele>186</ele>
        <time>2017-10-08T12:18:31Z</time>
      </trkpt>
      <trkpt lat="43.36029" lon="6.69513">
        <ele>187.2</ele>
        <time>2017-10-08T12:18:39Z</time>
      </trkpt>
      <trkpt lat="43.36022" lon="6.69506">
        <ele>188.2</ele>
        <time>2017-10-08T12:18:47Z</time>
      </trkpt>
      <trkpt lat="43.36014" lon="6.69496">
        <ele>189.3</ele>
        <time>2017-10-08T12:18:55Z</time>
      </trkpt>
      <trkpt lat="43.36013" lon="6.69495">
        <ele>189.4</ele>
        <time>2017-10-08T12:18:56Z</time>
      </trkpt>
      <trkpt lat="43.36004" lon="6.69481">
        <ele>190.6</ele>
        <time>2017-10-08T12:19:05Z</time>
      </trkpt>
      <trkpt lat="43.35998" lon="6.69469">
        <ele>191.9</ele>
        <time>2017-10-08T12:19:12Z</time>
      </trkpt>
      <trkpt lat="43.35997" lon="6.69468">
        <ele>192</ele>
        <time>2017-10-08T12:19:13Z</time>
      </trkpt>
      <trkpt lat="43.35992" lon="6.69456">
        <ele>192.6</ele>
        <time>2017-10-08T12:19:19Z</time>
      </trkpt>
      <trkpt lat="43.35991" lon="6.69452">
        <ele>192.8</ele>
        <time>2017-10-08T12:19:21Z</time>
      </trkpt>
      <trkpt lat="43.35984" lon="6.69437">
        <ele>193.6</ele>
        <time>2017-10-08T12:19:29Z</time>
      </trkpt>
      <trkpt lat="43.35977" lon="6.69422">
        <ele>194.5</ele>
        <time>2017-10-08T12:19:37Z</time>
      </trkpt>
      <trkpt lat="43.35968" lon="6.6941">
        <ele>195.1</ele>
        <time>2017-10-08T12:19:45Z</time>
      </trkpt>
      <trkpt lat="43.3596" lon="6.69404">
        <ele>195.4</ele>
        <time>2017-10-08T12:19:50Z</time>
      </trkpt>
      <trkpt lat="43.35951" lon="6.69401">
        <ele>195.4</ele>
        <time>2017-10-08T12:19:53Z</time>
      </trkpt>
      <trkpt lat="43.35935" lon="6.69401">
        <ele>195.5</ele>
        <time>2017-10-08T12:19:58Z</time>
      </trkpt>
      <trkpt lat="43.35929" lon="6.69401">
        <ele>195.5</ele>
        <time>2017-10-08T12:20:00Z</time>
      </trkpt>
      <trkpt lat="43.359" lon="6.69401">
        <ele>195.2</ele>
        <time>2017-10-08T12:20:07Z</time>
      </trkpt>
      <trkpt lat="43.35882" lon="6.69411">
        <ele>194.9</ele>
        <time>2017-10-08T12:20:12Z</time>
      </trkpt>
      <trkpt lat="43.3586" lon="6.69433">
        <ele>194.8</ele>
        <time>2017-10-08T12:20:18Z</time>
      </trkpt>
      <trkpt lat="43.3584" lon="6.69462">
        <ele>195.5</ele>
        <time>2017-10-08T12:20:25Z</time>
      </trkpt>
      <trkpt lat="43.35827" lon="6.69481">
        <ele>196.4</ele>
        <time>2017-10-08T12:20:31Z</time>
      </trkpt>
      <trkpt lat="43.35825" lon="6.69484">
        <ele>196.6</ele>
        <time>2017-10-08T12:20:32Z</time>
      </trkpt>
      <trkpt lat="43.35817" lon="6.69493">
        <ele>197.6</ele>
        <time>2017-10-08T12:20:36Z</time>
      </trkpt>
      <trkpt lat="43.35807" lon="6.69498">
        <ele>198.6</ele>
        <time>2017-10-08T12:20:40Z</time>
      </trkpt>
      <trkpt lat="43.35798" lon="6.69496">
        <ele>199.5</ele>
        <time>2017-10-08T12:20:45Z</time>
      </trkpt>
      <trkpt lat="43.35796" lon="6.69501">
        <ele>199.9</ele>
        <time>2017-10-08T12:21:01Z</time>
      </trkpt>
      <trkpt lat="43.35797" lon="6.69503">
        <ele>199.6</ele>
        <time>2017-10-08T12:21:02Z</time>
      </trkpt>
      <trkpt lat="43.35798" lon="6.69524">
        <ele>196.5</ele>
        <time>2017-10-08T12:21:39Z</time>
      </trkpt>
      <trkpt lat="43.35797" lon="6.69526">
        <ele>196</ele>
        <time>2017-10-08T12:21:40Z</time>
      </trkpt>
      <trkpt lat="43.35798" lon="6.69547">
        <ele>192.6</ele>
        <time>2017-10-08T12:21:45Z</time>
      </trkpt>
      <trkpt lat="43.35799" lon="6.69555">
        <ele>191.2</ele>
        <time>2017-10-08T12:21:47Z</time>
      </trkpt>
      <trkpt lat="43.35799" lon="6.69571">
        <ele>189.1</ele>
        <time>2017-10-08T12:21:51Z</time>
      </trkpt>
      <trkpt lat="43.35788" lon="6.69601">
        <ele>187</ele>
        <time>2017-10-08T12:21:57Z</time>
      </trkpt>
      <trkpt lat="43.35776" lon="6.69629">
        <ele>184.7</ele>
        <time>2017-10-08T12:22:02Z</time>
      </trkpt>
      <trkpt lat="43.35772" lon="6.69634">
        <ele>184.1</ele>
        <time>2017-10-08T12:22:03Z</time>
      </trkpt>
      <trkpt lat="43.35768" lon="6.69639">
        <ele>183.7</ele>
        <time>2017-10-08T12:22:04Z</time>
      </trkpt>
      <trkpt lat="43.35765" lon="6.69649">
        <ele>183.3</ele>
        <time>2017-10-08T12:22:06Z</time>
      </trkpt>
      <trkpt lat="43.35762" lon="6.69666">
        <ele>182.7</ele>
        <time>2017-10-08T12:22:09Z</time>
      </trkpt>
      <trkpt lat="43.35761" lon="6.69672">
        <ele>182.5</ele>
        <time>2017-10-08T12:22:10Z</time>
      </trkpt>
      <trkpt lat="43.35761" lon="6.69679">
        <ele>182.3</ele>
        <time>2017-10-08T12:22:11Z</time>
      </trkpt>
      <trkpt lat="43.35762" lon="6.69693">
        <ele>181.6</ele>
        <time>2017-10-08T12:22:13Z</time>
      </trkpt>
      <trkpt lat="43.35762" lon="6.69704">
        <ele>181.2</ele>
        <time>2017-10-08T12:22:15Z</time>
      </trkpt>
      <trkpt lat="43.35761" lon="6.6971">
        <ele>180.9</ele>
        <time>2017-10-08T12:22:16Z</time>
      </trkpt>
      <trkpt lat="43.35759" lon="6.69715">
        <ele>180.5</ele>
        <time>2017-10-08T12:22:17Z</time>
      </trkpt>
      <trkpt lat="43.35756" lon="6.69724">
        <ele>180</ele>
        <time>2017-10-08T12:22:19Z</time>
      </trkpt>
      <trkpt lat="43.35753" lon="6.69727">
        <ele>179.7</ele>
        <time>2017-10-08T12:22:20Z</time>
      </trkpt>
      <trkpt lat="43.35748" lon="6.69726">
        <ele>179.2</ele>
        <time>2017-10-08T12:22:21Z</time>
      </trkpt>
      <trkpt lat="43.35743" lon="6.69723">
        <ele>178.6</ele>
        <time>2017-10-08T12:22:22Z</time>
      </trkpt>
      <trkpt lat="43.35738" lon="6.6972">
        <ele>178</ele>
        <time>2017-10-08T12:22:23Z</time>
      </trkpt>
      <trkpt lat="43.35734" lon="6.69719">
        <ele>177.4</ele>
        <time>2017-10-08T12:22:24Z</time>
      </trkpt>
      <trkpt lat="43.35728" lon="6.69719">
        <ele>176.9</ele>
        <time>2017-10-08T12:22:25Z</time>
      </trkpt>
      <trkpt lat="43.35715" lon="6.6972">
        <ele>176</ele>
        <time>2017-10-08T12:22:27Z</time>
      </trkpt>
      <trkpt lat="43.35703" lon="6.69723">
        <ele>175.5</ele>
        <time>2017-10-08T12:22:29Z</time>
      </trkpt>
      <trkpt lat="43.35698" lon="6.69725">
        <ele>175.3</ele>
        <time>2017-10-08T12:22:30Z</time>
      </trkpt>
      <trkpt lat="43.35693" lon="6.69727">
        <ele>175.1</ele>
        <time>2017-10-08T12:22:31Z</time>
      </trkpt>
      <trkpt lat="43.35689" lon="6.6973">
        <ele>174.9</ele>
        <time>2017-10-08T12:22:32Z</time>
      </trkpt>
      <trkpt lat="43.35685" lon="6.69733">
        <ele>174.7</ele>
        <time>2017-10-08T12:22:33Z</time>
      </trkpt>
      <trkpt lat="43.35678" lon="6.69742">
        <ele>174.3</ele>
        <time>2017-10-08T12:22:35Z</time>
      </trkpt>
      <trkpt lat="43.35671" lon="6.69752">
        <ele>173.8</ele>
        <time>2017-10-08T12:22:37Z</time>
      </trkpt>
      <trkpt lat="43.35666" lon="6.69763">
        <ele>173.2</ele>
        <time>2017-10-08T12:22:39Z</time>
      </trkpt>
      <trkpt lat="43.35661" lon="6.69774">
        <ele>172.8</ele>
        <time>2017-10-08T12:22:41Z</time>
      </trkpt>
      <trkpt lat="43.35656" lon="6.69784">
        <ele>172.4</ele>
        <time>2017-10-08T12:22:43Z</time>
      </trkpt>
      <trkpt lat="43.35654" lon="6.6979">
        <ele>172.2</ele>
        <time>2017-10-08T12:22:44Z</time>
      </trkpt>
      <trkpt lat="43.35651" lon="6.69796">
        <ele>172.1</ele>
        <time>2017-10-08T12:22:45Z</time>
      </trkpt>
      <trkpt lat="43.35646" lon="6.69808">
        <ele>171.9</ele>
        <time>2017-10-08T12:22:47Z</time>
      </trkpt>
      <trkpt lat="43.35642" lon="6.69823">
        <ele>171.7</ele>
        <time>2017-10-08T12:22:49Z</time>
      </trkpt>
      <trkpt lat="43.35636" lon="6.69836">
        <ele>171.4</ele>
        <time>2017-10-08T12:22:51Z</time>
      </trkpt>
      <trkpt lat="43.35633" lon="6.69843">
        <ele>171.3</ele>
        <time>2017-10-08T12:22:52Z</time>
      </trkpt>
      <trkpt lat="43.35617" lon="6.69873">
        <ele>170.5</ele>
        <time>2017-10-08T12:22:56Z</time>
      </trkpt>
      <trkpt lat="43.35613" lon="6.69881">
        <ele>170.2</ele>
        <time>2017-10-08T12:22:57Z</time>
      </trkpt>
      <trkpt lat="43.35596" lon="6.69917">
        <ele>167</ele>
        <time>2017-10-08T12:23:02Z</time>
      </trkpt>
      <trkpt lat="43.35594" lon="6.69924">
        <ele>166.3</ele>
        <time>2017-10-08T12:23:03Z</time>
      </trkpt>
      <trkpt lat="43.35582" lon="6.69972">
        <ele>162.3</ele>
        <time>2017-10-08T12:23:09Z</time>
      </trkpt>
      <trkpt lat="43.35574" lon="6.70006">
        <ele>160.1</ele>
        <time>2017-10-08T12:23:13Z</time>
      </trkpt>
      <trkpt lat="43.35567" lon="6.70032">
        <ele>158.7</ele>
        <time>2017-10-08T12:23:16Z</time>
      </trkpt>
      <trkpt lat="43.35563" lon="6.70061">
        <ele>157</ele>
        <time>2017-10-08T12:23:19Z</time>
      </trkpt>
      <trkpt lat="43.35564" lon="6.70082">
        <ele>157.2</ele>
        <time>2017-10-08T12:23:21Z</time>
      </trkpt>
      <trkpt lat="43.35564" lon="6.70092">
        <ele>157.3</ele>
        <time>2017-10-08T12:23:22Z</time>
      </trkpt>
      <trkpt lat="43.35569" lon="6.70125">
        <ele>157.7</ele>
        <time>2017-10-08T12:23:26Z</time>
      </trkpt>
      <trkpt lat="43.35572" lon="6.70131">
        <ele>157.8</ele>
        <time>2017-10-08T12:23:27Z</time>
      </trkpt>
      <trkpt lat="43.3558" lon="6.70141">
        <ele>157.9</ele>
        <time>2017-10-08T12:23:29Z</time>
      </trkpt>
      <trkpt lat="43.35584" lon="6.70146">
        <ele>158</ele>
        <time>2017-10-08T12:23:30Z</time>
      </trkpt>
      <trkpt lat="43.35593" lon="6.70159">
        <ele>158.2</ele>
        <time>2017-10-08T12:23:32Z</time>
      </trkpt>
      <trkpt lat="43.35598" lon="6.70166">
        <ele>158.3</ele>
        <time>2017-10-08T12:23:33Z</time>
      </trkpt>
      <trkpt lat="43.35602" lon="6.70172">
        <ele>158.3</ele>
        <time>2017-10-08T12:23:34Z</time>
      </trkpt>
      <trkpt lat="43.35608" lon="6.70186">
        <ele>158.4</ele>
        <time>2017-10-08T12:23:36Z</time>
      </trkpt>
      <trkpt lat="43.35615" lon="6.702">
        <ele>158.4</ele>
        <time>2017-10-08T12:23:38Z</time>
      </trkpt>
      <trkpt lat="43.35621" lon="6.70213">
        <ele>158.3</ele>
        <time>2017-10-08T12:23:40Z</time>
      </trkpt>
      <trkpt lat="43.35629" lon="6.70232">
        <ele>157.8</ele>
        <time>2017-10-08T12:23:43Z</time>
      </trkpt>
      <trkpt lat="43.35632" lon="6.70239">
        <ele>157.5</ele>
        <time>2017-10-08T12:23:44Z</time>
      </trkpt>
      <trkpt lat="43.35642" lon="6.70262">
        <ele>156.6</ele>
        <time>2017-10-08T12:23:47Z</time>
      </trkpt>
      <trkpt lat="43.35649" lon="6.70278">
        <ele>156</ele>
        <time>2017-10-08T12:23:49Z</time>
      </trkpt>
      <trkpt lat="43.35652" lon="6.70286">
        <ele>155.7</ele>
        <time>2017-10-08T12:23:50Z</time>
      </trkpt>
      <trkpt lat="43.35662" lon="6.70308">
        <ele>154.9</ele>
        <time>2017-10-08T12:23:53Z</time>
      </trkpt>
      <trkpt lat="43.35671" lon="6.70321">
        <ele>154.4</ele>
        <time>2017-10-08T12:23:55Z</time>
      </trkpt>
      <trkpt lat="43.35675" lon="6.70327">
        <ele>154.2</ele>
        <time>2017-10-08T12:23:56Z</time>
      </trkpt>
      <trkpt lat="43.3568" lon="6.70334">
        <ele>154.1</ele>
        <time>2017-10-08T12:23:57Z</time>
      </trkpt>
      <trkpt lat="43.35689" lon="6.70347">
        <ele>153.8</ele>
        <time>2017-10-08T12:23:59Z</time>
      </trkpt>
      <trkpt lat="43.35693" lon="6.70353">
        <ele>153.6</ele>
        <time>2017-10-08T12:24:00Z</time>
      </trkpt>
      <trkpt lat="43.357" lon="6.70368">
        <ele>153.2</ele>
        <time>2017-10-08T12:24:02Z</time>
      </trkpt>
      <trkpt lat="43.35703" lon="6.70377">
        <ele>153</ele>
        <time>2017-10-08T12:24:03Z</time>
      </trkpt>
      <trkpt lat="43.35704" lon="6.70386">
        <ele>152.7</ele>
        <time>2017-10-08T12:24:04Z</time>
      </trkpt>
      <trkpt lat="43.35704" lon="6.70405">
        <ele>152.1</ele>
        <time>2017-10-08T12:24:06Z</time>
      </trkpt>
      <trkpt lat="43.35704" lon="6.70414">
        <ele>151.7</ele>
        <time>2017-10-08T12:24:07Z</time>
      </trkpt>
      <trkpt lat="43.35706" lon="6.70433">
        <ele>150.8</ele>
        <time>2017-10-08T12:24:09Z</time>
      </trkpt>
      <trkpt lat="43.35709" lon="6.70458">
        <ele>149.7</ele>
        <time>2017-10-08T12:24:12Z</time>
      </trkpt>
      <trkpt lat="43.35715" lon="6.70468">
        <ele>149.2</ele>
        <time>2017-10-08T12:24:14Z</time>
      </trkpt>
      <trkpt lat="43.35721" lon="6.70475">
        <ele>148.8</ele>
        <time>2017-10-08T12:24:16Z</time>
      </trkpt>
      <trkpt lat="43.35727" lon="6.70481">
        <ele>148.4</ele>
        <time>2017-10-08T12:24:18Z</time>
      </trkpt>
      <trkpt lat="43.35735" lon="6.70487">
        <ele>147.8</ele>
        <time>2017-10-08T12:24:20Z</time>
      </trkpt>
      <trkpt lat="43.35742" lon="6.70492">
        <ele>147.1</ele>
        <time>2017-10-08T12:24:22Z</time>
      </trkpt>
      <trkpt lat="43.3575" lon="6.70493">
        <ele>146.4</ele>
        <time>2017-10-08T12:24:24Z</time>
      </trkpt>
      <trkpt lat="43.35758" lon="6.70494">
        <ele>145.7</ele>
        <time>2017-10-08T12:24:26Z</time>
      </trkpt>
      <trkpt lat="43.35763" lon="6.70494">
        <ele>145.2</ele>
        <time>2017-10-08T12:24:27Z</time>
      </trkpt>
      <trkpt lat="43.35767" lon="6.70493">
        <ele>144.8</ele>
        <time>2017-10-08T12:24:28Z</time>
      </trkpt>
      <trkpt lat="43.35775" lon="6.70493">
        <ele>144</ele>
        <time>2017-10-08T12:24:30Z</time>
      </trkpt>
      <trkpt lat="43.3578" lon="6.70495">
        <ele>143.5</ele>
        <time>2017-10-08T12:24:31Z</time>
      </trkpt>
      <trkpt lat="43.35785" lon="6.70497">
        <ele>143.1</ele>
        <time>2017-10-08T12:24:32Z</time>
      </trkpt>
      <trkpt lat="43.35796" lon="6.70505">
        <ele>141.9</ele>
        <time>2017-10-08T12:24:34Z</time>
      </trkpt>
      <trkpt lat="43.35806" lon="6.70514">
        <ele>140.8</ele>
        <time>2017-10-08T12:24:36Z</time>
      </trkpt>
      <trkpt lat="43.35811" lon="6.70519">
        <ele>140.3</ele>
        <time>2017-10-08T12:24:37Z</time>
      </trkpt>
      <trkpt lat="43.3582" lon="6.70528">
        <ele>139.3</ele>
        <time>2017-10-08T12:24:39Z</time>
      </trkpt>
      <trkpt lat="43.35827" lon="6.70536">
        <ele>138.3</ele>
        <time>2017-10-08T12:24:41Z</time>
      </trkpt>
      <trkpt lat="43.35831" lon="6.7054">
        <ele>137.9</ele>
        <time>2017-10-08T12:24:42Z</time>
      </trkpt>
      <trkpt lat="43.35834" lon="6.70543">
        <ele>137.4</ele>
        <time>2017-10-08T12:24:43Z</time>
      </trkpt>
      <trkpt lat="43.3584" lon="6.70549">
        <ele>136.5</ele>
        <time>2017-10-08T12:24:45Z</time>
      </trkpt>
      <trkpt lat="43.35847" lon="6.70555">
        <ele>135.6</ele>
        <time>2017-10-08T12:24:47Z</time>
      </trkpt>
      <trkpt lat="43.3585" lon="6.70558">
        <ele>135.2</ele>
        <time>2017-10-08T12:24:48Z</time>
      </trkpt>
      <trkpt lat="43.35853" lon="6.70561">
        <ele>134.7</ele>
        <time>2017-10-08T12:24:49Z</time>
      </trkpt>
      <trkpt lat="43.35858" lon="6.70568">
        <ele>133.9</ele>
        <time>2017-10-08T12:24:51Z</time>
      </trkpt>
      <trkpt lat="43.35864" lon="6.70573">
        <ele>133.1</ele>
        <time>2017-10-08T12:24:53Z</time>
      </trkpt>
      <trkpt lat="43.35872" lon="6.70577">
        <ele>132.3</ele>
        <time>2017-10-08T12:24:55Z</time>
      </trkpt>
      <trkpt lat="43.35876" lon="6.70577">
        <ele>131.9</ele>
        <time>2017-10-08T12:24:56Z</time>
      </trkpt>
      <trkpt lat="43.3588" lon="6.70577">
        <ele>131.5</ele>
        <time>2017-10-08T12:24:57Z</time>
      </trkpt>
      <trkpt lat="43.35891" lon="6.70577">
        <ele>130.4</ele>
        <time>2017-10-08T12:25:00Z</time>
      </trkpt>
      <trkpt lat="43.35894" lon="6.70578">
        <ele>130</ele>
        <time>2017-10-08T12:25:01Z</time>
      </trkpt>
      <trkpt lat="43.35897" lon="6.7058">
        <ele>129.6</ele>
        <time>2017-10-08T12:25:02Z</time>
      </trkpt>
      <trkpt lat="43.35904" lon="6.70587">
        <ele>128.8</ele>
        <time>2017-10-08T12:25:04Z</time>
      </trkpt>
      <trkpt lat="43.35912" lon="6.70594">
        <ele>128</ele>
        <time>2017-10-08T12:25:06Z</time>
      </trkpt>
      <trkpt lat="43.35919" lon="6.70601">
        <ele>127.2</ele>
        <time>2017-10-08T12:25:08Z</time>
      </trkpt>
      <trkpt lat="43.35923" lon="6.70604">
        <ele>126.9</ele>
        <time>2017-10-08T12:25:09Z</time>
      </trkpt>
      <trkpt lat="43.35927" lon="6.70605">
        <ele>126.6</ele>
        <time>2017-10-08T12:25:10Z</time>
      </trkpt>
      <trkpt lat="43.35931" lon="6.70605">
        <ele>126.3</ele>
        <time>2017-10-08T12:25:11Z</time>
      </trkpt>
      <trkpt lat="43.35935" lon="6.70605">
        <ele>126.1</ele>
        <time>2017-10-08T12:25:12Z</time>
      </trkpt>
      <trkpt lat="43.35941" lon="6.70602">
        <ele>125.7</ele>
        <time>2017-10-08T12:25:14Z</time>
      </trkpt>
      <trkpt lat="43.35948" lon="6.70596">
        <ele>125.2</ele>
        <time>2017-10-08T12:25:16Z</time>
      </trkpt>
      <trkpt lat="43.35954" lon="6.70592">
        <ele>124.7</ele>
        <time>2017-10-08T12:25:18Z</time>
      </trkpt>
      <trkpt lat="43.35957" lon="6.70592">
        <ele>124.5</ele>
        <time>2017-10-08T12:25:19Z</time>
      </trkpt>
      <trkpt lat="43.3596" lon="6.70593">
        <ele>124.3</ele>
        <time>2017-10-08T12:25:20Z</time>
      </trkpt>
      <trkpt lat="43.35963" lon="6.70594">
        <ele>124.2</ele>
        <time>2017-10-08T12:25:21Z</time>
      </trkpt>
      <trkpt lat="43.35966" lon="6.70596">
        <ele>124</ele>
        <time>2017-10-08T12:25:22Z</time>
      </trkpt>
      <trkpt lat="43.35969" lon="6.70598">
        <ele>124</ele>
        <time>2017-10-08T12:25:24Z</time>
      </trkpt>
      <trkpt lat="43.35971" lon="6.70599">
        <ele>124</ele>
        <time>2017-10-08T12:25:26Z</time>
      </trkpt>
      <trkpt lat="43.35968" lon="6.70591">
        <ele>124</ele>
        <time>2017-10-08T12:25:30Z</time>
      </trkpt>
      <trkpt lat="43.35967" lon="6.70589">
        <ele>124</ele>
        <time>2017-10-08T12:25:31Z</time>
      </trkpt>
      <trkpt lat="43.35965" lon="6.70586">
        <ele>124</ele>
        <time>2017-10-08T12:25:32Z</time>
      </trkpt>
      <trkpt lat="43.35962" lon="6.70581">
        <ele>124.1</ele>
        <time>2017-10-08T12:25:34Z</time>
      </trkpt>
      <trkpt lat="43.35959" lon="6.70577">
        <ele>124.3</ele>
        <time>2017-10-08T12:25:36Z</time>
      </trkpt>
      <trkpt lat="43.35954" lon="6.70572">
        <ele>124.5</ele>
        <time>2017-10-08T12:25:39Z</time>
      </trkpt>
      <trkpt lat="43.3595" lon="6.70569">
        <ele>124.9</ele>
        <time>2017-10-08T12:25:41Z</time>
      </trkpt>
      <trkpt lat="43.35946" lon="6.70567">
        <ele>125.5</ele>
        <time>2017-10-08T12:25:43Z</time>
      </trkpt>
      <trkpt lat="43.35942" lon="6.70565">
        <ele>126</ele>
        <time>2017-10-08T12:25:45Z</time>
      </trkpt>
      <trkpt lat="43.35939" lon="6.70563">
        <ele>126.5</ele>
        <time>2017-10-08T12:25:47Z</time>
      </trkpt>
      <trkpt lat="43.35936" lon="6.70561">
        <ele>126.7</ele>
        <time>2017-10-08T12:25:49Z</time>
      </trkpt>
      <trkpt lat="43.35933" lon="6.7056">
        <ele>127.1</ele>
        <time>2017-10-08T12:25:51Z</time>
      </trkpt>
      <trkpt lat="43.35932" lon="6.7056">
        <ele>127.3</ele>
        <time>2017-10-08T12:25:52Z</time>
      </trkpt>
      <trkpt lat="43.3593" lon="6.70559">
        <ele>127.5</ele>
        <time>2017-10-08T12:25:53Z</time>
      </trkpt>
      <trkpt lat="43.35927" lon="6.70557">
        <ele>128</ele>
        <time>2017-10-08T12:25:55Z</time>
      </trkpt>
      <trkpt lat="43.35924" lon="6.70554">
        <ele>128.4</ele>
        <time>2017-10-08T12:25:58Z</time>
      </trkpt>
      <trkpt lat="43.35921" lon="6.70552">
        <ele>128.7</ele>
        <time>2017-10-08T12:26:00Z</time>
      </trkpt>
      <trkpt lat="43.35914" lon="6.70545">
        <ele>129.2</ele>
        <time>2017-10-08T12:26:07Z</time>
      </trkpt>
      <trkpt lat="43.35904" lon="6.70533">
        <ele>130.7</ele>
        <time>2017-10-08T12:26:16Z</time>
      </trkpt>
      <trkpt lat="43.359" lon="6.70529">
        <ele>131</ele>
        <time>2017-10-08T12:26:19Z</time>
      </trkpt>
      <trkpt lat="43.35892" lon="6.70524">
        <ele>131.7</ele>
        <time>2017-10-08T12:26:25Z</time>
      </trkpt>
      <trkpt lat="43.35883" lon="6.7052">
        <ele>132.6</ele>
        <time>2017-10-08T12:26:31Z</time>
      </trkpt>
      <trkpt lat="43.35878" lon="6.70519">
        <ele>132.9</ele>
        <time>2017-10-08T12:26:34Z</time>
      </trkpt>
      <trkpt lat="43.35869" lon="6.70517">
        <ele>133.6</ele>
        <time>2017-10-08T12:26:40Z</time>
      </trkpt>
      <trkpt lat="43.35867" lon="6.70516">
        <ele>133.8</ele>
        <time>2017-10-08T12:26:41Z</time>
      </trkpt>
      <trkpt lat="43.35859" lon="6.70511">
        <ele>135</ele>
        <time>2017-10-08T12:26:47Z</time>
      </trkpt>
      <trkpt lat="43.35854" lon="6.70506">
        <ele>135.5</ele>
        <time>2017-10-08T12:26:51Z</time>
      </trkpt>
      <trkpt lat="43.35848" lon="6.70501">
        <ele>136.2</ele>
        <time>2017-10-08T12:26:55Z</time>
      </trkpt>
      <trkpt lat="43.35847" lon="6.70499">
        <ele>136.4</ele>
        <time>2017-10-08T12:26:56Z</time>
      </trkpt>
      <trkpt lat="43.35842" lon="6.70493">
        <ele>137.3</ele>
        <time>2017-10-08T12:27:01Z</time>
      </trkpt>
      <trkpt lat="43.3584" lon="6.7049">
        <ele>137.5</ele>
        <time>2017-10-08T12:27:03Z</time>
      </trkpt>
      <trkpt lat="43.35837" lon="6.70488">
        <ele>137.7</ele>
        <time>2017-10-08T12:27:05Z</time>
      </trkpt>
      <trkpt lat="43.35834" lon="6.70484">
        <ele>138.2</ele>
        <time>2017-10-08T12:27:08Z</time>
      </trkpt>
      <trkpt lat="43.35833" lon="6.70483">
        <ele>138.4</ele>
        <time>2017-10-08T12:27:09Z</time>
      </trkpt>
      <trkpt lat="43.35829" lon="6.70479">
        <ele>139</ele>
        <time>2017-10-08T12:27:12Z</time>
      </trkpt>
      <trkpt lat="43.35825" lon="6.70475">
        <ele>139.4</ele>
        <time>2017-10-08T12:27:15Z</time>
      </trkpt>
      <trkpt lat="43.35819" lon="6.70471">
        <ele>139.7</ele>
        <time>2017-10-08T12:27:18Z</time>
      </trkpt>
      <trkpt lat="43.35815" lon="6.70467">
        <ele>140</ele>
        <time>2017-10-08T12:27:21Z</time>
      </trkpt>
      <trkpt lat="43.35807" lon="6.70461">
        <ele>140.9</ele>
        <time>2017-10-08T12:27:26Z</time>
      </trkpt>
      <trkpt lat="43.35803" lon="6.70458">
        <ele>141.3</ele>
        <time>2017-10-08T12:27:29Z</time>
      </trkpt>
      <trkpt lat="43.35796" lon="6.70454">
        <ele>141.8</ele>
        <time>2017-10-08T12:27:33Z</time>
      </trkpt>
      <trkpt lat="43.35788" lon="6.70449">
        <ele>142.7</ele>
        <time>2017-10-08T12:27:39Z</time>
      </trkpt>
      <trkpt lat="43.35785" lon="6.70448">
        <ele>143.2</ele>
        <time>2017-10-08T12:27:41Z</time>
      </trkpt>
      <trkpt lat="43.35772" lon="6.70446">
        <ele>143.9</ele>
        <time>2017-10-08T12:27:48Z</time>
      </trkpt>
      <trkpt lat="43.35761" lon="6.7044">
        <ele>145.1</ele>
        <time>2017-10-08T12:27:55Z</time>
      </trkpt>
      <trkpt lat="43.3576" lon="6.70438">
        <ele>145.2</ele>
        <time>2017-10-08T12:27:56Z</time>
      </trkpt>
      <trkpt lat="43.35755" lon="6.70426">
        <ele>145.9</ele>
        <time>2017-10-08T12:28:02Z</time>
      </trkpt>
      <trkpt lat="43.35746" lon="6.70415">
        <ele>146.8</ele>
        <time>2017-10-08T12:28:09Z</time>
      </trkpt>
      <trkpt lat="43.35739" lon="6.70403">
        <ele>147.8</ele>
        <time>2017-10-08T12:28:16Z</time>
      </trkpt>
      <trkpt lat="43.35738" lon="6.70396">
        <ele>148.1</ele>
        <time>2017-10-08T12:28:19Z</time>
      </trkpt>
      <trkpt lat="43.3574" lon="6.70388">
        <ele>148.4</ele>
        <time>2017-10-08T12:28:23Z</time>
      </trkpt>
      <trkpt lat="43.35742" lon="6.70381">
        <ele>148.9</ele>
        <time>2017-10-08T12:28:26Z</time>
      </trkpt>
      <trkpt lat="43.35744" lon="6.70373">
        <ele>149.5</ele>
        <time>2017-10-08T12:28:29Z</time>
      </trkpt>
      <trkpt lat="43.35747" lon="6.70356">
        <ele>150.2</ele>
        <time>2017-10-08T12:28:36Z</time>
      </trkpt>
      <trkpt lat="43.35748" lon="6.70336">
        <ele>151.5</ele>
        <time>2017-10-08T12:28:44Z</time>
      </trkpt>
      <trkpt lat="43.35748" lon="6.70333">
        <ele>151.7</ele>
        <time>2017-10-08T12:28:45Z</time>
      </trkpt>
      <trkpt lat="43.35743" lon="6.70318">
        <ele>152.6</ele>
        <time>2017-10-08T12:28:52Z</time>
      </trkpt>
      <trkpt lat="43.35742" lon="6.70315">
        <ele>152.7</ele>
        <time>2017-10-08T12:28:53Z</time>
      </trkpt>
      <trkpt lat="43.35737" lon="6.70305">
        <ele>153.4</ele>
        <time>2017-10-08T12:28:58Z</time>
      </trkpt>
      <trkpt lat="43.35734" lon="6.70301">
        <ele>153.9</ele>
        <time>2017-10-08T12:29:00Z</time>
      </trkpt>
      <trkpt lat="43.35722" lon="6.70288">
        <ele>155</ele>
        <time>2017-10-08T12:29:08Z</time>
      </trkpt>
      <trkpt lat="43.3572" lon="6.70287">
        <ele>155.1</ele>
        <time>2017-10-08T12:29:09Z</time>
      </trkpt>
      <trkpt lat="43.35711" lon="6.70279">
        <ele>156.2</ele>
        <time>2017-10-08T12:29:14Z</time>
      </trkpt>
      <trkpt lat="43.35709" lon="6.70278">
        <ele>156.3</ele>
        <time>2017-10-08T12:29:15Z</time>
      </trkpt>
      <trkpt lat="43.35704" lon="6.70272">
        <ele>156.5</ele>
        <time>2017-10-08T12:29:18Z</time>
      </trkpt>
      <trkpt lat="43.35697" lon="6.70265">
        <ele>156.8</ele>
        <time>2017-10-08T12:29:22Z</time>
      </trkpt>
      <trkpt lat="43.35693" lon="6.70259">
        <ele>157.1</ele>
        <time>2017-10-08T12:29:25Z</time>
      </trkpt>
      <trkpt lat="43.35688" lon="6.70249">
        <ele>157.9</ele>
        <time>2017-10-08T12:29:29Z</time>
      </trkpt>
      <trkpt lat="43.35687" lon="6.70247">
        <ele>158</ele>
        <time>2017-10-08T12:29:30Z</time>
      </trkpt>
      <trkpt lat="43.3568" lon="6.70231">
        <ele>158.4</ele>
        <time>2017-10-08T12:29:36Z</time>
      </trkpt>
      <trkpt lat="43.35677" lon="6.70223">
        <ele>158.5</ele>
        <time>2017-10-08T12:29:39Z</time>
      </trkpt>
      <trkpt lat="43.35674" lon="6.70211">
        <ele>158.6</ele>
        <time>2017-10-08T12:29:42Z</time>
      </trkpt>
      <trkpt lat="43.35674" lon="6.70185">
        <ele>158.8</ele>
        <time>2017-10-08T12:29:48Z</time>
      </trkpt>
      <trkpt lat="43.3568" lon="6.70152">
        <ele>159.5</ele>
        <time>2017-10-08T12:29:55Z</time>
      </trkpt>
      <trkpt lat="43.35678" lon="6.70126">
        <ele>160.4</ele>
        <time>2017-10-08T12:30:00Z</time>
      </trkpt>
      <trkpt lat="43.35671" lon="6.70102">
        <ele>160.6</ele>
        <time>2017-10-08T12:30:05Z</time>
      </trkpt>
      <trkpt lat="43.35665" lon="6.70094">
        <ele>160.7</ele>
        <time>2017-10-08T12:30:07Z</time>
      </trkpt>
      <trkpt lat="43.35654" lon="6.70082">
        <ele>160.7</ele>
        <time>2017-10-08T12:30:10Z</time>
      </trkpt>
      <trkpt lat="43.35651" lon="6.70078">
        <ele>160.7</ele>
        <time>2017-10-08T12:30:11Z</time>
      </trkpt>
      <trkpt lat="43.3564" lon="6.70058">
        <ele>160.7</ele>
        <time>2017-10-08T12:30:16Z</time>
      </trkpt>
      <trkpt lat="43.35639" lon="6.70039">
        <ele>160.8</ele>
        <time>2017-10-08T12:30:20Z</time>
      </trkpt>
      <trkpt lat="43.3565" lon="6.70023">
        <ele>160.8</ele>
        <time>2017-10-08T12:30:24Z</time>
      </trkpt>
      <trkpt lat="43.35656" lon="6.70014">
        <ele>160.8</ele>
        <time>2017-10-08T12:30:26Z</time>
      </trkpt>
      <trkpt lat="43.35663" lon="6.70004">
        <ele>160.8</ele>
        <time>2017-10-08T12:30:28Z</time>
      </trkpt>
      <trkpt lat="43.35666" lon="6.69999">
        <ele>160.8</ele>
        <time>2017-10-08T12:30:29Z</time>
      </trkpt>
      <trkpt lat="43.35682" lon="6.6997">
        <ele>160.9</ele>
        <time>2017-10-08T12:30:35Z</time>
      </trkpt>
      <trkpt lat="43.35683" lon="6.69964">
        <ele>161</ele>
        <time>2017-10-08T12:30:36Z</time>
      </trkpt>
      <trkpt lat="43.35684" lon="6.69949">
        <ele>161.1</ele>
        <time>2017-10-08T12:30:39Z</time>
      </trkpt>
      <trkpt lat="43.35681" lon="6.69924">
        <ele>161.5</ele>
        <time>2017-10-08T12:30:44Z</time>
      </trkpt>
      <trkpt lat="43.35682" lon="6.69919">
        <ele>161.6</ele>
        <time>2017-10-08T12:30:45Z</time>
      </trkpt>
      <trkpt lat="43.35693" lon="6.69903">
        <ele>162.6</ele>
        <time>2017-10-08T12:30:49Z</time>
      </trkpt>
      <trkpt lat="43.357" lon="6.69896">
        <ele>162.9</ele>
        <time>2017-10-08T12:30:51Z</time>
      </trkpt>
      <trkpt lat="43.35714" lon="6.6989">
        <ele>163</ele>
        <time>2017-10-08T12:30:54Z</time>
      </trkpt>
      <trkpt lat="43.3572" lon="6.69889">
        <ele>163</ele>
        <time>2017-10-08T12:30:55Z</time>
      </trkpt>
      <trkpt lat="43.35725" lon="6.69886">
        <ele>163</ele>
        <time>2017-10-08T12:30:56Z</time>
      </trkpt>
      <trkpt lat="43.35735" lon="6.69879">
        <ele>162.9</ele>
        <time>2017-10-08T12:30:58Z</time>
      </trkpt>
      <trkpt lat="43.3574" lon="6.69874">
        <ele>162.9</ele>
        <time>2017-10-08T12:30:59Z</time>
      </trkpt>
      <trkpt lat="43.3575" lon="6.69852">
        <ele>162.6</ele>
        <time>2017-10-08T12:31:02Z</time>
      </trkpt>
      <trkpt lat="43.35754" lon="6.69845">
        <ele>162.3</ele>
        <time>2017-10-08T12:31:03Z</time>
      </trkpt>
      <trkpt lat="43.35762" lon="6.69831">
        <ele>161.6</ele>
        <time>2017-10-08T12:31:05Z</time>
      </trkpt>
      <trkpt lat="43.35772" lon="6.69826">
        <ele>160.8</ele>
        <time>2017-10-08T12:31:07Z</time>
      </trkpt>
      <trkpt lat="43.35798" lon="6.69834">
        <ele>160.1</ele>
        <time>2017-10-08T12:31:11Z</time>
      </trkpt>
      <trkpt lat="43.35822" lon="6.69853">
        <ele>160</ele>
        <time>2017-10-08T12:31:14Z</time>
      </trkpt>
      <trkpt lat="43.3583" lon="6.6986">
        <ele>159.8</ele>
        <time>2017-10-08T12:31:15Z</time>
      </trkpt>
      <trkpt lat="43.3585" lon="6.69881">
        <ele>159</ele>
        <time>2017-10-08T12:31:18Z</time>
      </trkpt>
      <trkpt lat="43.35863" lon="6.69892">
        <ele>158.4</ele>
        <time>2017-10-08T12:31:20Z</time>
      </trkpt>
      <trkpt lat="43.35868" lon="6.69893">
        <ele>158.1</ele>
        <time>2017-10-08T12:31:21Z</time>
      </trkpt>
      <trkpt lat="43.35877" lon="6.69891">
        <ele>157.4</ele>
        <time>2017-10-08T12:31:23Z</time>
      </trkpt>
      <trkpt lat="43.35891" lon="6.6988">
        <ele>156.4</ele>
        <time>2017-10-08T12:31:26Z</time>
      </trkpt>
      <trkpt lat="43.35894" lon="6.69874">
        <ele>156.1</ele>
        <time>2017-10-08T12:31:27Z</time>
      </trkpt>
      <trkpt lat="43.35898" lon="6.69856">
        <ele>155.5</ele>
        <time>2017-10-08T12:31:29Z</time>
      </trkpt>
      <trkpt lat="43.35899" lon="6.69847">
        <ele>155.3</ele>
        <time>2017-10-08T12:31:30Z</time>
      </trkpt>
      <trkpt lat="43.35899" lon="6.69811">
        <ele>154.7</ele>
        <time>2017-10-08T12:31:33Z</time>
      </trkpt>
      <trkpt lat="43.35899" lon="6.69796">
        <ele>154.5</ele>
        <time>2017-10-08T12:31:34Z</time>
      </trkpt>
      <trkpt lat="43.359" lon="6.69769">
        <ele>154.1</ele>
        <time>2017-10-08T12:31:36Z</time>
      </trkpt>
      <trkpt lat="43.35898" lon="6.69728">
        <ele>153.2</ele>
        <time>2017-10-08T12:31:39Z</time>
      </trkpt>
      <trkpt lat="43.35897" lon="6.69717">
        <ele>152.9</ele>
        <time>2017-10-08T12:31:40Z</time>
      </trkpt>
      <trkpt lat="43.35895" lon="6.69696">
        <ele>152.2</ele>
        <time>2017-10-08T12:31:42Z</time>
      </trkpt>
      <trkpt lat="43.35895" lon="6.69678">
        <ele>151.5</ele>
        <time>2017-10-08T12:31:44Z</time>
      </trkpt>
      <trkpt lat="43.35896" lon="6.69671">
        <ele>151.1</ele>
        <time>2017-10-08T12:31:45Z</time>
      </trkpt>
      <trkpt lat="43.35902" lon="6.69652">
        <ele>152.1</ele>
        <time>2017-10-08T12:31:48Z</time>
      </trkpt>
      <trkpt lat="43.35905" lon="6.69646">
        <ele>152.3</ele>
        <time>2017-10-08T12:31:49Z</time>
      </trkpt>
      <trkpt lat="43.35914" lon="6.69635">
        <ele>149.9</ele>
        <time>2017-10-08T12:31:51Z</time>
      </trkpt>
      <trkpt lat="43.35918" lon="6.69629">
        <ele>150</ele>
        <time>2017-10-08T12:31:52Z</time>
      </trkpt>
      <trkpt lat="43.35923" lon="6.69622">
        <ele>149.7</ele>
        <time>2017-10-08T12:31:53Z</time>
      </trkpt>
      <trkpt lat="43.35936" lon="6.69605">
        <ele>150.7</ele>
        <time>2017-10-08T12:31:56Z</time>
      </trkpt>
      <trkpt lat="43.35943" lon="6.69607">
        <ele>150.6</ele>
        <time>2017-10-08T12:31:57Z</time>
      </trkpt>
      <trkpt lat="43.35949" lon="6.69612">
        <ele>149.8</ele>
        <time>2017-10-08T12:31:58Z</time>
      </trkpt>
      <trkpt lat="43.35958" lon="6.6962">
        <ele>148.8</ele>
        <time>2017-10-08T12:32:00Z</time>
      </trkpt>
      <trkpt lat="43.35968" lon="6.6963">
        <ele>148</ele>
        <time>2017-10-08T12:32:02Z</time>
      </trkpt>
      <trkpt lat="43.35973" lon="6.69635">
        <ele>148.9</ele>
        <time>2017-10-08T12:32:03Z</time>
      </trkpt>
      <trkpt lat="43.35978" lon="6.69644">
        <ele>148.6</ele>
        <time>2017-10-08T12:32:04Z</time>
      </trkpt>
      <trkpt lat="43.35987" lon="6.69661">
        <ele>148.6</ele>
        <time>2017-10-08T12:32:06Z</time>
      </trkpt>
      <trkpt lat="43.35992" lon="6.6967">
        <ele>149.4</ele>
        <time>2017-10-08T12:32:07Z</time>
      </trkpt>
      <trkpt lat="43.35997" lon="6.69679">
        <ele>149.2</ele>
        <time>2017-10-08T12:32:08Z</time>
      </trkpt>
      <trkpt lat="43.36004" lon="6.69699">
        <ele>149.1</ele>
        <time>2017-10-08T12:32:10Z</time>
      </trkpt>
      <trkpt lat="43.36011" lon="6.69717">
        <ele>147.9</ele>
        <time>2017-10-08T12:32:12Z</time>
      </trkpt>
      <trkpt lat="43.36014" lon="6.69724">
        <ele>147.5</ele>
        <time>2017-10-08T12:32:13Z</time>
      </trkpt>
      <trkpt lat="43.36017" lon="6.69731">
        <ele>147.8</ele>
        <time>2017-10-08T12:32:14Z</time>
      </trkpt>
      <trkpt lat="43.36023" lon="6.69745">
        <ele>146.4</ele>
        <time>2017-10-08T12:32:16Z</time>
      </trkpt>
      <trkpt lat="43.36025" lon="6.69763">
        <ele>143.7</ele>
        <time>2017-10-08T12:32:18Z</time>
      </trkpt>
      <trkpt lat="43.36024" lon="6.69782">
        <ele>140.7</ele>
        <time>2017-10-08T12:32:20Z</time>
      </trkpt>
      <trkpt lat="43.36027" lon="6.698">
        <ele>137.7</ele>
        <time>2017-10-08T12:32:22Z</time>
      </trkpt>
      <trkpt lat="43.36031" lon="6.69808">
        <ele>136.4</ele>
        <time>2017-10-08T12:32:23Z</time>
      </trkpt>
      <trkpt lat="43.36035" lon="6.69816">
        <ele>134.6</ele>
        <time>2017-10-08T12:32:24Z</time>
      </trkpt>
      <trkpt lat="43.36044" lon="6.69832">
        <ele>133.1</ele>
        <time>2017-10-08T12:32:26Z</time>
      </trkpt>
      <trkpt lat="43.36053" lon="6.69849">
        <ele>134.1</ele>
        <time>2017-10-08T12:32:28Z</time>
      </trkpt>
      <trkpt lat="43.36061" lon="6.69867">
        <ele>134.5</ele>
        <time>2017-10-08T12:32:30Z</time>
      </trkpt>
      <trkpt lat="43.36065" lon="6.69875">
        <ele>133.5</ele>
        <time>2017-10-08T12:32:31Z</time>
      </trkpt>
      <trkpt lat="43.36069" lon="6.69884">
        <ele>132.4</ele>
        <time>2017-10-08T12:32:32Z</time>
      </trkpt>
      <trkpt lat="43.36075" lon="6.69901">
        <ele>130.1</ele>
        <time>2017-10-08T12:32:34Z</time>
      </trkpt>
      <trkpt lat="43.3608" lon="6.69919">
        <ele>127.6</ele>
        <time>2017-10-08T12:32:36Z</time>
      </trkpt>
      <trkpt lat="43.36082" lon="6.69928">
        <ele>126.7</ele>
        <time>2017-10-08T12:32:37Z</time>
      </trkpt>
      <trkpt lat="43.36085" lon="6.69937">
        <ele>125</ele>
        <time>2017-10-08T12:32:38Z</time>
      </trkpt>
      <trkpt lat="43.36089" lon="6.69954">
        <ele>124</ele>
        <time>2017-10-08T12:32:40Z</time>
      </trkpt>
      <trkpt lat="43.36093" lon="6.69971">
        <ele>121.6</ele>
        <time>2017-10-08T12:32:42Z</time>
      </trkpt>
      <trkpt lat="43.36097" lon="6.69988">
        <ele>119.8</ele>
        <time>2017-10-08T12:32:44Z</time>
      </trkpt>
      <trkpt lat="43.361" lon="6.70008">
        <ele>117.3</ele>
        <time>2017-10-08T12:32:46Z</time>
      </trkpt>
      <trkpt lat="43.36101" lon="6.70017">
        <ele>116.3</ele>
        <time>2017-10-08T12:32:47Z</time>
      </trkpt>
      <trkpt lat="43.36104" lon="6.70025">
        <ele>114.7</ele>
        <time>2017-10-08T12:32:48Z</time>
      </trkpt>
      <trkpt lat="43.36108" lon="6.70042">
        <ele>113.2</ele>
        <time>2017-10-08T12:32:50Z</time>
      </trkpt>
      <trkpt lat="43.36111" lon="6.7006">
        <ele>110.7</ele>
        <time>2017-10-08T12:32:52Z</time>
      </trkpt>
      <trkpt lat="43.36115" lon="6.70079">
        <ele>107.8</ele>
        <time>2017-10-08T12:32:54Z</time>
      </trkpt>
      <trkpt lat="43.36119" lon="6.70098">
        <ele>103.9</ele>
        <time>2017-10-08T12:32:56Z</time>
      </trkpt>
      <trkpt lat="43.36121" lon="6.70107">
        <ele>102.3</ele>
        <time>2017-10-08T12:32:57Z</time>
      </trkpt>
      <trkpt lat="43.36123" lon="6.70115">
        <ele>100.9</ele>
        <time>2017-10-08T12:32:58Z</time>
      </trkpt>
      <trkpt lat="43.36127" lon="6.70132">
        <ele>97.2</ele>
        <time>2017-10-08T12:33:00Z</time>
      </trkpt>
      <trkpt lat="43.36133" lon="6.70146">
        <ele>96.2</ele>
        <time>2017-10-08T12:33:02Z</time>
      </trkpt>
      <trkpt lat="43.36141" lon="6.70156">
        <ele>95.3</ele>
        <time>2017-10-08T12:33:04Z</time>
      </trkpt>
      <trkpt lat="43.36151" lon="6.70163">
        <ele>94.4</ele>
        <time>2017-10-08T12:33:06Z</time>
      </trkpt>
      <trkpt lat="43.36162" lon="6.70166">
        <ele>93.6</ele>
        <time>2017-10-08T12:33:08Z</time>
      </trkpt>
      <trkpt lat="43.36173" lon="6.70164">
        <ele>92.6</ele>
        <time>2017-10-08T12:33:10Z</time>
      </trkpt>
      <trkpt lat="43.36179" lon="6.70162">
        <ele>92</ele>
        <time>2017-10-08T12:33:11Z</time>
      </trkpt>
      <trkpt lat="43.36185" lon="6.70158">
        <ele>91.4</ele>
        <time>2017-10-08T12:33:12Z</time>
      </trkpt>
      <trkpt lat="43.36196" lon="6.70153">
        <ele>90.3</ele>
        <time>2017-10-08T12:33:14Z</time>
      </trkpt>
      <trkpt lat="43.36201" lon="6.70154">
        <ele>89.7</ele>
        <time>2017-10-08T12:33:15Z</time>
      </trkpt>
      <trkpt lat="43.36206" lon="6.70155">
        <ele>89.2</ele>
        <time>2017-10-08T12:33:16Z</time>
      </trkpt>
      <trkpt lat="43.36212" lon="6.70158">
        <ele>88.7</ele>
        <time>2017-10-08T12:33:17Z</time>
      </trkpt>
      <trkpt lat="43.36217" lon="6.70162">
        <ele>88.1</ele>
        <time>2017-10-08T12:33:18Z</time>
      </trkpt>
      <trkpt lat="43.36227" lon="6.70171">
        <ele>87.1</ele>
        <time>2017-10-08T12:33:20Z</time>
      </trkpt>
      <trkpt lat="43.36231" lon="6.70176">
        <ele>86.5</ele>
        <time>2017-10-08T12:33:21Z</time>
      </trkpt>
      <trkpt lat="43.36235" lon="6.70181">
        <ele>86.1</ele>
        <time>2017-10-08T12:33:22Z</time>
      </trkpt>
      <trkpt lat="43.36242" lon="6.70192">
        <ele>85.3</ele>
        <time>2017-10-08T12:33:24Z</time>
      </trkpt>
      <trkpt lat="43.36249" lon="6.70205">
        <ele>84.1</ele>
        <time>2017-10-08T12:33:26Z</time>
      </trkpt>
      <trkpt lat="43.36253" lon="6.70211">
        <ele>83.6</ele>
        <time>2017-10-08T12:33:27Z</time>
      </trkpt>
      <trkpt lat="43.36259" lon="6.70222">
        <ele>82.8</ele>
        <time>2017-10-08T12:33:29Z</time>
      </trkpt>
      <trkpt lat="43.36265" lon="6.70235">
        <ele>81.9</ele>
        <time>2017-10-08T12:33:31Z</time>
      </trkpt>
      <trkpt lat="43.36269" lon="6.70246">
        <ele>81</ele>
        <time>2017-10-08T12:33:33Z</time>
      </trkpt>
      <trkpt lat="43.36265" lon="6.70263">
        <ele>79.6</ele>
        <time>2017-10-08T12:33:35Z</time>
      </trkpt>
      <trkpt lat="43.36262" lon="6.70273">
        <ele>78.7</ele>
        <time>2017-10-08T12:33:36Z</time>
      </trkpt>
      <trkpt lat="43.36262" lon="6.70282">
        <ele>78</ele>
        <time>2017-10-08T12:33:37Z</time>
      </trkpt>
      <trkpt lat="43.36263" lon="6.7029">
        <ele>77.3</ele>
        <time>2017-10-08T12:33:38Z</time>
      </trkpt>
      <trkpt lat="43.36264" lon="6.70296">
        <ele>76.7</ele>
        <time>2017-10-08T12:33:39Z</time>
      </trkpt>
      <trkpt lat="43.36272" lon="6.70307">
        <ele>75.5</ele>
        <time>2017-10-08T12:33:41Z</time>
      </trkpt>
      <trkpt lat="43.36284" lon="6.70317">
        <ele>74.5</ele>
        <time>2017-10-08T12:33:44Z</time>
      </trkpt>
      <trkpt lat="43.36288" lon="6.70318">
        <ele>74.3</ele>
        <time>2017-10-08T12:33:45Z</time>
      </trkpt>
      <trkpt lat="43.36297" lon="6.70315">
        <ele>73.6</ele>
        <time>2017-10-08T12:33:47Z</time>
      </trkpt>
      <trkpt lat="43.36305" lon="6.7031">
        <ele>72.9</ele>
        <time>2017-10-08T12:33:49Z</time>
      </trkpt>
      <trkpt lat="43.36309" lon="6.70308">
        <ele>72.5</ele>
        <time>2017-10-08T12:33:50Z</time>
      </trkpt>
      <trkpt lat="43.36315" lon="6.70302">
        <ele>71.8</ele>
        <time>2017-10-08T12:33:52Z</time>
      </trkpt>
      <trkpt lat="43.36321" lon="6.70295">
        <ele>71.4</ele>
        <time>2017-10-08T12:33:54Z</time>
      </trkpt>
      <trkpt lat="43.36325" lon="6.70293">
        <ele>71.1</ele>
        <time>2017-10-08T12:33:55Z</time>
      </trkpt>
      <trkpt lat="43.36329" lon="6.70291">
        <ele>70.8</ele>
        <time>2017-10-08T12:33:56Z</time>
      </trkpt>
      <trkpt lat="43.36332" lon="6.70291">
        <ele>70.5</ele>
        <time>2017-10-08T12:33:57Z</time>
      </trkpt>
      <trkpt lat="43.36335" lon="6.70293">
        <ele>70.1</ele>
        <time>2017-10-08T12:33:58Z</time>
      </trkpt>
      <trkpt lat="43.36339" lon="6.70295">
        <ele>69.7</ele>
        <time>2017-10-08T12:33:59Z</time>
      </trkpt>
      <trkpt lat="43.36342" lon="6.70298">
        <ele>69.2</ele>
        <time>2017-10-08T12:34:00Z</time>
      </trkpt>
      <trkpt lat="43.36345" lon="6.703">
        <ele>68.6</ele>
        <time>2017-10-08T12:34:01Z</time>
      </trkpt>
      <trkpt lat="43.36348" lon="6.70303">
        <ele>68.1</ele>
        <time>2017-10-08T12:34:02Z</time>
      </trkpt>
      <trkpt lat="43.36353" lon="6.70309">
        <ele>67.3</ele>
        <time>2017-10-08T12:34:04Z</time>
      </trkpt>
      <trkpt lat="43.36356" lon="6.70312">
        <ele>66.9</ele>
        <time>2017-10-08T12:34:05Z</time>
      </trkpt>
      <trkpt lat="43.36358" lon="6.70316">
        <ele>66.6</ele>
        <time>2017-10-08T12:34:06Z</time>
      </trkpt>
      <trkpt lat="43.36363" lon="6.70323">
        <ele>66</ele>
        <time>2017-10-08T12:34:08Z</time>
      </trkpt>
      <trkpt lat="43.36367" lon="6.7033">
        <ele>65.4</ele>
        <time>2017-10-08T12:34:10Z</time>
      </trkpt>
      <trkpt lat="43.36366" lon="6.70337">
        <ele>64.9</ele>
        <time>2017-10-08T12:34:11Z</time>
      </trkpt>
      <trkpt lat="43.36364" lon="6.70344">
        <ele>64.4</ele>
        <time>2017-10-08T12:34:12Z</time>
      </trkpt>
      <trkpt lat="43.36359" lon="6.70372">
        <ele>62.5</ele>
        <time>2017-10-08T12:34:16Z</time>
      </trkpt>
      <trkpt lat="43.36356" lon="6.70392">
        <ele>61.4</ele>
        <time>2017-10-08T12:34:19Z</time>
      </trkpt>
      <trkpt lat="43.36353" lon="6.704">
        <ele>60.9</ele>
        <time>2017-10-08T12:34:20Z</time>
      </trkpt>
      <trkpt lat="43.3635" lon="6.70408">
        <ele>60.4</ele>
        <time>2017-10-08T12:34:21Z</time>
      </trkpt>
      <trkpt lat="43.36346" lon="6.70423">
        <ele>59.5</ele>
        <time>2017-10-08T12:34:23Z</time>
      </trkpt>
      <trkpt lat="43.36345" lon="6.70431">
        <ele>59.2</ele>
        <time>2017-10-08T12:34:24Z</time>
      </trkpt>
      <trkpt lat="43.36342" lon="6.70448">
        <ele>58.5</ele>
        <time>2017-10-08T12:34:26Z</time>
      </trkpt>
      <trkpt lat="43.36338" lon="6.70466">
        <ele>57.4</ele>
        <time>2017-10-08T12:34:28Z</time>
      </trkpt>
      <trkpt lat="43.36335" lon="6.70483">
        <ele>56.4</ele>
        <time>2017-10-08T12:34:30Z</time>
      </trkpt>
      <trkpt lat="43.36334" lon="6.70499">
        <ele>55.3</ele>
        <time>2017-10-08T12:34:32Z</time>
      </trkpt>
      <trkpt lat="43.36335" lon="6.70512">
        <ele>54.4</ele>
        <time>2017-10-08T12:34:34Z</time>
      </trkpt>
      <trkpt lat="43.36344" lon="6.70523">
        <ele>53.6</ele>
        <time>2017-10-08T12:34:37Z</time>
      </trkpt>
      <trkpt lat="43.36348" lon="6.70525">
        <ele>53.3</ele>
        <time>2017-10-08T12:34:38Z</time>
      </trkpt>
      <trkpt lat="43.36357" lon="6.70529">
        <ele>52.5</ele>
        <time>2017-10-08T12:34:40Z</time>
      </trkpt>
      <trkpt lat="43.36378" lon="6.70534">
        <ele>50.2</ele>
        <time>2017-10-08T12:34:44Z</time>
      </trkpt>
      <trkpt lat="43.36387" lon="6.70533">
        <ele>49</ele>
        <time>2017-10-08T12:34:46Z</time>
      </trkpt>
      <trkpt lat="43.36391" lon="6.70531">
        <ele>48.5</ele>
        <time>2017-10-08T12:34:47Z</time>
      </trkpt>
      <trkpt lat="43.36395" lon="6.70528">
        <ele>48</ele>
        <time>2017-10-08T12:34:48Z</time>
      </trkpt>
      <trkpt lat="43.36403" lon="6.70524">
        <ele>47.2</ele>
        <time>2017-10-08T12:34:50Z</time>
      </trkpt>
      <trkpt lat="43.36413" lon="6.70525">
        <ele>46.4</ele>
        <time>2017-10-08T12:34:52Z</time>
      </trkpt>
      <trkpt lat="43.36418" lon="6.70527">
        <ele>46</ele>
        <time>2017-10-08T12:34:53Z</time>
      </trkpt>
      <trkpt lat="43.36428" lon="6.70527">
        <ele>45.3</ele>
        <time>2017-10-08T12:34:55Z</time>
      </trkpt>
      <trkpt lat="43.36433" lon="6.70526">
        <ele>44.9</ele>
        <time>2017-10-08T12:34:56Z</time>
      </trkpt>
      <trkpt lat="43.36439" lon="6.70526">
        <ele>44.6</ele>
        <time>2017-10-08T12:34:57Z</time>
      </trkpt>
      <trkpt lat="43.36444" lon="6.70525">
        <ele>44.2</ele>
        <time>2017-10-08T12:34:58Z</time>
      </trkpt>
      <trkpt lat="43.3645" lon="6.70523">
        <ele>43.8</ele>
        <time>2017-10-08T12:34:59Z</time>
      </trkpt>
      <trkpt lat="43.36455" lon="6.70521">
        <ele>43.3</ele>
        <time>2017-10-08T12:35:00Z</time>
      </trkpt>
      <trkpt lat="43.36465" lon="6.70514">
        <ele>42.2</ele>
        <time>2017-10-08T12:35:02Z</time>
      </trkpt>
      <trkpt lat="43.3647" lon="6.70511">
        <ele>41.7</ele>
        <time>2017-10-08T12:35:03Z</time>
      </trkpt>
      <trkpt lat="43.36475" lon="6.70507">
        <ele>41.2</ele>
        <time>2017-10-08T12:35:04Z</time>
      </trkpt>
      <trkpt lat="43.36483" lon="6.705">
        <ele>40.1</ele>
        <time>2017-10-08T12:35:06Z</time>
      </trkpt>
      <trkpt lat="43.36486" lon="6.70497">
        <ele>39.6</ele>
        <time>2017-10-08T12:35:07Z</time>
      </trkpt>
      <trkpt lat="43.36488" lon="6.70493">
        <ele>39</ele>
        <time>2017-10-08T12:35:08Z</time>
      </trkpt>
      <trkpt lat="43.36495" lon="6.70488">
        <ele>37.6</ele>
        <time>2017-10-08T12:35:10Z</time>
      </trkpt>
      <trkpt lat="43.36501" lon="6.70487">
        <ele>36.9</ele>
        <time>2017-10-08T12:35:12Z</time>
      </trkpt>
      <trkpt lat="43.36504" lon="6.70488">
        <ele>36.6</ele>
        <time>2017-10-08T12:35:13Z</time>
      </trkpt>
      <trkpt lat="43.36506" lon="6.70488">
        <ele>36.5</ele>
        <time>2017-10-08T12:35:14Z</time>
      </trkpt>
      <trkpt lat="43.36508" lon="6.70489">
        <ele>36.3</ele>
        <time>2017-10-08T12:35:15Z</time>
      </trkpt>
      <trkpt lat="43.36509" lon="6.70489">
        <ele>36.2</ele>
        <time>2017-10-08T12:35:16Z</time>
      </trkpt>
      <trkpt lat="43.3651" lon="6.70489">
        <ele>36.1</ele>
        <time>2017-10-08T12:35:17Z</time>
      </trkpt>
      <trkpt lat="43.36512" lon="6.7049">
        <ele>36</ele>
        <time>2017-10-08T12:35:18Z</time>
      </trkpt>
      <trkpt lat="43.36515" lon="6.7049">
        <ele>35.7</ele>
        <time>2017-10-08T12:35:20Z</time>
      </trkpt>
      <trkpt lat="43.3652" lon="6.7049">
        <ele>35.3</ele>
        <time>2017-10-08T12:35:22Z</time>
      </trkpt>
      <trkpt lat="43.36523" lon="6.7049">
        <ele>35</ele>
        <time>2017-10-08T12:35:23Z</time>
      </trkpt>
      <trkpt lat="43.36527" lon="6.70492">
        <ele>34.6</ele>
        <time>2017-10-08T12:35:24Z</time>
      </trkpt>
      <trkpt lat="43.36531" lon="6.70496">
        <ele>34.1</ele>
        <time>2017-10-08T12:35:25Z</time>
      </trkpt>
      <trkpt lat="43.36535" lon="6.705">
        <ele>33.7</ele>
        <time>2017-10-08T12:35:26Z</time>
      </trkpt>
      <trkpt lat="43.3654" lon="6.70503">
        <ele>33.4</ele>
        <time>2017-10-08T12:35:27Z</time>
      </trkpt>
      <trkpt lat="43.36543" lon="6.70504">
        <ele>33.2</ele>
        <time>2017-10-08T12:35:28Z</time>
      </trkpt>
      <trkpt lat="43.36551" lon="6.70504">
        <ele>32.7</ele>
        <time>2017-10-08T12:35:30Z</time>
      </trkpt>
      <trkpt lat="43.36554" lon="6.70503">
        <ele>32.4</ele>
        <time>2017-10-08T12:35:31Z</time>
      </trkpt>
      <trkpt lat="43.36558" lon="6.70502">
        <ele>32.2</ele>
        <time>2017-10-08T12:35:32Z</time>
      </trkpt>
      <trkpt lat="43.36564" lon="6.70499">
        <ele>31.7</ele>
        <time>2017-10-08T12:35:34Z</time>
      </trkpt>
      <trkpt lat="43.3657" lon="6.70493">
        <ele>31.2</ele>
        <time>2017-10-08T12:35:36Z</time>
      </trkpt>
      <trkpt lat="43.36574" lon="6.70493">
        <ele>31</ele>
        <time>2017-10-08T12:35:37Z</time>
      </trkpt>
      <trkpt lat="43.36577" lon="6.70494">
        <ele>30.8</ele>
        <time>2017-10-08T12:35:38Z</time>
      </trkpt>
      <trkpt lat="43.36583" lon="6.705">
        <ele>31.5</ele>
        <time>2017-10-08T12:35:40Z</time>
      </trkpt>
      <trkpt lat="43.36587" lon="6.70508">
        <ele>31.5</ele>
        <time>2017-10-08T12:35:42Z</time>
      </trkpt>
      <trkpt lat="43.36589" lon="6.70512">
        <ele>30.8</ele>
        <time>2017-10-08T12:35:43Z</time>
      </trkpt>
      <trkpt lat="43.3659" lon="6.70516">
        <ele>30.4</ele>
        <time>2017-10-08T12:35:44Z</time>
      </trkpt>
      <trkpt lat="43.36592" lon="6.70526">
        <ele>29.7</ele>
        <time>2017-10-08T12:35:46Z</time>
      </trkpt>
      <trkpt lat="43.36591" lon="6.70534">
        <ele>29.2</ele>
        <time>2017-10-08T12:35:47Z</time>
      </trkpt>
      <trkpt lat="43.36588" lon="6.70553">
        <ele>28.7</ele>
        <time>2017-10-08T12:35:49Z</time>
      </trkpt>
      <trkpt lat="43.36589" lon="6.70569">
        <ele>27.7</ele>
        <time>2017-10-08T12:35:51Z</time>
      </trkpt>
      <trkpt lat="43.3659" lon="6.70589">
        <ele>26.1</ele>
        <time>2017-10-08T12:35:54Z</time>
      </trkpt>
      <trkpt lat="43.36591" lon="6.70599">
        <ele>25</ele>
        <time>2017-10-08T12:35:56Z</time>
      </trkpt>
      <trkpt lat="43.36596" lon="6.70616">
        <ele>25</ele>
        <time>2017-10-08T12:36:00Z</time>
      </trkpt>
      <trkpt lat="43.36614" lon="6.70627">
        <ele>25.1</ele>
        <time>2017-10-08T12:36:05Z</time>
      </trkpt>
      <trkpt lat="43.36632" lon="6.70645">
        <ele>25.3</ele>
        <time>2017-10-08T12:36:10Z</time>
      </trkpt>
      <trkpt lat="43.36636" lon="6.7065">
        <ele>25.4</ele>
        <time>2017-10-08T12:36:11Z</time>
      </trkpt>
      <trkpt lat="43.3665" lon="6.70668">
        <ele>25.2</ele>
        <time>2017-10-08T12:36:15Z</time>
      </trkpt>
      <trkpt lat="43.36657" lon="6.70669">
        <ele>25.1</ele>
        <time>2017-10-08T12:36:17Z</time>
      </trkpt>
      <trkpt lat="43.36659" lon="6.70667">
        <ele>25.1</ele>
        <time>2017-10-08T12:36:18Z</time>
      </trkpt>
      <trkpt lat="43.36661" lon="6.70665">
        <ele>25</ele>
        <time>2017-10-08T12:36:19Z</time>
      </trkpt>
      <trkpt lat="43.36663" lon="6.70664">
        <ele>25</ele>
        <time>2017-10-08T12:36:20Z</time>
      </trkpt>
      <trkpt lat="43.3667" lon="6.70658">
        <ele>24.9</ele>
        <time>2017-10-08T12:36:22Z</time>
      </trkpt>
      <trkpt lat="43.36673" lon="6.70657">
        <ele>24.9</ele>
        <time>2017-10-08T12:36:23Z</time>
      </trkpt>
      <trkpt lat="43.36676" lon="6.70656">
        <ele>24.9</ele>
        <time>2017-10-08T12:36:24Z</time>
      </trkpt>
      <trkpt lat="43.3668" lon="6.70655">
        <ele>24.8</ele>
        <time>2017-10-08T12:36:25Z</time>
      </trkpt>
      <trkpt lat="43.36685" lon="6.70656">
        <ele>24.8</ele>
        <time>2017-10-08T12:36:26Z</time>
      </trkpt>
      <trkpt lat="43.3669" lon="6.7066">
        <ele>24.8</ele>
        <time>2017-10-08T12:36:27Z</time>
      </trkpt>
      <trkpt lat="43.36713" lon="6.70686">
        <ele>24</ele>
        <time>2017-10-08T12:36:32Z</time>
      </trkpt>
      <trkpt lat="43.36717" lon="6.70694">
        <ele>23.6</ele>
        <time>2017-10-08T12:36:33Z</time>
      </trkpt>
      <trkpt lat="43.36722" lon="6.70702">
        <ele>23.1</ele>
        <time>2017-10-08T12:36:34Z</time>
      </trkpt>
      <trkpt lat="43.36729" lon="6.70715">
        <ele>22.9</ele>
        <time>2017-10-08T12:36:37Z</time>
      </trkpt>
      <trkpt lat="43.36731" lon="6.70715">
        <ele>22.9</ele>
        <time>2017-10-08T12:36:38Z</time>
      </trkpt>
      <trkpt lat="43.36732" lon="6.70714">
        <ele>22.9</ele>
        <time>2017-10-08T12:36:39Z</time>
      </trkpt>
      <trkpt lat="43.36732" lon="6.7071">
        <ele>22.8</ele>
        <time>2017-10-08T12:36:40Z</time>
      </trkpt>
      <trkpt lat="43.36731" lon="6.70693">
        <ele>22.5</ele>
        <time>2017-10-08T12:36:43Z</time>
      </trkpt>
      <trkpt lat="43.36731" lon="6.70686">
        <ele>22.4</ele>
        <time>2017-10-08T12:36:44Z</time>
      </trkpt>
      <trkpt lat="43.3673" lon="6.70666">
        <ele>22.1</ele>
        <time>2017-10-08T12:36:47Z</time>
      </trkpt>
      <trkpt lat="43.36731" lon="6.7065">
        <ele>21.9</ele>
        <time>2017-10-08T12:36:49Z</time>
      </trkpt>
      <trkpt lat="43.36733" lon="6.70642">
        <ele>21.8</ele>
        <time>2017-10-08T12:36:50Z</time>
      </trkpt>
      <trkpt lat="43.36735" lon="6.70634">
        <ele>21.7</ele>
        <time>2017-10-08T12:36:51Z</time>
      </trkpt>
      <trkpt lat="43.3675" lon="6.70621">
        <ele>20.3</ele>
        <time>2017-10-08T12:36:54Z</time>
      </trkpt>
      <trkpt lat="43.36763" lon="6.70622">
        <ele>18.1</ele>
        <time>2017-10-08T12:36:56Z</time>
      </trkpt>
      <trkpt lat="43.3677" lon="6.70625">
        <ele>16.8</ele>
        <time>2017-10-08T12:36:57Z</time>
      </trkpt>
      <trkpt lat="43.36776" lon="6.7063">
        <ele>15.4</ele>
        <time>2017-10-08T12:36:58Z</time>
      </trkpt>
      <trkpt lat="43.3678" lon="6.70633">
        <ele>15.6</ele>
        <time>2017-10-08T12:36:59Z</time>
      </trkpt>
      <trkpt lat="43.36784" lon="6.70637">
        <ele>15.8</ele>
        <time>2017-10-08T12:37:00Z</time>
      </trkpt>
      <trkpt lat="43.36788" lon="6.70638">
        <ele>15.9</ele>
        <time>2017-10-08T12:37:01Z</time>
      </trkpt>
      <trkpt lat="43.3679" lon="6.70637">
        <ele>16</ele>
        <time>2017-10-08T12:37:02Z</time>
      </trkpt>
      <trkpt lat="43.36795" lon="6.7063">
        <ele>16.3</ele>
        <time>2017-10-08T12:37:04Z</time>
      </trkpt>
      <trkpt lat="43.36801" lon="6.70621">
        <ele>16.6</ele>
        <time>2017-10-08T12:37:06Z</time>
      </trkpt>
      <trkpt lat="43.36805" lon="6.70611">
        <ele>16.9</ele>
        <time>2017-10-08T12:37:08Z</time>
      </trkpt>
      <trkpt lat="43.36807" lon="6.70605">
        <ele>17</ele>
        <time>2017-10-08T12:37:09Z</time>
      </trkpt>
      <trkpt lat="43.36808" lon="6.70591">
        <ele>17.3</ele>
        <time>2017-10-08T12:37:11Z</time>
      </trkpt>
      <trkpt lat="43.36808" lon="6.70576">
        <ele>19</ele>
        <time>2017-10-08T12:37:13Z</time>
      </trkpt>
      <trkpt lat="43.36808" lon="6.7057">
        <ele>19</ele>
        <time>2017-10-08T12:37:14Z</time>
      </trkpt>
      <trkpt lat="43.36808" lon="6.70559">
        <ele>19</ele>
        <time>2017-10-08T12:37:16Z</time>
      </trkpt>
      <trkpt lat="43.36802" lon="6.70551">
        <ele>19.7</ele>
        <time>2017-10-08T12:37:19Z</time>
      </trkpt>
      <trkpt lat="43.36803" lon="6.70548">
        <ele>19.8</ele>
        <time>2017-10-08T12:37:20Z</time>
      </trkpt>
      <trkpt lat="43.36801" lon="6.7054">
        <ele>20.1</ele>
        <time>2017-10-08T12:37:21Z</time>
      </trkpt>
      <trkpt lat="43.36799" lon="6.70533">
        <ele>20.4</ele>
        <time>2017-10-08T12:37:22Z</time>
      </trkpt>
      <trkpt lat="43.36797" lon="6.70527">
        <ele>20.5</ele>
        <time>2017-10-08T12:37:23Z</time>
      </trkpt>
      <trkpt lat="43.36795" lon="6.70522">
        <ele>20.7</ele>
        <time>2017-10-08T12:37:24Z</time>
      </trkpt>
      <trkpt lat="43.36793" lon="6.70515">
        <ele>20.9</ele>
        <time>2017-10-08T12:37:25Z</time>
      </trkpt>
      <trkpt lat="43.36792" lon="6.70509">
        <ele>21</ele>
        <time>2017-10-08T12:37:26Z</time>
      </trkpt>
      <trkpt lat="43.36791" lon="6.70497">
        <ele>21.3</ele>
        <time>2017-10-08T12:37:28Z</time>
      </trkpt>
      <trkpt lat="43.3679" lon="6.70491">
        <ele>21.5</ele>
        <time>2017-10-08T12:37:29Z</time>
      </trkpt>
      <trkpt lat="43.3679" lon="6.70485">
        <ele>21.6</ele>
        <time>2017-10-08T12:37:30Z</time>
      </trkpt>
      <trkpt lat="43.36791" lon="6.70472">
        <ele>21.9</ele>
        <time>2017-10-08T12:37:32Z</time>
      </trkpt>
      <trkpt lat="43.36794" lon="6.70447">
        <ele>22.8</ele>
        <time>2017-10-08T12:37:36Z</time>
      </trkpt>
      <trkpt lat="43.36797" lon="6.70435">
        <ele>23.3</ele>
        <time>2017-10-08T12:37:38Z</time>
      </trkpt>
      <trkpt lat="43.36798" lon="6.7043">
        <ele>23.7</ele>
        <time>2017-10-08T12:37:39Z</time>
      </trkpt>
      <trkpt lat="43.36798" lon="6.70425">
        <ele>24</ele>
        <time>2017-10-08T12:37:40Z</time>
      </trkpt>
      <trkpt lat="43.36802" lon="6.70422">
        <ele>24</ele>
        <time>2017-10-08T12:37:41Z</time>
      </trkpt>
      <trkpt lat="43.36805" lon="6.70423">
        <ele>24</ele>
        <time>2017-10-08T12:37:42Z</time>
      </trkpt>
      <trkpt lat="43.36818" lon="6.7043">
        <ele>23.1</ele>
        <time>2017-10-08T12:37:46Z</time>
      </trkpt>
      <trkpt lat="43.36821" lon="6.70432">
        <ele>22.9</ele>
        <time>2017-10-08T12:37:47Z</time>
      </trkpt>
      <trkpt lat="43.36829" lon="6.70436">
        <ele>22.2</ele>
        <time>2017-10-08T12:37:51Z</time>
      </trkpt>
      <trkpt lat="43.3683" lon="6.70437">
        <ele>22</ele>
        <time>2017-10-08T12:37:52Z</time>
      </trkpt>
      <trkpt lat="43.36835" lon="6.7044">
        <ele>21.5</ele>
        <time>2017-10-08T12:37:55Z</time>
      </trkpt>
      <trkpt lat="43.36841" lon="6.70444">
        <ele>21</ele>
        <time>2017-10-08T12:37:58Z</time>
      </trkpt>
      <trkpt lat="43.36844" lon="6.70447">
        <ele>20.9</ele>
        <time>2017-10-08T12:38:00Z</time>
      </trkpt>
      <trkpt lat="43.36845" lon="6.70449">
        <ele>20.7</ele>
        <time>2017-10-08T12:38:01Z</time>
      </trkpt>
      <trkpt lat="43.36847" lon="6.70454">
        <ele>20.4</ele>
        <time>2017-10-08T12:38:04Z</time>
      </trkpt>
      <trkpt lat="43.3685" lon="6.70461">
        <ele>19.9</ele>
        <time>2017-10-08T12:38:08Z</time>
      </trkpt>
      <trkpt lat="43.36858" lon="6.70469">
        <ele>19.2</ele>
        <time>2017-10-08T12:38:14Z</time>
      </trkpt>
      <trkpt lat="43.3686" lon="6.70473">
        <ele>19.1</ele>
        <time>2017-10-08T12:38:16Z</time>
      </trkpt>
      <trkpt lat="43.36862" lon="6.70476">
        <ele>18.9</ele>
        <time>2017-10-08T12:38:18Z</time>
      </trkpt>
      <trkpt lat="43.36869" lon="6.70487">
        <ele>18.3</ele>
        <time>2017-10-08T12:38:24Z</time>
      </trkpt>
      <trkpt lat="43.3687" lon="6.70489">
        <ele>18.2</ele>
        <time>2017-10-08T12:38:25Z</time>
      </trkpt>
      <trkpt lat="43.36875" lon="6.70507">
        <ele>17.4</ele>
        <time>2017-10-08T12:38:33Z</time>
      </trkpt>
      <trkpt lat="43.36876" lon="6.70509">
        <ele>17.4</ele>
        <time>2017-10-08T12:38:34Z</time>
      </trkpt>
      <trkpt lat="43.36879" lon="6.70515">
        <ele>17.2</ele>
        <time>2017-10-08T12:38:38Z</time>
      </trkpt>
      <trkpt lat="43.36881" lon="6.70522">
        <ele>17.1</ele>
        <time>2017-10-08T12:38:42Z</time>
      </trkpt>
      <trkpt lat="43.36882" lon="6.70527">
        <ele>17</ele>
        <time>2017-10-08T12:38:45Z</time>
      </trkpt>
      <trkpt lat="43.36882" lon="6.70533">
        <ele>16.8</ele>
        <time>2017-10-08T12:38:48Z</time>
      </trkpt>
      <trkpt lat="43.36882" lon="6.70534">
        <ele>16.7</ele>
        <time>2017-10-08T12:38:49Z</time>
      </trkpt>
      <trkpt lat="43.36882" lon="6.7054">
        <ele>16.3</ele>
        <time>2017-10-08T12:38:52Z</time>
      </trkpt>
      <trkpt lat="43.36884" lon="6.70548">
        <ele>15.8</ele>
        <time>2017-10-08T12:38:57Z</time>
      </trkpt>
      <trkpt lat="43.36885" lon="6.70553">
        <ele>15.3</ele>
        <time>2017-10-08T12:39:02Z</time>
      </trkpt>
      <trkpt lat="43.36886" lon="6.70554">
        <ele>15.2</ele>
        <time>2017-10-08T12:39:03Z</time>
      </trkpt>
      <trkpt lat="43.36889" lon="6.70555">
        <ele>15.1</ele>
        <time>2017-10-08T12:39:07Z</time>
      </trkpt>
      <trkpt lat="43.36891" lon="6.70554">
        <ele>15.5</ele>
        <time>2017-10-08T12:39:09Z</time>
      </trkpt>
      <trkpt lat="43.36892" lon="6.70554">
        <ele>15.7</ele>
        <time>2017-10-08T12:39:10Z</time>
      </trkpt>
      <trkpt lat="43.36896" lon="6.70551">
        <ele>16.9</ele>
        <time>2017-10-08T12:39:14Z</time>
      </trkpt>
      <trkpt lat="43.36901" lon="6.7055">
        <ele>18.1</ele>
        <time>2017-10-08T12:39:18Z</time>
      </trkpt>
      <trkpt lat="43.36904" lon="6.70549">
        <ele>18.8</ele>
        <time>2017-10-08T12:39:20Z</time>
      </trkpt>
      <trkpt lat="43.36909" lon="6.70547">
        <ele>20.1</ele>
        <time>2017-10-08T12:39:25Z</time>
      </trkpt>
      <trkpt lat="43.36912" lon="6.70545">
        <ele>20.9</ele>
        <time>2017-10-08T12:39:28Z</time>
      </trkpt>
      <trkpt lat="43.36915" lon="6.70544">
        <ele>21.6</ele>
        <time>2017-10-08T12:39:31Z</time>
      </trkpt>
      <trkpt lat="43.36918" lon="6.70543">
        <ele>22.1</ele>
        <time>2017-10-08T12:39:33Z</time>
      </trkpt>
      <trkpt lat="43.36921" lon="6.70541">
        <ele>23.1</ele>
        <time>2017-10-08T12:39:36Z</time>
      </trkpt>
      <trkpt lat="43.36921" lon="6.70541">
        <ele>23.3</ele>
        <time>2017-10-08T12:39:37Z</time>
      </trkpt>
      <trkpt lat="43.36925" lon="6.70539">
        <ele>23.9</ele>
        <time>2017-10-08T12:39:41Z</time>
      </trkpt>
      <trkpt lat="43.36927" lon="6.70537">
        <ele>24.4</ele>
        <time>2017-10-08T12:39:44Z</time>
      </trkpt>
      <trkpt lat="43.36928" lon="6.70537">
        <ele>24.6</ele>
        <time>2017-10-08T12:39:45Z</time>
      </trkpt>
      <trkpt lat="43.36931" lon="6.70537">
        <ele>25.3</ele>
        <time>2017-10-08T12:39:47Z</time>
      </trkpt>
      <trkpt lat="43.36935" lon="6.70534">
        <ele>26.4</ele>
        <time>2017-10-08T12:39:52Z</time>
      </trkpt>
      <trkpt lat="43.36939" lon="6.7053">
        <ele>27.6</ele>
        <time>2017-10-08T12:39:57Z</time>
      </trkpt>
      <trkpt lat="43.36945" lon="6.70527">
        <ele>28.7</ele>
        <time>2017-10-08T12:40:03Z</time>
      </trkpt>
      <trkpt lat="43.36946" lon="6.70527">
        <ele>28.8</ele>
        <time>2017-10-08T12:40:04Z</time>
      </trkpt>
      <trkpt lat="43.36948" lon="6.70525">
        <ele>29.3</ele>
        <time>2017-10-08T12:40:07Z</time>
      </trkpt>
      <trkpt lat="43.3695" lon="6.70523">
        <ele>30.1</ele>
        <time>2017-10-08T12:40:10Z</time>
      </trkpt>
      <trkpt lat="43.36953" lon="6.70522">
        <ele>30.6</ele>
        <time>2017-10-08T12:40:12Z</time>
      </trkpt>
      <trkpt lat="43.36954" lon="6.70522">
        <ele>30.8</ele>
        <time>2017-10-08T12:40:13Z</time>
      </trkpt>
      <trkpt lat="43.36959" lon="6.70518">
        <ele>31.5</ele>
        <time>2017-10-08T12:40:18Z</time>
      </trkpt>
      <trkpt lat="43.36964" lon="6.70517">
        <ele>32.7</ele>
        <time>2017-10-08T12:40:22Z</time>
      </trkpt>
      <trkpt lat="43.36973" lon="6.70513">
        <ele>33.8</ele>
        <time>2017-10-08T12:40:30Z</time>
      </trkpt>
      <trkpt lat="43.3698" lon="6.7051">
        <ele>35.1</ele>
        <time>2017-10-08T12:40:36Z</time>
      </trkpt>
      <trkpt lat="43.36983" lon="6.70507">
        <ele>35.6</ele>
        <time>2017-10-08T12:40:40Z</time>
      </trkpt>
      <trkpt lat="43.36987" lon="6.70505">
        <ele>35.9</ele>
        <time>2017-10-08T12:40:43Z</time>
      </trkpt>
      <trkpt lat="43.36991" lon="6.70501">
        <ele>36.2</ele>
        <time>2017-10-08T12:40:47Z</time>
      </trkpt>
      <trkpt lat="43.36994" lon="6.70499">
        <ele>36.3</ele>
        <time>2017-10-08T12:40:49Z</time>
      </trkpt>
      <trkpt lat="43.37003" lon="6.70487">
        <ele>37.7</ele>
        <time>2017-10-08T12:40:57Z</time>
      </trkpt>
      <trkpt lat="43.37013" lon="6.70474">
        <ele>39</ele>
        <time>2017-10-08T12:41:06Z</time>
      </trkpt>
      <trkpt lat="43.37014" lon="6.70472">
        <ele>39.3</ele>
        <time>2017-10-08T12:41:07Z</time>
      </trkpt>
      <trkpt lat="43.37022" lon="6.70459">
        <ele>40.3</ele>
        <time>2017-10-08T12:41:15Z</time>
      </trkpt>
      <trkpt lat="43.37032" lon="6.70445">
        <ele>41.7</ele>
        <time>2017-10-08T12:41:23Z</time>
      </trkpt>
      <trkpt lat="43.37035" lon="6.70441">
        <ele>41.9</ele>
        <time>2017-10-08T12:41:25Z</time>
      </trkpt>
      <trkpt lat="43.37044" lon="6.70427">
        <ele>42.6</ele>
        <time>2017-10-08T12:41:32Z</time>
      </trkpt>
      <trkpt lat="43.37045" lon="6.70425">
        <ele>42.7</ele>
        <time>2017-10-08T12:41:33Z</time>
      </trkpt>
      <trkpt lat="43.37054" lon="6.70415">
        <ele>43.5</ele>
        <time>2017-10-08T12:41:39Z</time>
      </trkpt>
      <trkpt lat="43.37055" lon="6.70413">
        <ele>43.7</ele>
        <time>2017-10-08T12:41:40Z</time>
      </trkpt>
      <trkpt lat="43.37061" lon="6.70403">
        <ele>44.6</ele>
        <time>2017-10-08T12:41:45Z</time>
      </trkpt>
      <trkpt lat="43.37063" lon="6.70399">
        <ele>44.8</ele>
        <time>2017-10-08T12:41:47Z</time>
      </trkpt>
      <trkpt lat="43.37067" lon="6.70391">
        <ele>45.1</ele>
        <time>2017-10-08T12:41:51Z</time>
      </trkpt>
      <trkpt lat="43.37071" lon="6.70385">
        <ele>45.4</ele>
        <time>2017-10-08T12:41:54Z</time>
      </trkpt>
      <trkpt lat="43.37083" lon="6.70367">
        <ele>46.5</ele>
        <time>2017-10-08T12:42:01Z</time>
      </trkpt>
      <trkpt lat="43.37097" lon="6.70346">
        <ele>47</ele>
        <time>2017-10-08T12:42:07Z</time>
      </trkpt>
      <trkpt lat="43.371" lon="6.70337">
        <ele>47.1</ele>
        <time>2017-10-08T12:42:09Z</time>
      </trkpt>
      <trkpt lat="43.37104" lon="6.70322">
        <ele>47.3</ele>
        <time>2017-10-08T12:42:12Z</time>
      </trkpt>
      <trkpt lat="43.37108" lon="6.70311">
        <ele>47.4</ele>
        <time>2017-10-08T12:42:14Z</time>
      </trkpt>
      <trkpt lat="43.37119" lon="6.70271">
        <ele>47.8</ele>
        <time>2017-10-08T12:42:21Z</time>
      </trkpt>
      <trkpt lat="43.37124" lon="6.70251">
        <ele>48.3</ele>
        <time>2017-10-08T12:42:26Z</time>
      </trkpt>
      <trkpt lat="43.37125" lon="6.70245">
        <ele>48.5</ele>
        <time>2017-10-08T12:42:28Z</time>
      </trkpt>
      <trkpt lat="43.37127" lon="6.70238">
        <ele>49</ele>
        <time>2017-10-08T12:42:31Z</time>
      </trkpt>
      <trkpt lat="43.37129" lon="6.70233">
        <ele>49.6</ele>
        <time>2017-10-08T12:42:34Z</time>
      </trkpt>
      <trkpt lat="43.3713" lon="6.70228">
        <ele>49.9</ele>
        <time>2017-10-08T12:42:36Z</time>
      </trkpt>
      <trkpt lat="43.37135" lon="6.70213">
        <ele>51.1</ele>
        <time>2017-10-08T12:42:42Z</time>
      </trkpt>
      <trkpt lat="43.37136" lon="6.70211">
        <ele>51.3</ele>
        <time>2017-10-08T12:42:43Z</time>
      </trkpt>
      <trkpt lat="43.37149" lon="6.70192">
        <ele>52.4</ele>
        <time>2017-10-08T12:42:52Z</time>
      </trkpt>
      <trkpt lat="43.37162" lon="6.70186">
        <ele>53.5</ele>
        <time>2017-10-08T12:42:59Z</time>
      </trkpt>
      <trkpt lat="43.37177" lon="6.70181">
        <ele>55</ele>
        <time>2017-10-08T12:43:07Z</time>
      </trkpt>
      <trkpt lat="43.3719" lon="6.70177">
        <ele>56</ele>
        <time>2017-10-08T12:43:14Z</time>
      </trkpt>
      <trkpt lat="43.37198" lon="6.70174">
        <ele>57</ele>
        <time>2017-10-08T12:43:19Z</time>
      </trkpt>
      <trkpt lat="43.37205" lon="6.70171">
        <ele>57.5</ele>
        <time>2017-10-08T12:43:24Z</time>
      </trkpt>
      <trkpt lat="43.37206" lon="6.7017">
        <ele>57.6</ele>
        <time>2017-10-08T12:43:25Z</time>
      </trkpt>
      <trkpt lat="43.37216" lon="6.70166">
        <ele>58.7</ele>
        <time>2017-10-08T12:43:31Z</time>
      </trkpt>
      <trkpt lat="43.37218" lon="6.70166">
        <ele>59.2</ele>
        <time>2017-10-08T12:43:33Z</time>
      </trkpt>
      <trkpt lat="43.37221" lon="6.70166">
        <ele>59.5</ele>
        <time>2017-10-08T12:43:35Z</time>
      </trkpt>
      <trkpt lat="43.37228" lon="6.70163">
        <ele>60.2</ele>
        <time>2017-10-08T12:43:40Z</time>
      </trkpt>
      <trkpt lat="43.37231" lon="6.70163">
        <ele>60.9</ele>
        <time>2017-10-08T12:43:42Z</time>
      </trkpt>
      <trkpt lat="43.37237" lon="6.70161">
        <ele>62</ele>
        <time>2017-10-08T12:43:47Z</time>
      </trkpt>
      <trkpt lat="43.37242" lon="6.70161">
        <ele>62.4</ele>
        <time>2017-10-08T12:43:50Z</time>
      </trkpt>
      <trkpt lat="43.37247" lon="6.7016">
        <ele>63.5</ele>
        <time>2017-10-08T12:43:54Z</time>
      </trkpt>
      <trkpt lat="43.37253" lon="6.70159">
        <ele>64.4</ele>
        <time>2017-10-08T12:43:58Z</time>
      </trkpt>
      <trkpt lat="43.37257" lon="6.70158">
        <ele>64.9</ele>
        <time>2017-10-08T12:44:01Z</time>
      </trkpt>
      <trkpt lat="43.3727" lon="6.70158">
        <ele>66.7</ele>
        <time>2017-10-08T12:44:09Z</time>
      </trkpt>
      <trkpt lat="43.37273" lon="6.70157">
        <ele>66.9</ele>
        <time>2017-10-08T12:44:11Z</time>
      </trkpt>
      <trkpt lat="43.37281" lon="6.70156">
        <ele>67.6</ele>
        <time>2017-10-08T12:44:16Z</time>
      </trkpt>
      <trkpt lat="43.37286" lon="6.70153">
        <ele>68.4</ele>
        <time>2017-10-08T12:44:20Z</time>
      </trkpt>
      <trkpt lat="43.37288" lon="6.70152">
        <ele>68.6</ele>
        <time>2017-10-08T12:44:22Z</time>
      </trkpt>
      <trkpt lat="43.37297" lon="6.70148">
        <ele>69.1</ele>
        <time>2017-10-08T12:44:29Z</time>
      </trkpt>
      <trkpt lat="43.37304" lon="6.70141">
        <ele>69.9</ele>
        <time>2017-10-08T12:44:36Z</time>
      </trkpt>
      <trkpt lat="43.37306" lon="6.70138">
        <ele>70.3</ele>
        <time>2017-10-08T12:44:38Z</time>
      </trkpt>
      <trkpt lat="43.37308" lon="6.70131">
        <ele>71.3</ele>
        <time>2017-10-08T12:44:42Z</time>
      </trkpt>
      <trkpt lat="43.3731" lon="6.70127">
        <ele>71.8</ele>
        <time>2017-10-08T12:44:45Z</time>
      </trkpt>
      <trkpt lat="43.37311" lon="6.70126">
        <ele>71.9</ele>
        <time>2017-10-08T12:44:46Z</time>
      </trkpt>
      <trkpt lat="43.37313" lon="6.70122">
        <ele>72.7</ele>
        <time>2017-10-08T12:44:49Z</time>
      </trkpt>
      <trkpt lat="43.37315" lon="6.70117">
        <ele>73.6</ele>
        <time>2017-10-08T12:44:52Z</time>
      </trkpt>
      <trkpt lat="43.37317" lon="6.70113">
        <ele>74</ele>
        <time>2017-10-08T12:44:54Z</time>
      </trkpt>
      <trkpt lat="43.37318" lon="6.7011">
        <ele>74.3</ele>
        <time>2017-10-08T12:44:56Z</time>
      </trkpt>
      <trkpt lat="43.3732" lon="6.70106">
        <ele>75.4</ele>
        <time>2017-10-08T12:45:00Z</time>
      </trkpt>
      <trkpt lat="43.37322" lon="6.70103">
        <ele>76.1</ele>
        <time>2017-10-08T12:45:03Z</time>
      </trkpt>
      <trkpt lat="43.37325" lon="6.70098">
        <ele>76.9</ele>
        <time>2017-10-08T12:45:07Z</time>
      </trkpt>
      <trkpt lat="43.37327" lon="6.70094">
        <ele>78</ele>
        <time>2017-10-08T12:45:10Z</time>
      </trkpt>
      <trkpt lat="43.37328" lon="6.70092">
        <ele>78.3</ele>
        <time>2017-10-08T12:45:11Z</time>
      </trkpt>
      <trkpt lat="43.37328" lon="6.70091">
        <ele>78.5</ele>
        <time>2017-10-08T12:45:12Z</time>
      </trkpt>
      <trkpt lat="43.37332" lon="6.70086">
        <ele>79.3</ele>
        <time>2017-10-08T12:45:17Z</time>
      </trkpt>
      <trkpt lat="43.37334" lon="6.70081">
        <ele>80.5</ele>
        <time>2017-10-08T12:45:22Z</time>
      </trkpt>
      <trkpt lat="43.37334" lon="6.70081">
        <ele>80.6</ele>
        <time>2017-10-08T12:45:23Z</time>
      </trkpt>
      <trkpt lat="43.37336" lon="6.70079">
        <ele>81</ele>
        <time>2017-10-08T12:45:25Z</time>
      </trkpt>
      <trkpt lat="43.3734" lon="6.70076">
        <ele>82.1</ele>
        <time>2017-10-08T12:45:29Z</time>
      </trkpt>
      <trkpt lat="43.37341" lon="6.70072">
        <ele>83</ele>
        <time>2017-10-08T12:45:32Z</time>
      </trkpt>
      <trkpt lat="43.37344" lon="6.70064">
        <ele>84</ele>
        <time>2017-10-08T12:45:37Z</time>
      </trkpt>
      <trkpt lat="43.37344" lon="6.70062">
        <ele>84.4</ele>
        <time>2017-10-08T12:45:38Z</time>
      </trkpt>
      <trkpt lat="43.37346" lon="6.70057">
        <ele>85.3</ele>
        <time>2017-10-08T12:45:41Z</time>
      </trkpt>
      <trkpt lat="43.37347" lon="6.70052">
        <ele>85.8</ele>
        <time>2017-10-08T12:45:44Z</time>
      </trkpt>
      <trkpt lat="43.37349" lon="6.70051">
        <ele>86.3</ele>
        <time>2017-10-08T12:45:46Z</time>
      </trkpt>
      <trkpt lat="43.37351" lon="6.70046">
        <ele>87.3</ele>
        <time>2017-10-08T12:45:50Z</time>
      </trkpt>
      <trkpt lat="43.37354" lon="6.70044">
        <ele>87.9</ele>
        <time>2017-10-08T12:45:55Z</time>
      </trkpt>
      <trkpt lat="43.37355" lon="6.70042">
        <ele>88</ele>
        <time>2017-10-08T12:45:56Z</time>
      </trkpt>
      <trkpt lat="43.37357" lon="6.70038">
        <ele>88.6</ele>
        <time>2017-10-08T12:45:59Z</time>
      </trkpt>
      <trkpt lat="43.37359" lon="6.70035">
        <ele>89.1</ele>
        <time>2017-10-08T12:46:02Z</time>
      </trkpt>
      <trkpt lat="43.37359" lon="6.70033">
        <ele>89.4</ele>
        <time>2017-10-08T12:46:03Z</time>
      </trkpt>
      <trkpt lat="43.37361" lon="6.70028">
        <ele>90.2</ele>
        <time>2017-10-08T12:46:06Z</time>
      </trkpt>
      <trkpt lat="43.37362" lon="6.70023">
        <ele>90.6</ele>
        <time>2017-10-08T12:46:09Z</time>
      </trkpt>
      <trkpt lat="43.37363" lon="6.70021">
        <ele>91</ele>
        <time>2017-10-08T12:46:10Z</time>
      </trkpt>
      <trkpt lat="43.37364" lon="6.70018">
        <ele>91.6</ele>
        <time>2017-10-08T12:46:12Z</time>
      </trkpt>
      <trkpt lat="43.37365" lon="6.70015">
        <ele>92.3</ele>
        <time>2017-10-08T12:46:14Z</time>
      </trkpt>
      <trkpt lat="43.37365" lon="6.70013">
        <ele>92.6</ele>
        <time>2017-10-08T12:46:15Z</time>
      </trkpt>
      <trkpt lat="43.37366" lon="6.70012">
        <ele>92.8</ele>
        <time>2017-10-08T12:46:16Z</time>
      </trkpt>
      <trkpt lat="43.37369" lon="6.70009">
        <ele>93.8</ele>
        <time>2017-10-08T12:46:19Z</time>
      </trkpt>
      <trkpt lat="43.3737" lon="6.70008">
        <ele>94.1</ele>
        <time>2017-10-08T12:46:20Z</time>
      </trkpt>
      <trkpt lat="43.37372" lon="6.70006">
        <ele>94.9</ele>
        <time>2017-10-08T12:46:22Z</time>
      </trkpt>
      <trkpt lat="43.37378" lon="6.70006">
        <ele>96.3</ele>
        <time>2017-10-08T12:46:26Z</time>
      </trkpt>
      <trkpt lat="43.37381" lon="6.70006">
        <ele>97.2</ele>
        <time>2017-10-08T12:46:29Z</time>
      </trkpt>
      <trkpt lat="43.37382" lon="6.70007">
        <ele>97.4</ele>
        <time>2017-10-08T12:46:30Z</time>
      </trkpt>
      <trkpt lat="43.37382" lon="6.70008">
        <ele>97.5</ele>
        <time>2017-10-08T12:46:31Z</time>
      </trkpt>
      <trkpt lat="43.37386" lon="6.70013">
        <ele>98.1</ele>
        <time>2017-10-08T12:46:36Z</time>
      </trkpt>
      <trkpt lat="43.37386" lon="6.70018">
        <ele>98.9</ele>
        <time>2017-10-08T12:46:39Z</time>
      </trkpt>
      <trkpt lat="43.37388" lon="6.70023">
        <ele>99.9</ele>
        <time>2017-10-08T12:46:42Z</time>
      </trkpt>
      <trkpt lat="43.37389" lon="6.70024">
        <ele>100.2</ele>
        <time>2017-10-08T12:46:43Z</time>
      </trkpt>
      <trkpt lat="43.37392" lon="6.70027">
        <ele>101.3</ele>
        <time>2017-10-08T12:46:46Z</time>
      </trkpt>
      <trkpt lat="43.37395" lon="6.70028">
        <ele>102.1</ele>
        <time>2017-10-08T12:46:49Z</time>
      </trkpt>
      <trkpt lat="43.37397" lon="6.70029">
        <ele>103.2</ele>
        <time>2017-10-08T12:46:51Z</time>
      </trkpt>
      <trkpt lat="43.37402" lon="6.70031">
        <ele>105.1</ele>
        <time>2017-10-08T12:46:55Z</time>
      </trkpt>
      <trkpt lat="43.37403" lon="6.70032">
        <ele>105.2</ele>
        <time>2017-10-08T12:46:56Z</time>
      </trkpt>
      <trkpt lat="43.37426" lon="6.70027">
        <ele>108.2</ele>
        <time>2017-10-08T12:48:30Z</time>
      </trkpt>
      <trkpt lat="43.37427" lon="6.70026">
        <ele>108.2</ele>
        <time>2017-10-08T12:48:31Z</time>
      </trkpt>
      <trkpt lat="43.37431" lon="6.70021">
        <ele>108.6</ele>
        <time>2017-10-08T12:48:34Z</time>
      </trkpt>
      <trkpt lat="43.37435" lon="6.70015">
        <ele>109.4</ele>
        <time>2017-10-08T12:48:37Z</time>
      </trkpt>
      <trkpt lat="43.37443" lon="6.70005">
        <ele>110</ele>
        <time>2017-10-08T12:48:41Z</time>
      </trkpt>
      <trkpt lat="43.37446" lon="6.70001">
        <ele>110.1</ele>
        <time>2017-10-08T12:48:43Z</time>
      </trkpt>
      <trkpt lat="43.3745" lon="6.69995">
        <ele>110.2</ele>
        <time>2017-10-08T12:48:45Z</time>
      </trkpt>
      <trkpt lat="43.37454" lon="6.6999">
        <ele>110.3</ele>
        <time>2017-10-08T12:48:47Z</time>
      </trkpt>
      <trkpt lat="43.37466" lon="6.69975">
        <ele>110.6</ele>
        <time>2017-10-08T12:48:53Z</time>
      </trkpt>
      <trkpt lat="43.37482" lon="6.69956">
        <ele>112.1</ele>
        <time>2017-10-08T12:49:01Z</time>
      </trkpt>
      <trkpt lat="43.37485" lon="6.69952">
        <ele>112.5</ele>
        <time>2017-10-08T12:49:03Z</time>
      </trkpt>
      <trkpt lat="43.37497" lon="6.69943">
        <ele>113.2</ele>
        <time>2017-10-08T12:49:09Z</time>
      </trkpt>
      <trkpt lat="43.3751" lon="6.69944">
        <ele>113.9</ele>
        <time>2017-10-08T12:49:15Z</time>
      </trkpt>
      <trkpt lat="43.37516" lon="6.69948">
        <ele>113.8</ele>
        <time>2017-10-08T12:49:18Z</time>
      </trkpt>
      <trkpt lat="43.37521" lon="6.69955">
        <ele>113.7</ele>
        <time>2017-10-08T12:49:21Z</time>
      </trkpt>
      <trkpt lat="43.37532" lon="6.69981">
        <ele>113.6</ele>
        <time>2017-10-08T12:49:30Z</time>
      </trkpt>
      <trkpt lat="43.37544" lon="6.69994">
        <ele>113.5</ele>
        <time>2017-10-08T12:49:37Z</time>
      </trkpt>
      <trkpt lat="43.37547" lon="6.69996">
        <ele>113.6</ele>
        <time>2017-10-08T12:49:39Z</time>
      </trkpt>
      <trkpt lat="43.37552" lon="6.69999">
        <ele>113.7</ele>
        <time>2017-10-08T12:49:42Z</time>
      </trkpt>
      <trkpt lat="43.37556" lon="6.7">
        <ele>113.7</ele>
        <time>2017-10-08T12:49:44Z</time>
      </trkpt>
      <trkpt lat="43.3756" lon="6.7">
        <ele>113.7</ele>
        <time>2017-10-08T12:49:46Z</time>
      </trkpt>
      <trkpt lat="43.37565" lon="6.7">
        <ele>113.8</ele>
        <time>2017-10-08T12:49:49Z</time>
      </trkpt>
      <trkpt lat="43.37569" lon="6.7">
        <ele>113.9</ele>
        <time>2017-10-08T12:49:51Z</time>
      </trkpt>
      <trkpt lat="43.37573" lon="6.7">
        <ele>113.9</ele>
        <time>2017-10-08T12:49:53Z</time>
      </trkpt>
      <trkpt lat="43.37579" lon="6.7">
        <ele>114.2</ele>
        <time>2017-10-08T12:49:57Z</time>
      </trkpt>
      <trkpt lat="43.37585" lon="6.7">
        <ele>114.6</ele>
        <time>2017-10-08T12:50:00Z</time>
      </trkpt>
      <trkpt lat="43.3759" lon="6.69999">
        <ele>114.7</ele>
        <time>2017-10-08T12:50:03Z</time>
      </trkpt>
      <trkpt lat="43.37601" lon="6.70001">
        <ele>115.1</ele>
        <time>2017-10-08T12:50:08Z</time>
      </trkpt>
      <trkpt lat="43.37615" lon="6.69992">
        <ele>115.3</ele>
        <time>2017-10-08T12:50:13Z</time>
      </trkpt>
      <trkpt lat="43.37619" lon="6.69989">
        <ele>115.4</ele>
        <time>2017-10-08T12:50:14Z</time>
      </trkpt>
      <trkpt lat="43.37623" lon="6.69987">
        <ele>115.4</ele>
        <time>2017-10-08T12:50:15Z</time>
      </trkpt>
      <trkpt lat="43.37637" lon="6.69982">
        <ele>115.5</ele>
        <time>2017-10-08T12:50:18Z</time>
      </trkpt>
      <trkpt lat="43.37641" lon="6.69982">
        <ele>115.5</ele>
        <time>2017-10-08T12:50:19Z</time>
      </trkpt>
      <trkpt lat="43.37657" lon="6.69978">
        <ele>115.3</ele>
        <time>2017-10-08T12:50:23Z</time>
      </trkpt>
      <trkpt lat="43.3767" lon="6.69971">
        <ele>114.9</ele>
        <time>2017-10-08T12:50:26Z</time>
      </trkpt>
      <trkpt lat="43.3768" lon="6.69965">
        <ele>114.6</ele>
        <time>2017-10-08T12:50:28Z</time>
      </trkpt>
      <trkpt lat="43.37698" lon="6.69951">
        <ele>113.9</ele>
        <time>2017-10-08T12:50:32Z</time>
      </trkpt>
      <trkpt lat="43.37713" lon="6.69938">
        <ele>112.9</ele>
        <time>2017-10-08T12:50:35Z</time>
      </trkpt>
      <trkpt lat="43.37723" lon="6.69936">
        <ele>112.1</ele>
        <time>2017-10-08T12:50:37Z</time>
      </trkpt>
      <trkpt lat="43.37735" lon="6.6994">
        <ele>111.8</ele>
        <time>2017-10-08T12:50:40Z</time>
      </trkpt>
      <trkpt lat="43.37737" lon="6.69942">
        <ele>111.8</ele>
        <time>2017-10-08T12:50:41Z</time>
      </trkpt>
      <trkpt lat="43.37741" lon="6.69951">
        <ele>111.9</ele>
        <time>2017-10-08T12:50:45Z</time>
      </trkpt>
      <trkpt lat="43.37741" lon="6.69956">
        <ele>112</ele>
        <time>2017-10-08T12:50:47Z</time>
      </trkpt>
      <trkpt lat="43.37744" lon="6.69969">
        <ele>112.3</ele>
        <time>2017-10-08T12:50:54Z</time>
      </trkpt>
      <trkpt lat="43.37743" lon="6.69972">
        <ele>112.3</ele>
        <time>2017-10-08T12:50:55Z</time>
      </trkpt>
      <trkpt lat="43.37741" lon="6.69975">
        <ele>112.4</ele>
        <time>2017-10-08T12:50:57Z</time>
      </trkpt>
      <trkpt lat="43.37748" lon="6.69988">
        <ele>113</ele>
        <time>2017-10-08T12:51:12Z</time>
      </trkpt>
      <trkpt lat="43.37749" lon="6.6999">
        <ele>113.2</ele>
        <time>2017-10-08T12:51:13Z</time>
      </trkpt>
      <trkpt lat="43.37763" lon="6.69998">
        <ele>116</ele>
        <time>2017-10-08T12:51:34Z</time>
      </trkpt>
      <trkpt lat="43.37764" lon="6.69999">
        <ele>116.1</ele>
        <time>2017-10-08T12:51:35Z</time>
      </trkpt>
      <trkpt lat="43.37774" lon="6.70009">
        <ele>117.7</ele>
        <time>2017-10-08T12:51:42Z</time>
      </trkpt>
      <trkpt lat="43.37785" lon="6.70014">
        <ele>119.7</ele>
        <time>2017-10-08T12:51:49Z</time>
      </trkpt>
      <trkpt lat="43.37787" lon="6.70014">
        <ele>119.9</ele>
        <time>2017-10-08T12:51:50Z</time>
      </trkpt>
      <trkpt lat="43.37788" lon="6.70015">
        <ele>120.1</ele>
        <time>2017-10-08T12:51:51Z</time>
      </trkpt>
      <trkpt lat="43.37792" lon="6.7002">
        <ele>121.2</ele>
        <time>2017-10-08T12:51:55Z</time>
      </trkpt>
      <trkpt lat="43.37797" lon="6.70023">
        <ele>122.4</ele>
        <time>2017-10-08T12:51:59Z</time>
      </trkpt>
      <trkpt lat="43.37797" lon="6.70024">
        <ele>122.6</ele>
        <time>2017-10-08T12:52:00Z</time>
      </trkpt>
      <trkpt lat="43.378" lon="6.70026">
        <ele>123</ele>
        <time>2017-10-08T12:52:02Z</time>
      </trkpt>
      <trkpt lat="43.37801" lon="6.70026">
        <ele>123.3</ele>
        <time>2017-10-08T12:52:03Z</time>
      </trkpt>
      <trkpt lat="43.37805" lon="6.70028">
        <ele>124.5</ele>
        <time>2017-10-08T12:52:07Z</time>
      </trkpt>
      <trkpt lat="43.37806" lon="6.70028">
        <ele>124.7</ele>
        <time>2017-10-08T12:52:08Z</time>
      </trkpt>
      <trkpt lat="43.37807" lon="6.70028">
        <ele>124.9</ele>
        <time>2017-10-08T12:52:09Z</time>
      </trkpt>
      <trkpt lat="43.37817" lon="6.70029">
        <ele>126.6</ele>
        <time>2017-10-08T12:52:23Z</time>
      </trkpt>
      <trkpt lat="43.37818" lon="6.70029">
        <ele>127</ele>
        <time>2017-10-08T12:52:24Z</time>
      </trkpt>
      <trkpt lat="43.37825" lon="6.70031">
        <ele>128.4</ele>
        <time>2017-10-08T12:52:28Z</time>
      </trkpt>
      <trkpt lat="43.37829" lon="6.70032">
        <ele>128.8</ele>
        <time>2017-10-08T12:52:31Z</time>
      </trkpt>
      <trkpt lat="43.37832" lon="6.70031">
        <ele>129.1</ele>
        <time>2017-10-08T12:52:33Z</time>
      </trkpt>
      <trkpt lat="43.3784" lon="6.70032">
        <ele>130.2</ele>
        <time>2017-10-08T12:52:39Z</time>
      </trkpt>
      <trkpt lat="43.37843" lon="6.70033">
        <ele>130.8</ele>
        <time>2017-10-08T12:52:41Z</time>
      </trkpt>
      <trkpt lat="43.37852" lon="6.70038">
        <ele>131.9</ele>
        <time>2017-10-08T12:52:47Z</time>
      </trkpt>
      <trkpt lat="43.37868" lon="6.7005">
        <ele>132.9</ele>
        <time>2017-10-08T12:52:53Z</time>
      </trkpt>
      <trkpt lat="43.37875" lon="6.70057">
        <ele>133.7</ele>
        <time>2017-10-08T12:52:56Z</time>
      </trkpt>
      <trkpt lat="43.37884" lon="6.70066">
        <ele>135</ele>
        <time>2017-10-08T12:52:59Z</time>
      </trkpt>
      <trkpt lat="43.37897" lon="6.70088">
        <ele>128.3</ele>
        <time>2017-10-08T12:53:04Z</time>
      </trkpt>
      <trkpt lat="43.37905" lon="6.70121">
        <ele>119.7</ele>
        <time>2017-10-08T12:53:09Z</time>
      </trkpt>
      <trkpt lat="43.37908" lon="6.70138">
        <ele>115.7</ele>
        <time>2017-10-08T12:53:11Z</time>
      </trkpt>
      <trkpt lat="43.37914" lon="6.70166">
        <ele>112.2</ele>
        <time>2017-10-08T12:53:14Z</time>
      </trkpt>
      <trkpt lat="43.37926" lon="6.70198">
        <ele>112.4</ele>
        <time>2017-10-08T12:53:18Z</time>
      </trkpt>
      <trkpt lat="43.37933" lon="6.70211">
        <ele>114.6</ele>
        <time>2017-10-08T12:53:22Z</time>
      </trkpt>
      <trkpt lat="43.37942" lon="6.70214">
        <ele>116.7</ele>
        <time>2017-10-08T12:53:28Z</time>
      </trkpt>
      <trkpt lat="43.37945" lon="6.70215">
        <ele>117.6</ele>
        <time>2017-10-08T12:53:32Z</time>
      </trkpt>
      <trkpt lat="43.37949" lon="6.70216">
        <ele>118.6</ele>
        <time>2017-10-08T12:53:35Z</time>
      </trkpt>
      <trkpt lat="43.37954" lon="6.70219">
        <ele>119.7</ele>
        <time>2017-10-08T12:53:39Z</time>
      </trkpt>
      <trkpt lat="43.37957" lon="6.70223">
        <ele>120.5</ele>
        <time>2017-10-08T12:53:42Z</time>
      </trkpt>
      <trkpt lat="43.37958" lon="6.70224">
        <ele>120.8</ele>
        <time>2017-10-08T12:53:43Z</time>
      </trkpt>
      <trkpt lat="43.37959" lon="6.70227">
        <ele>121.7</ele>
        <time>2017-10-08T12:53:45Z</time>
      </trkpt>
      <trkpt lat="43.37959" lon="6.70234">
        <ele>123</ele>
        <time>2017-10-08T12:53:49Z</time>
      </trkpt>
      <trkpt lat="43.37958" lon="6.70239">
        <ele>124</ele>
        <time>2017-10-08T12:53:52Z</time>
      </trkpt>
      <trkpt lat="43.37957" lon="6.70244">
        <ele>124.8</ele>
        <time>2017-10-08T12:53:55Z</time>
      </trkpt>
      <trkpt lat="43.37956" lon="6.70245">
        <ele>125.1</ele>
        <time>2017-10-08T12:53:56Z</time>
      </trkpt>
      <trkpt lat="43.37955" lon="6.7025">
        <ele>126.2</ele>
        <time>2017-10-08T12:53:59Z</time>
      </trkpt>
      <trkpt lat="43.37955" lon="6.70254">
        <ele>127.2</ele>
        <time>2017-10-08T12:54:02Z</time>
      </trkpt>
      <trkpt lat="43.37956" lon="6.7026">
        <ele>128.2</ele>
        <time>2017-10-08T12:54:06Z</time>
      </trkpt>
      <trkpt lat="43.37955" lon="6.70263">
        <ele>128.7</ele>
        <time>2017-10-08T12:54:09Z</time>
      </trkpt>
      <trkpt lat="43.37955" lon="6.70269">
        <ele>129.5</ele>
        <time>2017-10-08T12:54:13Z</time>
      </trkpt>
      <trkpt lat="43.37982" lon="6.70304">
        <ele>134.6</ele>
        <time>2017-10-08T12:55:20Z</time>
      </trkpt>
      <trkpt lat="43.37987" lon="6.70301">
        <ele>134.8</ele>
        <time>2017-10-08T12:55:24Z</time>
      </trkpt>
      <trkpt lat="43.37989" lon="6.703">
        <ele>134.9</ele>
        <time>2017-10-08T12:55:25Z</time>
      </trkpt>
      <trkpt lat="43.37999" lon="6.70298">
        <ele>134.8</ele>
        <time>2017-10-08T12:55:29Z</time>
      </trkpt>
      <trkpt lat="43.38004" lon="6.70296">
        <ele>134.7</ele>
        <time>2017-10-08T12:55:31Z</time>
      </trkpt>
      <trkpt lat="43.38024" lon="6.70294">
        <ele>134.8</ele>
        <time>2017-10-08T12:55:38Z</time>
      </trkpt>
      <trkpt lat="43.38043" lon="6.70293">
        <ele>135.6</ele>
        <time>2017-10-08T12:55:45Z</time>
      </trkpt>
      <trkpt lat="43.38065" lon="6.70299">
        <ele>136.7</ele>
        <time>2017-10-08T12:55:53Z</time>
      </trkpt>
      <trkpt lat="43.38094" lon="6.70303">
        <ele>137.6</ele>
        <time>2017-10-08T12:56:00Z</time>
      </trkpt>
      <trkpt lat="43.38106" lon="6.70305">
        <ele>137.3</ele>
        <time>2017-10-08T12:56:02Z</time>
      </trkpt>
      <trkpt lat="43.38124" lon="6.70315">
        <ele>136.7</ele>
        <time>2017-10-08T12:56:05Z</time>
      </trkpt>
      <trkpt lat="43.38177" lon="6.70349">
        <ele>132.6</ele>
        <time>2017-10-08T12:56:13Z</time>
      </trkpt>
      <trkpt lat="43.38194" lon="6.70365">
        <ele>131.9</ele>
        <time>2017-10-08T12:56:16Z</time>
      </trkpt>
      <trkpt lat="43.382" lon="6.70369">
        <ele>131.8</ele>
        <time>2017-10-08T12:56:17Z</time>
      </trkpt>
      <trkpt lat="43.38221" lon="6.70383">
        <ele>130.3</ele>
        <time>2017-10-08T12:56:21Z</time>
      </trkpt>
      <trkpt lat="43.38226" lon="6.70388">
        <ele>130.1</ele>
        <time>2017-10-08T12:56:22Z</time>
      </trkpt>
      <trkpt lat="43.3823" lon="6.70393">
        <ele>130.1</ele>
        <time>2017-10-08T12:56:23Z</time>
      </trkpt>
      <trkpt lat="43.38247" lon="6.70409">
        <ele>128</ele>
        <time>2017-10-08T12:56:26Z</time>
      </trkpt>
      <trkpt lat="43.38253" lon="6.70412">
        <ele>127.7</ele>
        <time>2017-10-08T12:56:27Z</time>
      </trkpt>
      <trkpt lat="43.38278" lon="6.70422">
        <ele>125.5</ele>
        <time>2017-10-08T12:56:31Z</time>
      </trkpt>
      <trkpt lat="43.38284" lon="6.70426">
        <ele>125.5</ele>
        <time>2017-10-08T12:56:32Z</time>
      </trkpt>
      <trkpt lat="43.38288" lon="6.7043">
        <ele>125.6</ele>
        <time>2017-10-08T12:56:33Z</time>
      </trkpt>
      <trkpt lat="43.38292" lon="6.70434">
        <ele>126.1</ele>
        <time>2017-10-08T12:56:34Z</time>
      </trkpt>
      <trkpt lat="43.38305" lon="6.70451">
        <ele>127.5</ele>
        <time>2017-10-08T12:56:39Z</time>
      </trkpt>
      <trkpt lat="43.38315" lon="6.70462">
        <ele>128.6</ele>
        <time>2017-10-08T12:56:43Z</time>
      </trkpt>
      <trkpt lat="43.38321" lon="6.70467">
        <ele>129</ele>
        <time>2017-10-08T12:56:45Z</time>
      </trkpt>
      <trkpt lat="43.38342" lon="6.70483">
        <ele>127.1</ele>
        <time>2017-10-08T12:56:50Z</time>
      </trkpt>
      <trkpt lat="43.38347" lon="6.70488">
        <ele>126.7</ele>
        <time>2017-10-08T12:56:51Z</time>
      </trkpt>
      <trkpt lat="43.38352" lon="6.70493">
        <ele>127.1</ele>
        <time>2017-10-08T12:56:52Z</time>
      </trkpt>
      <trkpt lat="43.3836" lon="6.70507">
        <ele>126.6</ele>
        <time>2017-10-08T12:56:54Z</time>
      </trkpt>
      <trkpt lat="43.38367" lon="6.70517">
        <ele>126</ele>
        <time>2017-10-08T12:56:56Z</time>
      </trkpt>
      <trkpt lat="43.38372" lon="6.70521">
        <ele>125.5</ele>
        <time>2017-10-08T12:56:57Z</time>
      </trkpt>
      <trkpt lat="43.38388" lon="6.70522">
        <ele>122.8</ele>
        <time>2017-10-08T12:57:00Z</time>
      </trkpt>
      <trkpt lat="43.38393" lon="6.70523">
        <ele>121.7</ele>
        <time>2017-10-08T12:57:01Z</time>
      </trkpt>
      <trkpt lat="43.38407" lon="6.70531">
        <ele>118.5</ele>
        <time>2017-10-08T12:57:04Z</time>
      </trkpt>
      <trkpt lat="43.38413" lon="6.70538">
        <ele>117.2</ele>
        <time>2017-10-08T12:57:06Z</time>
      </trkpt>
      <trkpt lat="43.38417" lon="6.70542">
        <ele>116.7</ele>
        <time>2017-10-08T12:57:07Z</time>
      </trkpt>
      <trkpt lat="43.3842" lon="6.70545">
        <ele>116.2</ele>
        <time>2017-10-08T12:57:08Z</time>
      </trkpt>
      <trkpt lat="43.38423" lon="6.70548">
        <ele>115.7</ele>
        <time>2017-10-08T12:57:09Z</time>
      </trkpt>
      <trkpt lat="43.38426" lon="6.70552">
        <ele>115.1</ele>
        <time>2017-10-08T12:57:10Z</time>
      </trkpt>
      <trkpt lat="43.38432" lon="6.70561">
        <ele>114</ele>
        <time>2017-10-08T12:57:12Z</time>
      </trkpt>
      <trkpt lat="43.38439" lon="6.70572">
        <ele>112.8</ele>
        <time>2017-10-08T12:57:14Z</time>
      </trkpt>
      <trkpt lat="43.38442" lon="6.70578">
        <ele>112.2</ele>
        <time>2017-10-08T12:57:15Z</time>
      </trkpt>
      <trkpt lat="43.38445" lon="6.70583">
        <ele>111.7</ele>
        <time>2017-10-08T12:57:16Z</time>
      </trkpt>
      <trkpt lat="43.38449" lon="6.70588">
        <ele>111.1</ele>
        <time>2017-10-08T12:57:17Z</time>
      </trkpt>
      <trkpt lat="43.38453" lon="6.70591">
        <ele>110.5</ele>
        <time>2017-10-08T12:57:18Z</time>
      </trkpt>
      <trkpt lat="43.38457" lon="6.70593">
        <ele>109.7</ele>
        <time>2017-10-08T12:57:19Z</time>
      </trkpt>
      <trkpt lat="43.38462" lon="6.70594">
        <ele>109</ele>
        <time>2017-10-08T12:57:20Z</time>
      </trkpt>
      <trkpt lat="43.38467" lon="6.70594">
        <ele>108.2</ele>
        <time>2017-10-08T12:57:21Z</time>
      </trkpt>
      <trkpt lat="43.38472" lon="6.70595">
        <ele>107.4</ele>
        <time>2017-10-08T12:57:22Z</time>
      </trkpt>
      <trkpt lat="43.38478" lon="6.70595">
        <ele>106.6</ele>
        <time>2017-10-08T12:57:23Z</time>
      </trkpt>
      <trkpt lat="43.38483" lon="6.70595">
        <ele>106.3</ele>
        <time>2017-10-08T12:57:24Z</time>
      </trkpt>
      <trkpt lat="43.38488" lon="6.70596">
        <ele>105.9</ele>
        <time>2017-10-08T12:57:25Z</time>
      </trkpt>
      <trkpt lat="43.38492" lon="6.70598">
        <ele>105.7</ele>
        <time>2017-10-08T12:57:26Z</time>
      </trkpt>
      <trkpt lat="43.38495" lon="6.70601">
        <ele>105.3</ele>
        <time>2017-10-08T12:57:27Z</time>
      </trkpt>
      <trkpt lat="43.38498" lon="6.70605">
        <ele>105</ele>
        <time>2017-10-08T12:57:28Z</time>
      </trkpt>
      <trkpt lat="43.38506" lon="6.70615">
        <ele>104.4</ele>
        <time>2017-10-08T12:57:30Z</time>
      </trkpt>
      <trkpt lat="43.38514" lon="6.70627">
        <ele>103.7</ele>
        <time>2017-10-08T12:57:32Z</time>
      </trkpt>
      <trkpt lat="43.38523" lon="6.7064">
        <ele>102.8</ele>
        <time>2017-10-08T12:57:34Z</time>
      </trkpt>
      <trkpt lat="43.38531" lon="6.70654">
        <ele>102.4</ele>
        <time>2017-10-08T12:57:36Z</time>
      </trkpt>
      <trkpt lat="43.38539" lon="6.70667">
        <ele>101.9</ele>
        <time>2017-10-08T12:57:38Z</time>
      </trkpt>
      <trkpt lat="43.38548" lon="6.70682">
        <ele>101.9</ele>
        <time>2017-10-08T12:57:40Z</time>
      </trkpt>
      <trkpt lat="43.38554" lon="6.70693">
        <ele>103.9</ele>
        <time>2017-10-08T12:57:42Z</time>
      </trkpt>
      <trkpt lat="43.38556" lon="6.70696">
        <ele>104.7</ele>
        <time>2017-10-08T12:57:43Z</time>
      </trkpt>
      <trkpt lat="43.38557" lon="6.70699">
        <ele>105.6</ele>
        <time>2017-10-08T12:57:45Z</time>
      </trkpt>
      <trkpt lat="43.38603" lon="6.70732">
        <ele>115.3</ele>
        <time>2017-10-08T12:59:09Z</time>
      </trkpt>
      <trkpt lat="43.38604" lon="6.70732">
        <ele>115.4</ele>
        <time>2017-10-08T12:59:10Z</time>
      </trkpt>
      <trkpt lat="43.38609" lon="6.70733">
        <ele>115.5</ele>
        <time>2017-10-08T12:59:14Z</time>
      </trkpt>
      <trkpt lat="43.38623" lon="6.70739">
        <ele>115.4</ele>
        <time>2017-10-08T12:59:20Z</time>
      </trkpt>
      <trkpt lat="43.38647" lon="6.70743">
        <ele>113</ele>
        <time>2017-10-08T12:59:27Z</time>
      </trkpt>
      <trkpt lat="43.38655" lon="6.70738">
        <ele>111.2</ele>
        <time>2017-10-08T12:59:30Z</time>
      </trkpt>
      <trkpt lat="43.3866" lon="6.70732">
        <ele>110</ele>
        <time>2017-10-08T12:59:32Z</time>
      </trkpt>
      <trkpt lat="43.38663" lon="6.70731">
        <ele>109.4</ele>
        <time>2017-10-08T12:59:33Z</time>
      </trkpt>
      <trkpt lat="43.38671" lon="6.70731">
        <ele>108</ele>
        <time>2017-10-08T12:59:35Z</time>
      </trkpt>
      <trkpt lat="43.38675" lon="6.70732">
        <ele>107.3</ele>
        <time>2017-10-08T12:59:36Z</time>
      </trkpt>
      <trkpt lat="43.38684" lon="6.70733">
        <ele>105.8</ele>
        <time>2017-10-08T12:59:38Z</time>
      </trkpt>
      <trkpt lat="43.38694" lon="6.70733">
        <ele>107.7</ele>
        <time>2017-10-08T12:59:41Z</time>
      </trkpt>
      <trkpt lat="43.38729" lon="6.70723">
        <ele>114.7</ele>
        <time>2017-10-08T13:00:50Z</time>
      </trkpt>
      <trkpt lat="43.38748" lon="6.70711">
        <ele>114.9</ele>
        <time>2017-10-08T13:01:01Z</time>
      </trkpt>
      <trkpt lat="43.38773" lon="6.70697">
        <ele>114.6</ele>
        <time>2017-10-08T13:01:08Z</time>
      </trkpt>
      <trkpt lat="43.38785" lon="6.70691">
        <ele>114</ele>
        <time>2017-10-08T13:01:11Z</time>
      </trkpt>
      <trkpt lat="43.38793" lon="6.70688">
        <ele>113.4</ele>
        <time>2017-10-08T13:01:13Z</time>
      </trkpt>
      <trkpt lat="43.38802" lon="6.70683">
        <ele>112.8</ele>
        <time>2017-10-08T13:01:15Z</time>
      </trkpt>
      <trkpt lat="43.38817" lon="6.70676">
        <ele>111.6</ele>
        <time>2017-10-08T13:01:18Z</time>
      </trkpt>
      <trkpt lat="43.38832" lon="6.70671">
        <ele>109.8</ele>
        <time>2017-10-08T13:01:21Z</time>
      </trkpt>
      <trkpt lat="43.38845" lon="6.70666">
        <ele>107.6</ele>
        <time>2017-10-08T13:01:24Z</time>
      </trkpt>
      <trkpt lat="43.38859" lon="6.70659">
        <ele>105.3</ele>
        <time>2017-10-08T13:01:27Z</time>
      </trkpt>
      <trkpt lat="43.38864" lon="6.70656">
        <ele>104.3</ele>
        <time>2017-10-08T13:01:28Z</time>
      </trkpt>
      <trkpt lat="43.3887" lon="6.7065">
        <ele>103.3</ele>
        <time>2017-10-08T13:01:29Z</time>
      </trkpt>
      <trkpt lat="43.38875" lon="6.70645">
        <ele>102.4</ele>
        <time>2017-10-08T13:01:30Z</time>
      </trkpt>
      <trkpt lat="43.38882" lon="6.70634">
        <ele>102.1</ele>
        <time>2017-10-08T13:01:32Z</time>
      </trkpt>
      <trkpt lat="43.38885" lon="6.7063">
        <ele>102.2</ele>
        <time>2017-10-08T13:01:33Z</time>
      </trkpt>
      <trkpt lat="43.38887" lon="6.70626">
        <ele>102.7</ele>
        <time>2017-10-08T13:01:34Z</time>
      </trkpt>
      <trkpt lat="43.38889" lon="6.70621">
        <ele>103.8</ele>
        <time>2017-10-08T13:01:36Z</time>
      </trkpt>
      <trkpt lat="43.38889" lon="6.70618">
        <ele>104.3</ele>
        <time>2017-10-08T13:01:37Z</time>
      </trkpt>
      <trkpt lat="43.3892" lon="6.70599">
        <ele>110.8</ele>
        <time>2017-10-08T13:03:30Z</time>
      </trkpt>
      <trkpt lat="43.38922" lon="6.70597">
        <ele>110.9</ele>
        <time>2017-10-08T13:03:32Z</time>
      </trkpt>
      <trkpt lat="43.38926" lon="6.70594">
        <ele>110.9</ele>
        <time>2017-10-08T13:03:34Z</time>
      </trkpt>
      <trkpt lat="43.38929" lon="6.70591">
        <ele>110.9</ele>
        <time>2017-10-08T13:03:35Z</time>
      </trkpt>
      <trkpt lat="43.38931" lon="6.70587">
        <ele>110.8</ele>
        <time>2017-10-08T13:03:36Z</time>
      </trkpt>
      <trkpt lat="43.38937" lon="6.70581">
        <ele>110.8</ele>
        <time>2017-10-08T13:03:38Z</time>
      </trkpt>
      <trkpt lat="43.38943" lon="6.70575">
        <ele>110.2</ele>
        <time>2017-10-08T13:03:40Z</time>
      </trkpt>
      <trkpt lat="43.38949" lon="6.70569">
        <ele>108.7</ele>
        <time>2017-10-08T13:03:42Z</time>
      </trkpt>
      <trkpt lat="43.38952" lon="6.70566">
        <ele>107.9</ele>
        <time>2017-10-08T13:03:43Z</time>
      </trkpt>
      <trkpt lat="43.38955" lon="6.70564">
        <ele>107.2</ele>
        <time>2017-10-08T13:03:44Z</time>
      </trkpt>
      <trkpt lat="43.3896" lon="6.70561">
        <ele>106.2</ele>
        <time>2017-10-08T13:03:46Z</time>
      </trkpt>
      <trkpt lat="43.38964" lon="6.7056">
        <ele>105.5</ele>
        <time>2017-10-08T13:03:48Z</time>
      </trkpt>
      <trkpt lat="43.38968" lon="6.70564">
        <ele>104.5</ele>
        <time>2017-10-08T13:03:50Z</time>
      </trkpt>
      <trkpt lat="43.38972" lon="6.70575">
        <ele>102.8</ele>
        <time>2017-10-08T13:03:52Z</time>
      </trkpt>
      <trkpt lat="43.38974" lon="6.7058">
        <ele>102.2</ele>
        <time>2017-10-08T13:03:53Z</time>
      </trkpt>
      <trkpt lat="43.38979" lon="6.70589">
        <ele>100.8</ele>
        <time>2017-10-08T13:03:56Z</time>
      </trkpt>
      <trkpt lat="43.38981" lon="6.70589">
        <ele>100.6</ele>
        <time>2017-10-08T13:03:57Z</time>
      </trkpt>
      <trkpt lat="43.38983" lon="6.70588">
        <ele>100.3</ele>
        <time>2017-10-08T13:03:58Z</time>
      </trkpt>
      <trkpt lat="43.38987" lon="6.70577">
        <ele>98.2</ele>
        <time>2017-10-08T13:04:00Z</time>
      </trkpt>
      <trkpt lat="43.38988" lon="6.70572">
        <ele>97.8</ele>
        <time>2017-10-08T13:04:01Z</time>
      </trkpt>
      <trkpt lat="43.38989" lon="6.70562">
        <ele>97.4</ele>
        <time>2017-10-08T13:04:03Z</time>
      </trkpt>
      <trkpt lat="43.3899" lon="6.70554">
        <ele>97</ele>
        <time>2017-10-08T13:04:05Z</time>
      </trkpt>
      <trkpt lat="43.38992" lon="6.70547">
        <ele>96.5</ele>
        <time>2017-10-08T13:04:07Z</time>
      </trkpt>
      <trkpt lat="43.38996" lon="6.70537">
        <ele>95.2</ele>
        <time>2017-10-08T13:04:10Z</time>
      </trkpt>
      <trkpt lat="43.39001" lon="6.70531">
        <ele>93.6</ele>
        <time>2017-10-08T13:04:13Z</time>
      </trkpt>
      <trkpt lat="43.39003" lon="6.70527">
        <ele>92.7</ele>
        <time>2017-10-08T13:04:15Z</time>
      </trkpt>
      <trkpt lat="43.39004" lon="6.70525">
        <ele>92</ele>
        <time>2017-10-08T13:04:17Z</time>
      </trkpt>
      <trkpt lat="43.3901" lon="6.70529">
        <ele>90</ele>
        <time>2017-10-08T13:04:20Z</time>
      </trkpt>
      <trkpt lat="43.39012" lon="6.7053">
        <ele>89.2</ele>
        <time>2017-10-08T13:04:21Z</time>
      </trkpt>
      <trkpt lat="43.39021" lon="6.70531">
        <ele>86.2</ele>
        <time>2017-10-08T13:04:26Z</time>
      </trkpt>
      <trkpt lat="43.39024" lon="6.70531">
        <ele>83.5</ele>
        <time>2017-10-08T13:04:28Z</time>
      </trkpt>
      <trkpt lat="43.39029" lon="6.70529">
        <ele>82.2</ele>
        <time>2017-10-08T13:04:32Z</time>
      </trkpt>
      <trkpt lat="43.3903" lon="6.70525">
        <ele>80.9</ele>
        <time>2017-10-08T13:04:35Z</time>
      </trkpt>
      <trkpt lat="43.39039" lon="6.70517">
        <ele>77.5</ele>
        <time>2017-10-08T13:04:48Z</time>
      </trkpt>
      <trkpt lat="43.3904" lon="6.70518">
        <ele>77.3</ele>
        <time>2017-10-08T13:04:49Z</time>
      </trkpt>
      <trkpt lat="43.39046" lon="6.70524">
        <ele>76.4</ele>
        <time>2017-10-08T13:04:52Z</time>
      </trkpt>
      <trkpt lat="43.39054" lon="6.70537">
        <ele>75.1</ele>
        <time>2017-10-08T13:04:55Z</time>
      </trkpt>
      <trkpt lat="43.39056" lon="6.70542">
        <ele>73.3</ele>
        <time>2017-10-08T13:04:56Z</time>
      </trkpt>
      <trkpt lat="43.39058" lon="6.70562">
        <ele>63.3</ele>
        <time>2017-10-08T13:04:59Z</time>
      </trkpt>
      <trkpt lat="43.39058" lon="6.7057">
        <ele>61.5</ele>
        <time>2017-10-08T13:05:00Z</time>
      </trkpt>
      <trkpt lat="43.39063" lon="6.70584">
        <ele>60.3</ele>
        <time>2017-10-08T13:05:02Z</time>
      </trkpt>
      <trkpt lat="43.3907" lon="6.70596">
        <ele>59.2</ele>
        <time>2017-10-08T13:05:04Z</time>
      </trkpt>
      <trkpt lat="43.3908" lon="6.70602">
        <ele>58.4</ele>
        <time>2017-10-08T13:05:07Z</time>
      </trkpt>
      <trkpt lat="43.39098" lon="6.70607">
        <ele>57</ele>
        <time>2017-10-08T13:05:13Z</time>
      </trkpt>
      <trkpt lat="43.39105" lon="6.70609">
        <ele>57.1</ele>
        <time>2017-10-08T13:05:15Z</time>
      </trkpt>
      <trkpt lat="43.39113" lon="6.70613">
        <ele>56.8</ele>
        <time>2017-10-08T13:05:17Z</time>
      </trkpt>
      <trkpt lat="43.39116" lon="6.70618">
        <ele>56.6</ele>
        <time>2017-10-08T13:05:18Z</time>
      </trkpt>
      <trkpt lat="43.39125" lon="6.70647">
        <ele>57.1</ele>
        <time>2017-10-08T13:05:22Z</time>
      </trkpt>
      <trkpt lat="43.39123" lon="6.70668">
        <ele>56.5</ele>
        <time>2017-10-08T13:05:26Z</time>
      </trkpt>
      <trkpt lat="43.39121" lon="6.70681">
        <ele>56.1</ele>
        <time>2017-10-08T13:05:31Z</time>
      </trkpt>
      <trkpt lat="43.39123" lon="6.70683">
        <ele>56</ele>
        <time>2017-10-08T13:18:04Z</time>
      </trkpt>
      <trkpt lat="43.39124" lon="6.70682">
        <ele>55.9</ele>
        <time>2017-10-08T13:18:06Z</time>
      </trkpt>
      <trkpt lat="43.39128" lon="6.70678">
        <ele>55.5</ele>
        <time>2017-10-08T13:18:08Z</time>
      </trkpt>
      <trkpt lat="43.39132" lon="6.70674">
        <ele>55.1</ele>
        <time>2017-10-08T13:18:10Z</time>
      </trkpt>
      <trkpt lat="43.39141" lon="6.70667">
        <ele>54.3</ele>
        <time>2017-10-08T13:18:14Z</time>
      </trkpt>
      <trkpt lat="43.39155" lon="6.70671">
        <ele>53.2</ele>
        <time>2017-10-08T13:18:19Z</time>
      </trkpt>
      <trkpt lat="43.39175" lon="6.70675">
        <ele>52.1</ele>
        <time>2017-10-08T13:18:24Z</time>
      </trkpt>
      <trkpt lat="43.3918" lon="6.70674">
        <ele>51.9</ele>
        <time>2017-10-08T13:18:25Z</time>
      </trkpt>
      <trkpt lat="43.39184" lon="6.70675">
        <ele>51.6</ele>
        <time>2017-10-08T13:18:26Z</time>
      </trkpt>
      <trkpt lat="43.39195" lon="6.70681">
        <ele>51</ele>
        <time>2017-10-08T13:18:29Z</time>
      </trkpt>
      <trkpt lat="43.39202" lon="6.70682">
        <ele>50.3</ele>
        <time>2017-10-08T13:18:31Z</time>
      </trkpt>
      <trkpt lat="43.39208" lon="6.70685">
        <ele>49.5</ele>
        <time>2017-10-08T13:18:34Z</time>
      </trkpt>
      <trkpt lat="43.39211" lon="6.70685">
        <ele>49.2</ele>
        <time>2017-10-08T13:18:35Z</time>
      </trkpt>
      <trkpt lat="43.39223" lon="6.7069">
        <ele>47.8</ele>
        <time>2017-10-08T13:18:41Z</time>
      </trkpt>
      <trkpt lat="43.39229" lon="6.70694">
        <ele>47.2</ele>
        <time>2017-10-08T13:18:46Z</time>
      </trkpt>
      <trkpt lat="43.39245" lon="6.70704">
        <ele>46</ele>
        <time>2017-10-08T13:18:56Z</time>
      </trkpt>
      <trkpt lat="43.39248" lon="6.70705">
        <ele>45.9</ele>
        <time>2017-10-08T13:18:58Z</time>
      </trkpt>
      <trkpt lat="43.39258" lon="6.70704">
        <ele>45.4</ele>
        <time>2017-10-08T13:19:04Z</time>
      </trkpt>
      <trkpt lat="43.39262" lon="6.70703">
        <ele>45.2</ele>
        <time>2017-10-08T13:19:07Z</time>
      </trkpt>
      <trkpt lat="43.39265" lon="6.70704">
        <ele>45.1</ele>
        <time>2017-10-08T13:19:09Z</time>
      </trkpt>
      <trkpt lat="43.39269" lon="6.70702">
        <ele>44.9</ele>
        <time>2017-10-08T13:19:12Z</time>
      </trkpt>
      <trkpt lat="43.3927" lon="6.70701">
        <ele>44.8</ele>
        <time>2017-10-08T13:19:13Z</time>
      </trkpt>
      <trkpt lat="43.39273" lon="6.70698">
        <ele>44.5</ele>
        <time>2017-10-08T13:19:15Z</time>
      </trkpt>
      <trkpt lat="43.39273" lon="6.70691">
        <ele>44</ele>
        <time>2017-10-08T13:19:17Z</time>
      </trkpt>
      <trkpt lat="43.39268" lon="6.70682">
        <ele>44</ele>
        <time>2017-10-08T13:19:19Z</time>
      </trkpt>
      <trkpt lat="43.39262" lon="6.70675">
        <ele>44</ele>
        <time>2017-10-08T13:19:21Z</time>
      </trkpt>
      <trkpt lat="43.39258" lon="6.70659">
        <ele>43.6</ele>
        <time>2017-10-08T13:19:24Z</time>
      </trkpt>
      <trkpt lat="43.39259" lon="6.70654">
        <ele>43.1</ele>
        <time>2017-10-08T13:19:25Z</time>
      </trkpt>
      <trkpt lat="43.39264" lon="6.70646">
        <ele>42.6</ele>
        <time>2017-10-08T13:19:28Z</time>
      </trkpt>
      <trkpt lat="43.39266" lon="6.70644">
        <ele>42.4</ele>
        <time>2017-10-08T13:19:29Z</time>
      </trkpt>
      <trkpt lat="43.39275" lon="6.70653">
        <ele>43.6</ele>
        <time>2017-10-08T13:19:31Z</time>
      </trkpt>
      <trkpt lat="43.39278" lon="6.70655">
        <ele>43.8</ele>
        <time>2017-10-08T13:19:32Z</time>
      </trkpt>
      <trkpt lat="43.3928" lon="6.70656">
        <ele>44</ele>
        <time>2017-10-08T13:19:33Z</time>
      </trkpt>
      <trkpt lat="43.39346" lon="6.70656">
        <ele>49.4</ele>
        <time>2017-10-08T13:21:10Z</time>
      </trkpt>
      <trkpt lat="43.39352" lon="6.70655">
        <ele>49.4</ele>
        <time>2017-10-08T13:21:13Z</time>
      </trkpt>
      <trkpt lat="43.39367" lon="6.7066">
        <ele>49.5</ele>
        <time>2017-10-08T13:21:19Z</time>
      </trkpt>
      <trkpt lat="43.39387" lon="6.70673">
        <ele>51</ele>
        <time>2017-10-08T13:21:26Z</time>
      </trkpt>
      <trkpt lat="43.39398" lon="6.70677">
        <ele>51.7</ele>
        <time>2017-10-08T13:21:32Z</time>
      </trkpt>
      <trkpt lat="43.39411" lon="6.7068">
        <ele>52.8</ele>
        <time>2017-10-08T13:21:41Z</time>
      </trkpt>
      <trkpt lat="43.39422" lon="6.70681">
        <ele>53.1</ele>
        <time>2017-10-08T13:21:48Z</time>
      </trkpt>
      <trkpt lat="43.39429" lon="6.70681">
        <ele>53.3</ele>
        <time>2017-10-08T13:21:52Z</time>
      </trkpt>
      <trkpt lat="43.3943" lon="6.7068">
        <ele>53.4</ele>
        <time>2017-10-08T13:21:53Z</time>
      </trkpt>
      <trkpt lat="43.39444" lon="6.70683">
        <ele>54.3</ele>
        <time>2017-10-08T13:22:00Z</time>
      </trkpt>
      <trkpt lat="43.39446" lon="6.70684">
        <ele>54.5</ele>
        <time>2017-10-08T13:22:01Z</time>
      </trkpt>
      <trkpt lat="43.39455" lon="6.70688">
        <ele>55.1</ele>
        <time>2017-10-08T13:22:05Z</time>
      </trkpt>
      <trkpt lat="43.39463" lon="6.70686">
        <ele>55.9</ele>
        <time>2017-10-08T13:22:09Z</time>
      </trkpt>
      <trkpt lat="43.39465" lon="6.7068">
        <ele>56.2</ele>
        <time>2017-10-08T13:22:12Z</time>
      </trkpt>
      <trkpt lat="43.39464" lon="6.70675">
        <ele>56.3</ele>
        <time>2017-10-08T13:22:15Z</time>
      </trkpt>
      <trkpt lat="43.39465" lon="6.70671">
        <ele>56.4</ele>
        <time>2017-10-08T13:22:19Z</time>
      </trkpt>
      <trkpt lat="43.39469" lon="6.70669">
        <ele>56.5</ele>
        <time>2017-10-08T13:22:21Z</time>
      </trkpt>
      <trkpt lat="43.39476" lon="6.70668">
        <ele>56.5</ele>
        <time>2017-10-08T13:22:24Z</time>
      </trkpt>
      <trkpt lat="43.39489" lon="6.70666">
        <ele>56.6</ele>
        <time>2017-10-08T13:22:29Z</time>
      </trkpt>
      <trkpt lat="43.39498" lon="6.70665">
        <ele>56.7</ele>
        <time>2017-10-08T13:22:35Z</time>
      </trkpt>
      <trkpt lat="43.395" lon="6.70657">
        <ele>57.1</ele>
        <time>2017-10-08T13:22:39Z</time>
      </trkpt>
      <trkpt lat="43.395" lon="6.70652">
        <ele>57.4</ele>
        <time>2017-10-08T13:22:41Z</time>
      </trkpt>
      <trkpt lat="43.39497" lon="6.70644">
        <ele>58</ele>
        <time>2017-10-08T13:22:44Z</time>
      </trkpt>
      <trkpt lat="43.39498" lon="6.70634">
        <ele>58.4</ele>
        <time>2017-10-08T13:22:48Z</time>
      </trkpt>
      <trkpt lat="43.39508" lon="6.70621">
        <ele>59.1</ele>
        <time>2017-10-08T13:22:55Z</time>
      </trkpt>
      <trkpt lat="43.39518" lon="6.70599">
        <ele>59.9</ele>
        <time>2017-10-08T13:23:01Z</time>
      </trkpt>
      <trkpt lat="43.39522" lon="6.70595">
        <ele>60</ele>
        <time>2017-10-08T13:23:03Z</time>
      </trkpt>
      <trkpt lat="43.39528" lon="6.70592">
        <ele>59.9</ele>
        <time>2017-10-08T13:23:06Z</time>
      </trkpt>
      <trkpt lat="43.3954" lon="6.70596">
        <ele>59.7</ele>
        <time>2017-10-08T13:23:10Z</time>
      </trkpt>
      <trkpt lat="43.39541" lon="6.70602">
        <ele>59.6</ele>
        <time>2017-10-08T13:23:11Z</time>
      </trkpt>
      <trkpt lat="43.39542" lon="6.70618">
        <ele>58.8</ele>
        <time>2017-10-08T13:23:14Z</time>
      </trkpt>
      <trkpt lat="43.39544" lon="6.70625">
        <ele>58.2</ele>
        <time>2017-10-08T13:23:16Z</time>
      </trkpt>
      <trkpt lat="43.39546" lon="6.70633">
        <ele>57.2</ele>
        <time>2017-10-08T13:23:18Z</time>
      </trkpt>
      <trkpt lat="43.39549" lon="6.70635">
        <ele>56.6</ele>
        <time>2017-10-08T13:23:19Z</time>
      </trkpt>
      <trkpt lat="43.39551" lon="6.70637">
        <ele>56.2</ele>
        <time>2017-10-08T13:23:20Z</time>
      </trkpt>
      <trkpt lat="43.39559" lon="6.70632">
        <ele>54.6</ele>
        <time>2017-10-08T13:23:23Z</time>
      </trkpt>
      <trkpt lat="43.39567" lon="6.70625">
        <ele>53.5</ele>
        <time>2017-10-08T13:23:25Z</time>
      </trkpt>
      <trkpt lat="43.39572" lon="6.70613">
        <ele>52.5</ele>
        <time>2017-10-08T13:23:27Z</time>
      </trkpt>
      <trkpt lat="43.39576" lon="6.70603">
        <ele>51.5</ele>
        <time>2017-10-08T13:23:30Z</time>
      </trkpt>
      <trkpt lat="43.39578" lon="6.706">
        <ele>51.1</ele>
        <time>2017-10-08T13:23:33Z</time>
      </trkpt>
      <trkpt lat="43.39595" lon="6.7062">
        <ele>49.8</ele>
        <time>2017-10-08T13:24:01Z</time>
      </trkpt>
      <trkpt lat="43.39599" lon="6.7063">
        <ele>50</ele>
        <time>2017-10-08T13:24:04Z</time>
      </trkpt>
      <trkpt lat="43.39601" lon="6.70637">
        <ele>50.1</ele>
        <time>2017-10-08T13:24:06Z</time>
      </trkpt>
      <trkpt lat="43.39606" lon="6.70652">
        <ele>50.7</ele>
        <time>2017-10-08T13:24:12Z</time>
      </trkpt>
      <trkpt lat="43.39606" lon="6.70655">
        <ele>50.9</ele>
        <time>2017-10-08T13:24:13Z</time>
      </trkpt>
      <trkpt lat="43.39606" lon="6.70663">
        <ele>51.4</ele>
        <time>2017-10-08T13:24:16Z</time>
      </trkpt>
      <trkpt lat="43.39606" lon="6.70674">
        <ele>51.8</ele>
        <time>2017-10-08T13:24:22Z</time>
      </trkpt>
      <trkpt lat="43.39609" lon="6.70684">
        <ele>52.6</ele>
        <time>2017-10-08T13:24:29Z</time>
      </trkpt>
      <trkpt lat="43.39615" lon="6.7069">
        <ele>53.2</ele>
        <time>2017-10-08T13:24:33Z</time>
      </trkpt>
      <trkpt lat="43.39626" lon="6.70687">
        <ele>53.7</ele>
        <time>2017-10-08T13:24:39Z</time>
      </trkpt>
      <trkpt lat="43.39635" lon="6.70683">
        <ele>54.3</ele>
        <time>2017-10-08T13:24:46Z</time>
      </trkpt>
      <trkpt lat="43.39637" lon="6.70682">
        <ele>54.6</ele>
        <time>2017-10-08T13:24:48Z</time>
      </trkpt>
      <trkpt lat="43.3964" lon="6.70679">
        <ele>55.1</ele>
        <time>2017-10-08T13:24:51Z</time>
      </trkpt>
      <trkpt lat="43.3965" lon="6.70674">
        <ele>55.7</ele>
        <time>2017-10-08T13:24:59Z</time>
      </trkpt>
      <trkpt lat="43.39658" lon="6.70672">
        <ele>56.5</ele>
        <time>2017-10-08T13:25:04Z</time>
      </trkpt>
      <trkpt lat="43.39663" lon="6.7067">
        <ele>56.8</ele>
        <time>2017-10-08T13:25:09Z</time>
      </trkpt>
      <trkpt lat="43.39664" lon="6.70669">
        <ele>56.9</ele>
        <time>2017-10-08T13:25:10Z</time>
      </trkpt>
      <trkpt lat="43.39673" lon="6.70656">
        <ele>58.2</ele>
        <time>2017-10-08T13:25:18Z</time>
      </trkpt>
      <trkpt lat="43.39682" lon="6.7065">
        <ele>58.9</ele>
        <time>2017-10-08T13:25:22Z</time>
      </trkpt>
      <trkpt lat="43.39686" lon="6.70649">
        <ele>59</ele>
        <time>2017-10-08T13:25:23Z</time>
      </trkpt>
      <trkpt lat="43.39704" lon="6.70646">
        <ele>59.5</ele>
        <time>2017-10-08T13:25:28Z</time>
      </trkpt>
      <trkpt lat="43.39711" lon="6.70647">
        <ele>59.7</ele>
        <time>2017-10-08T13:25:30Z</time>
      </trkpt>
      <trkpt lat="43.39723" lon="6.7065">
        <ele>60</ele>
        <time>2017-10-08T13:25:33Z</time>
      </trkpt>
      <trkpt lat="43.3973" lon="6.70658">
        <ele>60.2</ele>
        <time>2017-10-08T13:25:35Z</time>
      </trkpt>
      <trkpt lat="43.39735" lon="6.7066">
        <ele>60.2</ele>
        <time>2017-10-08T13:25:36Z</time>
      </trkpt>
      <trkpt lat="43.39742" lon="6.70654">
        <ele>60.3</ele>
        <time>2017-10-08T13:25:38Z</time>
      </trkpt>
      <trkpt lat="43.39748" lon="6.70637">
        <ele>60.6</ele>
        <time>2017-10-08T13:25:41Z</time>
      </trkpt>
      <trkpt lat="43.3975" lon="6.70632">
        <ele>60.7</ele>
        <time>2017-10-08T13:25:42Z</time>
      </trkpt>
      <trkpt lat="43.39753" lon="6.70626">
        <ele>60.8</ele>
        <time>2017-10-08T13:25:43Z</time>
      </trkpt>
      <trkpt lat="43.3976" lon="6.70612">
        <ele>61.2</ele>
        <time>2017-10-08T13:25:46Z</time>
      </trkpt>
      <trkpt lat="43.39762" lon="6.70607">
        <ele>61.3</ele>
        <time>2017-10-08T13:25:47Z</time>
      </trkpt>
      <trkpt lat="43.39773" lon="6.70584">
        <ele>61.6</ele>
        <time>2017-10-08T13:25:52Z</time>
      </trkpt>
      <trkpt lat="43.39775" lon="6.70572">
        <ele>61.7</ele>
        <time>2017-10-08T13:25:54Z</time>
      </trkpt>
      <trkpt lat="43.39778" lon="6.70556">
        <ele>61.9</ele>
        <time>2017-10-08T13:25:57Z</time>
      </trkpt>
      <trkpt lat="43.39785" lon="6.70546">
        <ele>62</ele>
        <time>2017-10-08T13:26:00Z</time>
      </trkpt>
      <trkpt lat="43.39795" lon="6.70539">
        <ele>62.1</ele>
        <time>2017-10-08T13:26:03Z</time>
      </trkpt>
      <trkpt lat="43.39806" lon="6.70523">
        <ele>62.3</ele>
        <time>2017-10-08T13:26:08Z</time>
      </trkpt>
      <trkpt lat="43.39806" lon="6.70517">
        <ele>62.4</ele>
        <time>2017-10-08T13:26:09Z</time>
      </trkpt>
      <trkpt lat="43.39811" lon="6.70509">
        <ele>62.5</ele>
        <time>2017-10-08T13:26:11Z</time>
      </trkpt>
      <trkpt lat="43.3982" lon="6.70502">
        <ele>62.7</ele>
        <time>2017-10-08T13:26:14Z</time>
      </trkpt>
      <trkpt lat="43.39828" lon="6.70483">
        <ele>62.9</ele>
        <time>2017-10-08T13:26:19Z</time>
      </trkpt>
      <trkpt lat="43.39833" lon="6.70476">
        <ele>63.1</ele>
        <time>2017-10-08T13:26:22Z</time>
      </trkpt>
      <trkpt lat="43.39836" lon="6.70481">
        <ele>63.2</ele>
        <time>2017-10-08T13:26:24Z</time>
      </trkpt>
      <trkpt lat="43.39838" lon="6.7049">
        <ele>63.5</ele>
        <time>2017-10-08T13:26:28Z</time>
      </trkpt>
      <trkpt lat="43.39839" lon="6.70493">
        <ele>63.7</ele>
        <time>2017-10-08T13:26:30Z</time>
      </trkpt>
      <trkpt lat="43.39841" lon="6.70497">
        <ele>63.9</ele>
        <time>2017-10-08T13:26:33Z</time>
      </trkpt>
      <trkpt lat="43.39842" lon="6.70499">
        <ele>64</ele>
        <time>2017-10-08T13:26:35Z</time>
      </trkpt>
      <trkpt lat="43.39846" lon="6.70504">
        <ele>64.3</ele>
        <time>2017-10-08T13:26:40Z</time>
      </trkpt>
      <trkpt lat="43.3985" lon="6.70508">
        <ele>64.6</ele>
        <time>2017-10-08T13:26:43Z</time>
      </trkpt>
      <trkpt lat="43.39854" lon="6.70511">
        <ele>65.2</ele>
        <time>2017-10-08T13:26:46Z</time>
      </trkpt>
      <trkpt lat="43.39857" lon="6.70517">
        <ele>65.8</ele>
        <time>2017-10-08T13:26:49Z</time>
      </trkpt>
      <trkpt lat="43.39857" lon="6.7052">
        <ele>66</ele>
        <time>2017-10-08T13:26:50Z</time>
      </trkpt>
      <trkpt lat="43.39861" lon="6.70535">
        <ele>66.8</ele>
        <time>2017-10-08T13:26:54Z</time>
      </trkpt>
      <trkpt lat="43.39871" lon="6.70558">
        <ele>67.5</ele>
        <time>2017-10-08T13:26:59Z</time>
      </trkpt>
      <trkpt lat="43.39878" lon="6.70566">
        <ele>67.7</ele>
        <time>2017-10-08T13:27:01Z</time>
      </trkpt>
      <trkpt lat="43.39884" lon="6.70572">
        <ele>67.8</ele>
        <time>2017-10-08T13:27:03Z</time>
      </trkpt>
      <trkpt lat="43.3989" lon="6.70581">
        <ele>68</ele>
        <time>2017-10-08T13:27:06Z</time>
      </trkpt>
      <trkpt lat="43.39891" lon="6.70583">
        <ele>68</ele>
        <time>2017-10-08T13:27:07Z</time>
      </trkpt>
      <trkpt lat="43.399" lon="6.70591">
        <ele>68.3</ele>
        <time>2017-10-08T13:27:11Z</time>
      </trkpt>
      <trkpt lat="43.39903" lon="6.70591">
        <ele>68.3</ele>
        <time>2017-10-08T13:27:12Z</time>
      </trkpt>
      <trkpt lat="43.39923" lon="6.7059">
        <ele>68.8</ele>
        <time>2017-10-08T13:27:19Z</time>
      </trkpt>
      <trkpt lat="43.39932" lon="6.70581">
        <ele>69.1</ele>
        <time>2017-10-08T13:27:25Z</time>
      </trkpt>
      <trkpt lat="43.39944" lon="6.70569">
        <ele>69.6</ele>
        <time>2017-10-08T13:27:31Z</time>
      </trkpt>
      <trkpt lat="43.39948" lon="6.70566">
        <ele>69.8</ele>
        <time>2017-10-08T13:27:33Z</time>
      </trkpt>
      <trkpt lat="43.39958" lon="6.70558">
        <ele>70.3</ele>
        <time>2017-10-08T13:27:38Z</time>
      </trkpt>
      <trkpt lat="43.3997" lon="6.70551">
        <ele>71.5</ele>
        <time>2017-10-08T13:27:45Z</time>
      </trkpt>
      <trkpt lat="43.39972" lon="6.7055">
        <ele>71.8</ele>
        <time>2017-10-08T13:27:46Z</time>
      </trkpt>
      <trkpt lat="43.39982" lon="6.70541">
        <ele>72.4</ele>
        <time>2017-10-08T13:27:50Z</time>
      </trkpt>
      <trkpt lat="43.39988" lon="6.70523">
        <ele>72.8</ele>
        <time>2017-10-08T13:27:55Z</time>
      </trkpt>
      <trkpt lat="43.39986" lon="6.70503">
        <ele>73.1</ele>
        <time>2017-10-08T13:28:00Z</time>
      </trkpt>
      <trkpt lat="43.39987" lon="6.70494">
        <ele>73.3</ele>
        <time>2017-10-08T13:28:02Z</time>
      </trkpt>
      <trkpt lat="43.39989" lon="6.70487">
        <ele>73.4</ele>
        <time>2017-10-08T13:28:04Z</time>
      </trkpt>
      <trkpt lat="43.39994" lon="6.70469">
        <ele>74</ele>
        <time>2017-10-08T13:28:10Z</time>
      </trkpt>
      <trkpt lat="43.40003" lon="6.70442">
        <ele>75.6</ele>
        <time>2017-10-08T13:28:17Z</time>
      </trkpt>
      <trkpt lat="43.40014" lon="6.70414">
        <ele>76.3</ele>
        <time>2017-10-08T13:28:23Z</time>
      </trkpt>
      <trkpt lat="43.40031" lon="6.7041">
        <ele>76.6</ele>
        <time>2017-10-08T13:28:28Z</time>
      </trkpt>
      <trkpt lat="43.40035" lon="6.70412">
        <ele>76.7</ele>
        <time>2017-10-08T13:28:29Z</time>
      </trkpt>
      <trkpt lat="43.40051" lon="6.70415">
        <ele>76.7</ele>
        <time>2017-10-08T13:28:34Z</time>
      </trkpt>
      <trkpt lat="43.40064" lon="6.70421">
        <ele>76.4</ele>
        <time>2017-10-08T13:28:47Z</time>
      </trkpt>
      <trkpt lat="43.40067" lon="6.70421">
        <ele>76.3</ele>
        <time>2017-10-08T13:28:48Z</time>
      </trkpt>
      <trkpt lat="43.40074" lon="6.70427">
        <ele>75.6</ele>
        <time>2017-10-08T13:28:50Z</time>
      </trkpt>
      <trkpt lat="43.40078" lon="6.70437">
        <ele>74.5</ele>
        <time>2017-10-08T13:28:52Z</time>
      </trkpt>
      <trkpt lat="43.40081" lon="6.70443">
        <ele>73.8</ele>
        <time>2017-10-08T13:28:53Z</time>
      </trkpt>
      <trkpt lat="43.40089" lon="6.70465">
        <ele>72</ele>
        <time>2017-10-08T13:28:57Z</time>
      </trkpt>
      <trkpt lat="43.4009" lon="6.7047">
        <ele>71.8</ele>
        <time>2017-10-08T13:28:58Z</time>
      </trkpt>
      <trkpt lat="43.40091" lon="6.70475">
        <ele>71.6</ele>
        <time>2017-10-08T13:28:59Z</time>
      </trkpt>
      <trkpt lat="43.40095" lon="6.70485">
        <ele>71.4</ele>
        <time>2017-10-08T13:29:02Z</time>
      </trkpt>
      <trkpt lat="43.40097" lon="6.70483">
        <ele>71.3</ele>
        <time>2017-10-08T13:29:03Z</time>
      </trkpt>
      <trkpt lat="43.40103" lon="6.70478">
        <ele>71.2</ele>
        <time>2017-10-08T13:29:09Z</time>
      </trkpt>
      <trkpt lat="43.40105" lon="6.70488">
        <ele>71.1</ele>
        <time>2017-10-08T13:29:13Z</time>
      </trkpt>
      <trkpt lat="43.40105" lon="6.70492">
        <ele>71.1</ele>
        <time>2017-10-08T13:29:14Z</time>
      </trkpt>
      <trkpt lat="43.40109" lon="6.70513">
        <ele>70.9</ele>
        <time>2017-10-08T13:29:22Z</time>
      </trkpt>
      <trkpt lat="43.40112" lon="6.70517">
        <ele>70.9</ele>
        <time>2017-10-08T13:29:24Z</time>
      </trkpt>
      <trkpt lat="43.40115" lon="6.70528">
        <ele>70.7</ele>
        <time>2017-10-08T13:29:27Z</time>
      </trkpt>
      <trkpt lat="43.40119" lon="6.70554">
        <ele>70.2</ele>
        <time>2017-10-08T13:29:33Z</time>
      </trkpt>
      <trkpt lat="43.40129" lon="6.70556">
        <ele>70</ele>
        <time>2017-10-08T13:29:38Z</time>
      </trkpt>
      <trkpt lat="43.40131" lon="6.70555">
        <ele>70</ele>
        <time>2017-10-08T13:29:39Z</time>
      </trkpt>
      <trkpt lat="43.40136" lon="6.70565">
        <ele>69.6</ele>
        <time>2017-10-08T13:29:44Z</time>
      </trkpt>
      <trkpt lat="43.40137" lon="6.70568">
        <ele>69.3</ele>
        <time>2017-10-08T13:29:45Z</time>
      </trkpt>
      <trkpt lat="43.40142" lon="6.70578">
        <ele>67.6</ele>
        <time>2017-10-08T13:29:50Z</time>
      </trkpt>
      <trkpt lat="43.40152" lon="6.70591">
        <ele>65.8</ele>
        <time>2017-10-08T13:29:56Z</time>
      </trkpt>
      <trkpt lat="43.4016" lon="6.70608">
        <ele>64</ele>
        <time>2017-10-08T13:30:00Z</time>
      </trkpt>
      <trkpt lat="43.40164" lon="6.7062">
        <ele>62.8</ele>
        <time>2017-10-08T13:30:02Z</time>
      </trkpt>
      <trkpt lat="43.40177" lon="6.70649">
        <ele>58.5</ele>
        <time>2017-10-08T13:30:07Z</time>
      </trkpt>
      <trkpt lat="43.40183" lon="6.70657">
        <ele>56.8</ele>
        <time>2017-10-08T13:30:09Z</time>
      </trkpt>
      <trkpt lat="43.40193" lon="6.7068">
        <ele>54</ele>
        <time>2017-10-08T13:30:14Z</time>
      </trkpt>
      <trkpt lat="43.40198" lon="6.70691">
        <ele>53.4</ele>
        <time>2017-10-08T13:30:17Z</time>
      </trkpt>
      <trkpt lat="43.40203" lon="6.70705">
        <ele>52.5</ele>
        <time>2017-10-08T13:30:20Z</time>
      </trkpt>
      <trkpt lat="43.40205" lon="6.7071">
        <ele>52.2</ele>
        <time>2017-10-08T13:30:21Z</time>
      </trkpt>
      <trkpt lat="43.4021" lon="6.7072">
        <ele>51.7</ele>
        <time>2017-10-08T13:30:24Z</time>
      </trkpt>
      <trkpt lat="43.40215" lon="6.70726">
        <ele>51.5</ele>
        <time>2017-10-08T13:30:26Z</time>
      </trkpt>
      <trkpt lat="43.40216" lon="6.70744">
        <ele>51</ele>
        <time>2017-10-08T13:30:30Z</time>
      </trkpt>
      <trkpt lat="43.40215" lon="6.70751">
        <ele>50.8</ele>
        <time>2017-10-08T13:30:31Z</time>
      </trkpt>
      <trkpt lat="43.40209" lon="6.70786">
        <ele>48.9</ele>
        <time>2017-10-08T13:30:36Z</time>
      </trkpt>
      <trkpt lat="43.40206" lon="6.708">
        <ele>48.2</ele>
        <time>2017-10-08T13:30:38Z</time>
      </trkpt>
      <trkpt lat="43.40193" lon="6.70842">
        <ele>46.6</ele>
        <time>2017-10-08T13:30:44Z</time>
      </trkpt>
      <trkpt lat="43.40189" lon="6.70847">
        <ele>46.4</ele>
        <time>2017-10-08T13:30:45Z</time>
      </trkpt>
      <trkpt lat="43.40162" lon="6.7088">
        <ele>45.3</ele>
        <time>2017-10-08T13:30:52Z</time>
      </trkpt>
      <trkpt lat="43.40159" lon="6.70885">
        <ele>44.9</ele>
        <time>2017-10-08T13:30:53Z</time>
      </trkpt>
      <trkpt lat="43.40149" lon="6.70901">
        <ele>43.6</ele>
        <time>2017-10-08T13:30:56Z</time>
      </trkpt>
      <trkpt lat="43.40148" lon="6.70908">
        <ele>43.1</ele>
        <time>2017-10-08T13:30:57Z</time>
      </trkpt>
      <trkpt lat="43.40148" lon="6.70923">
        <ele>41.7</ele>
        <time>2017-10-08T13:31:00Z</time>
      </trkpt>
      <trkpt lat="43.40148" lon="6.70932">
        <ele>40.7</ele>
        <time>2017-10-08T13:31:02Z</time>
      </trkpt>
      <trkpt lat="43.40148" lon="6.70936">
        <ele>40.2</ele>
        <time>2017-10-08T13:31:03Z</time>
      </trkpt>
      <trkpt lat="43.40145" lon="6.70946">
        <ele>38.9</ele>
        <time>2017-10-08T13:31:06Z</time>
      </trkpt>
      <trkpt lat="43.40143" lon="6.70957">
        <ele>37.5</ele>
        <time>2017-10-08T13:31:09Z</time>
      </trkpt>
      <trkpt lat="43.4014" lon="6.70967">
        <ele>36.1</ele>
        <time>2017-10-08T13:31:12Z</time>
      </trkpt>
      <trkpt lat="43.40138" lon="6.70974">
        <ele>35</ele>
        <time>2017-10-08T13:31:14Z</time>
      </trkpt>
      <trkpt lat="43.40135" lon="6.70983">
        <ele>33.7</ele>
        <time>2017-10-08T13:31:16Z</time>
      </trkpt>
      <trkpt lat="43.40134" lon="6.70988">
        <ele>33.1</ele>
        <time>2017-10-08T13:31:17Z</time>
      </trkpt>
      <trkpt lat="43.40134" lon="6.71003">
        <ele>30.7</ele>
        <time>2017-10-08T13:31:20Z</time>
      </trkpt>
      <trkpt lat="43.40136" lon="6.71016">
        <ele>28.3</ele>
        <time>2017-10-08T13:31:22Z</time>
      </trkpt>
      <trkpt lat="43.40136" lon="6.71022">
        <ele>27</ele>
        <time>2017-10-08T13:31:23Z</time>
      </trkpt>
      <trkpt lat="43.40137" lon="6.71028">
        <ele>25.5</ele>
        <time>2017-10-08T13:31:24Z</time>
      </trkpt>
      <trkpt lat="43.40138" lon="6.7104">
        <ele>22.9</ele>
        <time>2017-10-08T13:31:26Z</time>
      </trkpt>
      <trkpt lat="43.4014" lon="6.71051">
        <ele>21</ele>
        <time>2017-10-08T13:31:28Z</time>
      </trkpt>
      <trkpt lat="43.40142" lon="6.71056">
        <ele>20</ele>
        <time>2017-10-08T13:31:29Z</time>
      </trkpt>
      <trkpt lat="43.40143" lon="6.71061">
        <ele>19.2</ele>
        <time>2017-10-08T13:31:30Z</time>
      </trkpt>
      <trkpt lat="43.40144" lon="6.71072">
        <ele>17.7</ele>
        <time>2017-10-08T13:31:32Z</time>
      </trkpt>
      <trkpt lat="43.40145" lon="6.71089">
        <ele>15.7</ele>
        <time>2017-10-08T13:31:35Z</time>
      </trkpt>
      <trkpt lat="43.40146" lon="6.71108">
        <ele>14</ele>
        <time>2017-10-08T13:31:38Z</time>
      </trkpt>
      <trkpt lat="43.40145" lon="6.71129">
        <ele>13</ele>
        <time>2017-10-08T13:31:41Z</time>
      </trkpt>
      <trkpt lat="43.40145" lon="6.71137">
        <ele>12.3</ele>
        <time>2017-10-08T13:31:42Z</time>
      </trkpt>
      <trkpt lat="43.40144" lon="6.71145">
        <ele>11.6</ele>
        <time>2017-10-08T13:31:43Z</time>
      </trkpt>
      <trkpt lat="43.40143" lon="6.71162">
        <ele>10.2</ele>
        <time>2017-10-08T13:31:45Z</time>
      </trkpt>
      <trkpt lat="43.40143" lon="6.7118">
        <ele>8.8</ele>
        <time>2017-10-08T13:31:47Z</time>
      </trkpt>
      <trkpt lat="43.40144" lon="6.71189">
        <ele>8.2</ele>
        <time>2017-10-08T13:31:48Z</time>
      </trkpt>
      <trkpt lat="43.40146" lon="6.712">
        <ele>7.3</ele>
        <time>2017-10-08T13:31:49Z</time>
      </trkpt>
      <trkpt lat="43.40149" lon="6.7122">
        <ele>5.7</ele>
        <time>2017-10-08T13:31:51Z</time>
      </trkpt>
      <trkpt lat="43.4015" lon="6.71239">
        <ele>4.3</ele>
        <time>2017-10-08T13:31:53Z</time>
      </trkpt>
      <trkpt lat="43.4015" lon="6.71248">
        <ele>3.7</ele>
        <time>2017-10-08T13:31:54Z</time>
      </trkpt>
      <trkpt lat="43.4015" lon="6.71257">
        <ele>3</ele>
        <time>2017-10-08T13:31:55Z</time>
      </trkpt>
      <trkpt lat="43.4015" lon="6.71277">
        <ele>2.8</ele>
        <time>2017-10-08T13:31:58Z</time>
      </trkpt>
      <trkpt lat="43.4015" lon="6.71283">
        <ele>2.7</ele>
        <time>2017-10-08T13:31:59Z</time>
      </trkpt>
      <trkpt lat="43.40149" lon="6.71288">
        <ele>2.6</ele>
        <time>2017-10-08T13:32:00Z</time>
      </trkpt>
      <trkpt lat="43.40144" lon="6.71301">
        <ele>2.5</ele>
        <time>2017-10-08T13:32:03Z</time>
      </trkpt>
      <trkpt lat="43.40139" lon="6.71303">
        <ele>2.5</ele>
        <time>2017-10-08T13:32:04Z</time>
      </trkpt>
      <trkpt lat="43.40134" lon="6.71305">
        <ele>2.5</ele>
        <time>2017-10-08T13:32:05Z</time>
      </trkpt>
      <trkpt lat="43.40124" lon="6.71308">
        <ele>2.6</ele>
        <time>2017-10-08T13:32:07Z</time>
      </trkpt>
      <trkpt lat="43.40116" lon="6.71312">
        <ele>2.8</ele>
        <time>2017-10-08T13:32:09Z</time>
      </trkpt>
      <trkpt lat="43.40108" lon="6.71316">
        <ele>2.9</ele>
        <time>2017-10-08T13:32:11Z</time>
      </trkpt>
      <trkpt lat="43.401" lon="6.71319">
        <ele>3.1</ele>
        <time>2017-10-08T13:32:13Z</time>
      </trkpt>
      <trkpt lat="43.40096" lon="6.71321">
        <ele>3.2</ele>
        <time>2017-10-08T13:32:14Z</time>
      </trkpt>
      <trkpt lat="43.40093" lon="6.71322">
        <ele>3.2</ele>
        <time>2017-10-08T13:32:15Z</time>
      </trkpt>
      <trkpt lat="43.40085" lon="6.71327">
        <ele>3.4</ele>
        <time>2017-10-08T13:32:17Z</time>
      </trkpt>
      <trkpt lat="43.40078" lon="6.71331">
        <ele>3.5</ele>
        <time>2017-10-08T13:32:19Z</time>
      </trkpt>
      <trkpt lat="43.40068" lon="6.71337">
        <ele>3.7</ele>
        <time>2017-10-08T13:32:22Z</time>
      </trkpt>
      <trkpt lat="43.40058" lon="6.71345">
        <ele>3.9</ele>
        <time>2017-10-08T13:32:25Z</time>
      </trkpt>
      <trkpt lat="43.40055" lon="6.71348">
        <ele>4</ele>
        <time>2017-10-08T13:32:26Z</time>
      </trkpt>
      <trkpt lat="43.40049" lon="6.71355">
        <ele>4.2</ele>
        <time>2017-10-08T13:32:28Z</time>
      </trkpt>
      <trkpt lat="43.40041" lon="6.71365">
        <ele>4.5</ele>
        <time>2017-10-08T13:32:31Z</time>
      </trkpt>
      <trkpt lat="43.40037" lon="6.71374">
        <ele>4.6</ele>
        <time>2017-10-08T13:32:33Z</time>
      </trkpt>
      <trkpt lat="43.40035" lon="6.71378">
        <ele>4.7</ele>
        <time>2017-10-08T13:32:34Z</time>
      </trkpt>
      <trkpt lat="43.40024" lon="6.714">
        <ele>5</ele>
        <time>2017-10-08T13:32:39Z</time>
      </trkpt>
      <trkpt lat="43.40017" lon="6.71412">
        <ele>5.1</ele>
        <time>2017-10-08T13:32:42Z</time>
      </trkpt>
      <trkpt lat="43.40013" lon="6.7142">
        <ele>5.2</ele>
        <time>2017-10-08T13:32:44Z</time>
      </trkpt>
      <trkpt lat="43.4001" lon="6.71425">
        <ele>5.3</ele>
        <time>2017-10-08T13:32:45Z</time>
      </trkpt>
      <trkpt lat="43.40002" lon="6.7144">
        <ele>5.4</ele>
        <time>2017-10-08T13:32:49Z</time>
      </trkpt>
      <trkpt lat="43.39994" lon="6.71455">
        <ele>5.6</ele>
        <time>2017-10-08T13:32:53Z</time>
      </trkpt>
      <trkpt lat="43.39989" lon="6.71462">
        <ele>5.7</ele>
        <time>2017-10-08T13:32:55Z</time>
      </trkpt>
      <trkpt lat="43.39972" lon="6.71493">
        <ele>6.5</ele>
        <time>2017-10-08T13:33:04Z</time>
      </trkpt>
      <trkpt lat="43.39973" lon="6.71513">
        <ele>7.8</ele>
        <time>2017-10-08T13:33:08Z</time>
      </trkpt>
      <trkpt lat="43.39975" lon="6.71523">
        <ele>8.2</ele>
        <time>2017-10-08T13:33:10Z</time>
      </trkpt>
      <trkpt lat="43.39986" lon="6.7158">
        <ele>10.5</ele>
        <time>2017-10-08T13:33:22Z</time>
      </trkpt>
      <trkpt lat="43.39986" lon="6.71614">
        <ele>11.7</ele>
        <time>2017-10-08T13:33:29Z</time>
      </trkpt>
      <trkpt lat="43.3998" lon="6.71631">
        <ele>12.9</ele>
        <time>2017-10-08T13:33:33Z</time>
      </trkpt>
      <trkpt lat="43.39976" lon="6.71642">
        <ele>13.4</ele>
        <time>2017-10-08T13:33:36Z</time>
      </trkpt>
      <trkpt lat="43.39975" lon="6.71653">
        <ele>14</ele>
        <time>2017-10-08T13:33:40Z</time>
      </trkpt>
      <trkpt lat="43.39977" lon="6.71658">
        <ele>15</ele>
        <time>2017-10-08T13:33:42Z</time>
      </trkpt>
      <trkpt lat="43.39989" lon="6.71682">
        <ele>15</ele>
        <time>2017-10-08T13:34:33Z</time>
      </trkpt>
      <trkpt lat="43.39987" lon="6.71685">
        <ele>15</ele>
        <time>2017-10-08T13:34:34Z</time>
      </trkpt>
      <trkpt lat="43.39976" lon="6.71717">
        <ele>15</ele>
        <time>2017-10-08T13:34:43Z</time>
      </trkpt>
      <trkpt lat="43.39971" lon="6.71725">
        <ele>15</ele>
        <time>2017-10-08T13:34:45Z</time>
      </trkpt>
      <trkpt lat="43.39964" lon="6.7174">
        <ele>14.1</ele>
        <time>2017-10-08T13:34:49Z</time>
      </trkpt>
      <trkpt lat="43.3996" lon="6.71753">
        <ele>13.4</ele>
        <time>2017-10-08T13:34:53Z</time>
      </trkpt>
      <trkpt lat="43.39959" lon="6.71756">
        <ele>13.2</ele>
        <time>2017-10-08T13:34:54Z</time>
      </trkpt>
      <trkpt lat="43.39951" lon="6.71769">
        <ele>12.3</ele>
        <time>2017-10-08T13:35:00Z</time>
      </trkpt>
      <trkpt lat="43.3995" lon="6.71771">
        <ele>12</ele>
        <time>2017-10-08T13:35:01Z</time>
      </trkpt>
      <trkpt lat="43.39947" lon="6.71777">
        <ele>12</ele>
        <time>2017-10-08T13:35:05Z</time>
      </trkpt>
      <trkpt lat="43.39942" lon="6.71782">
        <ele>12.8</ele>
        <time>2017-10-08T13:35:08Z</time>
      </trkpt>
      <trkpt lat="43.39926" lon="6.71808">
        <ele>16.8</ele>
        <time>2017-10-08T13:35:16Z</time>
      </trkpt>
      <trkpt lat="43.39907" lon="6.7183">
        <ele>18.4</ele>
        <time>2017-10-08T13:35:24Z</time>
      </trkpt>
      <trkpt lat="43.39881" lon="6.71845">
        <ele>17.8</ele>
        <time>2017-10-08T13:35:32Z</time>
      </trkpt>
      <trkpt lat="43.39846" lon="6.71857">
        <ele>17</ele>
        <time>2017-10-08T13:35:41Z</time>
      </trkpt>
      <trkpt lat="43.39806" lon="6.71868">
        <ele>16.2</ele>
        <time>2017-10-08T13:35:50Z</time>
      </trkpt>
      <trkpt lat="43.39779" lon="6.71875">
        <ele>15.6</ele>
        <time>2017-10-08T13:35:56Z</time>
      </trkpt>
      <trkpt lat="43.39753" lon="6.71881">
        <ele>14.9</ele>
        <time>2017-10-08T13:36:02Z</time>
      </trkpt>
      <trkpt lat="43.39724" lon="6.71889">
        <ele>13.3</ele>
        <time>2017-10-08T13:36:10Z</time>
      </trkpt>
      <trkpt lat="43.39712" lon="6.71891">
        <ele>12.6</ele>
        <time>2017-10-08T13:36:14Z</time>
      </trkpt>
      <trkpt lat="43.39703" lon="6.71893">
        <ele>12.2</ele>
        <time>2017-10-08T13:36:17Z</time>
      </trkpt>
      <trkpt lat="43.39697" lon="6.719">
        <ele>11.9</ele>
        <time>2017-10-08T13:36:20Z</time>
      </trkpt>
      <trkpt lat="43.39696" lon="6.71905">
        <ele>11.8</ele>
        <time>2017-10-08T13:36:21Z</time>
      </trkpt>
      <trkpt lat="43.39692" lon="6.71927">
        <ele>11.3</ele>
        <time>2017-10-08T13:36:24Z</time>
      </trkpt>
      <trkpt lat="43.39685" lon="6.71977">
        <ele>10.9</ele>
        <time>2017-10-08T13:36:30Z</time>
      </trkpt>
      <trkpt lat="43.39678" lon="6.72023">
        <ele>12.2</ele>
        <time>2017-10-08T13:36:36Z</time>
      </trkpt>
      <trkpt lat="43.39668" lon="6.72081">
        <ele>12.6</ele>
        <time>2017-10-08T13:36:44Z</time>
      </trkpt>
      <trkpt lat="43.39659" lon="6.72129">
        <ele>10.2</ele>
        <time>2017-10-08T13:36:51Z</time>
      </trkpt>
      <trkpt lat="43.39653" lon="6.72179">
        <ele>7.9</ele>
        <time>2017-10-08T13:36:58Z</time>
      </trkpt>
      <trkpt lat="43.39646" lon="6.72241">
        <ele>4.7</ele>
        <time>2017-10-08T13:37:07Z</time>
      </trkpt>
      <trkpt lat="43.39645" lon="6.72248">
        <ele>4.6</ele>
        <time>2017-10-08T13:37:08Z</time>
      </trkpt>
      <trkpt lat="43.39636" lon="6.72306">
        <ele>2.6</ele>
        <time>2017-10-08T13:37:17Z</time>
      </trkpt>
      <trkpt lat="43.39628" lon="6.72359">
        <ele>2</ele>
        <time>2017-10-08T13:37:25Z</time>
      </trkpt>
      <trkpt lat="43.39621" lon="6.72411">
        <ele>2.8</ele>
        <time>2017-10-08T13:37:33Z</time>
      </trkpt>
      <trkpt lat="43.39618" lon="6.72428">
        <ele>3</ele>
        <time>2017-10-08T13:37:36Z</time>
      </trkpt>
      <trkpt lat="43.39615" lon="6.72443">
        <ele>3</ele>
        <time>2017-10-08T13:37:39Z</time>
      </trkpt>
      <trkpt lat="43.3961" lon="6.72476">
        <ele>3.1</ele>
        <time>2017-10-08T13:37:46Z</time>
      </trkpt>
      <trkpt lat="43.39604" lon="6.72517">
        <ele>3.2</ele>
        <time>2017-10-08T13:37:54Z</time>
      </trkpt>
      <trkpt lat="43.39602" lon="6.7253">
        <ele>3.2</ele>
        <time>2017-10-08T13:37:57Z</time>
      </trkpt>
      <trkpt lat="43.39599" lon="6.72545">
        <ele>3.3</ele>
        <time>2017-10-08T13:38:00Z</time>
      </trkpt>
      <trkpt lat="43.39597" lon="6.72556">
        <ele>3.3</ele>
        <time>2017-10-08T13:38:02Z</time>
      </trkpt>
      <trkpt lat="43.39589" lon="6.72575">
        <ele>3.4</ele>
        <time>2017-10-08T13:38:06Z</time>
      </trkpt>
      <trkpt lat="43.39588" lon="6.72581">
        <ele>3.4</ele>
        <time>2017-10-08T13:38:07Z</time>
      </trkpt>
      <trkpt lat="43.39584" lon="6.72604">
        <ele>3.6</ele>
        <time>2017-10-08T13:38:11Z</time>
      </trkpt>
      <trkpt lat="43.39583" lon="6.7261">
        <ele>3.7</ele>
        <time>2017-10-08T13:38:12Z</time>
      </trkpt>
      <trkpt lat="43.39581" lon="6.72616">
        <ele>3.7</ele>
        <time>2017-10-08T13:38:13Z</time>
      </trkpt>
      <trkpt lat="43.39574" lon="6.72622">
        <ele>3.8</ele>
        <time>2017-10-08T13:38:15Z</time>
      </trkpt>
      <trkpt lat="43.3957" lon="6.72622">
        <ele>3.8</ele>
        <time>2017-10-08T13:38:16Z</time>
      </trkpt>
      <trkpt lat="43.39565" lon="6.72622">
        <ele>3.9</ele>
        <time>2017-10-08T13:38:17Z</time>
      </trkpt>
      <trkpt lat="43.39551" lon="6.72616">
        <ele>4</ele>
        <time>2017-10-08T13:38:20Z</time>
      </trkpt>
      <trkpt lat="43.39546" lon="6.72614">
        <ele>4</ele>
        <time>2017-10-08T13:38:21Z</time>
      </trkpt>
      <trkpt lat="43.39541" lon="6.72612">
        <ele>4</ele>
        <time>2017-10-08T13:38:22Z</time>
      </trkpt>
      <trkpt lat="43.39511" lon="6.726">
        <ele>4.2</ele>
        <time>2017-10-08T13:38:29Z</time>
      </trkpt>
      <trkpt lat="43.39501" lon="6.72597">
        <ele>4.6</ele>
        <time>2017-10-08T13:38:31Z</time>
      </trkpt>
      <trkpt lat="43.39487" lon="6.72599">
        <ele>5</ele>
        <time>2017-10-08T13:38:34Z</time>
      </trkpt>
      <trkpt lat="43.39483" lon="6.726">
        <ele>5</ele>
        <time>2017-10-08T13:38:35Z</time>
      </trkpt>
      <trkpt lat="43.39445" lon="6.72614">
        <ele>5</ele>
        <time>2017-10-08T13:38:43Z</time>
      </trkpt>
      <trkpt lat="43.39408" lon="6.72624">
        <ele>4.1</ele>
        <time>2017-10-08T13:38:51Z</time>
      </trkpt>
      <trkpt lat="43.39375" lon="6.72636">
        <ele>4</ele>
        <time>2017-10-08T13:38:59Z</time>
      </trkpt>
      <trkpt lat="43.39372" lon="6.72637">
        <ele>4</ele>
        <time>2017-10-08T13:39:00Z</time>
      </trkpt>
      <trkpt lat="43.39356" lon="6.72646">
        <ele>4.1</ele>
        <time>2017-10-08T13:39:04Z</time>
      </trkpt>
      <trkpt lat="43.39353" lon="6.72651">
        <ele>4.2</ele>
        <time>2017-10-08T13:39:05Z</time>
      </trkpt>
      <trkpt lat="43.39347" lon="6.72661">
        <ele>4.5</ele>
        <time>2017-10-08T13:39:07Z</time>
      </trkpt>
      <trkpt lat="43.39339" lon="6.72675">
        <ele>4.9</ele>
        <time>2017-10-08T13:39:10Z</time>
      </trkpt>
      <trkpt lat="43.39331" lon="6.72689">
        <ele>5.3</ele>
        <time>2017-10-08T13:39:13Z</time>
      </trkpt>
      <trkpt lat="43.3932" lon="6.72706">
        <ele>5.8</ele>
        <time>2017-10-08T13:39:17Z</time>
      </trkpt>
      <trkpt lat="43.39316" lon="6.7271">
        <ele>5.9</ele>
        <time>2017-10-08T13:39:18Z</time>
      </trkpt>
      <trkpt lat="43.39313" lon="6.72712">
        <ele>6</ele>
        <time>2017-10-08T13:39:19Z</time>
      </trkpt>
      <trkpt lat="43.39302" lon="6.72712">
        <ele>6.3</ele>
        <time>2017-10-08T13:39:22Z</time>
      </trkpt>
      <trkpt lat="43.39295" lon="6.727">
        <ele>6.5</ele>
        <time>2017-10-08T13:39:25Z</time>
      </trkpt>
      <trkpt lat="43.39293" lon="6.72695">
        <ele>6.6</ele>
        <time>2017-10-08T13:39:26Z</time>
      </trkpt>
      <trkpt lat="43.39283" lon="6.72681">
        <ele>7</ele>
        <time>2017-10-08T13:39:30Z</time>
      </trkpt>
      <trkpt lat="43.3928" lon="6.72676">
        <ele>7.2</ele>
        <time>2017-10-08T13:39:31Z</time>
      </trkpt>
      <trkpt lat="43.39277" lon="6.72672">
        <ele>7.5</ele>
        <time>2017-10-08T13:39:32Z</time>
      </trkpt>
      <trkpt lat="43.39272" lon="6.72669">
        <ele>7.7</ele>
        <time>2017-10-08T13:39:33Z</time>
      </trkpt>
      <trkpt lat="43.39263" lon="6.72668">
        <ele>8.4</ele>
        <time>2017-10-08T13:39:35Z</time>
      </trkpt>
      <trkpt lat="43.39258" lon="6.72668">
        <ele>9.2</ele>
        <time>2017-10-08T13:39:36Z</time>
      </trkpt>
      <trkpt lat="43.39254" lon="6.7267">
        <ele>9.9</ele>
        <time>2017-10-08T13:39:37Z</time>
      </trkpt>
      <trkpt lat="43.39241" lon="6.72687">
        <ele>12.5</ele>
        <time>2017-10-08T13:39:41Z</time>
      </trkpt>
      <trkpt lat="43.39246" lon="6.72702">
        <ele>12.4</ele>
        <time>2017-10-08T13:39:44Z</time>
      </trkpt>
      <trkpt lat="43.39258" lon="6.72715">
        <ele>10.7</ele>
        <time>2017-10-08T13:39:48Z</time>
      </trkpt>
      <trkpt lat="43.39269" lon="6.72721">
        <ele>9</ele>
        <time>2017-10-08T13:39:53Z</time>
      </trkpt>
      <trkpt lat="43.39278" lon="6.7273">
        <ele>8.7</ele>
        <time>2017-10-08T13:39:59Z</time>
      </trkpt>
      <trkpt lat="43.39279" lon="6.72734">
        <ele>8.6</ele>
        <time>2017-10-08T13:40:01Z</time>
      </trkpt>
      <trkpt lat="43.39284" lon="6.72751">
        <ele>8.3</ele>
        <time>2017-10-08T13:40:08Z</time>
      </trkpt>
      <trkpt lat="43.39282" lon="6.72763">
        <ele>8.1</ele>
        <time>2017-10-08T13:40:12Z</time>
      </trkpt>
      <trkpt lat="43.39279" lon="6.72774">
        <ele>7.9</ele>
        <time>2017-10-08T13:40:16Z</time>
      </trkpt>
      <trkpt lat="43.39278" lon="6.72776">
        <ele>7.9</ele>
        <time>2017-10-08T13:40:17Z</time>
      </trkpt>
      <trkpt lat="43.39267" lon="6.72814">
        <ele>7.4</ele>
        <time>2017-10-08T13:40:52Z</time>
      </trkpt>
      <trkpt lat="43.39266" lon="6.72826">
        <ele>7.3</ele>
        <time>2017-10-08T13:40:59Z</time>
      </trkpt>
      <trkpt lat="43.39264" lon="6.72837">
        <ele>7.1</ele>
        <time>2017-10-08T13:41:06Z</time>
      </trkpt>
      <trkpt lat="43.39259" lon="6.72843">
        <ele>7</ele>
        <time>2017-10-08T13:41:11Z</time>
      </trkpt>
      <trkpt lat="43.39256" lon="6.72847">
        <ele>7.7</ele>
        <time>2017-10-08T13:41:14Z</time>
      </trkpt>
      <trkpt lat="43.39246" lon="6.72851">
        <ele>9.7</ele>
        <time>2017-10-08T13:41:22Z</time>
      </trkpt>
      <trkpt lat="43.39244" lon="6.72851">
        <ele>9.9</ele>
        <time>2017-10-08T13:41:23Z</time>
      </trkpt>
      <trkpt lat="43.39237" lon="6.72852">
        <ele>11.3</ele>
        <time>2017-10-08T13:41:29Z</time>
      </trkpt>
      <trkpt lat="43.39231" lon="6.72852">
        <ele>12.4</ele>
        <time>2017-10-08T13:41:35Z</time>
      </trkpt>
      <trkpt lat="43.3923" lon="6.72851">
        <ele>15</ele>
        <time>2017-10-08T13:41:36Z</time>
      </trkpt>
      <trkpt lat="43.3922" lon="6.72822">
        <ele>15</ele>
        <time>2017-10-08T13:42:09Z</time>
      </trkpt>
      <trkpt lat="43.39209" lon="6.72818">
        <ele>15</ele>
        <time>2017-10-08T13:42:15Z</time>
      </trkpt>
      <trkpt lat="43.39201" lon="6.72813">
        <ele>15</ele>
        <time>2017-10-08T13:42:18Z</time>
      </trkpt>
      <trkpt lat="43.39193" lon="6.7281">
        <ele>15</ele>
        <time>2017-10-08T13:42:21Z</time>
      </trkpt>
      <trkpt lat="43.39175" lon="6.72805">
        <ele>15</ele>
        <time>2017-10-08T13:42:28Z</time>
      </trkpt>
      <trkpt lat="43.3916" lon="6.7281">
        <ele>17.3</ele>
        <time>2017-10-08T13:42:34Z</time>
      </trkpt>
      <trkpt lat="43.39145" lon="6.72813">
        <ele>18.8</ele>
        <time>2017-10-08T13:42:40Z</time>
      </trkpt>
      <trkpt lat="43.3914" lon="6.72817">
        <ele>18.8</ele>
        <time>2017-10-08T13:42:42Z</time>
      </trkpt>
      <trkpt lat="43.39133" lon="6.72825">
        <ele>18.7</ele>
        <time>2017-10-08T13:42:45Z</time>
      </trkpt>
      <trkpt lat="43.39129" lon="6.7283">
        <ele>18.7</ele>
        <time>2017-10-08T13:42:47Z</time>
      </trkpt>
      <trkpt lat="43.39124" lon="6.72835">
        <ele>18.6</ele>
        <time>2017-10-08T13:42:49Z</time>
      </trkpt>
      <trkpt lat="43.39117" lon="6.72841">
        <ele>18.4</ele>
        <time>2017-10-08T13:42:52Z</time>
      </trkpt>
      <trkpt lat="43.39112" lon="6.72846">
        <ele>18.3</ele>
        <time>2017-10-08T13:42:54Z</time>
      </trkpt>
      <trkpt lat="43.39104" lon="6.72853">
        <ele>18.1</ele>
        <time>2017-10-08T13:42:57Z</time>
      </trkpt>
      <trkpt lat="43.3909" lon="6.72865">
        <ele>18.9</ele>
        <time>2017-10-08T13:43:02Z</time>
      </trkpt>
      <trkpt lat="43.39078" lon="6.72877">
        <ele>19.9</ele>
        <time>2017-10-08T13:43:06Z</time>
      </trkpt>
      <trkpt lat="43.39065" lon="6.72887">
        <ele>21</ele>
        <time>2017-10-08T13:43:10Z</time>
      </trkpt>
      <trkpt lat="43.39054" lon="6.72885">
        <ele>21</ele>
        <time>2017-10-08T13:43:13Z</time>
      </trkpt>
      <trkpt lat="43.39034" lon="6.72871">
        <ele>21</ele>
        <time>2017-10-08T13:43:19Z</time>
      </trkpt>
      <trkpt lat="43.39" lon="6.72848">
        <ele>21</ele>
        <time>2017-10-08T13:43:30Z</time>
      </trkpt>
      <trkpt lat="43.38974" lon="6.72831">
        <ele>20.9</ele>
        <time>2017-10-08T13:43:38Z</time>
      </trkpt>
      <trkpt lat="43.38971" lon="6.72829">
        <ele>20.9</ele>
        <time>2017-10-08T13:43:39Z</time>
      </trkpt>
      <trkpt lat="43.38948" lon="6.72813">
        <ele>20.9</ele>
        <time>2017-10-08T13:43:47Z</time>
      </trkpt>
      <trkpt lat="43.38943" lon="6.7281">
        <ele>21</ele>
        <time>2017-10-08T13:43:49Z</time>
      </trkpt>
      <trkpt lat="43.38929" lon="6.728">
        <ele>21.1</ele>
        <time>2017-10-08T13:43:55Z</time>
      </trkpt>
      <trkpt lat="43.38924" lon="6.72796">
        <ele>21.1</ele>
        <time>2017-10-08T13:43:57Z</time>
      </trkpt>
      <trkpt lat="43.38909" lon="6.72786">
        <ele>21.1</ele>
        <time>2017-10-08T13:44:03Z</time>
      </trkpt>
      <trkpt lat="43.38907" lon="6.72784">
        <ele>21</ele>
        <time>2017-10-08T13:44:04Z</time>
      </trkpt>
      <trkpt lat="43.38893" lon="6.72777">
        <ele>21</ele>
        <time>2017-10-08T13:44:09Z</time>
      </trkpt>
      <trkpt lat="43.38888" lon="6.72777">
        <ele>20.7</ele>
        <time>2017-10-08T13:44:11Z</time>
      </trkpt>
      <trkpt lat="43.38886" lon="6.7278">
        <ele>20.5</ele>
        <time>2017-10-08T13:44:12Z</time>
      </trkpt>
      <trkpt lat="43.3888" lon="6.72796">
        <ele>19.6</ele>
        <time>2017-10-08T13:44:16Z</time>
      </trkpt>
      <trkpt lat="43.38878" lon="6.72801">
        <ele>19.4</ele>
        <time>2017-10-08T13:44:17Z</time>
      </trkpt>
      <trkpt lat="43.38874" lon="6.72815">
        <ele>19.1</ele>
        <time>2017-10-08T13:44:20Z</time>
      </trkpt>
      <trkpt lat="43.38865" lon="6.72841">
        <ele>18.6</ele>
        <time>2017-10-08T13:44:25Z</time>
      </trkpt>
      <trkpt lat="43.3886" lon="6.72854">
        <ele>18.4</ele>
        <time>2017-10-08T13:44:27Z</time>
      </trkpt>
      <trkpt lat="43.38845" lon="6.72891">
        <ele>17.4</ele>
        <time>2017-10-08T13:44:32Z</time>
      </trkpt>
      <trkpt lat="43.38827" lon="6.7294">
        <ele>13.9</ele>
        <time>2017-10-08T13:44:37Z</time>
      </trkpt>
      <trkpt lat="43.38812" lon="6.72991">
        <ele>8.8</ele>
        <time>2017-10-08T13:44:43Z</time>
      </trkpt>
      <trkpt lat="43.38805" lon="6.7301">
        <ele>6.9</ele>
        <time>2017-10-08T13:44:47Z</time>
      </trkpt>
      <trkpt lat="43.38803" lon="6.73027">
        <ele>6.3</ele>
        <time>2017-10-08T13:45:19Z</time>
      </trkpt>
      <trkpt lat="43.38804" lon="6.73029">
        <ele>6.4</ele>
        <time>2017-10-08T13:45:20Z</time>
      </trkpt>
      <trkpt lat="43.38806" lon="6.73033">
        <ele>6.5</ele>
        <time>2017-10-08T13:45:21Z</time>
      </trkpt>
      <trkpt lat="43.38809" lon="6.73041">
        <ele>6.7</ele>
        <time>2017-10-08T13:45:23Z</time>
      </trkpt>
      <trkpt lat="43.3881" lon="6.73046">
        <ele>6.7</ele>
        <time>2017-10-08T13:45:24Z</time>
      </trkpt>
      <trkpt lat="43.38813" lon="6.73052">
        <ele>6.9</ele>
        <time>2017-10-08T13:45:26Z</time>
      </trkpt>
      <trkpt lat="43.38817" lon="6.73059">
        <ele>7</ele>
        <time>2017-10-08T13:45:28Z</time>
      </trkpt>
      <trkpt lat="43.38826" lon="6.73068">
        <ele>7.3</ele>
        <time>2017-10-08T13:45:32Z</time>
      </trkpt>
      <trkpt lat="43.38828" lon="6.73069">
        <ele>7.4</ele>
        <time>2017-10-08T13:45:33Z</time>
      </trkpt>
      <trkpt lat="43.38835" lon="6.73062">
        <ele>7.7</ele>
        <time>2017-10-08T13:45:37Z</time>
      </trkpt>
      <trkpt lat="43.38839" lon="6.73042">
        <ele>8</ele>
        <time>2017-10-08T13:45:42Z</time>
      </trkpt>
      <trkpt lat="43.38844" lon="6.73025">
        <ele>8.4</ele>
        <time>2017-10-08T13:45:51Z</time>
      </trkpt>
      <trkpt lat="43.38848" lon="6.73024">
        <ele>8.6</ele>
        <time>2017-10-08T13:45:54Z</time>
      </trkpt>
      <trkpt lat="43.38852" lon="6.7303">
        <ele>8.9</ele>
        <time>2017-10-08T13:46:02Z</time>
      </trkpt>
      <trkpt lat="43.38855" lon="6.73035">
        <ele>9.1</ele>
        <time>2017-10-08T13:46:06Z</time>
      </trkpt>
      <trkpt lat="43.38862" lon="6.73045">
        <ele>9.8</ele>
        <time>2017-10-08T13:46:21Z</time>
      </trkpt>
      <trkpt lat="43.38863" lon="6.73048">
        <ele>9.9</ele>
        <time>2017-10-08T13:46:23Z</time>
      </trkpt>
      <trkpt lat="43.38877" lon="6.73056">
        <ele>10.4</ele>
        <time>2017-10-08T13:46:31Z</time>
      </trkpt>
      <trkpt lat="43.38888" lon="6.7306">
        <ele>10.6</ele>
        <time>2017-10-08T13:46:34Z</time>
      </trkpt>
      <trkpt lat="43.38895" lon="6.73064">
        <ele>10.7</ele>
        <time>2017-10-08T13:46:36Z</time>
      </trkpt>
      <trkpt lat="43.38901" lon="6.73067">
        <ele>10.8</ele>
        <time>2017-10-08T13:46:38Z</time>
      </trkpt>
      <trkpt lat="43.38904" lon="6.73069">
        <ele>10.9</ele>
        <time>2017-10-08T13:46:39Z</time>
      </trkpt>
      <trkpt lat="43.38911" lon="6.73069">
        <ele>11</ele>
        <time>2017-10-08T13:46:41Z</time>
      </trkpt>
      <trkpt lat="43.38921" lon="6.73067">
        <ele>10.6</ele>
        <time>2017-10-08T13:46:44Z</time>
      </trkpt>
      <trkpt lat="43.38924" lon="6.73064">
        <ele>10.4</ele>
        <time>2017-10-08T13:46:45Z</time>
      </trkpt>
      <trkpt lat="43.38929" lon="6.73059">
        <ele>10.1</ele>
        <time>2017-10-08T13:46:47Z</time>
      </trkpt>
      <trkpt lat="43.38936" lon="6.73057">
        <ele>9.5</ele>
        <time>2017-10-08T13:46:50Z</time>
      </trkpt>
      <trkpt lat="43.38939" lon="6.73058">
        <ele>9.2</ele>
        <time>2017-10-08T13:46:52Z</time>
      </trkpt>
      <trkpt lat="43.38939" lon="6.7306">
        <ele>9.2</ele>
        <time>2017-10-08T13:46:53Z</time>
      </trkpt>
      <trkpt lat="43.38938" lon="6.73061">
        <ele>9.1</ele>
        <time>2017-10-08T13:46:54Z</time>
      </trkpt>
      <trkpt lat="43.38936" lon="6.73065">
        <ele>8.9</ele>
        <time>2017-10-08T13:46:56Z</time>
      </trkpt>
      <trkpt lat="43.38934" lon="6.73087">
        <ele>8.3</ele>
        <time>2017-10-08T13:47:12Z</time>
      </trkpt>
      <trkpt lat="43.38929" lon="6.73098">
        <ele>8</ele>
        <time>2017-10-08T13:47:22Z</time>
      </trkpt>
      <trkpt lat="43.38934" lon="6.73112">
        <ele>7.5</ele>
        <time>2017-10-08T13:47:36Z</time>
      </trkpt>
      <trkpt lat="43.38939" lon="6.73119">
        <ele>7.3</ele>
        <time>2017-10-08T13:47:42Z</time>
      </trkpt>
      <trkpt lat="43.3894" lon="6.7312">
        <ele>7.2</ele>
        <time>2017-10-08T13:47:43Z</time>
      </trkpt>
      <trkpt lat="43.38947" lon="6.73126">
        <ele>6.8</ele>
        <time>2017-10-08T13:47:48Z</time>
      </trkpt>
      <trkpt lat="43.38954" lon="6.73138">
        <ele>6.1</ele>
        <time>2017-10-08T13:47:52Z</time>
      </trkpt>
      <trkpt lat="43.38965" lon="6.73156">
        <ele>6.7</ele>
        <time>2017-10-08T13:47:59Z</time>
      </trkpt>
      <trkpt lat="43.38967" lon="6.73158">
        <ele>6.7</ele>
        <time>2017-10-08T13:48:00Z</time>
      </trkpt>
      <trkpt lat="43.38972" lon="6.73173">
        <ele>7</ele>
        <time>2017-10-08T13:48:07Z</time>
      </trkpt>
      <trkpt lat="43.38982" lon="6.73169">
        <ele>7.2</ele>
        <time>2017-10-08T13:48:33Z</time>
      </trkpt>
      <trkpt lat="43.38985" lon="6.73172">
        <ele>7.3</ele>
        <time>2017-10-08T13:48:35Z</time>
      </trkpt>
      <trkpt lat="43.38989" lon="6.73175">
        <ele>7.4</ele>
        <time>2017-10-08T13:48:37Z</time>
      </trkpt>
      <trkpt lat="43.38999" lon="6.73189">
        <ele>7.7</ele>
        <time>2017-10-08T13:48:43Z</time>
      </trkpt>
      <trkpt lat="43.3901" lon="6.73202">
        <ele>8</ele>
        <time>2017-10-08T13:48:51Z</time>
      </trkpt>
      <trkpt lat="43.39016" lon="6.73203">
        <ele>8.1</ele>
        <time>2017-10-08T13:48:56Z</time>
      </trkpt>
      <trkpt lat="43.39024" lon="6.73203">
        <ele>8.3</ele>
        <time>2017-10-08T13:49:00Z</time>
      </trkpt>
      <trkpt lat="43.39035" lon="6.73194">
        <ele>8.7</ele>
        <time>2017-10-08T13:49:06Z</time>
      </trkpt>
      <trkpt lat="43.39042" lon="6.73182">
        <ele>9.1</ele>
        <time>2017-10-08T13:49:14Z</time>
      </trkpt>
      <trkpt lat="43.39049" lon="6.73176">
        <ele>9.4</ele>
        <time>2017-10-08T13:49:35Z</time>
      </trkpt>
      <trkpt lat="43.39053" lon="6.73176">
        <ele>9.4</ele>
        <time>2017-10-08T13:49:38Z</time>
      </trkpt>
      <trkpt lat="43.39065" lon="6.73183">
        <ele>9.8</ele>
        <time>2017-10-08T13:49:44Z</time>
      </trkpt>
      <trkpt lat="43.39079" lon="6.73186">
        <ele>10.1</ele>
        <time>2017-10-08T13:49:50Z</time>
      </trkpt>
      <trkpt lat="43.39093" lon="6.73182">
        <ele>10.4</ele>
        <time>2017-10-08T13:49:56Z</time>
      </trkpt>
      <trkpt lat="43.39106" lon="6.73167">
        <ele>10.7</ele>
        <time>2017-10-08T13:50:01Z</time>
      </trkpt>
      <trkpt lat="43.39109" lon="6.73164">
        <ele>10.7</ele>
        <time>2017-10-08T13:50:02Z</time>
      </trkpt>
      <trkpt lat="43.39119" lon="6.73145">
        <ele>11</ele>
        <time>2017-10-08T13:50:08Z</time>
      </trkpt>
      <trkpt lat="43.39118" lon="6.73127">
        <ele>11.3</ele>
        <time>2017-10-08T13:50:14Z</time>
      </trkpt>
      <trkpt lat="43.39118" lon="6.73124">
        <ele>11.3</ele>
        <time>2017-10-08T13:50:15Z</time>
      </trkpt>
      <trkpt lat="43.39115" lon="6.73104">
        <ele>11.5</ele>
        <time>2017-10-08T13:50:21Z</time>
      </trkpt>
      <trkpt lat="43.39115" lon="6.73101">
        <ele>11.5</ele>
        <time>2017-10-08T13:50:22Z</time>
      </trkpt>
      <trkpt lat="43.39119" lon="6.73082">
        <ele>11.7</ele>
        <time>2017-10-08T13:50:27Z</time>
      </trkpt>
      <trkpt lat="43.39121" lon="6.73075">
        <ele>11.7</ele>
        <time>2017-10-08T13:50:29Z</time>
      </trkpt>
      <trkpt lat="43.39127" lon="6.73051">
        <ele>11.9</ele>
        <time>2017-10-08T13:50:36Z</time>
      </trkpt>
      <trkpt lat="43.39131" lon="6.73041">
        <ele>12</ele>
        <time>2017-10-08T13:50:38Z</time>
      </trkpt>
      <trkpt lat="43.39139" lon="6.73029">
        <ele>12.2</ele>
        <time>2017-10-08T13:50:40Z</time>
      </trkpt>
      <trkpt lat="43.39155" lon="6.72992">
        <ele>12.6</ele>
        <time>2017-10-08T13:50:45Z</time>
      </trkpt>
      <trkpt lat="43.39159" lon="6.72985">
        <ele>12.7</ele>
        <time>2017-10-08T13:50:46Z</time>
      </trkpt>
      <trkpt lat="43.39181" lon="6.72951">
        <ele>11.6</ele>
        <time>2017-10-08T13:50:52Z</time>
      </trkpt>
      <trkpt lat="43.39191" lon="6.72936">
        <ele>10.8</ele>
        <time>2017-10-08T13:50:55Z</time>
      </trkpt>
      <trkpt lat="43.39207" lon="6.72914">
        <ele>9.6</ele>
        <time>2017-10-08T13:51:00Z</time>
      </trkpt>
      <trkpt lat="43.39217" lon="6.72909">
        <ele>8.3</ele>
        <time>2017-10-08T13:51:03Z</time>
      </trkpt>
      <trkpt lat="43.3922" lon="6.72907">
        <ele>8</ele>
        <time>2017-10-08T13:51:04Z</time>
      </trkpt>
      <trkpt lat="43.39223" lon="6.72896">
        <ele>7.6</ele>
        <time>2017-10-08T13:51:07Z</time>
      </trkpt>
      <trkpt lat="43.39226" lon="6.7289">
        <ele>7.1</ele>
        <time>2017-10-08T13:51:11Z</time>
      </trkpt>
      <trkpt lat="43.39237" lon="6.72879">
        <ele>-34.1</ele>
        <time>2017-10-08T13:51:15Z</time>
      </trkpt>
      <trkpt lat="43.39268" lon="6.7284">
        <ele>6.6</ele>
        <time>2017-10-08T13:51:23Z</time>
      </trkpt>
      <trkpt lat="43.39287" lon="6.72821">
        <ele>4.9</ele>
        <time>2017-10-08T13:51:29Z</time>
      </trkpt>
      <trkpt lat="43.39296" lon="6.72807">
        <ele>4.2</ele>
        <time>2017-10-08T13:51:33Z</time>
      </trkpt>
      <trkpt lat="43.39297" lon="6.72799">
        <ele>3</ele>
        <time>2017-10-08T13:51:35Z</time>
      </trkpt>
      <trkpt lat="43.39299" lon="6.72789">
        <ele>1.8</ele>
        <time>2017-10-08T13:51:37Z</time>
      </trkpt>
      <trkpt lat="43.39303" lon="6.72779">
        <ele>1</ele>
        <time>2017-10-08T13:51:39Z</time>
      </trkpt>
      <trkpt lat="43.3931" lon="6.7277">
        <ele>0.5</ele>
        <time>2017-10-08T13:51:41Z</time>
      </trkpt>
      <trkpt lat="43.39319" lon="6.7276">
        <ele>-0.2</ele>
        <time>2017-10-08T13:51:44Z</time>
      </trkpt>
      <trkpt lat="43.39331" lon="6.72764">
        <ele>-0.8</ele>
        <time>2017-10-08T13:51:48Z</time>
      </trkpt>
      <trkpt lat="43.39369" lon="6.72784">
        <ele>1.8</ele>
        <time>2017-10-08T13:51:58Z</time>
      </trkpt>
      <trkpt lat="43.3939" lon="6.72781">
        <ele>1.8</ele>
        <time>2017-10-08T13:52:04Z</time>
      </trkpt>
      <trkpt lat="43.39405" lon="6.72783">
        <ele>1.8</ele>
        <time>2017-10-08T13:52:10Z</time>
      </trkpt>
      <trkpt lat="43.39428" lon="6.72793">
        <ele>1.8</ele>
        <time>2017-10-08T13:52:19Z</time>
      </trkpt>
      <trkpt lat="43.39434" lon="6.72795">
        <ele>1.8</ele>
        <time>2017-10-08T13:52:21Z</time>
      </trkpt>
      <trkpt lat="43.39454" lon="6.72806">
        <ele>1.8</ele>
        <time>2017-10-08T13:52:28Z</time>
      </trkpt>
      <trkpt lat="43.39473" lon="6.72813">
        <ele>1.7</ele>
        <time>2017-10-08T13:52:34Z</time>
      </trkpt>
      <trkpt lat="43.39476" lon="6.72815">
        <ele>1.7</ele>
        <time>2017-10-08T13:52:35Z</time>
      </trkpt>
      <trkpt lat="43.395" lon="6.72824">
        <ele>1.7</ele>
        <time>2017-10-08T13:52:42Z</time>
      </trkpt>
      <trkpt lat="43.39521" lon="6.72831">
        <ele>1.7</ele>
        <time>2017-10-08T13:52:48Z</time>
      </trkpt>
      <trkpt lat="43.39525" lon="6.72832">
        <ele>1.7</ele>
        <time>2017-10-08T13:52:49Z</time>
      </trkpt>
      <trkpt lat="43.39554" lon="6.72842">
        <ele>1.7</ele>
        <time>2017-10-08T13:52:56Z</time>
      </trkpt>
      <trkpt lat="43.39576" lon="6.7285">
        <ele>1.7</ele>
        <time>2017-10-08T13:53:01Z</time>
      </trkpt>
      <trkpt lat="43.39584" lon="6.72853">
        <ele>1.7</ele>
        <time>2017-10-08T13:53:03Z</time>
      </trkpt>
      <trkpt lat="43.39619" lon="6.72865">
        <ele>1.6</ele>
        <time>2017-10-08T13:53:11Z</time>
      </trkpt>
      <trkpt lat="43.39666" lon="6.72882">
        <ele>1.6</ele>
        <time>2017-10-08T13:53:21Z</time>
      </trkpt>
      <trkpt lat="43.39705" lon="6.72897">
        <ele>1.6</ele>
        <time>2017-10-08T13:53:30Z</time>
      </trkpt>
      <trkpt lat="43.39746" lon="6.72912">
        <ele>1.5</ele>
        <time>2017-10-08T13:53:39Z</time>
      </trkpt>
      <trkpt lat="43.3978" lon="6.72925">
        <ele>1.5</ele>
        <time>2017-10-08T13:53:47Z</time>
      </trkpt>
      <trkpt lat="43.39818" lon="6.72939">
        <ele>1.5</ele>
        <time>2017-10-08T13:53:56Z</time>
      </trkpt>
      <trkpt lat="43.3985" lon="6.72949">
        <ele>1.5</ele>
        <time>2017-10-08T13:54:04Z</time>
      </trkpt>
      <trkpt lat="43.39861" lon="6.72951">
        <ele>1.5</ele>
        <time>2017-10-08T13:54:07Z</time>
      </trkpt>
      <trkpt lat="43.39884" lon="6.72959">
        <ele>1.4</ele>
        <time>2017-10-08T13:54:13Z</time>
      </trkpt>
      <trkpt lat="43.39919" lon="6.72971">
        <ele>1.4</ele>
        <time>2017-10-08T13:54:22Z</time>
      </trkpt>
      <trkpt lat="43.39946" lon="6.72977">
        <ele>1.3</ele>
        <time>2017-10-08T13:54:29Z</time>
      </trkpt>
      <trkpt lat="43.39979" lon="6.72981">
        <ele>1.3</ele>
        <time>2017-10-08T13:54:37Z</time>
      </trkpt>
      <trkpt lat="43.40019" lon="6.72984">
        <ele>1.2</ele>
        <time>2017-10-08T13:54:46Z</time>
      </trkpt>
      <trkpt lat="43.40056" lon="6.72986">
        <ele>1.2</ele>
        <time>2017-10-08T13:54:54Z</time>
      </trkpt>
      <trkpt lat="43.40099" lon="6.72988">
        <ele>1.2</ele>
        <time>2017-10-08T13:55:03Z</time>
      </trkpt>
      <trkpt lat="43.40113" lon="6.72989">
        <ele>1.2</ele>
        <time>2017-10-08T13:55:06Z</time>
      </trkpt>
      <trkpt lat="43.40136" lon="6.7299">
        <ele>1.2</ele>
        <time>2017-10-08T13:55:11Z</time>
      </trkpt>
      <trkpt lat="43.4015" lon="6.72991">
        <ele>1.2</ele>
        <time>2017-10-08T13:55:14Z</time>
      </trkpt>
      <trkpt lat="43.40169" lon="6.72992">
        <ele>1.1</ele>
        <time>2017-10-08T13:55:18Z</time>
      </trkpt>
      <trkpt lat="43.40174" lon="6.72992">
        <ele>1.1</ele>
        <time>2017-10-08T13:55:19Z</time>
      </trkpt>
      <trkpt lat="43.40198" lon="6.72992">
        <ele>1.1</ele>
        <time>2017-10-08T13:55:24Z</time>
      </trkpt>
      <trkpt lat="43.40231" lon="6.7299">
        <ele>1.1</ele>
        <time>2017-10-08T13:55:31Z</time>
      </trkpt>
      <trkpt lat="43.40236" lon="6.72989">
        <ele>1.1</ele>
        <time>2017-10-08T13:55:32Z</time>
      </trkpt>
      <trkpt lat="43.4027" lon="6.72981">
        <ele>1</ele>
        <time>2017-10-08T13:55:39Z</time>
      </trkpt>
      <trkpt lat="43.40309" lon="6.72969">
        <ele>0.9</ele>
        <time>2017-10-08T13:55:47Z</time>
      </trkpt>
      <trkpt lat="43.40324" lon="6.72964">
        <ele>0.9</ele>
        <time>2017-10-08T13:55:50Z</time>
      </trkpt>
      <trkpt lat="43.40338" lon="6.72957">
        <ele>0.8</ele>
        <time>2017-10-08T13:55:53Z</time>
      </trkpt>
      <trkpt lat="43.40375" lon="6.72935">
        <ele>0.8</ele>
        <time>2017-10-08T13:56:01Z</time>
      </trkpt>
      <trkpt lat="43.4042" lon="6.72905">
        <ele>0.7</ele>
        <time>2017-10-08T13:56:11Z</time>
      </trkpt>
      <trkpt lat="43.40441" lon="6.72886">
        <ele>0.6</ele>
        <time>2017-10-08T13:56:16Z</time>
      </trkpt>
      <trkpt lat="43.40449" lon="6.72878">
        <ele>0.5</ele>
        <time>2017-10-08T13:56:18Z</time>
      </trkpt>
      <trkpt lat="43.4047" lon="6.72857">
        <ele>0.4</ele>
        <time>2017-10-08T13:56:23Z</time>
      </trkpt>
      <trkpt lat="43.40489" lon="6.72838">
        <ele>0.4</ele>
        <time>2017-10-08T13:56:28Z</time>
      </trkpt>
      <trkpt lat="43.40503" lon="6.72824">
        <ele>0.4</ele>
        <time>2017-10-08T13:56:32Z</time>
      </trkpt>
      <trkpt lat="43.40518" lon="6.72809">
        <ele>0.3</ele>
        <time>2017-10-08T13:56:36Z</time>
      </trkpt>
      <trkpt lat="43.40528" lon="6.72798">
        <ele>0.3</ele>
        <time>2017-10-08T13:56:39Z</time>
      </trkpt>
      <trkpt lat="43.40548" lon="6.72778">
        <ele>0.2</ele>
        <time>2017-10-08T13:56:44Z</time>
      </trkpt>
      <trkpt lat="43.40577" lon="6.72749">
        <ele>2.7</ele>
        <time>2017-10-08T13:56:51Z</time>
      </trkpt>
      <trkpt lat="43.40605" lon="6.7272">
        <ele>0.6</ele>
        <time>2017-10-08T13:56:58Z</time>
      </trkpt>
      <trkpt lat="43.40651" lon="6.72675">
        <ele>0.4</ele>
        <time>2017-10-08T13:57:09Z</time>
      </trkpt>
      <trkpt lat="43.40676" lon="6.7265">
        <ele>-0.2</ele>
        <time>2017-10-08T13:57:15Z</time>
      </trkpt>
      <trkpt lat="43.40685" lon="6.72641">
        <ele>-0.1</ele>
        <time>2017-10-08T13:57:17Z</time>
      </trkpt>
      <trkpt lat="43.4072" lon="6.72608">
        <ele>0.3</ele>
        <time>2017-10-08T13:57:25Z</time>
      </trkpt>
      <trkpt lat="43.40732" lon="6.72595">
        <ele>0.2</ele>
        <time>2017-10-08T13:57:28Z</time>
      </trkpt>
      <trkpt lat="43.40752" lon="6.72576">
        <ele>0.6</ele>
        <time>2017-10-08T13:57:33Z</time>
      </trkpt>
      <trkpt lat="43.4078" lon="6.72547">
        <ele>2.6</ele>
        <time>2017-10-08T13:57:40Z</time>
      </trkpt>
      <trkpt lat="43.40784" lon="6.72543">
        <ele>2.4</ele>
        <time>2017-10-08T13:57:41Z</time>
      </trkpt>
      <trkpt lat="43.40812" lon="6.72515">
        <ele>2.5</ele>
        <time>2017-10-08T13:57:48Z</time>
      </trkpt>
      <trkpt lat="43.40823" lon="6.72503">
        <ele>2.6</ele>
        <time>2017-10-08T13:57:51Z</time>
      </trkpt>
      <trkpt lat="43.40833" lon="6.72493">
        <ele>2.7</ele>
        <time>2017-10-08T13:57:54Z</time>
      </trkpt>
      <trkpt lat="43.40841" lon="6.72486">
        <ele>2.5</ele>
        <time>2017-10-08T13:57:56Z</time>
      </trkpt>
      <trkpt lat="43.40863" lon="6.72463">
        <ele>2.7</ele>
        <time>2017-10-08T13:58:02Z</time>
      </trkpt>
      <trkpt lat="43.40871" lon="6.72456">
        <ele>2.7</ele>
        <time>2017-10-08T13:58:04Z</time>
      </trkpt>
      <trkpt lat="43.40894" lon="6.72436">
        <ele>0.3</ele>
        <time>2017-10-08T13:58:10Z</time>
      </trkpt>
      <trkpt lat="43.40905" lon="6.72425">
        <ele>0.9</ele>
        <time>2017-10-08T13:58:13Z</time>
      </trkpt>
      <trkpt lat="43.40918" lon="6.72423">
        <ele>1.2</ele>
        <time>2017-10-08T13:58:16Z</time>
      </trkpt>
      <trkpt lat="43.40934" lon="6.7242">
        <ele>1.4</ele>
        <time>2017-10-08T13:58:19Z</time>
      </trkpt>
      <trkpt lat="43.40943" lon="6.72417">
        <ele>1.5</ele>
        <time>2017-10-08T13:58:21Z</time>
      </trkpt>
      <trkpt lat="43.40948" lon="6.72415">
        <ele>1.6</ele>
        <time>2017-10-08T13:58:22Z</time>
      </trkpt>
      <trkpt lat="43.40981" lon="6.72411">
        <ele>1.8</ele>
        <time>2017-10-08T13:58:29Z</time>
      </trkpt>
      <trkpt lat="43.41007" lon="6.72412">
        <ele>1.9</ele>
        <time>2017-10-08T13:58:34Z</time>
      </trkpt>
      <trkpt lat="43.41022" lon="6.72414">
        <ele>2</ele>
        <time>2017-10-08T13:58:37Z</time>
      </trkpt>
      <trkpt lat="43.41031" lon="6.72417">
        <ele>2.1</ele>
        <time>2017-10-08T13:58:39Z</time>
      </trkpt>
      <trkpt lat="43.4105" lon="6.72425">
        <ele>2.3</ele>
        <time>2017-10-08T13:58:43Z</time>
      </trkpt>
      <trkpt lat="43.41055" lon="6.72429">
        <ele>2.3</ele>
        <time>2017-10-08T13:58:44Z</time>
      </trkpt>
      <trkpt lat="43.41059" lon="6.72432">
        <ele>2.4</ele>
        <time>2017-10-08T13:58:45Z</time>
      </trkpt>
      <trkpt lat="43.41073" lon="6.7244">
        <ele>2.6</ele>
        <time>2017-10-08T13:58:49Z</time>
      </trkpt>
      <trkpt lat="43.41088" lon="6.72438">
        <ele>2.9</ele>
        <time>2017-10-08T13:58:53Z</time>
      </trkpt>
      <trkpt lat="43.41092" lon="6.72441">
        <ele>3</ele>
        <time>2017-10-08T13:58:54Z</time>
      </trkpt>
      <trkpt lat="43.41109" lon="6.72447">
        <ele>2.5</ele>
        <time>2017-10-08T13:58:57Z</time>
      </trkpt>
      <trkpt lat="43.41115" lon="6.7245">
        <ele>2.4</ele>
        <time>2017-10-08T13:58:58Z</time>
      </trkpt>
      <trkpt lat="43.41132" lon="6.72457">
        <ele>2.3</ele>
        <time>2017-10-08T13:59:01Z</time>
      </trkpt>
      <trkpt lat="43.41143" lon="6.72462">
        <ele>2.5</ele>
        <time>2017-10-08T13:59:03Z</time>
      </trkpt>
      <trkpt lat="43.41157" lon="6.72467">
        <ele>3.2</ele>
        <time>2017-10-08T13:59:06Z</time>
      </trkpt>
      <trkpt lat="43.41158" lon="6.72472">
        <ele>3.2</ele>
        <time>2017-10-08T13:59:07Z</time>
      </trkpt>
      <trkpt lat="43.41156" lon="6.72484">
        <ele>3.2</ele>
        <time>2017-10-08T13:59:10Z</time>
      </trkpt>
      <trkpt lat="43.41154" lon="6.72486">
        <ele>3.3</ele>
        <time>2017-10-08T13:59:11Z</time>
      </trkpt>
      <trkpt lat="43.41153" lon="6.7249">
        <ele>3.3</ele>
        <time>2017-10-08T13:59:12Z</time>
      </trkpt>
      <trkpt lat="43.41148" lon="6.72501">
        <ele>3.6</ele>
        <time>2017-10-08T13:59:15Z</time>
      </trkpt>
      <trkpt lat="43.41145" lon="6.7251">
        <ele>3.8</ele>
        <time>2017-10-08T13:59:17Z</time>
      </trkpt>
      <trkpt lat="43.41143" lon="6.72526">
        <ele>4.5</ele>
        <time>2017-10-08T13:59:20Z</time>
      </trkpt>
      <trkpt lat="43.41143" lon="6.72542">
        <ele>5.4</ele>
        <time>2017-10-08T13:59:23Z</time>
      </trkpt>
      <trkpt lat="43.41139" lon="6.72565">
        <ele>5.4</ele>
        <time>2017-10-08T13:59:28Z</time>
      </trkpt>
      <trkpt lat="43.41137" lon="6.72569">
        <ele>5.3</ele>
        <time>2017-10-08T13:59:29Z</time>
      </trkpt>
      <trkpt lat="43.41137" lon="6.72577">
        <ele>5.3</ele>
        <time>2017-10-08T13:59:33Z</time>
      </trkpt>
      <trkpt lat="43.41141" lon="6.72576">
        <ele>6</ele>
        <time>2017-10-08T13:59:35Z</time>
      </trkpt>
      <trkpt lat="43.41144" lon="6.72576">
        <ele>6.3</ele>
        <time>2017-10-08T13:59:36Z</time>
      </trkpt>
      <trkpt lat="43.41161" lon="6.72573">
        <ele>7.4</ele>
        <time>2017-10-08T13:59:41Z</time>
      </trkpt>
      <trkpt lat="43.41169" lon="6.72571">
        <ele>7.6</ele>
        <time>2017-10-08T13:59:43Z</time>
      </trkpt>
      <trkpt lat="43.41192" lon="6.72568">
        <ele>7.4</ele>
        <time>2017-10-08T13:59:47Z</time>
      </trkpt>
      <trkpt lat="43.41197" lon="6.72569">
        <ele>7.3</ele>
        <time>2017-10-08T13:59:48Z</time>
      </trkpt>
      <trkpt lat="43.41207" lon="6.72571">
        <ele>7.2</ele>
        <time>2017-10-08T13:59:50Z</time>
      </trkpt>
      <trkpt lat="43.41228" lon="6.72574">
        <ele>6.9</ele>
        <time>2017-10-08T13:59:54Z</time>
      </trkpt>
      <trkpt lat="43.41232" lon="6.72575">
        <ele>6.9</ele>
        <time>2017-10-08T13:59:55Z</time>
      </trkpt>
      <trkpt lat="43.41253" lon="6.72578">
        <ele>6.9</ele>
        <time>2017-10-08T14:00:00Z</time>
      </trkpt>
      <trkpt lat="43.41286" lon="6.72592">
        <ele>6</ele>
        <time>2017-10-08T14:00:08Z</time>
      </trkpt>
      <trkpt lat="43.41311" lon="6.72606">
        <ele>6.1</ele>
        <time>2017-10-08T14:00:14Z</time>
      </trkpt>
      <trkpt lat="43.41316" lon="6.72608">
        <ele>6.2</ele>
        <time>2017-10-08T14:00:15Z</time>
      </trkpt>
      <trkpt lat="43.41323" lon="6.72612">
        <ele>6.3</ele>
        <time>2017-10-08T14:00:17Z</time>
      </trkpt>
      <trkpt lat="43.41342" lon="6.7262">
        <ele>5.6</ele>
        <time>2017-10-08T14:00:21Z</time>
      </trkpt>
      <trkpt lat="43.4135" lon="6.72625">
        <ele>5.1</ele>
        <time>2017-10-08T14:00:23Z</time>
      </trkpt>
      <trkpt lat="43.41358" lon="6.72632">
        <ele>4.9</ele>
        <time>2017-10-08T14:00:25Z</time>
      </trkpt>
      <trkpt lat="43.4136" lon="6.72634">
        <ele>5</ele>
        <time>2017-10-08T14:00:26Z</time>
      </trkpt>
      <trkpt lat="43.41363" lon="6.72638">
        <ele>5</ele>
        <time>2017-10-08T14:00:28Z</time>
      </trkpt>
      <trkpt lat="43.41366" lon="6.72644">
        <ele>5.2</ele>
        <time>2017-10-08T14:00:30Z</time>
      </trkpt>
      <trkpt lat="43.41374" lon="6.72661">
        <ele>4.9</ele>
        <time>2017-10-08T14:00:35Z</time>
      </trkpt>
      <trkpt lat="43.41388" lon="6.72668">
        <ele>5.2</ele>
        <time>2017-10-08T14:00:39Z</time>
      </trkpt>
      <trkpt lat="43.41403" lon="6.72686">
        <ele>6.1</ele>
        <time>2017-10-08T14:00:44Z</time>
      </trkpt>
      <trkpt lat="43.41411" lon="6.72688">
        <ele>6.1</ele>
        <time>2017-10-08T14:00:46Z</time>
      </trkpt>
      <trkpt lat="43.41419" lon="6.7269">
        <ele>6</ele>
        <time>2017-10-08T14:00:48Z</time>
      </trkpt>
      <trkpt lat="43.4144" lon="6.72695">
        <ele>5.4</ele>
        <time>2017-10-08T14:00:54Z</time>
      </trkpt>
      <trkpt lat="43.41448" lon="6.72705">
        <ele>5.6</ele>
        <time>2017-10-08T14:00:57Z</time>
      </trkpt>
      <trkpt lat="43.41455" lon="6.72722">
        <ele>6.2</ele>
        <time>2017-10-08T14:01:01Z</time>
      </trkpt>
      <trkpt lat="43.41453" lon="6.72727">
        <ele>6.3</ele>
        <time>2017-10-08T14:01:02Z</time>
      </trkpt>
      <trkpt lat="43.4145" lon="6.72731">
        <ele>6.4</ele>
        <time>2017-10-08T14:01:03Z</time>
      </trkpt>
      <trkpt lat="43.41442" lon="6.72739">
        <ele>6.4</ele>
        <time>2017-10-08T14:01:05Z</time>
      </trkpt>
      <trkpt lat="43.41439" lon="6.72743">
        <ele>6.4</ele>
        <time>2017-10-08T14:01:06Z</time>
      </trkpt>
      <trkpt lat="43.41432" lon="6.72752">
        <ele>6</ele>
        <time>2017-10-08T14:01:08Z</time>
      </trkpt>
      <trkpt lat="43.41417" lon="6.72772">
        <ele>4.6</ele>
        <time>2017-10-08T14:01:12Z</time>
      </trkpt>
      <trkpt lat="43.41414" lon="6.72776">
        <ele>4.3</ele>
        <time>2017-10-08T14:01:13Z</time>
      </trkpt>
      <trkpt lat="43.41386" lon="6.72812">
        <ele>3.3</ele>
        <time>2017-10-08T14:01:21Z</time>
      </trkpt>
      <trkpt lat="43.41379" lon="6.72821">
        <ele>3</ele>
        <time>2017-10-08T14:01:23Z</time>
      </trkpt>
      <trkpt lat="43.41368" lon="6.72832">
        <ele>2.5</ele>
        <time>2017-10-08T14:01:26Z</time>
      </trkpt>
      <trkpt lat="43.41363" lon="6.72836">
        <ele>2.4</ele>
        <time>2017-10-08T14:01:27Z</time>
      </trkpt>
      <trkpt lat="43.41336" lon="6.72868">
        <ele>2.5</ele>
        <time>2017-10-08T14:01:34Z</time>
      </trkpt>
      <trkpt lat="43.41332" lon="6.72873">
        <ele>2.8</ele>
        <time>2017-10-08T14:01:35Z</time>
      </trkpt>
      <trkpt lat="43.41319" lon="6.72896">
        <ele>3.2</ele>
        <time>2017-10-08T14:01:39Z</time>
      </trkpt>
      <trkpt lat="43.4129" lon="6.72932">
        <ele>3.4</ele>
        <time>2017-10-08T14:01:47Z</time>
      </trkpt>
      <trkpt lat="43.41259" lon="6.72962">
        <ele>4.7</ele>
        <time>2017-10-08T14:01:55Z</time>
      </trkpt>
      <trkpt lat="43.41256" lon="6.72967">
        <ele>4.6</ele>
        <time>2017-10-08T14:01:56Z</time>
      </trkpt>
      <trkpt lat="43.41254" lon="6.72979">
        <ele>4.2</ele>
        <time>2017-10-08T14:01:58Z</time>
      </trkpt>
      <trkpt lat="43.41255" lon="6.73002">
        <ele>3.7</ele>
        <time>2017-10-08T14:02:02Z</time>
      </trkpt>
      <trkpt lat="43.41244" lon="6.73015">
        <ele>3.2</ele>
        <time>2017-10-08T14:02:05Z</time>
      </trkpt>
      <trkpt lat="43.4122" lon="6.73047">
        <ele>0.9</ele>
        <time>2017-10-08T14:02:12Z</time>
      </trkpt>
      <trkpt lat="43.41194" lon="6.73085">
        <ele>1.9</ele>
        <time>2017-10-08T14:02:21Z</time>
      </trkpt>
      <trkpt lat="43.41167" lon="6.73127">
        <ele>1.5</ele>
        <time>2017-10-08T14:02:31Z</time>
      </trkpt>
      <trkpt lat="43.41166" lon="6.73131">
        <ele>1.2</ele>
        <time>2017-10-08T14:02:32Z</time>
      </trkpt>
      <trkpt lat="43.41169" lon="6.73137">
        <ele>1</ele>
        <time>2017-10-08T14:02:34Z</time>
      </trkpt>
      <trkpt lat="43.41179" lon="6.73148">
        <ele>0.7</ele>
        <time>2017-10-08T14:02:37Z</time>
      </trkpt>
      <trkpt lat="43.41183" lon="6.73152">
        <ele>0.5</ele>
        <time>2017-10-08T14:02:38Z</time>
      </trkpt>
      <trkpt lat="43.41194" lon="6.73165">
        <ele>1.1</ele>
        <time>2017-10-08T14:02:41Z</time>
      </trkpt>
      <trkpt lat="43.41212" lon="6.73186">
        <ele>3</ele>
        <time>2017-10-08T14:02:46Z</time>
      </trkpt>
      <trkpt lat="43.41218" lon="6.73193">
        <ele>2.9</ele>
        <time>2017-10-08T14:02:48Z</time>
      </trkpt>
      <trkpt lat="43.41222" lon="6.73212">
        <ele>2.2</ele>
        <time>2017-10-08T14:02:52Z</time>
      </trkpt>
      <trkpt lat="43.41216" lon="6.73223">
        <ele>1.9</ele>
        <time>2017-10-08T14:02:54Z</time>
      </trkpt>
      <trkpt lat="43.41212" lon="6.73229">
        <ele>1.8</ele>
        <time>2017-10-08T14:02:55Z</time>
      </trkpt>
      <trkpt lat="43.41199" lon="6.73243">
        <ele>1.7</ele>
        <time>2017-10-08T14:02:58Z</time>
      </trkpt>
      <trkpt lat="43.41186" lon="6.73262">
        <ele>1.5</ele>
        <time>2017-10-08T14:03:02Z</time>
      </trkpt>
      <trkpt lat="43.41168" lon="6.73302">
        <ele>1.4</ele>
        <time>2017-10-08T14:03:09Z</time>
      </trkpt>
      <trkpt lat="43.41165" lon="6.73308">
        <ele>1.4</ele>
        <time>2017-10-08T14:03:10Z</time>
      </trkpt>
      <trkpt lat="43.41146" lon="6.73347">
        <ele>1.3</ele>
        <time>2017-10-08T14:03:18Z</time>
      </trkpt>
      <trkpt lat="43.41135" lon="6.73381">
        <ele>1.2</ele>
        <time>2017-10-08T14:03:24Z</time>
      </trkpt>
      <trkpt lat="43.41129" lon="6.73401">
        <ele>1.1</ele>
        <time>2017-10-08T14:03:28Z</time>
      </trkpt>
      <trkpt lat="43.41113" lon="6.73452">
        <ele>1</ele>
        <time>2017-10-08T14:03:38Z</time>
      </trkpt>
      <trkpt lat="43.41113" lon="6.73457">
        <ele>1</ele>
        <time>2017-10-08T14:03:39Z</time>
      </trkpt>
      <trkpt lat="43.41119" lon="6.73476">
        <ele>1</ele>
        <time>2017-10-08T14:03:42Z</time>
      </trkpt>
      <trkpt lat="43.41121" lon="6.7348">
        <ele>1</ele>
        <time>2017-10-08T14:03:43Z</time>
      </trkpt>
      <trkpt lat="43.41129" lon="6.73492">
        <ele>1</ele>
        <time>2017-10-08T14:03:46Z</time>
      </trkpt>
      <trkpt lat="43.41134" lon="6.73495">
        <ele>1</ele>
        <time>2017-10-08T14:03:47Z</time>
      </trkpt>
      <trkpt lat="43.4115" lon="6.73503">
        <ele>0.9</ele>
        <time>2017-10-08T14:03:50Z</time>
      </trkpt>
      <trkpt lat="43.41155" lon="6.73506">
        <ele>0.9</ele>
        <time>2017-10-08T14:03:51Z</time>
      </trkpt>
      <trkpt lat="43.4117" lon="6.73518">
        <ele>0.8</ele>
        <time>2017-10-08T14:03:55Z</time>
      </trkpt>
      <trkpt lat="43.41181" lon="6.73526">
        <ele>0.7</ele>
        <time>2017-10-08T14:03:58Z</time>
      </trkpt>
      <trkpt lat="43.41188" lon="6.7353">
        <ele>0.7</ele>
        <time>2017-10-08T14:04:00Z</time>
      </trkpt>
      <trkpt lat="43.41195" lon="6.73535">
        <ele>0.6</ele>
        <time>2017-10-08T14:04:02Z</time>
      </trkpt>
      <trkpt lat="43.41204" lon="6.73537">
        <ele>0.6</ele>
        <time>2017-10-08T14:04:05Z</time>
      </trkpt>
      <trkpt lat="43.41222" lon="6.73537">
        <ele>0.6</ele>
        <time>2017-10-08T14:04:11Z</time>
      </trkpt>
      <trkpt lat="43.41239" lon="6.73522">
        <ele>0.5</ele>
        <time>2017-10-08T14:04:17Z</time>
      </trkpt>
      <trkpt lat="43.41245" lon="6.73512">
        <ele>0.5</ele>
        <time>2017-10-08T14:04:19Z</time>
      </trkpt>
      <trkpt lat="43.41253" lon="6.73497">
        <ele>-0.6</ele>
        <time>2017-10-08T14:04:22Z</time>
      </trkpt>
      <trkpt lat="43.41262" lon="6.73482">
        <ele>-0.6</ele>
        <time>2017-10-08T14:04:27Z</time>
      </trkpt>
      <trkpt lat="43.41272" lon="6.7347">
        <ele>0.2</ele>
        <time>2017-10-08T14:04:30Z</time>
      </trkpt>
      <trkpt lat="43.41277" lon="6.73467">
        <ele>0.4</ele>
        <time>2017-10-08T14:04:31Z</time>
      </trkpt>
      <trkpt lat="43.41283" lon="6.73465">
        <ele>1</ele>
        <time>2017-10-08T14:04:32Z</time>
      </trkpt>
      <trkpt lat="43.413" lon="6.73469">
        <ele>2.7</ele>
        <time>2017-10-08T14:04:35Z</time>
      </trkpt>
      <trkpt lat="43.41314" lon="6.73475">
        <ele>4</ele>
        <time>2017-10-08T14:04:38Z</time>
      </trkpt>
      <trkpt lat="43.41337" lon="6.73486">
        <ele>3.6</ele>
        <time>2017-10-08T14:04:43Z</time>
      </trkpt>
      <trkpt lat="43.41345" lon="6.73492">
        <ele>2.7</ele>
        <time>2017-10-08T14:04:46Z</time>
      </trkpt>
      <trkpt lat="43.41348" lon="6.73493">
        <ele>2.2</ele>
        <time>2017-10-08T14:04:47Z</time>
      </trkpt>
      <trkpt lat="43.41355" lon="6.73496">
        <ele>1.9</ele>
        <time>2017-10-08T14:04:50Z</time>
      </trkpt>
      <trkpt lat="43.41368" lon="6.735">
        <ele>1.3</ele>
        <time>2017-10-08T14:04:54Z</time>
      </trkpt>
      <trkpt lat="43.41374" lon="6.73501">
        <ele>1.1</ele>
        <time>2017-10-08T14:04:56Z</time>
      </trkpt>
      <trkpt lat="43.41385" lon="6.73502">
        <ele>1.1</ele>
        <time>2017-10-08T14:05:00Z</time>
      </trkpt>
      <trkpt lat="43.41404" lon="6.73506">
        <ele>0.6</ele>
        <time>2017-10-08T14:05:05Z</time>
      </trkpt>
      <trkpt lat="43.41417" lon="6.7351">
        <ele>0.6</ele>
        <time>2017-10-08T14:05:08Z</time>
      </trkpt>
      <trkpt lat="43.41436" lon="6.73514">
        <ele>1.6</ele>
        <time>2017-10-08T14:05:12Z</time>
      </trkpt>
      <trkpt lat="43.41472" lon="6.73523">
        <ele>1.4</ele>
        <time>2017-10-08T14:05:19Z</time>
      </trkpt>
      <trkpt lat="43.41482" lon="6.73525">
        <ele>1.1</ele>
        <time>2017-10-08T14:05:21Z</time>
      </trkpt>
      <trkpt lat="43.41526" lon="6.73536">
        <ele>-1.6</ele>
        <time>2017-10-08T14:05:30Z</time>
      </trkpt>
      <trkpt lat="43.41568" lon="6.73547">
        <ele>-3.5</ele>
        <time>2017-10-08T14:05:39Z</time>
      </trkpt>
      <trkpt lat="43.41572" lon="6.7355">
        <ele>-3.7</ele>
        <time>2017-10-08T14:05:40Z</time>
      </trkpt>
      <trkpt lat="43.41583" lon="6.73563">
        <ele>-4</ele>
        <time>2017-10-08T14:05:43Z</time>
      </trkpt>
      <trkpt lat="43.41593" lon="6.73575">
        <ele>-3.9</ele>
        <time>2017-10-08T14:05:46Z</time>
      </trkpt>
      <trkpt lat="43.41595" lon="6.7358">
        <ele>-3.5</ele>
        <time>2017-10-08T14:05:47Z</time>
      </trkpt>
      <trkpt lat="43.416" lon="6.73588">
        <ele>-2.4</ele>
        <time>2017-10-08T14:05:49Z</time>
      </trkpt>
      <trkpt lat="43.41603" lon="6.73592">
        <ele>-1.7</ele>
        <time>2017-10-08T14:05:50Z</time>
      </trkpt>
      <trkpt lat="43.41615" lon="6.73613">
        <ele>0.1</ele>
        <time>2017-10-08T14:05:55Z</time>
      </trkpt>
      <trkpt lat="43.41637" lon="6.73646">
        <ele>1.1</ele>
        <time>2017-10-08T14:06:03Z</time>
      </trkpt>
      <trkpt lat="43.41657" lon="6.73681">
        <ele>1.5</ele>
        <time>2017-10-08T14:06:11Z</time>
      </trkpt>
      <trkpt lat="43.41678" lon="6.73716">
        <ele>2</ele>
        <time>2017-10-08T14:06:18Z</time>
      </trkpt>
      <trkpt lat="43.41686" lon="6.73734">
        <ele>1.7</ele>
        <time>2017-10-08T14:06:21Z</time>
      </trkpt>
      <trkpt lat="43.41684" lon="6.73739">
        <ele>1.5</ele>
        <time>2017-10-08T14:06:22Z</time>
      </trkpt>
      <trkpt lat="43.41673" lon="6.7374">
        <ele>1.9</ele>
        <time>2017-10-08T14:06:25Z</time>
      </trkpt>
      <trkpt lat="43.41669" lon="6.73739">
        <ele>1.9</ele>
        <time>2017-10-08T14:06:26Z</time>
      </trkpt>
      <trkpt lat="43.41646" lon="6.73731">
        <ele>1.4</ele>
        <time>2017-10-08T14:06:31Z</time>
      </trkpt>
      <trkpt lat="43.4162" lon="6.73724">
        <ele>0.1</ele>
        <time>2017-10-08T14:06:37Z</time>
      </trkpt>
      <trkpt lat="43.41602" lon="6.73724">
        <ele>-0.2</ele>
        <time>2017-10-08T14:06:42Z</time>
      </trkpt>
      <trkpt lat="43.41605" lon="6.7374">
        <ele>0.1</ele>
        <time>2017-10-08T14:06:45Z</time>
      </trkpt>
      <trkpt lat="43.4161" lon="6.73758">
        <ele>1.1</ele>
        <time>2017-10-08T14:06:48Z</time>
      </trkpt>
      <trkpt lat="43.41612" lon="6.73764">
        <ele>1.4</ele>
        <time>2017-10-08T14:06:49Z</time>
      </trkpt>
      <trkpt lat="43.41616" lon="6.73776">
        <ele>2</ele>
        <time>2017-10-08T14:06:51Z</time>
      </trkpt>
      <trkpt lat="43.4162" lon="6.73788">
        <ele>2.5</ele>
        <time>2017-10-08T14:06:53Z</time>
      </trkpt>
      <trkpt lat="43.41626" lon="6.73809">
        <ele>3.1</ele>
        <time>2017-10-08T14:06:57Z</time>
      </trkpt>
      <trkpt lat="43.41627" lon="6.73828">
        <ele>2.7</ele>
        <time>2017-10-08T14:07:02Z</time>
      </trkpt>
      <trkpt lat="43.41627" lon="6.73841">
        <ele>2</ele>
        <time>2017-10-08T14:07:06Z</time>
      </trkpt>
      <trkpt lat="43.41626" lon="6.73844">
        <ele>2</ele>
        <time>2017-10-08T14:07:07Z</time>
      </trkpt>
      <trkpt lat="43.41621" lon="6.73848">
        <ele>1.5</ele>
        <time>2017-10-08T14:07:10Z</time>
      </trkpt>
      <trkpt lat="43.4162" lon="6.73852">
        <ele>1.5</ele>
        <time>2017-10-08T14:07:12Z</time>
      </trkpt>
      <trkpt lat="43.41629" lon="6.73879">
        <ele>0.2</ele>
        <time>2017-10-08T14:09:57Z</time>
      </trkpt>
      <trkpt lat="43.41632" lon="6.7388">
        <ele>0.3</ele>
        <time>2017-10-08T14:09:59Z</time>
      </trkpt>
      <trkpt lat="43.4164" lon="6.73891">
        <ele>0.7</ele>
        <time>2017-10-08T14:10:04Z</time>
      </trkpt>
      <trkpt lat="43.4165" lon="6.73896">
        <ele>1.2</ele>
        <time>2017-10-08T14:10:09Z</time>
      </trkpt>
      <trkpt lat="43.41658" lon="6.739">
        <ele>1.7</ele>
        <time>2017-10-08T14:10:17Z</time>
      </trkpt>
      <trkpt lat="43.41663" lon="6.73903">
        <ele>2</ele>
        <time>2017-10-08T14:10:20Z</time>
      </trkpt>
      <trkpt lat="43.41672" lon="6.73911">
        <ele>2.6</ele>
        <time>2017-10-08T14:10:38Z</time>
      </trkpt>
      <trkpt lat="43.41673" lon="6.73912">
        <ele>2.6</ele>
        <time>2017-10-08T14:10:39Z</time>
      </trkpt>
      <trkpt lat="43.4168" lon="6.73917">
        <ele>2.2</ele>
        <time>2017-10-08T14:10:53Z</time>
      </trkpt>
      <trkpt lat="43.41682" lon="6.73918">
        <ele>2.1</ele>
        <time>2017-10-08T14:10:55Z</time>
      </trkpt>
      <trkpt lat="43.41688" lon="6.73921">
        <ele>1.7</ele>
        <time>2017-10-08T14:10:59Z</time>
      </trkpt>
      <trkpt lat="43.41695" lon="6.73927">
        <ele>0.8</ele>
        <time>2017-10-08T14:11:04Z</time>
      </trkpt>
      <trkpt lat="43.41696" lon="6.73928">
        <ele>0.6</ele>
        <time>2017-10-08T14:11:05Z</time>
      </trkpt>
      <trkpt lat="43.41698" lon="6.73929">
        <ele>0.5</ele>
        <time>2017-10-08T14:11:06Z</time>
      </trkpt>
      <trkpt lat="43.41704" lon="6.73932">
        <ele>-0.1</ele>
        <time>2017-10-08T14:11:11Z</time>
      </trkpt>
      <trkpt lat="43.41709" lon="6.73936">
        <ele>-0.7</ele>
        <time>2017-10-08T14:11:18Z</time>
      </trkpt>
      <trkpt lat="43.41713" lon="6.7394">
        <ele>-1.2</ele>
        <time>2017-10-08T14:11:23Z</time>
      </trkpt>
      <trkpt lat="43.41716" lon="6.73942">
        <ele>-1.3</ele>
        <time>2017-10-08T14:11:25Z</time>
      </trkpt>
      <trkpt lat="43.4172" lon="6.73944">
        <ele>-1.8</ele>
        <time>2017-10-08T14:11:30Z</time>
      </trkpt>
      <trkpt lat="43.4172" lon="6.73944">
        <ele>-1.8</ele>
        <time>2017-10-08T14:11:31Z</time>
      </trkpt>
      <trkpt lat="43.4173" lon="6.73951">
        <ele>-2.1</ele>
        <time>2017-10-08T14:11:45Z</time>
      </trkpt>
      <trkpt lat="43.41733" lon="6.73954">
        <ele>-2.3</ele>
        <time>2017-10-08T14:11:48Z</time>
      </trkpt>
      <trkpt lat="43.4174" lon="6.7396">
        <ele>-2.4</ele>
        <time>2017-10-08T14:11:53Z</time>
      </trkpt>
      <trkpt lat="43.41742" lon="6.73962">
        <ele>-2.5</ele>
        <time>2017-10-08T14:11:55Z</time>
      </trkpt>
      <trkpt lat="43.41748" lon="6.73965">
        <ele>-2</ele>
        <time>2017-10-08T14:12:00Z</time>
      </trkpt>
      <trkpt lat="43.41749" lon="6.73967">
        <ele>-1.6</ele>
        <time>2017-10-08T14:12:01Z</time>
      </trkpt>
      <trkpt lat="43.41755" lon="6.7397">
        <ele>-1.4</ele>
        <time>2017-10-08T14:12:07Z</time>
      </trkpt>
      <trkpt lat="43.41757" lon="6.73971">
        <ele>-1.1</ele>
        <time>2017-10-08T14:12:09Z</time>
      </trkpt>
      <trkpt lat="43.4176" lon="6.73975">
        <ele>-1</ele>
        <time>2017-10-08T14:12:12Z</time>
      </trkpt>
      <trkpt lat="43.41765" lon="6.73978">
        <ele>-0.7</ele>
        <time>2017-10-08T14:12:17Z</time>
      </trkpt>
      <trkpt lat="43.41784" lon="6.73987">
        <ele>-0.9</ele>
        <time>2017-10-08T14:12:38Z</time>
      </trkpt>
      <trkpt lat="43.4179" lon="6.73984">
        <ele>-0.5</ele>
        <time>2017-10-08T14:12:41Z</time>
      </trkpt>
      <trkpt lat="43.41795" lon="6.73987">
        <ele>-0.7</ele>
        <time>2017-10-08T14:12:44Z</time>
      </trkpt>
      <trkpt lat="43.41798" lon="6.73989">
        <ele>-0.7</ele>
        <time>2017-10-08T14:12:46Z</time>
      </trkpt>
      <trkpt lat="43.41799" lon="6.73991">
        <ele>-0.9</ele>
        <time>2017-10-08T14:12:47Z</time>
      </trkpt>
      <trkpt lat="43.41798" lon="6.73994">
        <ele>-1.1</ele>
        <time>2017-10-08T14:12:50Z</time>
      </trkpt>
      <trkpt lat="43.41798" lon="6.73995">
        <ele>-1.1</ele>
        <time>2017-10-08T14:12:51Z</time>
      </trkpt>
      <trkpt lat="43.41798" lon="6.73999">
        <ele>-1.3</ele>
        <time>2017-10-08T14:12:54Z</time>
      </trkpt>
      <trkpt lat="43.41797" lon="6.74002">
        <ele>-1.3</ele>
        <time>2017-10-08T14:12:57Z</time>
      </trkpt>
      <trkpt lat="43.41797" lon="6.74004">
        <ele>-1.4</ele>
        <time>2017-10-08T14:12:59Z</time>
      </trkpt>
      <trkpt lat="43.41796" lon="6.74009">
        <ele>-1.5</ele>
        <time>2017-10-08T14:13:04Z</time>
      </trkpt>
      <trkpt lat="43.41793" lon="6.74015">
        <ele>-1.7</ele>
        <time>2017-10-08T14:13:10Z</time>
      </trkpt>
      <trkpt lat="43.41791" lon="6.74021">
        <ele>-1.8</ele>
        <time>2017-10-08T14:13:13Z</time>
      </trkpt>
      <trkpt lat="43.41791" lon="6.74039">
        <ele>-1.9</ele>
        <time>2017-10-08T14:13:19Z</time>
      </trkpt>
      <trkpt lat="43.41795" lon="6.74054">
        <ele>-1.9</ele>
        <time>2017-10-08T14:13:26Z</time>
      </trkpt>
      <trkpt lat="43.41807" lon="6.74064">
        <ele>-1.8</ele>
        <time>2017-10-08T14:13:33Z</time>
      </trkpt>
      <trkpt lat="43.41823" lon="6.74072">
        <ele>-1.5</ele>
        <time>2017-10-08T14:13:41Z</time>
      </trkpt>
      <trkpt lat="43.41825" lon="6.74078">
        <ele>-1.5</ele>
        <time>2017-10-08T14:13:51Z</time>
      </trkpt>
      <trkpt lat="43.41824" lon="6.74078">
        <ele>-1.5</ele>
        <time>2017-10-08T14:13:52Z</time>
      </trkpt>
      <trkpt lat="43.41819" lon="6.74071">
        <ele>-1.6</ele>
        <time>2017-10-08T14:13:56Z</time>
      </trkpt>
      <trkpt lat="43.41818" lon="6.74068">
        <ele>-1.6</ele>
        <time>2017-10-08T14:13:57Z</time>
      </trkpt>
      <trkpt lat="43.41816" lon="6.74066">
        <ele>-1.6</ele>
        <time>2017-10-08T14:13:58Z</time>
      </trkpt>
      <trkpt lat="43.41811" lon="6.74066">
        <ele>-1.7</ele>
        <time>2017-10-08T14:14:00Z</time>
      </trkpt>
      <trkpt lat="43.41809" lon="6.74066">
        <ele>-1.7</ele>
        <time>2017-10-08T14:14:01Z</time>
      </trkpt>
      <trkpt lat="43.41804" lon="6.74069">
        <ele>-1.8</ele>
        <time>2017-10-08T14:14:03Z</time>
      </trkpt>
      <trkpt lat="43.41795" lon="6.7407">
        <ele>-2</ele>
        <time>2017-10-08T14:14:06Z</time>
      </trkpt>
      <trkpt lat="43.41783" lon="6.74083">
        <ele>-0.8</ele>
        <time>2017-10-08T14:14:12Z</time>
      </trkpt>
      <trkpt lat="43.41774" lon="6.741">
        <ele>1.9</ele>
        <time>2017-10-08T14:14:17Z</time>
      </trkpt>
      <trkpt lat="43.41772" lon="6.7412">
        <ele>4.2</ele>
        <time>2017-10-08T14:14:24Z</time>
      </trkpt>
      <trkpt lat="43.41779" lon="6.74129">
        <ele>4.3</ele>
        <time>2017-10-08T14:14:28Z</time>
      </trkpt>
      <trkpt lat="43.41788" lon="6.7414">
        <ele>4.7</ele>
        <time>2017-10-08T14:14:33Z</time>
      </trkpt>
      <trkpt lat="43.4179" lon="6.74143">
        <ele>4.5</ele>
        <time>2017-10-08T14:14:34Z</time>
      </trkpt>
      <trkpt lat="43.41797" lon="6.7416">
        <ele>5.3</ele>
        <time>2017-10-08T14:14:39Z</time>
      </trkpt>
      <trkpt lat="43.41798" lon="6.74163">
        <ele>5.5</ele>
        <time>2017-10-08T14:14:40Z</time>
      </trkpt>
      <trkpt lat="43.41799" lon="6.74168">
        <ele>5.6</ele>
        <time>2017-10-08T14:14:42Z</time>
      </trkpt>
      <trkpt lat="43.41803" lon="6.74175">
        <ele>5.8</ele>
        <time>2017-10-08T14:14:46Z</time>
      </trkpt>
      <trkpt lat="43.41805" lon="6.7418">
        <ele>5.9</ele>
        <time>2017-10-08T14:14:49Z</time>
      </trkpt>
      <trkpt lat="43.41809" lon="6.74186">
        <ele>6.1</ele>
        <time>2017-10-08T14:14:52Z</time>
      </trkpt>
      <trkpt lat="43.41806" lon="6.74193">
        <ele>6.3</ele>
        <time>2017-10-08T14:14:57Z</time>
      </trkpt>
    </trkseg>
  </trk>
</gpx>